GEFSCGP_prec_meanprecacc_006.txt.gz
Total_Precipitation_Accumulation
0.00 0.00 0.00 0.00 0.00 0.00 0.00 0.00 0.00 0.00 0.00 0.00 0.00 0.00 0.00 0.00 0.00 0.00 0.00 0.00 0.00 0.00 0.00 0.00 0.00 0.00 0.00 0.00 0.00 0.00 0.00 0.00 0.01 0.00 0.00 0.00 0.00 0.00 0.00 0.00 0.00 0.00 0.00 0.00
0.00 0.00 0.00 0.00 0.00 0.00 0.00 0.01 0.01 0.00 0.00 0.00 0.00 0.00 0.00 0.00 0.00 0.00 0.00 0.00 0.00 0.00 0.00 0.00 0.00 0.00 0.00 0.00 0.00 0.00 0.00 0.00 0.01 0.01 0.00 0.00 0.00 0.00 0.00 0.00 0.00 0.00 0.00 0.00
0.00 0.00 0.00 0.00 0.00 0.00 0.00 0.00 0.00 0.00 0.00 0.00 0.00 0.00 0.00 0.00 0.00 0.00 0.00 0.00 0.00 0.00 0.00 0.00 0.00 0.00 0.00 0.00 0.00 0.00 0.00 0.00 0.01 0.01 0.01 0.00 0.00 0.00 0.00 0.00 0.00 0.00 0.00 0.00
0.00 0.00 0.00 0.00 0.00 0.00 0.00 0.00 0.00 0.00 0.00 0.00 0.00 0.00 0.00 0.00 0.00 0.00 0.00 0.00 0.00 0.00 0.00 0.00 0.00 0.00 0.00 0.00 0.00 0.00 0.00 0.00 0.00 0.00 0.00 0.00 0.00 0.00 0.00 0.00 0.00 0.00 0.00 0.00
0.00 0.00 0.00 0.00 0.00 0.00 0.00 0.00 0.00 0.01 0.01 0.01 0.00 0.01 0.00 0.00 0.00 0.00 0.00 0.00 0.00 0.00 0.00 0.00 0.00 0.00 0.00 0.00 0.00 0.00 0.00 0.00 0.00 0.00 0.00 0.00 0.00 0.00 0.00 0.00 0.00 0.00 0.00 0.00
0.00 0.00 0.00 0.00 0.00 0.00 0.00 0.01 0.02 0.01 0.03 0.03 0.00 0.00 0.00 0.00 0.00 0.00 0.00 0.00 0.00 0.00 0.00 0.00 0.00 0.00 0.00 0.00 0.00 0.00 0.00 0.00 0.00 0.00 0.00 0.00 0.00 0.00 0.00 0.00 0.00 0.00 0.00 0.00
0.03 0.01 0.00 0.00 0.00 0.00 0.00 0.04 0.09 0.08 0.06 0.02 0.00 0.00 0.00 0.00 0.00 0.00 0.00 0.00 0.00 0.00 0.00 0.00 0.00 0.00 0.00 0.00 0.00 0.00 0.00 0.00 0.00 0.00 0.00 0.00 0.00 0.00 0.00 0.00 0.00 0.00 0.00 0.00
0.06 0.02 0.00 0.00 0.00 0.00 0.00 0.01 0.04 0.05 0.03 0.01 0.00 0.00 0.00 0.00 0.00 0.00 0.00 0.00 0.00 0.00 0.00 0.00 0.00 0.00 0.00 0.00 0.00 0.00 0.00 0.00 0.00 0.00 0.00 0.00 0.00 0.00 0.00 0.00 0.00 0.00 0.00 0.00
0.04 0.01 0.00 0.00 0.00 0.01 0.03 0.03 0.01 0.05 0.07 0.05 0.01 0.00 0.00 0.00 0.00 0.00 0.00 0.00 0.00 0.00 0.00 0.00 0.00 0.00 0.00 0.00 0.00 0.00 0.00 0.00 0.00 0.00 0.00 0.00 0.00 0.00 0.00 0.00 0.00 0.00 0.00 0.00
0.02 0.03 0.00 0.00 0.01 0.02 0.02 0.02 0.05 0.13 0.09 0.04 0.01 0.00 0.00 0.00 0.00 0.00 0.00 0.00 0.00 0.00 0.00 0.00 0.00 0.00 0.00 0.00 0.00 0.00 0.00 0.00 0.00 0.00 0.00 0.00 0.00 0.00 0.00 0.00 0.00 0.00 0.00 0.00
0.03 0.06 0.03 0.01 0.01 0.01 0.02 0.04 0.05 0.05 0.02 0.02 0.02 0.01 0.01 0.01 0.00 0.00 0.00 0.00 0.00 0.00 0.00 0.00 0.00 0.00 0.00 0.00 0.00 0.00 0.00 0.00 0.00 0.00 0.00 0.00 0.00 0.00 0.00 0.00 0.00 0.00 0.00 0.00
0.01 0.05 0.05 0.01 0.01 0.02 0.02 0.01 0.02 0.03 0.01 0.00 0.01 0.01 0.01 0.02 0.01 0.00 0.00 0.01 0.01 0.00 0.00 0.00 0.00 0.00 0.00 0.00 0.00 0.00 0.00 0.00 0.00 0.00 0.00 0.00 0.00 0.00 0.00 0.00 0.00 0.00 0.00 0.00
0.02 0.07 0.10 0.07 0.07 0.08 0.08 0.03 0.02 0.02 0.02 0.01 0.01 0.02 0.01 0.02 0.02 0.01 0.00 0.00 0.01 0.00 0.00 0.00 0.00 0.00 0.00 0.00 0.00 0.00 0.00 0.00 0.00 0.00 0.00 0.00 0.00 0.00 0.00 0.00 0.00 0.00 0.00 0.00
0.13 0.13 0.09 0.09 0.11 0.15 0.12 0.04 0.02 0.03 0.03 0.01 0.01 0.03 0.03 0.03 0.03 0.01 0.01 0.01 0.01 0.01 0.00 0.00 0.00 0.00 0.00 0.00 0.00 0.00 0.00 0.00 0.00 0.00 0.00 0.00 0.00 0.00 0.00 0.00 0.00 0.00 0.00 0.00
0.19 0.18 0.11 0.13 0.16 0.20 0.13 0.06 0.03 0.03 0.01 0.01 0.02 0.04 0.05 0.04 0.03 0.01 0.01 0.01 0.00 0.00 0.00 0.00 0.00 0.00 0.00 0.00 0.00 0.00 0.00 0.00 0.00 0.00 0.00 0.00 0.00 0.00 0.00 0.00 0.00 0.00 0.00 0.00
0.18 0.20 0.19 0.22 0.19 0.20 0.12 0.05 0.03 0.03 0.03 0.02 0.01 0.03 0.03 0.02 0.01 0.01 0.00 0.00 0.00 0.00 0.00 0.00 0.00 0.00 0.00 0.00 0.00 0.00 0.00 0.00 0.00 0.00 0.00 0.00 0.00 0.00 0.00 0.00 0.00 0.00 0.00 0.00
0.25 0.30 0.38 0.37 0.19 0.16 0.12 0.05 0.04 0.06 0.04 0.02 0.01 0.02 0.01 0.00 0.00 0.00 0.00 0.00 0.00 0.00 0.00 0.00 0.00 0.00 0.00 0.00 0.00 0.00 0.00 0.00 0.00 0.00 0.00 0.00 0.00 0.00 0.00 0.00 0.00 0.00 0.00 0.00
0.15 0.25 0.38 0.42 0.26 0.17 0.11 0.10 0.09 0.08 0.05 0.03 0.01 0.01 0.00 0.00 0.00 0.00 0.00 0.00 0.00 0.00 0.00 0.00 0.00 0.00 0.00 0.00 0.00 0.00 0.00 0.00 0.00 0.00 0.00 0.00 0.00 0.00 0.00 0.00 0.00 0.00 0.00 0.00
0.03 0.11 0.16 0.17 0.11 0.05 0.04 0.07 0.08 0.08 0.05 0.02 0.01 0.00 0.00 0.00 0.00 0.00 0.00 0.00 0.00 0.00 0.00 0.00 0.00 0.00 0.00 0.00 0.00 0.00 0.00 0.00 0.00 0.00 0.00 0.00 0.00 0.00 0.00 0.00 0.00 0.00 0.00 0.00
0.00 0.02 0.02 0.02 0.01 0.01 0.00 0.01 0.02 0.02 0.02 0.00 0.00 0.00 0.00 0.00 0.01 0.01 0.01 0.00 0.00 0.00 0.00 0.00 0.00 0.00 0.00 0.00 0.00 0.00 0.00 0.00 0.00 0.00 0.00 0.00 0.00 0.00 0.00 0.00 0.00 0.00 0.00 0.00
0.00 0.00 0.00 0.00 0.00 0.00 0.00 0.00 0.00 0.00 0.00 0.00 0.00 0.00 0.00 0.00 0.01 0.01 0.00 0.00 0.00 0.00 0.00 0.00 0.00 0.00 0.00 0.00 0.00 0.00 0.00 0.00 0.00 0.00 0.00 0.00 0.00 0.00 0.00 0.00 0.00 0.00 0.00 0.00
0.00 0.00 0.00 0.00 0.00 0.00 0.00 0.00 0.00 0.00 0.00 0.00 0.00 0.00 0.00 0.00 0.00 0.00 0.00 0.00 0.00 0.00 0.00 0.00 0.00 0.00 0.00 0.00 0.00 0.00 0.00 0.00 0.00 0.00 0.00 0.00 0.00 0.00 0.00 0.00 0.00 0.00 0.00 0.00
0.00 0.00 0.00 0.00 0.00 0.00 0.00 0.00 0.00 0.00 0.00 0.00 0.00 0.00 0.00 0.00 0.00 0.00 0.00 0.00 0.00 0.00 0.00 0.00 0.00 0.00 0.00 0.00 0.00 0.00 0.00 0.00 0.00 0.00 0.00 0.00 0.00 0.00 0.00 0.00 0.00 0.00 0.00 0.00
0.00 0.00 0.00 0.00 0.00 0.00 0.00 0.00 0.00 0.00 0.00 0.00 0.00 0.00 0.00 0.00 0.00 0.00 0.00 0.00 0.00 0.00 0.00 0.00 0.00 0.00 0.00 0.00 0.00 0.00 0.00 0.00 0.00 0.00 0.00 0.00 0.00 0.00 0.00 0.00 0.00 0.00 0.00 0.00
0.00 0.00 0.00 0.00 0.00 0.00 0.00 0.00 0.00 0.00 0.00 0.00 0.00 0.00 0.00 0.00 0.00 0.00 0.00 0.00 0.00 0.00 0.00 0.00 0.00 0.00 0.00 0.00 0.00 0.00 0.00 0.00 0.00 0.00 0.00 0.00 0.00 0.00 0.00 0.00 0.00 0.00 0.00 0.00
0.00 0.00 0.00 0.00 0.00 0.00 0.00 0.00 0.00 0.00 0.00 0.00 0.00 0.00 0.00 0.00 0.00 0.00 0.00 0.00 0.00 0.00 0.00 0.00 0.00 0.00 0.00 0.00 0.00 0.00 0.00 0.00 0.00 0.00 0.00 0.00 0.00 0.00 0.00 0.00 0.00 0.00 0.00 0.00

GEFSCGP_prec_meanprecacc_012.txt.gz
Total_Precipitation_Accumulation
0.00 0.00 0.01 0.00 0.00 0.00 0.00 0.00 0.00 0.00 0.00 0.00 0.00 0.00 0.00 0.00 0.00 0.00 0.00 0.00 0.00 0.00 0.00 0.00 0.00 0.00 0.00 0.00 0.00 0.00 0.00 0.00 0.01 0.03 0.05 0.04 0.02 0.02 0.01 0.01 0.00 0.00 0.00 0.00
0.00 0.00 0.00 0.00 0.00 0.00 0.00 0.01 0.01 0.00 0.00 0.00 0.00 0.00 0.00 0.00 0.00 0.00 0.00 0.00 0.00 0.00 0.00 0.00 0.00 0.00 0.00 0.00 0.00 0.00 0.00 0.00 0.02 0.04 0.07 0.07 0.04 0.02 0.01 0.01 0.00 0.00 0.00 0.00
0.00 0.00 0.00 0.00 0.00 0.00 0.00 0.00 0.01 0.00 0.00 0.00 0.00 0.00 0.00 0.00 0.00 0.00 0.00 0.00 0.00 0.00 0.00 0.00 0.00 0.00 0.00 0.00 0.00 0.00 0.00 0.01 0.02 0.04 0.05 0.05 0.03 0.01 0.00 0.00 0.00 0.00 0.00 0.00
0.00 0.00 0.00 0.00 0.00 0.00 0.00 0.00 0.00 0.00 0.01 0.00 0.00 0.00 0.00 0.00 0.00 0.00 0.00 0.00 0.00 0.00 0.00 0.00 0.00 0.00 0.00 0.00 0.00 0.00 0.00 0.01 0.02 0.03 0.05 0.04 0.02 0.01 0.00 0.00 0.00 0.00 0.00 0.00
0.00 0.00 0.00 0.00 0.00 0.00 0.00 0.00 0.00 0.01 0.02 0.02 0.00 0.01 0.00 0.00 0.00 0.00 0.00 0.00 0.00 0.00 0.00 0.00 0.00 0.00 0.00 0.00 0.00 0.00 0.00 0.00 0.01 0.02 0.06 0.06 0.02 0.01 0.00 0.00 0.00 0.00 0.00 0.00
0.00 0.00 0.00 0.00 0.00 0.00 0.00 0.02 0.03 0.03 0.07 0.07 0.01 0.01 0.00 0.00 0.00 0.00 0.00 0.00 0.00 0.00 0.00 0.00 0.00 0.00 0.00 0.00 0.00 0.00 0.00 0.00 0.00 0.01 0.03 0.02 0.00 0.00 0.00 0.00 0.00 0.00 0.00 0.00
0.04 0.01 0.00 0.00 0.00 0.00 0.01 0.08 0.15 0.13 0.12 0.04 0.00 0.00 0.00 0.00 0.00 0.00 0.00 0.00 0.00 0.00 0.00 0.00 0.00 0.00 0.00 0.00 0.00 0.00 0.00 0.00 0.00 0.01 0.01 0.01 0.01 0.00 0.00 0.00 0.00 0.00 0.00 0.00
0.07 0.02 0.00 0.00 0.00 0.00 0.01 0.04 0.08 0.08 0.04 0.01 0.00 0.00 0.00 0.00 0.00 0.00 0.00 0.00 0.00 0.00 0.00 0.00 0.00 0.00 0.00 0.00 0.00 0.00 0.00 0.00 0.00 0.00 0.00 0.01 0.01 0.00 0.00 0.00 0.00 0.00 0.00 0.00
0.04 0.01 0.00 0.00 0.00 0.01 0.05 0.06 0.03 0.13 0.14 0.08 0.02 0.00 0.00 0.00 0.00 0.00 0.00 0.00 0.00 0.00 0.00 0.00 0.00 0.00 0.00 0.00 0.00 0.00 0.00 0.00 0.00 0.00 0.00 0.00 0.00 0.00 0.00 0.00 0.00 0.00 0.00 0.00
0.02 0.03 0.00 0.00 0.01 0.02 0.03 0.04 0.11 0.27 0.19 0.08 0.02 0.00 0.00 0.00 0.00 0.00 0.00 0.00 0.00 0.00 0.00 0.00 0.00 0.00 0.00 0.00 0.00 0.00 0.00 0.00 0.00 0.00 0.00 0.00 0.00 0.00 0.00 0.00 0.00 0.00 0.00 0.00
0.03 0.07 0.03 0.01 0.01 0.01 0.03 0.07 0.12 0.15 0.09 0.05 0.03 0.01 0.01 0.01 0.00 0.00 0.00 0.00 0.00 0.00 0.00 0.00 0.00 0.00 0.00 0.00 0.00 0.00 0.00 0.00 0.00 0.00 0.00 0.00 0.00 0.00 0.00 0.00 0.00 0.00 0.00 0.00
0.01 0.07 0.06 0.01 0.01 0.02 0.03 0.03 0.07 0.15 0.08 0.05 0.03 0.01 0.01 0.02 0.02 0.01 0.00 0.01 0.01 0.00 0.00 0.00 0.00 0.00 0.00 0.00 0.00 0.00 0.00 0.00 0.00 0.00 0.00 0.00 0.00 0.00 0.00 0.00 0.00 0.00 0.00 0.00
0.03 0.09 0.12 0.09 0.09 0.11 0.12 0.06 0.06 0.13 0.16 0.10 0.06 0.02 0.01 0.02 0.02 0.01 0.00 0.00 0.01 0.00 0.00 0.00 0.00 0.00 0.00 0.00 0.00 0.00 0.00 0.00 0.00 0.00 0.00 0.00 0.00 0.00 0.00 0.00 0.00 0.00 0.00 0.00
0.15 0.16 0.13 0.12 0.14 0.25 0.26 0.11 0.09 0.24 0.24 0.06 0.02 0.03 0.03 0.04 0.04 0.02 0.02 0.01 0.01 0.01 0.00 0.00 0.00 0.00 0.00 0.00 0.00 0.00 0.00 0.00 0.00 0.00 0.00 0.00 0.00 0.00 0.00 0.00 0.00 0.00 0.00 0.00
0.23 0.25 0.15 0.17 0.24 0.39 0.34 0.19 0.15 0.18 0.08 0.03 0.02 0.04 0.05 0.06 0.06 0.06 0.05 0.03 0.01 0.00 0.00 0.00 0.00 0.00 0.00 0.00 0.00 0.00 0.00 0.00 0.01 0.00 0.00 0.00 0.00 0.00 0.00 0.00 0.00 0.00 0.00 0.00
0.22 0.27 0.24 0.27 0.25 0.36 0.29 0.13 0.10 0.10 0.05 0.03 0.02 0.05 0.05 0.07 0.09 0.10 0.08 0.04 0.01 0.01 0.00 0.00 0.00 0.00 0.00 0.00 0.01 0.01 0.02 0.01 0.01 0.00 0.00 0.00 0.00 0.00 0.00 0.00 0.00 0.00 0.00 0.00
0.28 0.38 0.51 0.44 0.23 0.26 0.21 0.09 0.08 0.08 0.05 0.03 0.03 0.04 0.05 0.09 0.12 0.09 0.05 0.03 0.01 0.01 0.01 0.00 0.00 0.00 0.00 0.01 0.02 0.04 0.03 0.01 0.00 0.00 0.00 0.00 0.00 0.00 0.00 0.00 0.00 0.00 0.00 0.00
0.16 0.33 0.54 0.52 0.35 0.32 0.20 0.14 0.12 0.09 0.06 0.03 0.02 0.01 0.02 0.03 0.03 0.03 0.02 0.02 0.01 0.01 0.01 0.01 0.00 0.00 0.00 0.01 0.02 0.02 0.01 0.00 0.00 0.00 0.00 0.00 0.00 0.00 0.00 0.00 0.00 0.00 0.00 0.00
0.04 0.18 0.32 0.29 0.24 0.14 0.07 0.08 0.10 0.09 0.06 0.02 0.01 0.00 0.00 0.00 0.01 0.01 0.01 0.01 0.01 0.01 0.00 0.00 0.00 0.00 0.00 0.01 0.01 0.00 0.00 0.00 0.00 0.00 0.00 0.00 0.00 0.00 0.00 0.00 0.00 0.00 0.00 0.00
0.01 0.04 0.11 0.09 0.08 0.05 0.03 0.02 0.02 0.03 0.02 0.00 0.00 0.00 0.00 0.00 0.01 0.01 0.01 0.00 0.00 0.00 0.00 0.00 0.00 0.00 0.00 0.00 0.00 0.00 0.00 0.00 0.00 0.00 0.00 0.00 0.00 0.00 0.00 0.00 0.00 0.00 0.00 0.00
0.00 0.01 0.02 0.02 0.02 0.01 0.00 0.00 0.00 0.01 0.01 0.00 0.00 0.00 0.00 0.00 0.01 0.01 0.00 0.00 0.00 0.00 0.00 0.00 0.00 0.00 0.00 0.00 0.00 0.00 0.00 0.00 0.00 0.00 0.00 0.00 0.00 0.00 0.00 0.00 0.00 0.00 0.00 0.00
0.00 0.00 0.00 0.00 0.00 0.00 0.00 0.00 0.00 0.00 0.00 0.00 0.00 0.00 0.01 0.01 0.01 0.01 0.00 0.00 0.00 0.00 0.00 0.00 0.00 0.00 0.00 0.00 0.00 0.00 0.00 0.00 0.00 0.00 0.00 0.00 0.00 0.00 0.00 0.00 0.00 0.00 0.00 0.00
0.00 0.00 0.00 0.00 0.00 0.00 0.00 0.00 0.00 0.00 0.00 0.00 0.00 0.00 0.01 0.01 0.01 0.01 0.00 0.00 0.00 0.00 0.00 0.00 0.00 0.00 0.00 0.00 0.00 0.00 0.00 0.00 0.00 0.00 0.00 0.00 0.00 0.00 0.00 0.00 0.00 0.00 0.00 0.00
0.00 0.00 0.00 0.00 0.00 0.00 0.00 0.00 0.00 0.00 0.00 0.00 0.00 0.01 0.00 0.00 0.00 0.01 0.00 0.00 0.00 0.00 0.00 0.00 0.00 0.00 0.00 0.00 0.00 0.00 0.00 0.00 0.00 0.00 0.00 0.00 0.00 0.00 0.00 0.00 0.00 0.00 0.00 0.00
0.00 0.00 0.00 0.00 0.00 0.00 0.00 0.00 0.00 0.00 0.00 0.00 0.00 0.00 0.00 0.00 0.00 0.00 0.00 0.00 0.00 0.00 0.00 0.00 0.00 0.00 0.00 0.00 0.00 0.00 0.00 0.00 0.00 0.00 0.00 0.00 0.00 0.00 0.00 0.00 0.00 0.00 0.00 0.00
0.00 0.00 0.00 0.00 0.00 0.00 0.00 0.00 0.00 0.00 0.00 0.00 0.00 0.00 0.00 0.00 0.00 0.00 0.00 0.00 0.00 0.00 0.00 0.00 0.00 0.00 0.00 0.00 0.00 0.00 0.00 0.00 0.00 0.00 0.00 0.00 0.00 0.00 0.00 0.00 0.00 0.00 0.00 0.00

GEFSCGP_prec_meanprecacc_018.txt.gz
Total_Precipitation_Accumulation
0.01 0.01 0.01 0.00 0.00 0.00 0.00 0.00 0.00 0.00 0.00 0.00 0.00 0.00 0.00 0.00 0.00 0.00 0.00 0.00 0.00 0.00 0.00 0.00 0.00 0.00 0.00 0.00 0.00 0.00 0.00 0.00 0.02 0.04 0.05 0.05 0.04 0.04 0.03 0.02 0.02 0.01 0.00 0.00
0.01 0.00 0.00 0.00 0.00 0.00 0.00 0.01 0.01 0.00 0.00 0.00 0.00 0.00 0.00 0.00 0.00 0.00 0.00 0.00 0.00 0.00 0.00 0.00 0.00 0.00 0.00 0.00 0.00 0.00 0.00 0.00 0.02 0.04 0.07 0.07 0.06 0.05 0.04 0.03 0.02 0.01 0.00 0.00
0.00 0.00 0.00 0.00 0.00 0.00 0.00 0.00 0.01 0.00 0.00 0.00 0.00 0.00 0.00 0.00 0.00 0.00 0.00 0.00 0.00 0.00 0.00 0.00 0.00 0.00 0.00 0.00 0.00 0.00 0.00 0.01 0.03 0.04 0.06 0.05 0.04 0.02 0.02 0.02 0.01 0.01 0.01 0.00
0.01 0.00 0.00 0.00 0.00 0.00 0.00 0.00 0.00 0.00 0.01 0.00 0.00 0.00 0.00 0.00 0.00 0.00 0.00 0.00 0.00 0.00 0.00 0.00 0.00 0.00 0.00 0.00 0.00 0.00 0.00 0.01 0.02 0.03 0.05 0.04 0.04 0.03 0.02 0.03 0.04 0.02 0.01 0.01
0.01 0.00 0.00 0.00 0.00 0.00 0.00 0.00 0.00 0.01 0.02 0.02 0.00 0.01 0.00 0.00 0.00 0.00 0.00 0.00 0.00 0.00 0.00 0.00 0.00 0.00 0.00 0.00 0.00 0.00 0.00 0.01 0.01 0.02 0.06 0.07 0.04 0.02 0.02 0.03 0.03 0.02 0.01 0.00
0.00 0.00 0.00 0.00 0.00 0.00 0.00 0.02 0.03 0.03 0.08 0.08 0.01 0.01 0.00 0.00 0.00 0.00 0.00 0.00 0.00 0.00 0.00 0.00 0.00 0.00 0.00 0.00 0.00 0.00 0.00 0.00 0.00 0.01 0.03 0.02 0.01 0.01 0.01 0.03 0.03 0.02 0.01 0.00
0.04 0.01 0.00 0.00 0.00 0.00 0.01 0.08 0.15 0.13 0.14 0.05 0.00 0.00 0.00 0.00 0.00 0.00 0.00 0.00 0.00 0.00 0.00 0.00 0.00 0.00 0.00 0.00 0.00 0.00 0.00 0.00 0.00 0.01 0.01 0.01 0.01 0.02 0.04 0.06 0.05 0.03 0.01 0.01
0.07 0.02 0.00 0.00 0.00 0.00 0.01 0.04 0.08 0.08 0.04 0.01 0.00 0.00 0.00 0.00 0.00 0.00 0.00 0.00 0.00 0.00 0.00 0.00 0.00 0.00 0.00 0.00 0.00 0.00 0.00 0.00 0.00 0.00 0.01 0.01 0.02 0.02 0.03 0.05 0.06 0.04 0.02 0.01
0.04 0.01 0.00 0.00 0.00 0.01 0.05 0.07 0.03 0.14 0.14 0.09 0.02 0.00 0.00 0.00 0.00 0.00 0.00 0.00 0.00 0.00 0.00 0.00 0.00 0.00 0.00 0.00 0.00 0.00 0.00 0.00 0.00 0.00 0.00 0.01 0.02 0.02 0.02 0.03 0.03 0.02 0.01 0.00
0.02 0.03 0.00 0.00 0.01 0.02 0.03 0.05 0.12 0.30 0.21 0.09 0.02 0.00 0.00 0.00 0.00 0.00 0.00 0.00 0.00 0.00 0.00 0.00 0.00 0.00 0.00 0.00 0.00 0.00 0.01 0.01 0.00 0.00 0.00 0.01 0.01 0.02 0.02 0.02 0.01 0.00 0.00 0.00
0.03 0.07 0.03 0.01 0.01 0.01 0.03 0.08 0.13 0.17 0.11 0.07 0.04 0.01 0.01 0.01 0.00 0.00 0.00 0.00 0.00 0.00 0.01 0.00 0.00 0.00 0.00 0.00 0.01 0.01 0.02 0.02 0.01 0.00 0.00 0.01 0.02 0.02 0.02 0.01 0.01 0.00 0.00 0.00
0.01 0.07 0.07 0.01 0.01 0.02 0.03 0.03 0.08 0.19 0.12 0.07 0.07 0.02 0.01 0.02 0.02 0.01 0.00 0.01 0.01 0.01 0.01 0.00 0.00 0.00 0.00 0.01 0.02 0.03 0.04 0.02 0.00 0.00 0.00 0.01 0.03 0.03 0.01 0.01 0.01 0.01 0.00 0.00
0.03 0.10 0.13 0.09 0.10 0.11 0.12 0.06 0.07 0.18 0.29 0.19 0.12 0.04 0.01 0.02 0.02 0.01 0.01 0.01 0.01 0.01 0.00 0.00 0.00 0.00 0.00 0.01 0.03 0.05 0.04 0.01 0.00 0.00 0.01 0.02 0.03 0.03 0.02 0.01 0.01 0.00 0.00 0.00
0.15 0.17 0.13 0.12 0.15 0.26 0.27 0.12 0.12 0.38 0.43 0.13 0.03 0.03 0.03 0.04 0.06 0.06 0.04 0.03 0.02 0.01 0.01 0.00 0.00 0.00 0.01 0.02 0.03 0.04 0.02 0.01 0.00 0.01 0.01 0.02 0.04 0.03 0.02 0.01 0.00 0.00 0.00 0.00
0.24 0.26 0.16 0.17 0.24 0.40 0.34 0.20 0.18 0.29 0.20 0.13 0.05 0.05 0.06 0.08 0.12 0.12 0.10 0.07 0.04 0.02 0.01 0.01 0.00 0.00 0.01 0.02 0.02 0.01 0.01 0.01 0.02 0.02 0.02 0.03 0.03 0.03 0.02 0.01 0.00 0.00 0.00 0.00
0.23 0.28 0.25 0.27 0.25 0.36 0.29 0.14 0.12 0.12 0.08 0.07 0.06 0.07 0.08 0.12 0.15 0.18 0.17 0.10 0.04 0.02 0.01 0.01 0.00 0.01 0.01 0.01 0.01 0.01 0.02 0.03 0.03 0.04 0.04 0.04 0.04 0.03 0.02 0.01 0.00 0.00 0.00 0.00
0.29 0.40 0.53 0.45 0.23 0.27 0.23 0.12 0.12 0.10 0.07 0.06 0.08 0.08 0.10 0.17 0.20 0.17 0.13 0.07 0.04 0.02 0.02 0.01 0.01 0.00 0.01 0.01 0.03 0.05 0.06 0.05 0.05 0.06 0.06 0.05 0.04 0.03 0.01 0.00 0.00 0.00 0.00 0.00
0.17 0.35 0.58 0.54 0.36 0.34 0.22 0.16 0.14 0.11 0.07 0.05 0.05 0.05 0.07 0.11 0.13 0.10 0.07 0.05 0.03 0.02 0.01 0.01 0.01 0.00 0.01 0.02 0.04 0.07 0.07 0.07 0.08 0.08 0.09 0.08 0.07 0.04 0.01 0.00 0.00 0.00 0.00 0.00
0.05 0.21 0.38 0.33 0.27 0.15 0.08 0.09 0.11 0.11 0.07 0.03 0.03 0.03 0.02 0.05 0.10 0.14 0.10 0.06 0.05 0.03 0.01 0.01 0.01 0.01 0.02 0.03 0.06 0.10 0.12 0.13 0.13 0.13 0.11 0.08 0.04 0.02 0.01 0.00 0.00 0.00 0.00 0.00
0.01 0.07 0.16 0.14 0.13 0.07 0.03 0.02 0.03 0.03 0.03 0.01 0.01 0.01 0.01 0.02 0.07 0.12 0.13 0.09 0.07 0.06 0.05 0.04 0.04 0.05 0.06 0.08 0.11 0.16 0.21 0.23 0.21 0.14 0.08 0.05 0.02 0.01 0.00 0.00 0.00 0.00 0.00 0.00
0.01 0.02 0.05 0.05 0.06 0.01 0.00 0.00 0.00 0.01 0.01 0.00 0.00 0.01 0.01 0.01 0.03 0.05 0.08 0.09 0.09 0.09 0.10 0.11 0.11 0.14 0.15 0.15 0.17 0.20 0.20 0.20 0.16 0.10 0.05 0.02 0.01 0.00 0.00 0.00 0.00 0.00 0.00 0.00
0.00 0.01 0.01 0.01 0.02 0.01 0.00 0.00 0.00 0.00 0.00 0.00 0.00 0.01 0.01 0.01 0.01 0.01 0.02 0.04 0.05 0.06 0.08 0.11 0.13 0.15 0.14 0.12 0.10 0.09 0.07 0.06 0.04 0.02 0.01 0.00 0.00 0.00 0.00 0.00 0.00 0.00 0.00 0.00
0.00 0.00 0.01 0.01 0.00 0.00 0.00 0.00 0.00 0.00 0.00 0.00 0.00 0.01 0.01 0.01 0.01 0.01 0.01 0.01 0.02 0.02 0.02 0.02 0.03 0.03 0.02 0.02 0.01 0.01 0.00 0.00 0.00 0.00 0.00 0.00 0.00 0.00 0.00 0.00 0.00 0.00 0.00 0.00
0.01 0.00 0.00 0.00 0.00 0.00 0.00 0.00 0.00 0.00 0.00 0.00 0.00 0.01 0.01 0.01 0.01 0.02 0.01 0.01 0.01 0.00 0.00 0.00 0.00 0.00 0.00 0.00 0.00 0.00 0.00 0.00 0.00 0.00 0.00 0.00 0.00 0.00 0.00 0.00 0.00 0.00 0.00 0.00
0.01 0.00 0.00 0.00 0.00 0.00 0.00 0.00 0.00 0.00 0.00 0.00 0.00 0.00 0.00 0.00 0.00 0.01 0.01 0.00 0.00 0.00 0.00 0.00 0.00 0.00 0.00 0.00 0.00 0.00 0.00 0.00 0.00 0.00 0.00 0.00 0.00 0.00 0.00 0.00 0.00 0.00 0.00 0.00
0.00 0.00 0.00 0.00 0.00 0.00 0.00 0.00 0.00 0.00 0.00 0.00 0.00 0.00 0.00 0.00 0.00 0.00 0.00 0.00 0.00 0.00 0.00 0.00 0.00 0.00 0.00 0.00 0.00 0.00 0.00 0.00 0.00 0.00 0.00 0.00 0.00 0.00 0.00 0.00 0.00 0.00 0.00 0.00

GEFSCGP_prec_meanprecacc_024.txt.gz
Total_Precipitation_Accumulation
0.06 0.10 0.11 0.06 0.02 0.01 0.00 0.00 0.00 0.00 0.00 0.00 0.00 0.00 0.00 0.00 0.00 0.00 0.00 0.00 0.00 0.00 0.00 0.00 0.00 0.00 0.00 0.00 0.00 0.00 0.01 0.04 0.09 0.13 0.12 0.10 0.08 0.07 0.05 0.04 0.04 0.03 0.03 0.01
0.04 0.05 0.06 0.04 0.02 0.01 0.01 0.01 0.01 0.00 0.00 0.00 0.00 0.00 0.00 0.00 0.00 0.00 0.00 0.00 0.00 0.00 0.00 0.00 0.00 0.00 0.00 0.00 0.00 0.00 0.00 0.01 0.05 0.08 0.10 0.12 0.14 0.13 0.10 0.08 0.05 0.04 0.04 0.02
0.03 0.01 0.01 0.01 0.01 0.01 0.01 0.01 0.01 0.00 0.00 0.00 0.00 0.00 0.00 0.00 0.00 0.00 0.00 0.00 0.00 0.00 0.00 0.00 0.00 0.00 0.00 0.00 0.00 0.00 0.00 0.01 0.05 0.09 0.13 0.14 0.15 0.12 0.08 0.05 0.04 0.05 0.04 0.03
0.02 0.00 0.00 0.00 0.00 0.00 0.00 0.00 0.00 0.00 0.01 0.00 0.00 0.00 0.00 0.00 0.00 0.00 0.00 0.00 0.00 0.00 0.00 0.00 0.00 0.00 0.00 0.00 0.00 0.00 0.00 0.01 0.03 0.07 0.10 0.08 0.06 0.05 0.05 0.08 0.10 0.10 0.06 0.04
0.01 0.00 0.00 0.00 0.00 0.00 0.00 0.00 0.00 0.01 0.02 0.02 0.00 0.01 0.00 0.00 0.00 0.00 0.00 0.00 0.00 0.00 0.00 0.00 0.00 0.00 0.00 0.00 0.00 0.00 0.00 0.01 0.02 0.05 0.08 0.08 0.06 0.04 0.06 0.08 0.11 0.10 0.07 0.05
0.01 0.00 0.00 0.00 0.00 0.00 0.00 0.02 0.03 0.03 0.08 0.08 0.01 0.01 0.00 0.00 0.00 0.00 0.00 0.00 0.00 0.00 0.00 0.00 0.00 0.00 0.00 0.00 0.00 0.00 0.00 0.00 0.01 0.02 0.05 0.03 0.02 0.02 0.03 0.06 0.07 0.07 0.06 0.04
0.04 0.01 0.00 0.00 0.00 0.00 0.01 0.08 0.15 0.13 0.14 0.05 0.00 0.00 0.00 0.00 0.00 0.00 0.00 0.00 0.00 0.00 0.00 0.00 0.00 0.00 0.00 0.00 0.00 0.00 0.00 0.00 0.01 0.02 0.03 0.03 0.03 0.03 0.06 0.09 0.10 0.08 0.06 0.05
0.07 0.02 0.00 0.00 0.00 0.00 0.01 0.04 0.08 0.08 0.04 0.01 0.00 0.00 0.00 0.00 0.00 0.00 0.00 0.00 0.00 0.00 0.00 0.00 0.00 0.00 0.00 0.00 0.00 0.00 0.00 0.00 0.01 0.02 0.03 0.04 0.04 0.04 0.06 0.09 0.10 0.11 0.11 0.10
0.04 0.01 0.00 0.00 0.00 0.01 0.05 0.07 0.03 0.14 0.14 0.09 0.02 0.00 0.00 0.00 0.00 0.00 0.00 0.00 0.00 0.00 0.00 0.00 0.00 0.00 0.00 0.00 0.00 0.00 0.01 0.01 0.02 0.04 0.04 0.04 0.04 0.04 0.05 0.06 0.07 0.08 0.10 0.11
0.02 0.03 0.00 0.00 0.01 0.02 0.03 0.05 0.12 0.30 0.21 0.09 0.02 0.00 0.00 0.00 0.00 0.00 0.00 0.00 0.00 0.00 0.00 0.00 0.00 0.00 0.00 0.00 0.00 0.01 0.02 0.03 0.04 0.06 0.05 0.04 0.04 0.05 0.05 0.05 0.04 0.04 0.06 0.08
0.03 0.07 0.03 0.01 0.01 0.01 0.03 0.08 0.13 0.17 0.11 0.07 0.04 0.01 0.01 0.01 0.00 0.00 0.00 0.00 0.00 0.00 0.01 0.00 0.00 0.00 0.00 0.00 0.01 0.02 0.04 0.05 0.06 0.06 0.05 0.05 0.05 0.05 0.05 0.05 0.04 0.05 0.06 0.06
0.01 0.07 0.07 0.01 0.01 0.02 0.03 0.03 0.08 0.19 0.12 0.07 0.07 0.02 0.01 0.02 0.02 0.01 0.00 0.01 0.01 0.01 0.01 0.00 0.00 0.00 0.00 0.01 0.03 0.06 0.08 0.08 0.06 0.05 0.04 0.05 0.06 0.06 0.05 0.04 0.05 0.05 0.05 0.05
0.03 0.10 0.13 0.09 0.10 0.11 0.12 0.06 0.07 0.19 0.32 0.20 0.13 0.04 0.01 0.02 0.02 0.01 0.02 0.02 0.02 0.01 0.01 0.01 0.01 0.01 0.01 0.02 0.04 0.09 0.09 0.07 0.06 0.05 0.05 0.06 0.06 0.07 0.06 0.05 0.05 0.05 0.04 0.04
0.15 0.17 0.13 0.12 0.15 0.26 0.27 0.12 0.12 0.39 0.47 0.14 0.03 0.03 0.03 0.05 0.07 0.08 0.07 0.06 0.04 0.03 0.03 0.03 0.03 0.02 0.02 0.03 0.06 0.07 0.07 0.08 0.09 0.09 0.09 0.09 0.10 0.10 0.09 0.08 0.06 0.06 0.05 0.04
0.24 0.26 0.16 0.17 0.24 0.40 0.34 0.20 0.18 0.30 0.21 0.16 0.05 0.05 0.07 0.09 0.14 0.16 0.14 0.10 0.06 0.04 0.04 0.04 0.04 0.03 0.03 0.03 0.05 0.06 0.08 0.12 0.15 0.16 0.14 0.12 0.11 0.11 0.10 0.08 0.06 0.05 0.03 0.02
0.23 0.28 0.25 0.27 0.25 0.36 0.29 0.14 0.12 0.12 0.09 0.08 0.07 0.08 0.09 0.13 0.18 0.22 0.19 0.12 0.06 0.04 0.03 0.03 0.02 0.02 0.03 0.03 0.05 0.08 0.12 0.19 0.23 0.24 0.19 0.14 0.11 0.09 0.07 0.06 0.05 0.04 0.03 0.02
0.29 0.40 0.53 0.45 0.23 0.27 0.23 0.12 0.12 0.10 0.07 0.07 0.09 0.09 0.11 0.18 0.22 0.20 0.15 0.09 0.05 0.03 0.03 0.02 0.01 0.01 0.01 0.03 0.09 0.15 0.20 0.27 0.27 0.28 0.24 0.15 0.10 0.08 0.07 0.06 0.07 0.07 0.07 0.06
0.17 0.35 0.59 0.55 0.36 0.35 0.22 0.16 0.14 0.11 0.07 0.05 0.06 0.05 0.07 0.13 0.14 0.12 0.09 0.07 0.04 0.02 0.02 0.02 0.02 0.02 0.02 0.04 0.10 0.16 0.20 0.27 0.27 0.24 0.20 0.15 0.15 0.16 0.17 0.17 0.17 0.15 0.12 0.11
0.05 0.22 0.40 0.34 0.27 0.15 0.08 0.09 0.11 0.11 0.07 0.03 0.03 0.03 0.03 0.05 0.11 0.15 0.12 0.08 0.06 0.03 0.02 0.01 0.02 0.02 0.03 0.05 0.09 0.15 0.22 0.26 0.27 0.27 0.28 0.29 0.32 0.33 0.33 0.34 0.31 0.26 0.20 0.15
0.02 0.08 0.19 0.16 0.15 0.07 0.03 0.02 0.03 0.03 0.03 0.01 0.01 0.01 0.01 0.03 0.07 0.13 0.15 0.12 0.10 0.08 0.06 0.05 0.04 0.05 0.08 0.10 0.14 0.24 0.35 0.42 0.45 0.45 0.46 0.47 0.48 0.48 0.41 0.35 0.26 0.18 0.11 0.07
0.02 0.05 0.08 0.08 0.08 0.01 0.00 0.00 0.00 0.01 0.01 0.00 0.00 0.01 0.01 0.01 0.03 0.05 0.10 0.14 0.14 0.15 0.16 0.17 0.17 0.20 0.21 0.23 0.30 0.42 0.49 0.54 0.54 0.51 0.47 0.43 0.36 0.29 0.22 0.15 0.09 0.04 0.02 0.01
0.01 0.01 0.02 0.02 0.03 0.01 0.00 0.00 0.00 0.00 0.00 0.00 0.00 0.01 0.01 0.01 0.01 0.02 0.03 0.07 0.12 0.15 0.21 0.28 0.33 0.36 0.36 0.37 0.42 0.47 0.46 0.44 0.41 0.36 0.30 0.21 0.14 0.08 0.04 0.02 0.01 0.01 0.00 0.00
0.00 0.00 0.01 0.01 0.01 0.00 0.00 0.00 0.00 0.00 0.00 0.00 0.00 0.01 0.01 0.01 0.01 0.01 0.01 0.02 0.04 0.06 0.09 0.13 0.19 0.23 0.23 0.22 0.23 0.24 0.22 0.17 0.14 0.10 0.07 0.05 0.03 0.01 0.00 0.00 0.00 0.00 0.00 0.00
0.01 0.00 0.00 0.00 0.00 0.00 0.00 0.00 0.00 0.00 0.00 0.00 0.00 0.01 0.01 0.01 0.01 0.02 0.01 0.01 0.01 0.01 0.02 0.03 0.04 0.05 0.05 0.05 0.05 0.05 0.04 0.02 0.01 0.01 0.00 0.00 0.00 0.00 0.00 0.00 0.00 0.00 0.00 0.00
0.01 0.00 0.00 0.00 0.00 0.00 0.00 0.00 0.00 0.00 0.00 0.00 0.00 0.00 0.00 0.00 0.01 0.01 0.01 0.00 0.00 0.00 0.00 0.00 0.01 0.01 0.01 0.01 0.00 0.00 0.00 0.00 0.00 0.00 0.00 0.00 0.00 0.00 0.00 0.00 0.00 0.00 0.00 0.00
0.00 0.00 0.00 0.00 0.00 0.00 0.00 0.00 0.00 0.00 0.00 0.00 0.00 0.00 0.00 0.00 0.01 0.00 0.00 0.00 0.00 0.00 0.00 0.00 0.00 0.00 0.00 0.00 0.00 0.00 0.00 0.00 0.00 0.00 0.00 0.00 0.00 0.00 0.00 0.00 0.00 0.00 0.00 0.00

GEFSCGP_prec_meanprecacc_030.txt.gz
Total_Precipitation_Accumulation
0.16 0.18 0.16 0.08 0.03 0.01 0.00 0.00 0.00 0.00 0.00 0.00 0.00 0.00 0.00 0.00 0.00 0.00 0.00 0.00 0.00 0.00 0.00 0.00 0.00 0.00 0.00 0.00 0.00 0.00 0.01 0.04 0.11 0.16 0.16 0.13 0.09 0.09 0.08 0.07 0.07 0.06 0.05 0.03
0.14 0.12 0.12 0.08 0.05 0.02 0.01 0.01 0.01 0.00 0.00 0.00 0.00 0.00 0.00 0.00 0.00 0.00 0.00 0.00 0.00 0.00 0.00 0.00 0.00 0.00 0.00 0.00 0.00 0.00 0.00 0.01 0.05 0.08 0.11 0.13 0.16 0.17 0.14 0.14 0.11 0.09 0.08 0.08
0.13 0.08 0.08 0.08 0.06 0.04 0.02 0.01 0.01 0.00 0.00 0.00 0.00 0.00 0.00 0.00 0.00 0.00 0.00 0.00 0.00 0.00 0.00 0.00 0.00 0.00 0.00 0.00 0.00 0.00 0.00 0.01 0.05 0.09 0.15 0.18 0.21 0.18 0.13 0.07 0.05 0.07 0.10 0.11
0.14 0.07 0.05 0.08 0.06 0.04 0.02 0.00 0.00 0.00 0.01 0.00 0.00 0.00 0.00 0.00 0.00 0.00 0.00 0.00 0.00 0.00 0.00 0.00 0.00 0.00 0.00 0.00 0.00 0.00 0.00 0.01 0.03 0.08 0.11 0.10 0.08 0.06 0.05 0.08 0.12 0.14 0.15 0.14
0.11 0.06 0.04 0.06 0.05 0.02 0.01 0.00 0.00 0.01 0.02 0.02 0.00 0.01 0.00 0.00 0.00 0.00 0.00 0.00 0.00 0.00 0.00 0.00 0.00 0.00 0.00 0.00 0.00 0.00 0.00 0.01 0.02 0.05 0.09 0.10 0.07 0.05 0.07 0.11 0.14 0.14 0.14 0.13
0.06 0.03 0.03 0.03 0.02 0.01 0.01 0.02 0.03 0.03 0.08 0.08 0.01 0.01 0.00 0.00 0.00 0.00 0.00 0.00 0.00 0.00 0.00 0.00 0.00 0.00 0.00 0.00 0.00 0.00 0.00 0.00 0.01 0.03 0.05 0.04 0.03 0.03 0.05 0.08 0.11 0.11 0.11 0.11
0.08 0.03 0.01 0.01 0.01 0.00 0.01 0.08 0.15 0.13 0.14 0.05 0.00 0.00 0.00 0.00 0.00 0.00 0.00 0.00 0.00 0.00 0.00 0.00 0.00 0.00 0.00 0.00 0.00 0.00 0.00 0.00 0.01 0.02 0.03 0.03 0.04 0.05 0.08 0.12 0.14 0.13 0.11 0.09
0.09 0.03 0.00 0.00 0.00 0.00 0.01 0.04 0.08 0.08 0.04 0.01 0.00 0.00 0.00 0.00 0.00 0.00 0.00 0.00 0.00 0.00 0.00 0.00 0.00 0.00 0.00 0.00 0.00 0.00 0.00 0.00 0.01 0.03 0.03 0.04 0.05 0.05 0.07 0.12 0.14 0.15 0.15 0.16
0.04 0.01 0.00 0.00 0.00 0.01 0.05 0.07 0.03 0.14 0.14 0.09 0.02 0.00 0.00 0.00 0.00 0.00 0.00 0.00 0.00 0.00 0.00 0.00 0.00 0.00 0.00 0.00 0.00 0.00 0.01 0.01 0.02 0.04 0.04 0.05 0.05 0.05 0.06 0.08 0.10 0.12 0.14 0.17
0.02 0.03 0.00 0.00 0.01 0.02 0.03 0.05 0.12 0.30 0.21 0.09 0.02 0.00 0.00 0.00 0.00 0.00 0.00 0.00 0.00 0.00 0.00 0.00 0.00 0.00 0.00 0.00 0.00 0.01 0.02 0.03 0.04 0.06 0.05 0.05 0.04 0.06 0.07 0.07 0.06 0.07 0.10 0.12
0.03 0.07 0.03 0.01 0.01 0.01 0.03 0.08 0.13 0.17 0.11 0.07 0.04 0.01 0.01 0.01 0.00 0.00 0.00 0.00 0.00 0.00 0.01 0.00 0.00 0.00 0.00 0.00 0.01 0.02 0.04 0.06 0.06 0.06 0.05 0.05 0.05 0.06 0.07 0.07 0.07 0.08 0.10 0.10
0.01 0.07 0.07 0.01 0.01 0.02 0.03 0.03 0.08 0.19 0.12 0.07 0.07 0.02 0.01 0.02 0.02 0.01 0.00 0.01 0.01 0.01 0.01 0.00 0.00 0.00 0.00 0.01 0.03 0.06 0.08 0.08 0.06 0.05 0.05 0.05 0.07 0.07 0.07 0.07 0.08 0.09 0.09 0.09
0.03 0.10 0.13 0.09 0.10 0.11 0.12 0.06 0.07 0.19 0.32 0.20 0.13 0.04 0.01 0.02 0.02 0.01 0.02 0.02 0.02 0.01 0.01 0.01 0.01 0.01 0.01 0.02 0.05 0.09 0.10 0.08 0.06 0.06 0.06 0.06 0.08 0.09 0.09 0.09 0.09 0.09 0.09 0.08
0.15 0.17 0.13 0.12 0.15 0.26 0.27 0.12 0.12 0.39 0.47 0.14 0.03 0.03 0.03 0.05 0.07 0.08 0.07 0.06 0.04 0.03 0.03 0.03 0.03 0.03 0.03 0.04 0.07 0.09 0.08 0.09 0.10 0.10 0.10 0.10 0.12 0.13 0.13 0.12 0.10 0.10 0.08 0.07
0.24 0.26 0.16 0.17 0.24 0.40 0.34 0.20 0.18 0.30 0.21 0.16 0.05 0.05 0.07 0.10 0.14 0.16 0.14 0.10 0.06 0.04 0.04 0.04 0.04 0.04 0.05 0.05 0.07 0.08 0.10 0.13 0.17 0.17 0.16 0.14 0.14 0.15 0.15 0.13 0.10 0.08 0.06 0.04
0.23 0.28 0.25 0.27 0.25 0.36 0.29 0.14 0.12 0.12 0.09 0.08 0.07 0.08 0.09 0.13 0.18 0.22 0.19 0.12 0.06 0.04 0.03 0.03 0.03 0.03 0.03 0.04 0.07 0.10 0.14 0.21 0.25 0.26 0.21 0.17 0.16 0.15 0.14 0.12 0.10 0.08 0.06 0.05
0.29 0.40 0.53 0.45 0.23 0.27 0.23 0.12 0.12 0.10 0.07 0.07 0.09 0.09 0.11 0.18 0.22 0.20 0.15 0.09 0.05 0.03 0.03 0.02 0.02 0.01 0.02 0.04 0.11 0.18 0.23 0.29 0.30 0.33 0.30 0.23 0.22 0.20 0.16 0.14 0.15 0.16 0.15 0.14
0.17 0.35 0.59 0.55 0.36 0.35 0.22 0.16 0.14 0.11 0.07 0.05 0.06 0.05 0.07 0.13 0.14 0.12 0.09 0.07 0.04 0.02 0.02 0.02 0.03 0.02 0.03 0.06 0.14 0.21 0.27 0.38 0.39 0.38 0.37 0.36 0.36 0.36 0.37 0.36 0.36 0.35 0.32 0.29
0.05 0.22 0.40 0.35 0.27 0.16 0.08 0.09 0.11 0.11 0.07 0.03 0.03 0.03 0.03 0.05 0.11 0.15 0.12 0.08 0.06 0.03 0.02 0.01 0.02 0.03 0.03 0.06 0.12 0.20 0.32 0.45 0.53 0.56 0.55 0.56 0.58 0.61 0.64 0.65 0.61 0.57 0.53 0.48
0.02 0.08 0.21 0.19 0.16 0.07 0.03 0.02 0.03 0.03 0.03 0.01 0.01 0.01 0.01 0.03 0.07 0.13 0.15 0.12 0.10 0.08 0.06 0.05 0.04 0.06 0.08 0.11 0.17 0.29 0.45 0.58 0.66 0.67 0.69 0.72 0.74 0.76 0.71 0.69 0.63 0.52 0.43 0.36
0.04 0.07 0.11 0.12 0.10 0.01 0.00 0.00 0.00 0.01 0.01 0.00 0.00 0.01 0.01 0.01 0.03 0.05 0.10 0.14 0.14 0.15 0.16 0.17 0.17 0.20 0.22 0.25 0.33 0.47 0.57 0.65 0.67 0.66 0.66 0.66 0.61 0.56 0.49 0.44 0.39 0.31 0.24 0.18
0.01 0.02 0.03 0.03 0.04 0.01 0.00 0.00 0.00 0.00 0.00 0.00 0.00 0.01 0.01 0.01 0.01 0.02 0.03 0.07 0.12 0.15 0.21 0.28 0.34 0.37 0.37 0.39 0.45 0.52 0.54 0.53 0.50 0.47 0.44 0.40 0.33 0.26 0.20 0.16 0.13 0.10 0.07 0.05
0.00 0.00 0.01 0.01 0.01 0.00 0.00 0.00 0.00 0.00 0.00 0.00 0.00 0.01 0.01 0.01 0.01 0.01 0.01 0.02 0.04 0.06 0.09 0.13 0.19 0.23 0.24 0.24 0.26 0.28 0.26 0.22 0.19 0.15 0.13 0.11 0.08 0.06 0.04 0.02 0.01 0.01 0.00 0.00
0.01 0.00 0.00 0.00 0.00 0.00 0.00 0.00 0.00 0.00 0.00 0.00 0.00 0.01 0.01 0.01 0.01 0.02 0.01 0.01 0.01 0.01 0.02 0.03 0.04 0.05 0.05 0.05 0.06 0.06 0.05 0.03 0.02 0.01 0.01 0.01 0.00 0.00 0.00 0.00 0.00 0.00 0.00 0.00
0.01 0.01 0.01 0.00 0.00 0.00 0.00 0.00 0.00 0.00 0.00 0.00 0.00 0.00 0.00 0.00 0.01 0.01 0.01 0.00 0.00 0.00 0.01 0.00 0.01 0.01 0.01 0.01 0.01 0.01 0.00 0.00 0.00 0.00 0.00 0.00 0.00 0.00 0.00 0.00 0.00 0.00 0.00 0.00
0.00 0.00 0.00 0.01 0.00 0.00 0.00 0.00 0.00 0.00 0.00 0.00 0.00 0.00 0.00 0.00 0.01 0.00 0.00 0.00 0.00 0.01 0.00 0.00 0.00 0.00 0.00 0.00 0.00 0.00 0.00 0.00 0.00 0.00 0.00 0.00 0.00 0.00 0.00 0.00 0.00 0.00 0.00 0.00

GEFSCGP_prec_meanprecacc_036.txt.gz
Total_Precipitation_Accumulation
0.34 0.28 0.19 0.09 0.03 0.01 0.00 0.00 0.00 0.00 0.00 0.00 0.00 0.00 0.00 0.00 0.00 0.00 0.00 0.00 0.00 0.00 0.00 0.00 0.00 0.00 0.00 0.00 0.00 0.00 0.01 0.04 0.11 0.16 0.17 0.14 0.10 0.09 0.08 0.08 0.09 0.08 0.08 0.07
0.31 0.21 0.14 0.08 0.05 0.02 0.01 0.01 0.01 0.00 0.00 0.00 0.00 0.00 0.00 0.00 0.00 0.00 0.00 0.00 0.00 0.00 0.00 0.00 0.00 0.00 0.00 0.00 0.00 0.00 0.00 0.01 0.05 0.08 0.11 0.13 0.16 0.17 0.14 0.14 0.12 0.10 0.10 0.11
0.27 0.14 0.11 0.10 0.07 0.04 0.02 0.01 0.01 0.00 0.00 0.00 0.00 0.00 0.00 0.00 0.00 0.00 0.00 0.00 0.00 0.00 0.00 0.00 0.00 0.00 0.00 0.00 0.00 0.00 0.00 0.01 0.05 0.09 0.15 0.19 0.22 0.18 0.13 0.08 0.06 0.07 0.11 0.13
0.29 0.14 0.10 0.11 0.09 0.05 0.03 0.00 0.00 0.00 0.01 0.00 0.00 0.00 0.00 0.00 0.00 0.00 0.00 0.00 0.00 0.00 0.00 0.00 0.00 0.00 0.00 0.00 0.00 0.00 0.00 0.01 0.03 0.08 0.11 0.10 0.08 0.07 0.06 0.08 0.12 0.15 0.16 0.17
0.27 0.17 0.13 0.12 0.09 0.04 0.02 0.01 0.00 0.01 0.02 0.02 0.00 0.01 0.00 0.00 0.00 0.00 0.00 0.00 0.00 0.00 0.00 0.00 0.00 0.00 0.00 0.00 0.00 0.00 0.00 0.01 0.02 0.05 0.09 0.10 0.07 0.05 0.07 0.11 0.14 0.15 0.15 0.17
0.19 0.15 0.14 0.11 0.08 0.05 0.03 0.03 0.03 0.03 0.08 0.08 0.01 0.01 0.00 0.00 0.00 0.00 0.00 0.00 0.00 0.00 0.00 0.00 0.00 0.00 0.00 0.00 0.00 0.00 0.00 0.00 0.01 0.03 0.05 0.05 0.03 0.03 0.06 0.09 0.11 0.12 0.12 0.13
0.24 0.15 0.11 0.10 0.08 0.07 0.04 0.10 0.17 0.14 0.14 0.05 0.00 0.00 0.00 0.00 0.00 0.00 0.00 0.00 0.00 0.00 0.00 0.00 0.00 0.00 0.00 0.00 0.00 0.00 0.00 0.00 0.01 0.02 0.03 0.03 0.04 0.05 0.08 0.13 0.15 0.14 0.12 0.10
0.21 0.16 0.08 0.07 0.06 0.05 0.04 0.06 0.09 0.08 0.04 0.01 0.00 0.00 0.00 0.00 0.00 0.00 0.00 0.00 0.00 0.00 0.00 0.00 0.00 0.00 0.00 0.00 0.00 0.00 0.00 0.00 0.01 0.03 0.03 0.04 0.05 0.06 0.08 0.12 0.15 0.16 0.16 0.17
0.08 0.06 0.03 0.03 0.03 0.03 0.06 0.07 0.03 0.14 0.14 0.09 0.02 0.00 0.00 0.00 0.00 0.00 0.00 0.00 0.00 0.00 0.00 0.00 0.00 0.00 0.00 0.00 0.00 0.00 0.01 0.01 0.02 0.04 0.04 0.05 0.05 0.05 0.06 0.08 0.10 0.12 0.15 0.18
0.03 0.04 0.02 0.01 0.02 0.03 0.03 0.05 0.12 0.30 0.21 0.09 0.02 0.00 0.00 0.00 0.00 0.00 0.00 0.00 0.00 0.00 0.00 0.00 0.00 0.00 0.00 0.00 0.00 0.01 0.02 0.03 0.04 0.06 0.05 0.05 0.04 0.06 0.07 0.07 0.07 0.08 0.11 0.13
0.03 0.08 0.04 0.02 0.02 0.02 0.03 0.08 0.13 0.17 0.11 0.07 0.04 0.01 0.01 0.01 0.00 0.00 0.00 0.00 0.00 0.00 0.01 0.00 0.00 0.00 0.00 0.00 0.01 0.02 0.04 0.06 0.06 0.06 0.05 0.05 0.05 0.07 0.07 0.07 0.07 0.08 0.10 0.11
0.01 0.07 0.07 0.01 0.01 0.02 0.03 0.03 0.08 0.19 0.12 0.07 0.07 0.02 0.01 0.02 0.02 0.01 0.00 0.01 0.01 0.01 0.01 0.00 0.00 0.00 0.00 0.01 0.03 0.06 0.08 0.08 0.06 0.05 0.05 0.05 0.07 0.07 0.07 0.07 0.08 0.09 0.10 0.10
0.03 0.10 0.13 0.09 0.10 0.11 0.12 0.06 0.07 0.19 0.32 0.20 0.13 0.04 0.01 0.02 0.02 0.01 0.02 0.02 0.02 0.01 0.01 0.01 0.01 0.01 0.01 0.02 0.05 0.09 0.10 0.08 0.06 0.06 0.06 0.07 0.08 0.09 0.09 0.09 0.10 0.10 0.10 0.09
0.15 0.17 0.13 0.12 0.15 0.26 0.27 0.12 0.12 0.39 0.47 0.14 0.03 0.03 0.03 0.05 0.07 0.08 0.07 0.06 0.04 0.03 0.03 0.03 0.03 0.03 0.03 0.04 0.07 0.09 0.08 0.09 0.10 0.10 0.10 0.11 0.13 0.14 0.14 0.14 0.12 0.11 0.10 0.08
0.24 0.26 0.16 0.17 0.24 0.40 0.34 0.20 0.18 0.30 0.21 0.16 0.05 0.05 0.07 0.10 0.14 0.16 0.14 0.10 0.06 0.04 0.04 0.04 0.04 0.04 0.05 0.05 0.07 0.08 0.10 0.14 0.17 0.18 0.17 0.16 0.16 0.17 0.16 0.15 0.12 0.09 0.07 0.05
0.23 0.28 0.25 0.27 0.25 0.36 0.29 0.14 0.12 0.12 0.09 0.08 0.07 0.08 0.09 0.13 0.18 0.22 0.19 0.12 0.06 0.04 0.03 0.03 0.03 0.03 0.03 0.04 0.07 0.10 0.14 0.21 0.25 0.26 0.22 0.18 0.18 0.17 0.16 0.14 0.12 0.09 0.07 0.06
0.29 0.40 0.53 0.45 0.23 0.27 0.23 0.12 0.12 0.10 0.07 0.07 0.09 0.09 0.11 0.18 0.22 0.20 0.15 0.09 0.05 0.03 0.03 0.02 0.02 0.01 0.02 0.04 0.11 0.18 0.23 0.29 0.31 0.34 0.32 0.26 0.23 0.21 0.17 0.15 0.16 0.17 0.17 0.17
0.17 0.35 0.59 0.55 0.36 0.35 0.22 0.16 0.14 0.11 0.07 0.05 0.06 0.05 0.07 0.13 0.14 0.12 0.09 0.07 0.04 0.02 0.02 0.02 0.03 0.02 0.03 0.06 0.14 0.21 0.28 0.38 0.39 0.39 0.38 0.37 0.37 0.37 0.38 0.37 0.38 0.39 0.37 0.38
0.05 0.22 0.40 0.35 0.28 0.16 0.08 0.09 0.11 0.11 0.07 0.03 0.03 0.03 0.03 0.05 0.11 0.15 0.12 0.08 0.06 0.03 0.02 0.01 0.02 0.03 0.03 0.06 0.13 0.20 0.32 0.45 0.54 0.57 0.56 0.57 0.59 0.63 0.67 0.70 0.69 0.67 0.67 0.65
0.02 0.08 0.22 0.19 0.17 0.07 0.04 0.02 0.03 0.04 0.03 0.01 0.01 0.01 0.01 0.03 0.07 0.13 0.15 0.12 0.10 0.08 0.06 0.05 0.04 0.06 0.08 0.11 0.17 0.29 0.45 0.59 0.68 0.69 0.72 0.75 0.78 0.81 0.79 0.79 0.75 0.67 0.61 0.58
0.04 0.08 0.13 0.13 0.10 0.01 0.00 0.00 0.00 0.02 0.02 0.00 0.00 0.01 0.01 0.01 0.03 0.05 0.10 0.14 0.14 0.15 0.16 0.17 0.17 0.20 0.22 0.25 0.33 0.47 0.58 0.66 0.68 0.68 0.68 0.70 0.67 0.64 0.58 0.55 0.53 0.48 0.42 0.35
0.01 0.03 0.03 0.04 0.05 0.01 0.00 0.01 0.01 0.01 0.00 0.00 0.00 0.01 0.01 0.01 0.01 0.02 0.03 0.07 0.12 0.15 0.21 0.28 0.34 0.37 0.37 0.39 0.45 0.52 0.54 0.54 0.51 0.49 0.46 0.43 0.37 0.31 0.27 0.24 0.23 0.20 0.17 0.14
0.00 0.00 0.01 0.01 0.01 0.00 0.00 0.00 0.01 0.00 0.00 0.00 0.00 0.01 0.01 0.01 0.01 0.01 0.01 0.02 0.04 0.06 0.09 0.13 0.19 0.23 0.24 0.24 0.26 0.28 0.26 0.22 0.19 0.16 0.14 0.12 0.09 0.08 0.06 0.04 0.03 0.03 0.02 0.02
0.01 0.00 0.00 0.00 0.00 0.00 0.00 0.00 0.00 0.00 0.00 0.00 0.00 0.01 0.01 0.01 0.01 0.02 0.01 0.01 0.01 0.01 0.02 0.03 0.04 0.05 0.05 0.05 0.06 0.06 0.05 0.03 0.02 0.01 0.01 0.01 0.01 0.00 0.01 0.00 0.00 0.00 0.00 0.00
0.01 0.01 0.01 0.01 0.00 0.00 0.00 0.00 0.00 0.00 0.00 0.00 0.00 0.00 0.00 0.00 0.01 0.01 0.01 0.00 0.00 0.00 0.01 0.00 0.01 0.01 0.01 0.01 0.01 0.01 0.00 0.00 0.00 0.00 0.00 0.00 0.00 0.00 0.00 0.00 0.00 0.00 0.00 0.00
0.00 0.00 0.01 0.01 0.00 0.00 0.00 0.00 0.00 0.00 0.00 0.00 0.00 0.00 0.00 0.00 0.01 0.00 0.00 0.00 0.00 0.01 0.01 0.01 0.01 0.00 0.00 0.00 0.00 0.00 0.00 0.00 0.00 0.00 0.00 0.00 0.00 0.00 0.00 0.00 0.00 0.00 0.00 0.00

GEFSCGP_prec_meanprecacc_042.txt.gz
Total_Precipitation_Accumulation
0.51 0.39 0.24 0.10 0.03 0.01 0.00 0.00 0.00 0.00 0.00 0.00 0.00 0.00 0.00 0.00 0.00 0.00 0.00 0.00 0.00 0.00 0.00 0.00 0.00 0.00 0.00 0.00 0.00 0.00 0.01 0.04 0.11 0.16 0.17 0.14 0.10 0.09 0.08 0.08 0.09 0.09 0.09 0.09
0.44 0.27 0.15 0.09 0.05 0.02 0.01 0.01 0.01 0.00 0.00 0.00 0.00 0.00 0.00 0.00 0.00 0.00 0.00 0.00 0.00 0.00 0.00 0.00 0.00 0.00 0.00 0.00 0.00 0.00 0.00 0.01 0.06 0.09 0.12 0.14 0.17 0.17 0.14 0.15 0.12 0.10 0.11 0.12
0.36 0.18 0.12 0.11 0.08 0.05 0.02 0.01 0.01 0.00 0.00 0.00 0.00 0.00 0.00 0.00 0.00 0.00 0.00 0.00 0.00 0.00 0.00 0.00 0.00 0.00 0.00 0.00 0.00 0.00 0.00 0.01 0.05 0.10 0.15 0.19 0.22 0.19 0.14 0.08 0.06 0.08 0.11 0.14
0.40 0.20 0.14 0.14 0.10 0.05 0.03 0.00 0.00 0.00 0.01 0.00 0.00 0.00 0.00 0.00 0.00 0.00 0.00 0.00 0.00 0.00 0.00 0.00 0.00 0.00 0.00 0.00 0.00 0.00 0.00 0.01 0.03 0.08 0.11 0.10 0.08 0.07 0.06 0.09 0.13 0.16 0.17 0.18
0.39 0.25 0.18 0.17 0.11 0.06 0.03 0.01 0.00 0.01 0.02 0.02 0.00 0.01 0.00 0.00 0.00 0.00 0.00 0.00 0.00 0.00 0.00 0.00 0.00 0.00 0.00 0.00 0.00 0.00 0.00 0.01 0.02 0.05 0.09 0.10 0.07 0.05 0.07 0.11 0.15 0.15 0.16 0.17
0.28 0.22 0.23 0.18 0.11 0.07 0.03 0.04 0.04 0.03 0.09 0.08 0.01 0.01 0.00 0.00 0.00 0.00 0.00 0.00 0.00 0.00 0.00 0.00 0.00 0.00 0.00 0.00 0.00 0.00 0.00 0.00 0.01 0.03 0.05 0.05 0.03 0.03 0.06 0.09 0.11 0.12 0.13 0.14
0.39 0.27 0.21 0.17 0.14 0.11 0.06 0.12 0.19 0.16 0.16 0.05 0.00 0.00 0.00 0.00 0.00 0.00 0.00 0.00 0.00 0.00 0.00 0.00 0.00 0.00 0.00 0.00 0.00 0.00 0.00 0.00 0.01 0.02 0.03 0.03 0.04 0.05 0.08 0.13 0.15 0.14 0.12 0.12
0.35 0.34 0.19 0.16 0.13 0.10 0.06 0.08 0.12 0.09 0.05 0.01 0.00 0.00 0.00 0.00 0.00 0.00 0.00 0.00 0.00 0.00 0.00 0.00 0.00 0.00 0.00 0.00 0.00 0.00 0.00 0.00 0.01 0.03 0.03 0.04 0.05 0.06 0.08 0.12 0.15 0.16 0.17 0.18
0.14 0.14 0.10 0.09 0.07 0.06 0.09 0.10 0.04 0.14 0.14 0.09 0.02 0.00 0.00 0.00 0.00 0.00 0.00 0.00 0.00 0.00 0.00 0.00 0.00 0.00 0.00 0.00 0.00 0.00 0.01 0.01 0.02 0.04 0.04 0.05 0.05 0.05 0.06 0.08 0.11 0.13 0.16 0.20
0.04 0.07 0.06 0.06 0.07 0.06 0.06 0.07 0.13 0.30 0.21 0.09 0.02 0.00 0.00 0.00 0.00 0.00 0.00 0.00 0.00 0.00 0.00 0.00 0.00 0.00 0.00 0.00 0.00 0.01 0.02 0.03 0.04 0.06 0.05 0.05 0.04 0.06 0.07 0.08 0.07 0.08 0.11 0.14
0.04 0.09 0.08 0.06 0.07 0.04 0.05 0.09 0.14 0.18 0.11 0.07 0.04 0.01 0.01 0.01 0.00 0.00 0.00 0.00 0.00 0.00 0.01 0.00 0.00 0.00 0.00 0.00 0.01 0.02 0.04 0.06 0.06 0.06 0.05 0.05 0.06 0.07 0.07 0.07 0.08 0.09 0.11 0.12
0.02 0.08 0.09 0.04 0.02 0.03 0.04 0.04 0.08 0.20 0.12 0.07 0.07 0.02 0.01 0.02 0.02 0.01 0.00 0.01 0.01 0.01 0.01 0.00 0.00 0.00 0.00 0.01 0.03 0.06 0.08 0.08 0.06 0.05 0.05 0.05 0.07 0.08 0.07 0.07 0.09 0.10 0.10 0.11
0.03 0.10 0.14 0.10 0.10 0.12 0.13 0.06 0.07 0.19 0.32 0.20 0.13 0.04 0.01 0.02 0.02 0.01 0.02 0.02 0.02 0.01 0.01 0.01 0.01 0.01 0.01 0.02 0.05 0.09 0.10 0.08 0.06 0.06 0.06 0.07 0.08 0.09 0.09 0.10 0.10 0.11 0.11 0.11
0.15 0.17 0.13 0.12 0.15 0.26 0.27 0.12 0.12 0.39 0.47 0.14 0.03 0.03 0.03 0.05 0.07 0.08 0.07 0.06 0.04 0.03 0.03 0.03 0.03 0.03 0.03 0.04 0.07 0.09 0.08 0.09 0.10 0.10 0.10 0.11 0.13 0.14 0.14 0.14 0.12 0.12 0.11 0.10
0.24 0.26 0.16 0.17 0.24 0.40 0.34 0.20 0.18 0.30 0.21 0.16 0.05 0.05 0.07 0.10 0.14 0.16 0.14 0.10 0.06 0.04 0.04 0.04 0.04 0.04 0.05 0.05 0.07 0.08 0.10 0.14 0.17 0.18 0.17 0.16 0.16 0.17 0.16 0.15 0.12 0.10 0.08 0.06
0.23 0.28 0.25 0.27 0.25 0.36 0.29 0.14 0.12 0.12 0.09 0.08 0.07 0.08 0.09 0.13 0.18 0.22 0.19 0.12 0.06 0.04 0.03 0.03 0.03 0.03 0.03 0.04 0.07 0.10 0.14 0.21 0.25 0.26 0.22 0.18 0.18 0.17 0.16 0.14 0.12 0.10 0.08 0.07
0.29 0.40 0.53 0.45 0.23 0.27 0.23 0.12 0.12 0.10 0.07 0.07 0.09 0.09 0.11 0.18 0.22 0.20 0.15 0.09 0.05 0.03 0.03 0.02 0.02 0.01 0.02 0.04 0.11 0.18 0.23 0.29 0.31 0.34 0.32 0.26 0.23 0.21 0.17 0.15 0.16 0.17 0.18 0.18
0.18 0.36 0.60 0.55 0.36 0.35 0.22 0.16 0.14 0.11 0.07 0.05 0.06 0.05 0.07 0.13 0.14 0.12 0.09 0.07 0.04 0.02 0.02 0.02 0.03 0.02 0.03 0.06 0.14 0.21 0.28 0.38 0.39 0.39 0.38 0.37 0.37 0.38 0.38 0.37 0.38 0.39 0.38 0.38
0.05 0.22 0.41 0.35 0.28 0.16 0.08 0.09 0.11 0.11 0.07 0.03 0.03 0.03 0.03 0.05 0.11 0.15 0.12 0.08 0.06 0.03 0.02 0.01 0.02 0.03 0.03 0.06 0.13 0.20 0.32 0.45 0.54 0.57 0.56 0.57 0.59 0.63 0.67 0.70 0.69 0.68 0.69 0.68
0.03 0.09 0.23 0.20 0.17 0.07 0.04 0.02 0.03 0.04 0.04 0.01 0.01 0.01 0.01 0.03 0.07 0.13 0.15 0.12 0.10 0.08 0.06 0.05 0.04 0.06 0.08 0.11 0.17 0.29 0.45 0.59 0.68 0.69 0.72 0.75 0.78 0.81 0.79 0.79 0.76 0.68 0.62 0.60
0.05 0.09 0.14 0.14 0.11 0.02 0.00 0.00 0.00 0.03 0.03 0.00 0.00 0.01 0.01 0.01 0.03 0.05 0.10 0.14 0.14 0.15 0.16 0.17 0.17 0.20 0.22 0.25 0.33 0.47 0.58 0.66 0.68 0.68 0.68 0.70 0.67 0.64 0.58 0.55 0.53 0.48 0.43 0.37
0.01 0.03 0.04 0.04 0.05 0.01 0.00 0.01 0.01 0.01 0.01 0.00 0.00 0.01 0.01 0.01 0.01 0.02 0.03 0.07 0.12 0.15 0.21 0.28 0.34 0.37 0.37 0.39 0.45 0.52 0.54 0.54 0.51 0.49 0.46 0.43 0.37 0.31 0.27 0.24 0.23 0.20 0.17 0.15
0.00 0.00 0.01 0.01 0.01 0.00 0.00 0.01 0.01 0.01 0.01 0.00 0.00 0.01 0.01 0.01 0.01 0.01 0.01 0.02 0.04 0.06 0.09 0.13 0.19 0.23 0.24 0.24 0.26 0.28 0.26 0.22 0.19 0.16 0.14 0.12 0.09 0.08 0.06 0.04 0.03 0.03 0.02 0.02
0.01 0.00 0.00 0.00 0.00 0.00 0.00 0.00 0.01 0.01 0.01 0.00 0.00 0.01 0.01 0.01 0.01 0.02 0.01 0.01 0.01 0.01 0.02 0.03 0.04 0.05 0.05 0.05 0.06 0.06 0.05 0.03 0.02 0.01 0.01 0.01 0.01 0.00 0.01 0.00 0.00 0.00 0.00 0.00
0.01 0.01 0.01 0.01 0.00 0.00 0.00 0.00 0.00 0.00 0.00 0.00 0.00 0.00 0.00 0.00 0.01 0.01 0.01 0.00 0.00 0.00 0.01 0.00 0.01 0.01 0.01 0.01 0.01 0.01 0.00 0.00 0.00 0.00 0.00 0.00 0.00 0.00 0.00 0.00 0.00 0.00 0.00 0.00
0.00 0.00 0.01 0.01 0.00 0.00 0.00 0.00 0.00 0.00 0.00 0.00 0.00 0.00 0.00 0.00 0.01 0.00 0.00 0.00 0.00 0.01 0.01 0.01 0.01 0.00 0.00 0.00 0.00 0.00 0.00 0.00 0.00 0.00 0.00 0.00 0.00 0.00 0.00 0.00 0.00 0.00 0.00 0.00

GEFSCGP_prec_meanprecacc_048.txt.gz
Total_Precipitation_Accumulation
0.74 0.52 0.29 0.12 0.05 0.01 0.01 0.01 0.01 0.00 0.00 0.00 0.00 0.00 0.00 0.00 0.00 0.00 0.00 0.00 0.00 0.00 0.00 0.00 0.00 0.00 0.00 0.00 0.00 0.00 0.01 0.04 0.11 0.17 0.17 0.15 0.11 0.10 0.09 0.09 0.10 0.11 0.11 0.11
0.62 0.36 0.18 0.10 0.08 0.03 0.02 0.01 0.01 0.01 0.00 0.00 0.00 0.00 0.00 0.00 0.00 0.00 0.00 0.00 0.00 0.00 0.00 0.00 0.00 0.00 0.00 0.00 0.00 0.00 0.00 0.02 0.06 0.09 0.12 0.14 0.17 0.17 0.15 0.15 0.14 0.12 0.13 0.14
0.46 0.22 0.15 0.14 0.11 0.06 0.02 0.01 0.01 0.00 0.00 0.00 0.00 0.00 0.00 0.00 0.00 0.00 0.00 0.00 0.00 0.00 0.00 0.00 0.00 0.00 0.00 0.00 0.00 0.00 0.00 0.01 0.05 0.10 0.16 0.19 0.23 0.19 0.14 0.09 0.06 0.08 0.12 0.16
0.47 0.23 0.17 0.17 0.12 0.06 0.03 0.01 0.00 0.00 0.01 0.00 0.00 0.00 0.00 0.00 0.00 0.00 0.00 0.00 0.00 0.00 0.00 0.00 0.00 0.00 0.00 0.00 0.00 0.00 0.00 0.01 0.03 0.08 0.11 0.11 0.09 0.07 0.06 0.09 0.13 0.16 0.18 0.19
0.45 0.28 0.22 0.21 0.13 0.07 0.03 0.01 0.00 0.01 0.02 0.02 0.00 0.01 0.00 0.00 0.00 0.00 0.00 0.00 0.00 0.00 0.00 0.00 0.00 0.00 0.00 0.00 0.00 0.00 0.00 0.01 0.02 0.05 0.09 0.10 0.07 0.05 0.08 0.11 0.15 0.16 0.16 0.18
0.32 0.25 0.26 0.22 0.14 0.09 0.04 0.04 0.04 0.03 0.09 0.08 0.01 0.01 0.00 0.00 0.00 0.00 0.00 0.00 0.00 0.00 0.00 0.00 0.00 0.00 0.00 0.00 0.00 0.00 0.00 0.00 0.01 0.03 0.05 0.05 0.03 0.03 0.06 0.09 0.12 0.12 0.13 0.14
0.44 0.31 0.25 0.21 0.19 0.14 0.08 0.13 0.21 0.18 0.16 0.05 0.00 0.00 0.00 0.00 0.00 0.00 0.00 0.00 0.00 0.00 0.00 0.00 0.00 0.00 0.00 0.00 0.00 0.00 0.00 0.00 0.01 0.02 0.03 0.03 0.04 0.05 0.08 0.13 0.15 0.14 0.13 0.12
0.41 0.41 0.24 0.21 0.19 0.14 0.08 0.09 0.13 0.10 0.05 0.01 0.00 0.00 0.00 0.00 0.00 0.00 0.00 0.00 0.00 0.00 0.00 0.00 0.00 0.00 0.00 0.00 0.00 0.00 0.00 0.00 0.01 0.03 0.03 0.04 0.05 0.06 0.08 0.12 0.15 0.16 0.17 0.18
0.17 0.19 0.15 0.13 0.11 0.10 0.12 0.11 0.04 0.14 0.14 0.09 0.02 0.00 0.00 0.00 0.00 0.00 0.00 0.00 0.00 0.00 0.00 0.00 0.00 0.00 0.00 0.00 0.00 0.00 0.01 0.01 0.02 0.04 0.04 0.05 0.05 0.05 0.06 0.08 0.11 0.13 0.16 0.20
0.05 0.10 0.09 0.09 0.10 0.10 0.10 0.09 0.14 0.31 0.22 0.09 0.02 0.00 0.00 0.00 0.00 0.00 0.00 0.00 0.00 0.00 0.00 0.00 0.00 0.00 0.00 0.00 0.00 0.01 0.02 0.03 0.04 0.06 0.05 0.05 0.04 0.06 0.07 0.08 0.07 0.08 0.11 0.14
0.05 0.10 0.10 0.09 0.11 0.08 0.07 0.12 0.15 0.18 0.11 0.07 0.04 0.01 0.01 0.01 0.00 0.00 0.00 0.00 0.00 0.00 0.01 0.00 0.00 0.00 0.00 0.00 0.01 0.02 0.04 0.06 0.06 0.06 0.05 0.05 0.06 0.07 0.07 0.07 0.08 0.09 0.11 0.12
0.03 0.08 0.11 0.06 0.03 0.03 0.06 0.06 0.10 0.21 0.12 0.07 0.07 0.02 0.01 0.02 0.02 0.01 0.00 0.01 0.01 0.01 0.01 0.00 0.00 0.00 0.00 0.01 0.03 0.06 0.08 0.08 0.06 0.05 0.05 0.05 0.07 0.08 0.07 0.07 0.09 0.10 0.10 0.11
0.03 0.10 0.15 0.13 0.12 0.13 0.14 0.07 0.08 0.20 0.33 0.21 0.13 0.04 0.01 0.02 0.02 0.01 0.02 0.02 0.02 0.01 0.01 0.01 0.01 0.01 0.01 0.02 0.05 0.09 0.10 0.08 0.06 0.06 0.06 0.07 0.08 0.09 0.09 0.10 0.10 0.11 0.11 0.11
0.16 0.17 0.13 0.13 0.16 0.26 0.27 0.12 0.12 0.40 0.49 0.15 0.03 0.03 0.03 0.05 0.07 0.08 0.07 0.06 0.04 0.03 0.03 0.03 0.03 0.03 0.03 0.04 0.07 0.09 0.08 0.09 0.10 0.10 0.10 0.11 0.13 0.14 0.14 0.14 0.12 0.12 0.11 0.10
0.25 0.26 0.16 0.18 0.24 0.40 0.34 0.20 0.18 0.30 0.21 0.16 0.06 0.05 0.07 0.10 0.14 0.16 0.14 0.10 0.06 0.04 0.04 0.04 0.04 0.04 0.05 0.05 0.07 0.08 0.10 0.14 0.17 0.18 0.17 0.16 0.16 0.17 0.16 0.15 0.12 0.10 0.08 0.06
0.24 0.29 0.25 0.27 0.25 0.36 0.29 0.14 0.12 0.12 0.09 0.08 0.07 0.08 0.09 0.13 0.18 0.22 0.19 0.12 0.06 0.04 0.03 0.03 0.03 0.03 0.03 0.04 0.07 0.10 0.14 0.21 0.25 0.26 0.22 0.18 0.18 0.17 0.16 0.14 0.12 0.10 0.08 0.07
0.29 0.40 0.53 0.45 0.23 0.27 0.23 0.12 0.12 0.10 0.07 0.07 0.09 0.09 0.11 0.18 0.22 0.20 0.15 0.09 0.05 0.03 0.03 0.02 0.02 0.01 0.02 0.04 0.11 0.18 0.23 0.29 0.31 0.34 0.32 0.26 0.23 0.21 0.17 0.15 0.16 0.17 0.18 0.18
0.18 0.36 0.60 0.55 0.36 0.35 0.22 0.16 0.14 0.11 0.07 0.05 0.06 0.05 0.07 0.13 0.14 0.12 0.09 0.07 0.04 0.02 0.02 0.02 0.03 0.02 0.03 0.06 0.14 0.21 0.28 0.38 0.39 0.39 0.38 0.37 0.37 0.38 0.38 0.37 0.38 0.39 0.38 0.38
0.05 0.23 0.41 0.36 0.28 0.16 0.08 0.09 0.11 0.11 0.07 0.03 0.03 0.03 0.03 0.05 0.11 0.15 0.12 0.08 0.06 0.03 0.02 0.01 0.02 0.03 0.03 0.06 0.13 0.20 0.32 0.45 0.54 0.57 0.56 0.57 0.59 0.63 0.67 0.70 0.69 0.68 0.69 0.68
0.03 0.10 0.24 0.21 0.17 0.07 0.04 0.02 0.03 0.04 0.04 0.01 0.01 0.01 0.01 0.03 0.07 0.13 0.15 0.12 0.10 0.08 0.06 0.05 0.04 0.06 0.08 0.11 0.17 0.29 0.45 0.59 0.68 0.69 0.72 0.75 0.78 0.81 0.79 0.79 0.76 0.68 0.62 0.60
0.06 0.10 0.15 0.14 0.12 0.02 0.00 0.00 0.00 0.03 0.03 0.00 0.00 0.01 0.01 0.01 0.03 0.05 0.10 0.14 0.14 0.15 0.16 0.17 0.17 0.20 0.22 0.25 0.33 0.47 0.58 0.66 0.68 0.68 0.68 0.70 0.67 0.64 0.58 0.55 0.53 0.48 0.43 0.37
0.01 0.03 0.04 0.05 0.05 0.01 0.00 0.01 0.01 0.01 0.01 0.00 0.00 0.01 0.01 0.01 0.01 0.02 0.03 0.07 0.12 0.15 0.21 0.28 0.34 0.37 0.37 0.39 0.45 0.52 0.54 0.54 0.51 0.49 0.46 0.43 0.37 0.31 0.27 0.24 0.23 0.20 0.17 0.15
0.00 0.00 0.01 0.01 0.01 0.00 0.00 0.01 0.01 0.01 0.01 0.01 0.01 0.01 0.01 0.02 0.01 0.01 0.01 0.02 0.04 0.06 0.09 0.13 0.19 0.23 0.24 0.24 0.26 0.28 0.26 0.22 0.19 0.16 0.14 0.12 0.09 0.08 0.06 0.04 0.03 0.03 0.02 0.02
0.01 0.00 0.00 0.00 0.00 0.00 0.00 0.01 0.01 0.01 0.01 0.01 0.01 0.02 0.02 0.02 0.02 0.02 0.01 0.01 0.01 0.01 0.02 0.03 0.04 0.05 0.05 0.05 0.06 0.06 0.05 0.03 0.02 0.01 0.01 0.01 0.01 0.00 0.01 0.00 0.00 0.00 0.00 0.00
0.02 0.01 0.01 0.01 0.00 0.00 0.00 0.01 0.01 0.01 0.01 0.01 0.01 0.01 0.01 0.01 0.02 0.01 0.01 0.01 0.00 0.01 0.01 0.00 0.01 0.01 0.01 0.01 0.01 0.01 0.00 0.00 0.00 0.00 0.00 0.00 0.00 0.00 0.00 0.00 0.00 0.00 0.00 0.00
0.00 0.01 0.02 0.02 0.01 0.00 0.00 0.00 0.00 0.00 0.00 0.00 0.00 0.00 0.00 0.00 0.01 0.00 0.00 0.00 0.01 0.01 0.01 0.01 0.01 0.00 0.00 0.00 0.00 0.00 0.00 0.00 0.00 0.00 0.00 0.00 0.00 0.00 0.00 0.00 0.00 0.00 0.00 0.00

GEFSCGP_prec_meanprecacc_054.txt.gz
Total_Precipitation_Accumulation
1.06 0.78 0.41 0.17 0.07 0.03 0.01 0.01 0.01 0.00 0.00 0.00 0.00 0.00 0.00 0.00 0.01 0.01 0.01 0.00 0.00 0.00 0.00 0.00 0.00 0.00 0.00 0.00 0.00 0.00 0.01 0.04 0.11 0.17 0.18 0.15 0.11 0.11 0.10 0.10 0.11 0.12 0.12 0.12
0.90 0.53 0.23 0.12 0.10 0.06 0.03 0.02 0.01 0.01 0.00 0.00 0.00 0.00 0.00 0.00 0.00 0.00 0.01 0.00 0.00 0.00 0.00 0.00 0.00 0.00 0.00 0.00 0.00 0.00 0.00 0.02 0.06 0.09 0.12 0.14 0.17 0.18 0.15 0.16 0.14 0.12 0.13 0.15
0.64 0.30 0.18 0.17 0.14 0.09 0.04 0.02 0.01 0.01 0.01 0.00 0.01 0.01 0.00 0.00 0.00 0.00 0.00 0.00 0.00 0.00 0.00 0.00 0.00 0.00 0.00 0.00 0.00 0.00 0.00 0.01 0.05 0.10 0.16 0.20 0.23 0.19 0.14 0.09 0.07 0.09 0.13 0.17
0.59 0.28 0.21 0.21 0.15 0.10 0.06 0.01 0.00 0.01 0.01 0.01 0.01 0.01 0.00 0.00 0.00 0.00 0.00 0.00 0.00 0.00 0.00 0.00 0.00 0.00 0.00 0.00 0.00 0.00 0.00 0.01 0.03 0.08 0.11 0.11 0.09 0.07 0.06 0.10 0.14 0.16 0.18 0.19
0.54 0.32 0.25 0.24 0.15 0.10 0.05 0.01 0.01 0.01 0.02 0.02 0.01 0.01 0.00 0.00 0.00 0.00 0.00 0.00 0.00 0.00 0.00 0.00 0.00 0.00 0.00 0.00 0.00 0.00 0.00 0.01 0.02 0.05 0.09 0.10 0.07 0.05 0.08 0.11 0.15 0.16 0.16 0.18
0.38 0.27 0.29 0.24 0.16 0.11 0.06 0.05 0.04 0.04 0.10 0.10 0.01 0.01 0.00 0.00 0.00 0.00 0.00 0.00 0.00 0.00 0.00 0.00 0.00 0.00 0.00 0.00 0.00 0.00 0.00 0.00 0.01 0.03 0.05 0.05 0.03 0.03 0.06 0.09 0.12 0.12 0.13 0.15
0.51 0.35 0.26 0.23 0.21 0.17 0.11 0.15 0.24 0.22 0.20 0.07 0.00 0.00 0.00 0.00 0.00 0.00 0.00 0.00 0.00 0.00 0.00 0.00 0.00 0.00 0.00 0.00 0.00 0.00 0.00 0.00 0.01 0.02 0.03 0.03 0.04 0.05 0.08 0.13 0.15 0.14 0.13 0.12
0.48 0.47 0.26 0.22 0.21 0.18 0.11 0.10 0.14 0.11 0.06 0.01 0.00 0.00 0.00 0.00 0.00 0.00 0.00 0.00 0.00 0.00 0.00 0.00 0.00 0.00 0.00 0.00 0.00 0.00 0.00 0.00 0.01 0.03 0.03 0.04 0.05 0.06 0.08 0.12 0.15 0.16 0.17 0.18
0.20 0.23 0.16 0.14 0.12 0.12 0.15 0.12 0.05 0.14 0.14 0.09 0.02 0.00 0.00 0.00 0.00 0.00 0.00 0.00 0.00 0.00 0.00 0.00 0.00 0.00 0.00 0.00 0.00 0.00 0.01 0.01 0.02 0.04 0.04 0.05 0.05 0.05 0.06 0.08 0.11 0.13 0.16 0.20
0.08 0.12 0.11 0.10 0.12 0.12 0.12 0.10 0.14 0.31 0.22 0.09 0.02 0.00 0.00 0.00 0.00 0.00 0.00 0.00 0.00 0.00 0.00 0.00 0.00 0.00 0.00 0.00 0.00 0.01 0.02 0.03 0.04 0.06 0.05 0.05 0.04 0.06 0.07 0.08 0.07 0.08 0.11 0.14
0.07 0.12 0.12 0.12 0.13 0.10 0.09 0.14 0.17 0.19 0.12 0.07 0.04 0.01 0.01 0.01 0.00 0.00 0.00 0.00 0.00 0.00 0.01 0.00 0.00 0.00 0.00 0.00 0.01 0.02 0.04 0.06 0.06 0.06 0.05 0.05 0.06 0.07 0.07 0.07 0.08 0.09 0.11 0.12
0.04 0.10 0.13 0.08 0.05 0.04 0.07 0.07 0.11 0.22 0.13 0.08 0.07 0.02 0.01 0.02 0.02 0.01 0.00 0.01 0.01 0.01 0.01 0.00 0.00 0.00 0.00 0.01 0.03 0.06 0.08 0.08 0.06 0.05 0.05 0.05 0.07 0.08 0.07 0.07 0.09 0.10 0.10 0.11
0.05 0.12 0.18 0.16 0.14 0.15 0.15 0.08 0.09 0.21 0.34 0.21 0.13 0.04 0.01 0.02 0.02 0.01 0.02 0.02 0.02 0.01 0.01 0.01 0.01 0.01 0.01 0.02 0.05 0.09 0.10 0.08 0.06 0.06 0.06 0.07 0.08 0.09 0.09 0.10 0.10 0.11 0.11 0.11
0.18 0.18 0.14 0.14 0.16 0.27 0.28 0.13 0.12 0.42 0.53 0.16 0.04 0.03 0.03 0.05 0.07 0.08 0.07 0.06 0.04 0.03 0.03 0.03 0.03 0.03 0.03 0.04 0.07 0.09 0.08 0.09 0.10 0.10 0.10 0.11 0.13 0.14 0.14 0.14 0.12 0.12 0.11 0.10
0.26 0.27 0.16 0.18 0.24 0.40 0.34 0.20 0.18 0.30 0.21 0.16 0.06 0.05 0.07 0.10 0.14 0.16 0.14 0.10 0.06 0.04 0.04 0.04 0.04 0.04 0.05 0.05 0.07 0.08 0.10 0.14 0.17 0.18 0.17 0.16 0.16 0.17 0.16 0.15 0.12 0.10 0.08 0.06
0.24 0.29 0.25 0.27 0.25 0.36 0.29 0.14 0.12 0.12 0.09 0.08 0.07 0.08 0.09 0.13 0.18 0.22 0.19 0.12 0.06 0.04 0.03 0.03 0.03 0.03 0.03 0.04 0.07 0.10 0.14 0.21 0.25 0.26 0.22 0.18 0.18 0.18 0.16 0.14 0.12 0.10 0.08 0.07
0.30 0.40 0.54 0.45 0.23 0.27 0.23 0.12 0.12 0.10 0.07 0.07 0.09 0.09 0.11 0.18 0.22 0.20 0.15 0.09 0.05 0.03 0.03 0.02 0.02 0.01 0.02 0.04 0.11 0.18 0.23 0.29 0.31 0.34 0.32 0.26 0.23 0.21 0.17 0.15 0.16 0.17 0.18 0.18
0.18 0.36 0.60 0.55 0.36 0.35 0.22 0.16 0.14 0.11 0.07 0.05 0.06 0.05 0.07 0.13 0.14 0.12 0.09 0.07 0.04 0.02 0.02 0.02 0.03 0.02 0.03 0.06 0.14 0.21 0.28 0.38 0.39 0.39 0.38 0.37 0.37 0.38 0.38 0.37 0.38 0.39 0.38 0.38
0.05 0.23 0.41 0.36 0.28 0.16 0.08 0.09 0.11 0.11 0.07 0.03 0.03 0.03 0.03 0.05 0.11 0.15 0.12 0.08 0.06 0.03 0.02 0.01 0.02 0.03 0.03 0.06 0.13 0.20 0.32 0.45 0.54 0.57 0.56 0.57 0.59 0.63 0.67 0.70 0.69 0.68 0.69 0.68
0.03 0.10 0.24 0.21 0.18 0.07 0.04 0.02 0.03 0.04 0.04 0.01 0.01 0.01 0.01 0.03 0.07 0.13 0.15 0.12 0.10 0.08 0.06 0.05 0.04 0.06 0.08 0.11 0.17 0.29 0.45 0.59 0.68 0.69 0.72 0.75 0.78 0.81 0.79 0.79 0.76 0.68 0.62 0.60
0.06 0.11 0.16 0.15 0.12 0.02 0.00 0.00 0.00 0.03 0.03 0.00 0.00 0.01 0.01 0.01 0.03 0.05 0.10 0.14 0.14 0.15 0.16 0.17 0.17 0.20 0.22 0.25 0.33 0.47 0.58 0.66 0.68 0.68 0.68 0.70 0.67 0.64 0.58 0.55 0.53 0.48 0.43 0.37
0.01 0.03 0.04 0.05 0.06 0.02 0.00 0.01 0.01 0.01 0.01 0.00 0.00 0.01 0.01 0.01 0.01 0.02 0.03 0.07 0.12 0.15 0.21 0.28 0.34 0.37 0.37 0.39 0.45 0.52 0.54 0.54 0.51 0.49 0.46 0.43 0.37 0.31 0.27 0.24 0.23 0.20 0.17 0.15
0.00 0.01 0.01 0.01 0.01 0.00 0.00 0.01 0.01 0.01 0.01 0.01 0.01 0.01 0.01 0.02 0.02 0.01 0.01 0.02 0.04 0.06 0.09 0.13 0.19 0.23 0.24 0.24 0.26 0.28 0.26 0.22 0.19 0.16 0.14 0.12 0.09 0.08 0.06 0.04 0.03 0.03 0.02 0.02
0.01 0.01 0.01 0.00 0.00 0.00 0.00 0.01 0.01 0.01 0.01 0.02 0.02 0.02 0.02 0.03 0.03 0.03 0.02 0.02 0.02 0.02 0.03 0.04 0.05 0.06 0.06 0.06 0.06 0.06 0.05 0.03 0.02 0.01 0.01 0.01 0.01 0.00 0.01 0.00 0.00 0.00 0.00 0.00
0.02 0.02 0.01 0.01 0.00 0.00 0.00 0.01 0.01 0.01 0.01 0.01 0.01 0.02 0.02 0.02 0.03 0.03 0.03 0.02 0.02 0.02 0.02 0.02 0.02 0.02 0.02 0.02 0.01 0.01 0.00 0.00 0.00 0.00 0.00 0.00 0.00 0.00 0.00 0.00 0.00 0.00 0.00 0.00
0.00 0.01 0.02 0.02 0.01 0.01 0.00 0.00 0.00 0.01 0.01 0.01 0.01 0.01 0.01 0.01 0.02 0.02 0.02 0.02 0.02 0.03 0.02 0.02 0.02 0.02 0.02 0.02 0.01 0.01 0.00 0.00 0.00 0.00 0.00 0.00 0.00 0.00 0.00 0.00 0.00 0.00 0.00 0.00

GEFSCGP_prec_meanprecacc_060.txt.gz
Total_Precipitation_Accumulation
1.24 1.05 0.67 0.28 0.11 0.05 0.02 0.02 0.01 0.01 0.01 0.01 0.01 0.01 0.00 0.00 0.01 0.02 0.01 0.00 0.00 0.00 0.00 0.00 0.00 0.01 0.01 0.01 0.01 0.02 0.03 0.06 0.13 0.18 0.19 0.16 0.11 0.11 0.10 0.10 0.11 0.12 0.12 0.12
1.09 0.72 0.36 0.19 0.13 0.08 0.04 0.03 0.02 0.01 0.01 0.01 0.01 0.01 0.00 0.00 0.00 0.01 0.01 0.00 0.00 0.00 0.00 0.00 0.00 0.00 0.00 0.00 0.01 0.01 0.01 0.03 0.07 0.10 0.13 0.15 0.17 0.18 0.15 0.16 0.14 0.12 0.13 0.15
0.79 0.41 0.27 0.25 0.19 0.13 0.07 0.03 0.02 0.01 0.01 0.01 0.01 0.01 0.00 0.00 0.00 0.00 0.00 0.00 0.00 0.00 0.00 0.00 0.00 0.00 0.00 0.00 0.00 0.01 0.01 0.02 0.06 0.11 0.16 0.20 0.23 0.19 0.15 0.09 0.07 0.09 0.13 0.17
0.71 0.37 0.30 0.30 0.20 0.13 0.08 0.02 0.02 0.02 0.02 0.01 0.01 0.01 0.00 0.00 0.00 0.00 0.00 0.00 0.00 0.00 0.00 0.00 0.00 0.00 0.00 0.00 0.00 0.00 0.01 0.02 0.04 0.08 0.12 0.11 0.09 0.08 0.07 0.10 0.14 0.17 0.18 0.19
0.67 0.39 0.33 0.31 0.21 0.12 0.07 0.03 0.02 0.02 0.04 0.04 0.01 0.01 0.00 0.00 0.00 0.00 0.00 0.00 0.00 0.00 0.00 0.00 0.00 0.00 0.00 0.00 0.00 0.00 0.00 0.01 0.03 0.06 0.10 0.11 0.08 0.05 0.08 0.12 0.15 0.16 0.16 0.19
0.49 0.34 0.35 0.29 0.21 0.14 0.08 0.08 0.07 0.06 0.12 0.12 0.01 0.01 0.00 0.00 0.00 0.00 0.00 0.00 0.00 0.00 0.00 0.00 0.00 0.00 0.00 0.00 0.00 0.00 0.00 0.00 0.01 0.03 0.06 0.05 0.03 0.03 0.06 0.09 0.12 0.12 0.13 0.15
0.63 0.43 0.31 0.26 0.27 0.24 0.16 0.19 0.29 0.27 0.24 0.08 0.00 0.00 0.00 0.00 0.00 0.00 0.00 0.00 0.00 0.00 0.00 0.00 0.00 0.00 0.00 0.00 0.00 0.00 0.00 0.00 0.01 0.02 0.04 0.03 0.04 0.05 0.08 0.13 0.15 0.14 0.13 0.12
0.56 0.57 0.31 0.25 0.26 0.23 0.16 0.14 0.16 0.13 0.07 0.02 0.00 0.00 0.00 0.00 0.00 0.00 0.00 0.00 0.00 0.00 0.00 0.00 0.00 0.00 0.00 0.00 0.00 0.00 0.00 0.00 0.01 0.03 0.03 0.04 0.05 0.06 0.08 0.12 0.15 0.16 0.17 0.18
0.24 0.28 0.19 0.16 0.14 0.14 0.19 0.16 0.06 0.15 0.15 0.09 0.02 0.00 0.00 0.00 0.00 0.00 0.00 0.00 0.00 0.00 0.00 0.00 0.00 0.00 0.00 0.00 0.00 0.00 0.01 0.01 0.02 0.04 0.04 0.05 0.05 0.05 0.06 0.08 0.11 0.13 0.16 0.20
0.10 0.15 0.14 0.12 0.14 0.14 0.14 0.12 0.16 0.32 0.22 0.09 0.02 0.00 0.00 0.00 0.00 0.00 0.00 0.00 0.00 0.00 0.00 0.00 0.00 0.00 0.00 0.00 0.00 0.01 0.02 0.03 0.04 0.06 0.05 0.05 0.04 0.06 0.07 0.08 0.07 0.08 0.11 0.14
0.07 0.14 0.16 0.15 0.16 0.12 0.10 0.16 0.18 0.20 0.12 0.07 0.04 0.01 0.01 0.01 0.00 0.00 0.00 0.00 0.00 0.00 0.01 0.00 0.00 0.00 0.00 0.00 0.01 0.02 0.04 0.06 0.06 0.06 0.05 0.05 0.06 0.07 0.07 0.07 0.08 0.09 0.11 0.12
0.04 0.12 0.16 0.10 0.07 0.06 0.08 0.08 0.12 0.23 0.13 0.08 0.07 0.02 0.01 0.02 0.02 0.01 0.00 0.01 0.01 0.01 0.01 0.00 0.00 0.00 0.00 0.01 0.03 0.06 0.08 0.08 0.06 0.05 0.05 0.05 0.07 0.08 0.07 0.07 0.09 0.10 0.10 0.11
0.06 0.14 0.22 0.18 0.16 0.16 0.16 0.09 0.09 0.21 0.35 0.22 0.14 0.04 0.01 0.02 0.02 0.01 0.02 0.02 0.02 0.01 0.01 0.01 0.01 0.01 0.01 0.02 0.05 0.09 0.10 0.08 0.06 0.06 0.06 0.07 0.08 0.09 0.09 0.10 0.10 0.11 0.11 0.11
0.20 0.20 0.16 0.15 0.17 0.27 0.28 0.13 0.13 0.43 0.55 0.17 0.04 0.03 0.03 0.05 0.07 0.08 0.07 0.06 0.04 0.03 0.03 0.03 0.03 0.03 0.03 0.04 0.07 0.09 0.08 0.09 0.10 0.10 0.10 0.11 0.13 0.14 0.14 0.14 0.12 0.12 0.11 0.10
0.28 0.28 0.17 0.19 0.25 0.40 0.34 0.20 0.18 0.31 0.22 0.16 0.06 0.05 0.07 0.10 0.14 0.16 0.14 0.10 0.06 0.04 0.04 0.04 0.04 0.04 0.05 0.05 0.07 0.08 0.10 0.14 0.17 0.18 0.17 0.16 0.16 0.17 0.16 0.15 0.12 0.10 0.08 0.06
0.27 0.30 0.25 0.28 0.26 0.36 0.29 0.14 0.12 0.13 0.09 0.08 0.07 0.08 0.09 0.13 0.18 0.22 0.19 0.12 0.06 0.04 0.03 0.03 0.03 0.03 0.03 0.04 0.07 0.10 0.14 0.21 0.25 0.26 0.22 0.18 0.18 0.18 0.16 0.14 0.12 0.10 0.08 0.07
0.31 0.41 0.54 0.45 0.23 0.27 0.23 0.12 0.12 0.10 0.07 0.07 0.09 0.09 0.11 0.18 0.22 0.20 0.15 0.09 0.05 0.03 0.03 0.02 0.02 0.01 0.02 0.04 0.11 0.18 0.23 0.29 0.31 0.34 0.32 0.26 0.23 0.21 0.17 0.15 0.16 0.17 0.18 0.18
0.18 0.36 0.60 0.55 0.36 0.35 0.22 0.16 0.14 0.11 0.07 0.05 0.06 0.05 0.07 0.13 0.14 0.12 0.09 0.07 0.04 0.02 0.02 0.02 0.03 0.02 0.03 0.06 0.14 0.21 0.28 0.38 0.39 0.39 0.38 0.37 0.37 0.38 0.38 0.38 0.39 0.39 0.38 0.38
0.05 0.23 0.42 0.36 0.28 0.16 0.08 0.09 0.11 0.11 0.07 0.03 0.03 0.03 0.03 0.05 0.11 0.15 0.12 0.08 0.06 0.03 0.02 0.01 0.02 0.03 0.03 0.06 0.13 0.20 0.32 0.45 0.54 0.57 0.56 0.57 0.59 0.64 0.68 0.70 0.69 0.68 0.69 0.68
0.03 0.10 0.25 0.22 0.18 0.07 0.04 0.02 0.03 0.04 0.04 0.01 0.01 0.01 0.01 0.03 0.07 0.13 0.15 0.12 0.10 0.08 0.06 0.05 0.04 0.06 0.08 0.11 0.17 0.29 0.45 0.59 0.68 0.69 0.72 0.75 0.78 0.82 0.79 0.79 0.76 0.68 0.62 0.60
0.06 0.11 0.17 0.16 0.13 0.02 0.00 0.00 0.00 0.03 0.04 0.00 0.00 0.01 0.01 0.01 0.03 0.05 0.10 0.14 0.14 0.15 0.16 0.17 0.17 0.20 0.22 0.25 0.33 0.47 0.58 0.66 0.68 0.68 0.68 0.70 0.67 0.64 0.58 0.55 0.53 0.48 0.43 0.37
0.02 0.04 0.05 0.06 0.07 0.02 0.00 0.01 0.01 0.01 0.01 0.00 0.00 0.01 0.01 0.01 0.01 0.02 0.03 0.07 0.12 0.15 0.21 0.28 0.34 0.37 0.37 0.39 0.45 0.52 0.54 0.54 0.51 0.49 0.46 0.43 0.37 0.31 0.27 0.24 0.23 0.20 0.17 0.15
0.02 0.02 0.02 0.01 0.01 0.01 0.00 0.01 0.01 0.01 0.01 0.01 0.01 0.01 0.01 0.02 0.02 0.01 0.01 0.03 0.04 0.06 0.09 0.13 0.19 0.23 0.24 0.24 0.26 0.28 0.26 0.22 0.19 0.16 0.14 0.12 0.10 0.08 0.06 0.04 0.03 0.03 0.02 0.02
0.04 0.02 0.02 0.01 0.01 0.00 0.00 0.01 0.01 0.01 0.01 0.02 0.02 0.02 0.03 0.03 0.03 0.03 0.02 0.02 0.02 0.02 0.03 0.04 0.05 0.06 0.07 0.07 0.07 0.07 0.05 0.04 0.03 0.02 0.01 0.01 0.01 0.01 0.01 0.01 0.00 0.00 0.00 0.00
0.05 0.03 0.02 0.02 0.01 0.00 0.00 0.01 0.01 0.01 0.01 0.01 0.02 0.02 0.02 0.03 0.04 0.03 0.04 0.03 0.02 0.03 0.03 0.03 0.03 0.03 0.04 0.03 0.03 0.03 0.02 0.02 0.01 0.01 0.01 0.00 0.00 0.00 0.00 0.00 0.00 0.00 0.00 0.00
0.01 0.02 0.04 0.03 0.01 0.01 0.00 0.00 0.00 0.01 0.01 0.01 0.01 0.02 0.01 0.02 0.03 0.03 0.02 0.03 0.03 0.04 0.03 0.03 0.04 0.04 0.04 0.05 0.05 0.04 0.03 0.03 0.03 0.02 0.02 0.01 0.01 0.00 0.00 0.00 0.00 0.00 0.00 0.00

GEFSCGP_prec_meanprecacc_066.txt.gz
Total_Precipitation_Accumulation
1.35 1.22 0.85 0.40 0.21 0.12 0.07 0.05 0.05 0.05 0.04 0.06 0.06 0.03 0.02 0.02 0.02 0.02 0.02 0.01 0.00 0.00 0.00 0.01 0.01 0.01 0.02 0.02 0.03 0.03 0.04 0.07 0.15 0.20 0.20 0.18 0.14 0.13 0.11 0.10 0.11 0.12 0.12 0.12
1.18 0.81 0.45 0.27 0.19 0.14 0.10 0.08 0.06 0.06 0.05 0.05 0.05 0.03 0.01 0.01 0.01 0.01 0.01 0.00 0.00 0.00 0.00 0.00 0.01 0.01 0.01 0.01 0.02 0.02 0.02 0.03 0.07 0.11 0.15 0.17 0.20 0.21 0.17 0.17 0.15 0.13 0.13 0.15
0.86 0.47 0.35 0.35 0.26 0.19 0.12 0.07 0.05 0.06 0.06 0.04 0.04 0.03 0.01 0.00 0.00 0.00 0.00 0.00 0.00 0.00 0.00 0.00 0.00 0.00 0.00 0.01 0.01 0.02 0.02 0.04 0.08 0.12 0.19 0.23 0.25 0.21 0.17 0.11 0.08 0.10 0.14 0.18
0.78 0.42 0.36 0.40 0.27 0.17 0.12 0.04 0.04 0.05 0.07 0.05 0.03 0.03 0.00 0.00 0.00 0.00 0.00 0.00 0.00 0.00 0.00 0.00 0.00 0.00 0.00 0.00 0.01 0.01 0.02 0.03 0.06 0.10 0.14 0.13 0.11 0.09 0.09 0.12 0.15 0.18 0.19 0.20
0.73 0.44 0.39 0.41 0.27 0.15 0.10 0.05 0.04 0.05 0.07 0.06 0.03 0.02 0.00 0.00 0.00 0.00 0.00 0.00 0.00 0.00 0.00 0.00 0.00 0.00 0.00 0.00 0.00 0.00 0.01 0.02 0.04 0.07 0.11 0.13 0.09 0.07 0.10 0.13 0.16 0.17 0.18 0.19
0.55 0.39 0.42 0.37 0.27 0.18 0.12 0.11 0.11 0.10 0.17 0.16 0.02 0.02 0.00 0.00 0.00 0.00 0.00 0.00 0.00 0.00 0.00 0.00 0.00 0.00 0.00 0.00 0.00 0.00 0.01 0.02 0.02 0.04 0.07 0.06 0.04 0.05 0.07 0.10 0.13 0.13 0.14 0.15
0.72 0.50 0.38 0.34 0.34 0.28 0.21 0.25 0.35 0.34 0.31 0.11 0.01 0.01 0.00 0.00 0.00 0.00 0.00 0.00 0.00 0.00 0.00 0.00 0.00 0.00 0.00 0.00 0.00 0.00 0.00 0.01 0.02 0.04 0.05 0.05 0.05 0.06 0.09 0.14 0.16 0.15 0.13 0.12
0.67 0.68 0.37 0.31 0.32 0.28 0.21 0.19 0.21 0.17 0.09 0.02 0.00 0.01 0.00 0.00 0.00 0.00 0.00 0.00 0.00 0.00 0.00 0.00 0.00 0.00 0.00 0.00 0.00 0.00 0.00 0.00 0.01 0.03 0.05 0.06 0.06 0.07 0.09 0.13 0.15 0.17 0.17 0.19
0.30 0.36 0.23 0.19 0.17 0.17 0.23 0.19 0.09 0.17 0.16 0.10 0.02 0.00 0.00 0.00 0.00 0.00 0.00 0.00 0.00 0.00 0.00 0.00 0.00 0.00 0.00 0.00 0.00 0.00 0.01 0.01 0.02 0.04 0.04 0.05 0.05 0.05 0.06 0.09 0.11 0.13 0.16 0.20
0.14 0.20 0.18 0.15 0.17 0.17 0.17 0.14 0.17 0.35 0.25 0.11 0.03 0.01 0.00 0.00 0.00 0.00 0.00 0.00 0.00 0.00 0.00 0.00 0.00 0.00 0.00 0.00 0.00 0.01 0.02 0.03 0.04 0.06 0.05 0.05 0.05 0.06 0.07 0.08 0.07 0.08 0.11 0.14
0.12 0.18 0.20 0.18 0.19 0.14 0.11 0.17 0.20 0.22 0.14 0.09 0.05 0.02 0.01 0.01 0.01 0.00 0.00 0.00 0.00 0.00 0.01 0.00 0.00 0.00 0.00 0.00 0.01 0.02 0.04 0.06 0.06 0.06 0.05 0.05 0.06 0.07 0.07 0.07 0.08 0.09 0.11 0.12
0.07 0.15 0.20 0.13 0.08 0.07 0.09 0.09 0.13 0.26 0.15 0.08 0.08 0.03 0.01 0.02 0.02 0.01 0.00 0.01 0.01 0.01 0.01 0.00 0.00 0.00 0.00 0.01 0.03 0.06 0.08 0.08 0.06 0.05 0.05 0.05 0.07 0.08 0.07 0.07 0.09 0.10 0.10 0.11
0.07 0.16 0.25 0.21 0.18 0.17 0.17 0.09 0.10 0.23 0.37 0.23 0.15 0.04 0.01 0.02 0.02 0.01 0.02 0.02 0.02 0.01 0.01 0.01 0.01 0.01 0.01 0.02 0.05 0.09 0.10 0.08 0.06 0.06 0.06 0.07 0.08 0.09 0.09 0.10 0.10 0.11 0.11 0.11
0.22 0.21 0.19 0.19 0.20 0.28 0.29 0.13 0.13 0.44 0.56 0.18 0.04 0.03 0.03 0.05 0.07 0.08 0.07 0.06 0.04 0.03 0.03 0.03 0.03 0.03 0.03 0.04 0.07 0.09 0.08 0.09 0.10 0.10 0.10 0.11 0.13 0.14 0.14 0.14 0.12 0.12 0.11 0.10
0.31 0.30 0.18 0.21 0.26 0.40 0.35 0.20 0.18 0.31 0.22 0.17 0.06 0.05 0.07 0.10 0.14 0.16 0.14 0.10 0.06 0.04 0.04 0.04 0.04 0.04 0.05 0.05 0.07 0.08 0.10 0.14 0.17 0.18 0.17 0.16 0.16 0.17 0.16 0.15 0.12 0.10 0.08 0.06
0.29 0.31 0.26 0.29 0.27 0.36 0.29 0.14 0.12 0.13 0.09 0.09 0.07 0.08 0.09 0.13 0.18 0.22 0.19 0.12 0.06 0.04 0.03 0.03 0.03 0.03 0.03 0.04 0.07 0.10 0.14 0.21 0.25 0.26 0.22 0.18 0.18 0.18 0.16 0.14 0.12 0.10 0.08 0.07
0.33 0.42 0.55 0.46 0.24 0.27 0.23 0.12 0.12 0.10 0.07 0.07 0.10 0.09 0.11 0.18 0.22 0.20 0.15 0.09 0.05 0.03 0.03 0.02 0.02 0.01 0.02 0.04 0.11 0.18 0.23 0.29 0.31 0.34 0.32 0.26 0.23 0.21 0.17 0.15 0.16 0.17 0.18 0.18
0.19 0.38 0.62 0.57 0.37 0.35 0.22 0.16 0.14 0.11 0.07 0.05 0.06 0.05 0.07 0.13 0.14 0.12 0.09 0.07 0.04 0.02 0.02 0.02 0.03 0.02 0.03 0.06 0.14 0.21 0.28 0.38 0.39 0.39 0.38 0.37 0.37 0.38 0.38 0.38 0.39 0.39 0.38 0.38
0.06 0.25 0.44 0.38 0.29 0.16 0.08 0.09 0.11 0.11 0.07 0.03 0.03 0.03 0.03 0.05 0.11 0.15 0.12 0.08 0.06 0.03 0.02 0.01 0.02 0.03 0.03 0.06 0.13 0.20 0.32 0.45 0.54 0.57 0.56 0.57 0.59 0.64 0.68 0.70 0.69 0.68 0.69 0.68
0.03 0.11 0.27 0.23 0.19 0.08 0.04 0.02 0.03 0.04 0.04 0.01 0.01 0.01 0.01 0.03 0.07 0.13 0.15 0.12 0.10 0.08 0.06 0.05 0.04 0.06 0.08 0.11 0.17 0.29 0.45 0.59 0.68 0.69 0.72 0.75 0.78 0.82 0.79 0.79 0.76 0.68 0.62 0.60
0.08 0.13 0.19 0.18 0.15 0.02 0.01 0.00 0.01 0.04 0.05 0.00 0.00 0.01 0.01 0.01 0.03 0.05 0.10 0.14 0.14 0.15 0.16 0.17 0.17 0.20 0.22 0.25 0.33 0.47 0.58 0.66 0.68 0.68 0.68 0.70 0.67 0.64 0.58 0.55 0.53 0.48 0.43 0.37
0.03 0.06 0.07 0.08 0.10 0.04 0.01 0.01 0.01 0.02 0.01 0.00 0.00 0.01 0.01 0.01 0.01 0.02 0.03 0.07 0.12 0.15 0.21 0.28 0.34 0.37 0.37 0.39 0.45 0.52 0.54 0.54 0.51 0.49 0.46 0.43 0.37 0.31 0.27 0.24 0.23 0.20 0.18 0.15
0.03 0.04 0.04 0.05 0.06 0.02 0.01 0.01 0.01 0.01 0.01 0.01 0.01 0.01 0.01 0.02 0.02 0.01 0.01 0.03 0.04 0.06 0.09 0.13 0.19 0.24 0.24 0.24 0.26 0.28 0.26 0.22 0.19 0.16 0.14 0.12 0.10 0.08 0.06 0.04 0.03 0.03 0.02 0.02
0.05 0.03 0.03 0.03 0.03 0.01 0.01 0.01 0.01 0.01 0.01 0.02 0.02 0.02 0.03 0.03 0.03 0.03 0.02 0.02 0.02 0.02 0.03 0.04 0.05 0.06 0.07 0.07 0.07 0.07 0.06 0.04 0.03 0.02 0.02 0.01 0.01 0.01 0.01 0.01 0.00 0.00 0.00 0.00
0.06 0.04 0.03 0.03 0.02 0.01 0.01 0.01 0.01 0.01 0.01 0.01 0.02 0.02 0.02 0.03 0.04 0.04 0.04 0.03 0.03 0.03 0.03 0.03 0.03 0.04 0.04 0.04 0.04 0.04 0.03 0.02 0.02 0.02 0.01 0.01 0.01 0.01 0.01 0.01 0.00 0.00 0.00 0.00
0.03 0.03 0.06 0.05 0.02 0.02 0.01 0.00 0.01 0.01 0.01 0.01 0.02 0.02 0.02 0.02 0.03 0.03 0.03 0.03 0.04 0.04 0.04 0.04 0.04 0.04 0.05 0.05 0.06 0.05 0.05 0.04 0.04 0.04 0.04 0.03 0.02 0.02 0.01 0.01 0.01 0.01 0.01 0.01

GEFSCGP_prec_meanprecacc_072.txt.gz
Total_Precipitation_Accumulation
1.47 1.35 0.96 0.52 0.36 0.24 0.16 0.14 0.13 0.11 0.13 0.14 0.13 0.10 0.09 0.09 0.11 0.10 0.06 0.03 0.03 0.03 0.04 0.05 0.05 0.06 0.08 0.09 0.11 0.12 0.12 0.15 0.23 0.27 0.26 0.21 0.16 0.15 0.13 0.13 0.14 0.14 0.13 0.12
1.27 0.89 0.52 0.37 0.32 0.28 0.21 0.17 0.15 0.12 0.12 0.13 0.11 0.07 0.05 0.05 0.07 0.07 0.04 0.03 0.01 0.02 0.02 0.04 0.05 0.04 0.04 0.05 0.07 0.08 0.08 0.09 0.13 0.17 0.23 0.24 0.28 0.27 0.23 0.23 0.19 0.15 0.15 0.16
0.91 0.51 0.39 0.42 0.36 0.32 0.22 0.14 0.11 0.13 0.14 0.14 0.11 0.08 0.03 0.03 0.04 0.04 0.03 0.02 0.01 0.01 0.01 0.02 0.02 0.03 0.04 0.04 0.05 0.07 0.07 0.09 0.13 0.19 0.26 0.29 0.31 0.27 0.23 0.16 0.12 0.13 0.17 0.21
0.81 0.45 0.41 0.47 0.34 0.26 0.19 0.08 0.08 0.11 0.16 0.14 0.10 0.09 0.02 0.01 0.01 0.02 0.02 0.01 0.01 0.00 0.01 0.01 0.01 0.02 0.02 0.03 0.04 0.05 0.07 0.08 0.12 0.18 0.22 0.20 0.16 0.15 0.14 0.19 0.21 0.23 0.24 0.24
0.77 0.47 0.44 0.47 0.33 0.22 0.16 0.08 0.09 0.12 0.15 0.14 0.07 0.05 0.02 0.00 0.00 0.00 0.00 0.00 0.00 0.00 0.00 0.00 0.00 0.01 0.01 0.02 0.03 0.03 0.04 0.07 0.11 0.15 0.21 0.23 0.18 0.14 0.16 0.20 0.22 0.23 0.23 0.23
0.58 0.42 0.46 0.40 0.30 0.23 0.18 0.15 0.16 0.17 0.24 0.23 0.05 0.03 0.01 0.00 0.00 0.00 0.00 0.00 0.00 0.00 0.00 0.00 0.00 0.00 0.00 0.00 0.01 0.02 0.03 0.05 0.08 0.13 0.17 0.15 0.12 0.12 0.12 0.15 0.17 0.18 0.18 0.18
0.75 0.53 0.41 0.35 0.37 0.33 0.28 0.31 0.45 0.48 0.40 0.14 0.01 0.01 0.00 0.00 0.00 0.00 0.00 0.00 0.00 0.00 0.00 0.00 0.00 0.00 0.00 0.00 0.00 0.01 0.01 0.03 0.05 0.10 0.13 0.13 0.12 0.12 0.14 0.18 0.20 0.18 0.16 0.14
0.71 0.72 0.40 0.34 0.36 0.35 0.27 0.23 0.26 0.22 0.12 0.03 0.01 0.01 0.00 0.00 0.00 0.00 0.00 0.00 0.00 0.00 0.00 0.00 0.00 0.00 0.00 0.00 0.00 0.00 0.01 0.01 0.03 0.07 0.09 0.11 0.12 0.12 0.13 0.17 0.19 0.20 0.20 0.22
0.35 0.41 0.26 0.23 0.22 0.23 0.28 0.23 0.12 0.21 0.18 0.11 0.03 0.00 0.00 0.00 0.00 0.00 0.00 0.00 0.00 0.00 0.00 0.00 0.00 0.00 0.00 0.00 0.00 0.00 0.01 0.02 0.03 0.05 0.06 0.08 0.08 0.09 0.09 0.12 0.13 0.15 0.18 0.21
0.17 0.23 0.20 0.18 0.20 0.21 0.20 0.17 0.20 0.39 0.27 0.12 0.03 0.01 0.00 0.00 0.00 0.00 0.00 0.00 0.00 0.00 0.00 0.00 0.00 0.00 0.00 0.00 0.00 0.01 0.02 0.03 0.04 0.06 0.06 0.06 0.06 0.07 0.09 0.09 0.08 0.09 0.12 0.15
0.14 0.21 0.22 0.20 0.21 0.16 0.12 0.19 0.22 0.25 0.16 0.11 0.07 0.03 0.02 0.01 0.01 0.00 0.00 0.00 0.00 0.00 0.01 0.00 0.00 0.00 0.00 0.01 0.01 0.02 0.04 0.06 0.06 0.06 0.05 0.05 0.06 0.07 0.08 0.08 0.08 0.09 0.11 0.12
0.09 0.17 0.21 0.14 0.09 0.07 0.10 0.10 0.15 0.28 0.17 0.10 0.10 0.04 0.02 0.02 0.02 0.01 0.01 0.01 0.01 0.01 0.01 0.00 0.00 0.00 0.00 0.01 0.03 0.06 0.08 0.08 0.06 0.05 0.05 0.05 0.07 0.08 0.08 0.08 0.09 0.10 0.11 0.11
0.09 0.17 0.26 0.22 0.19 0.18 0.18 0.10 0.11 0.24 0.38 0.25 0.17 0.06 0.02 0.03 0.03 0.02 0.02 0.02 0.02 0.01 0.01 0.01 0.01 0.01 0.01 0.02 0.05 0.09 0.10 0.08 0.06 0.06 0.06 0.07 0.08 0.09 0.09 0.10 0.10 0.11 0.11 0.11
0.24 0.22 0.20 0.21 0.21 0.30 0.30 0.13 0.14 0.45 0.57 0.19 0.05 0.04 0.04 0.05 0.08 0.08 0.07 0.06 0.04 0.03 0.03 0.03 0.03 0.03 0.03 0.04 0.07 0.09 0.08 0.09 0.10 0.10 0.10 0.11 0.13 0.14 0.14 0.14 0.13 0.12 0.11 0.10
0.32 0.30 0.18 0.21 0.27 0.42 0.35 0.20 0.19 0.31 0.22 0.17 0.06 0.06 0.07 0.10 0.15 0.16 0.14 0.10 0.06 0.04 0.04 0.04 0.04 0.04 0.05 0.05 0.07 0.08 0.10 0.14 0.17 0.18 0.17 0.16 0.16 0.17 0.16 0.15 0.12 0.10 0.08 0.06
0.30 0.32 0.26 0.29 0.27 0.37 0.30 0.14 0.12 0.13 0.09 0.09 0.07 0.09 0.09 0.14 0.19 0.22 0.19 0.12 0.06 0.04 0.03 0.03 0.03 0.03 0.03 0.04 0.07 0.10 0.14 0.21 0.25 0.26 0.22 0.18 0.18 0.18 0.16 0.14 0.12 0.10 0.08 0.07
0.33 0.43 0.56 0.47 0.24 0.28 0.24 0.12 0.12 0.11 0.07 0.07 0.10 0.09 0.11 0.19 0.23 0.20 0.15 0.09 0.05 0.03 0.03 0.02 0.02 0.01 0.02 0.04 0.11 0.18 0.23 0.29 0.31 0.34 0.32 0.26 0.23 0.21 0.17 0.15 0.16 0.17 0.18 0.18
0.20 0.40 0.64 0.58 0.37 0.36 0.23 0.16 0.14 0.11 0.07 0.05 0.06 0.05 0.07 0.13 0.14 0.12 0.09 0.07 0.04 0.02 0.02 0.02 0.03 0.02 0.03 0.06 0.14 0.21 0.28 0.38 0.39 0.39 0.38 0.37 0.37 0.38 0.38 0.38 0.39 0.39 0.38 0.38
0.07 0.26 0.46 0.39 0.30 0.17 0.08 0.09 0.11 0.12 0.09 0.04 0.03 0.03 0.03 0.05 0.11 0.15 0.12 0.08 0.06 0.03 0.02 0.01 0.02 0.03 0.03 0.06 0.13 0.20 0.32 0.45 0.54 0.57 0.56 0.57 0.59 0.64 0.68 0.70 0.69 0.68 0.69 0.68
0.04 0.11 0.28 0.25 0.21 0.09 0.04 0.02 0.03 0.04 0.07 0.02 0.01 0.01 0.02 0.03 0.07 0.14 0.15 0.12 0.10 0.08 0.06 0.05 0.04 0.06 0.08 0.11 0.17 0.29 0.45 0.59 0.68 0.69 0.72 0.75 0.78 0.82 0.79 0.79 0.76 0.68 0.62 0.60
0.09 0.14 0.20 0.20 0.17 0.03 0.01 0.00 0.01 0.05 0.07 0.01 0.01 0.01 0.01 0.01 0.03 0.05 0.10 0.14 0.14 0.15 0.16 0.17 0.17 0.20 0.22 0.25 0.33 0.47 0.58 0.66 0.68 0.68 0.68 0.70 0.67 0.64 0.58 0.56 0.53 0.48 0.43 0.37
0.03 0.07 0.08 0.09 0.12 0.06 0.01 0.01 0.02 0.03 0.01 0.01 0.01 0.01 0.01 0.02 0.02 0.02 0.03 0.07 0.12 0.15 0.21 0.28 0.34 0.37 0.37 0.39 0.45 0.52 0.54 0.54 0.51 0.49 0.46 0.43 0.37 0.31 0.27 0.24 0.23 0.20 0.18 0.15
0.03 0.04 0.05 0.05 0.07 0.03 0.01 0.01 0.01 0.01 0.01 0.01 0.01 0.01 0.01 0.02 0.02 0.01 0.01 0.03 0.04 0.06 0.09 0.13 0.19 0.24 0.24 0.24 0.26 0.28 0.26 0.22 0.19 0.16 0.14 0.12 0.10 0.08 0.06 0.05 0.04 0.03 0.02 0.02
0.06 0.03 0.03 0.04 0.04 0.02 0.01 0.01 0.01 0.01 0.02 0.02 0.02 0.03 0.03 0.03 0.03 0.03 0.02 0.02 0.02 0.02 0.03 0.04 0.05 0.07 0.07 0.07 0.08 0.08 0.06 0.04 0.03 0.02 0.02 0.02 0.01 0.01 0.01 0.01 0.01 0.00 0.00 0.00
0.07 0.05 0.04 0.04 0.03 0.02 0.01 0.01 0.01 0.01 0.01 0.02 0.02 0.02 0.03 0.04 0.04 0.04 0.04 0.03 0.03 0.03 0.03 0.03 0.03 0.04 0.04 0.04 0.04 0.04 0.03 0.03 0.02 0.02 0.01 0.01 0.01 0.01 0.01 0.01 0.01 0.01 0.01 0.01
0.04 0.04 0.06 0.06 0.03 0.02 0.01 0.01 0.01 0.01 0.01 0.01 0.02 0.02 0.02 0.02 0.03 0.03 0.03 0.04 0.04 0.04 0.04 0.04 0.04 0.04 0.05 0.06 0.06 0.06 0.06 0.05 0.05 0.05 0.04 0.03 0.03 0.03 0.02 0.02 0.02 0.02 0.02 0.02

GEFSCGP_prec_meanprecacc_078.txt.gz
Total_Precipitation_Accumulation
1.54 1.46 1.09 0.59 0.42 0.29 0.20 0.19 0.19 0.15 0.18 0.19 0.19 0.15 0.16 0.17 0.17 0.16 0.13 0.08 0.07 0.08 0.10 0.13 0.16 0.22 0.29 0.35 0.38 0.40 0.40 0.44 0.54 0.56 0.52 0.43 0.37 0.35 0.31 0.28 0.25 0.20 0.17 0.15
1.33 0.98 0.61 0.44 0.40 0.34 0.27 0.23 0.21 0.18 0.18 0.19 0.16 0.11 0.09 0.10 0.12 0.12 0.10 0.08 0.04 0.04 0.06 0.08 0.11 0.12 0.16 0.22 0.28 0.32 0.33 0.36 0.39 0.44 0.50 0.51 0.55 0.54 0.46 0.42 0.34 0.25 0.22 0.21
0.97 0.57 0.46 0.52 0.46 0.41 0.29 0.21 0.16 0.18 0.20 0.20 0.16 0.12 0.07 0.07 0.07 0.08 0.07 0.06 0.04 0.02 0.02 0.04 0.06 0.08 0.10 0.14 0.20 0.27 0.32 0.35 0.39 0.49 0.61 0.62 0.60 0.52 0.42 0.31 0.26 0.26 0.28 0.29
0.85 0.49 0.46 0.54 0.41 0.33 0.27 0.15 0.13 0.15 0.21 0.22 0.16 0.15 0.05 0.04 0.05 0.05 0.04 0.03 0.03 0.01 0.01 0.01 0.02 0.04 0.06 0.08 0.13 0.17 0.23 0.29 0.35 0.46 0.50 0.45 0.38 0.32 0.30 0.36 0.40 0.43 0.41 0.39
0.80 0.52 0.51 0.54 0.38 0.28 0.24 0.13 0.14 0.15 0.20 0.21 0.12 0.10 0.04 0.02 0.02 0.02 0.02 0.02 0.01 0.01 0.01 0.01 0.01 0.02 0.03 0.06 0.10 0.13 0.18 0.24 0.33 0.40 0.45 0.49 0.42 0.36 0.40 0.44 0.43 0.41 0.39 0.39
0.62 0.47 0.54 0.47 0.36 0.30 0.26 0.23 0.24 0.24 0.31 0.30 0.09 0.04 0.02 0.01 0.01 0.01 0.01 0.01 0.01 0.01 0.00 0.01 0.01 0.01 0.01 0.03 0.05 0.09 0.13 0.17 0.22 0.31 0.40 0.38 0.34 0.35 0.36 0.39 0.40 0.37 0.34 0.33
0.81 0.59 0.47 0.42 0.45 0.41 0.35 0.38 0.55 0.59 0.49 0.19 0.04 0.02 0.01 0.00 0.00 0.00 0.00 0.00 0.00 0.01 0.00 0.00 0.00 0.00 0.00 0.00 0.02 0.04 0.07 0.09 0.12 0.21 0.27 0.28 0.32 0.35 0.34 0.37 0.38 0.35 0.30 0.26
0.75 0.77 0.45 0.39 0.42 0.42 0.33 0.27 0.30 0.28 0.16 0.05 0.02 0.02 0.01 0.00 0.00 0.00 0.00 0.00 0.00 0.00 0.00 0.00 0.00 0.00 0.00 0.00 0.01 0.03 0.04 0.05 0.08 0.14 0.19 0.23 0.26 0.27 0.27 0.31 0.32 0.34 0.33 0.34
0.37 0.44 0.28 0.25 0.24 0.26 0.33 0.25 0.13 0.23 0.19 0.12 0.03 0.01 0.01 0.00 0.00 0.00 0.00 0.00 0.00 0.00 0.00 0.00 0.00 0.00 0.00 0.00 0.01 0.02 0.03 0.04 0.06 0.09 0.12 0.14 0.16 0.17 0.19 0.22 0.24 0.26 0.28 0.30
0.19 0.25 0.22 0.20 0.23 0.24 0.23 0.19 0.22 0.41 0.28 0.13 0.04 0.01 0.01 0.01 0.00 0.00 0.00 0.00 0.00 0.00 0.00 0.00 0.00 0.00 0.00 0.00 0.01 0.01 0.03 0.04 0.06 0.09 0.09 0.09 0.10 0.12 0.15 0.16 0.14 0.15 0.18 0.20
0.16 0.23 0.24 0.23 0.23 0.18 0.15 0.21 0.24 0.27 0.18 0.11 0.07 0.03 0.02 0.01 0.01 0.00 0.00 0.00 0.00 0.00 0.01 0.00 0.00 0.00 0.00 0.01 0.01 0.03 0.04 0.06 0.07 0.07 0.06 0.07 0.08 0.10 0.11 0.12 0.13 0.14 0.15 0.14
0.10 0.19 0.23 0.16 0.09 0.09 0.12 0.12 0.18 0.32 0.19 0.11 0.11 0.05 0.02 0.02 0.02 0.01 0.01 0.01 0.01 0.01 0.01 0.00 0.00 0.00 0.00 0.01 0.03 0.06 0.08 0.08 0.06 0.06 0.05 0.06 0.08 0.09 0.10 0.10 0.11 0.12 0.13 0.13
0.11 0.19 0.27 0.24 0.19 0.19 0.19 0.11 0.13 0.27 0.40 0.26 0.18 0.07 0.02 0.03 0.03 0.02 0.02 0.02 0.02 0.01 0.01 0.01 0.01 0.01 0.01 0.02 0.05 0.09 0.10 0.08 0.06 0.06 0.06 0.07 0.08 0.10 0.10 0.11 0.11 0.11 0.12 0.12
0.27 0.24 0.21 0.22 0.22 0.31 0.31 0.14 0.15 0.46 0.58 0.20 0.06 0.05 0.04 0.06 0.08 0.09 0.08 0.06 0.04 0.03 0.03 0.03 0.03 0.03 0.03 0.04 0.07 0.09 0.08 0.09 0.10 0.10 0.10 0.11 0.13 0.14 0.14 0.14 0.13 0.12 0.11 0.10
0.32 0.30 0.18 0.21 0.28 0.43 0.36 0.21 0.19 0.32 0.23 0.19 0.07 0.06 0.08 0.11 0.16 0.17 0.14 0.10 0.06 0.04 0.04 0.04 0.04 0.04 0.05 0.05 0.07 0.08 0.10 0.14 0.17 0.18 0.17 0.16 0.16 0.17 0.16 0.15 0.12 0.10 0.08 0.06
0.30 0.32 0.26 0.29 0.27 0.37 0.30 0.14 0.12 0.13 0.09 0.09 0.07 0.09 0.09 0.14 0.20 0.23 0.19 0.12 0.06 0.04 0.03 0.03 0.03 0.03 0.03 0.04 0.07 0.10 0.14 0.21 0.25 0.26 0.22 0.18 0.18 0.18 0.16 0.14 0.12 0.10 0.08 0.07
0.34 0.43 0.56 0.47 0.24 0.28 0.24 0.13 0.12 0.11 0.07 0.07 0.10 0.10 0.11 0.19 0.24 0.21 0.15 0.09 0.05 0.03 0.03 0.02 0.02 0.01 0.02 0.04 0.11 0.18 0.23 0.29 0.31 0.34 0.32 0.26 0.23 0.21 0.17 0.15 0.16 0.18 0.18 0.18
0.21 0.40 0.64 0.59 0.38 0.37 0.24 0.17 0.15 0.12 0.08 0.06 0.06 0.06 0.08 0.13 0.15 0.13 0.09 0.07 0.04 0.03 0.02 0.02 0.03 0.02 0.03 0.06 0.14 0.21 0.28 0.38 0.39 0.39 0.38 0.37 0.37 0.38 0.38 0.38 0.39 0.39 0.38 0.38
0.07 0.26 0.47 0.41 0.31 0.17 0.08 0.10 0.11 0.12 0.10 0.04 0.04 0.04 0.03 0.06 0.11 0.16 0.12 0.09 0.06 0.03 0.02 0.01 0.02 0.03 0.03 0.06 0.13 0.20 0.32 0.45 0.54 0.57 0.56 0.57 0.59 0.64 0.68 0.70 0.69 0.68 0.69 0.68
0.04 0.12 0.28 0.26 0.22 0.09 0.04 0.02 0.03 0.05 0.08 0.02 0.01 0.02 0.02 0.03 0.09 0.15 0.16 0.13 0.11 0.08 0.06 0.05 0.04 0.06 0.08 0.11 0.17 0.29 0.45 0.59 0.68 0.69 0.72 0.75 0.78 0.82 0.79 0.79 0.76 0.68 0.62 0.60
0.09 0.15 0.21 0.21 0.18 0.04 0.01 0.00 0.01 0.05 0.07 0.01 0.01 0.01 0.01 0.02 0.04 0.06 0.10 0.14 0.14 0.15 0.17 0.17 0.18 0.20 0.22 0.25 0.33 0.47 0.58 0.66 0.68 0.68 0.68 0.70 0.67 0.64 0.58 0.56 0.53 0.48 0.43 0.37
0.04 0.07 0.08 0.09 0.13 0.06 0.01 0.01 0.02 0.03 0.01 0.01 0.01 0.01 0.02 0.02 0.02 0.03 0.04 0.07 0.12 0.16 0.22 0.28 0.34 0.37 0.37 0.39 0.45 0.52 0.54 0.54 0.51 0.49 0.46 0.43 0.37 0.31 0.27 0.25 0.23 0.21 0.18 0.16
0.03 0.04 0.05 0.05 0.07 0.03 0.01 0.01 0.02 0.01 0.02 0.01 0.01 0.01 0.02 0.02 0.02 0.02 0.02 0.03 0.05 0.07 0.09 0.14 0.20 0.24 0.24 0.24 0.26 0.28 0.26 0.22 0.19 0.16 0.14 0.12 0.10 0.08 0.07 0.05 0.04 0.04 0.03 0.03
0.06 0.03 0.03 0.04 0.04 0.02 0.02 0.02 0.02 0.02 0.02 0.02 0.02 0.03 0.03 0.03 0.03 0.03 0.02 0.02 0.02 0.03 0.03 0.04 0.06 0.07 0.07 0.07 0.08 0.08 0.06 0.04 0.03 0.03 0.02 0.02 0.02 0.02 0.02 0.02 0.02 0.02 0.01 0.01
0.08 0.05 0.04 0.04 0.03 0.02 0.02 0.02 0.01 0.01 0.01 0.02 0.02 0.02 0.03 0.04 0.04 0.04 0.04 0.03 0.03 0.03 0.03 0.03 0.04 0.04 0.04 0.04 0.04 0.04 0.04 0.03 0.03 0.02 0.02 0.02 0.02 0.02 0.02 0.02 0.02 0.03 0.02 0.02
0.04 0.05 0.06 0.06 0.03 0.02 0.01 0.01 0.01 0.01 0.01 0.01 0.02 0.02 0.02 0.02 0.03 0.03 0.03 0.04 0.04 0.05 0.04 0.04 0.04 0.05 0.05 0.06 0.06 0.07 0.06 0.06 0.06 0.06 0.05 0.05 0.04 0.04 0.04 0.04 0.04 0.05 0.05 0.05

GEFSCGP_prec_meanprecacc_084.txt.gz
Total_Precipitation_Accumulation
1.57 1.51 1.12 0.61 0.45 0.32 0.25 0.23 0.22 0.18 0.22 0.26 0.26 0.21 0.21 0.23 0.23 0.22 0.19 0.14 0.13 0.15 0.22 0.33 0.42 0.55 0.68 0.77 0.77 0.76 0.74 0.77 0.88 0.88 0.80 0.69 0.56 0.49 0.45 0.41 0.36 0.30 0.26 0.22
1.37 1.03 0.65 0.47 0.44 0.38 0.31 0.26 0.24 0.21 0.20 0.23 0.20 0.14 0.12 0.14 0.17 0.17 0.16 0.13 0.09 0.10 0.14 0.21 0.28 0.35 0.44 0.57 0.68 0.71 0.72 0.77 0.77 0.77 0.84 0.84 0.85 0.78 0.65 0.59 0.49 0.39 0.35 0.33
1.01 0.62 0.50 0.57 0.52 0.46 0.33 0.24 0.19 0.21 0.23 0.24 0.20 0.16 0.10 0.09 0.10 0.12 0.11 0.10 0.08 0.08 0.09 0.12 0.16 0.23 0.29 0.37 0.52 0.68 0.73 0.79 0.81 0.87 1.00 1.04 1.02 0.87 0.69 0.51 0.44 0.45 0.48 0.50
0.90 0.55 0.53 0.61 0.46 0.37 0.31 0.17 0.16 0.18 0.25 0.27 0.20 0.21 0.07 0.05 0.07 0.07 0.06 0.06 0.05 0.05 0.05 0.06 0.09 0.12 0.16 0.21 0.33 0.48 0.60 0.73 0.80 0.88 0.91 0.87 0.81 0.71 0.60 0.60 0.61 0.64 0.64 0.63
0.84 0.57 0.58 0.62 0.42 0.32 0.27 0.17 0.19 0.19 0.23 0.25 0.15 0.14 0.07 0.03 0.04 0.04 0.03 0.03 0.03 0.03 0.03 0.04 0.05 0.07 0.08 0.13 0.22 0.34 0.43 0.57 0.68 0.80 0.89 0.95 0.86 0.77 0.78 0.77 0.74 0.69 0.66 0.64
0.64 0.52 0.62 0.54 0.41 0.36 0.31 0.30 0.33 0.29 0.36 0.35 0.11 0.08 0.04 0.01 0.01 0.02 0.01 0.01 0.02 0.02 0.03 0.03 0.04 0.03 0.04 0.05 0.10 0.19 0.28 0.39 0.50 0.66 0.79 0.83 0.78 0.77 0.73 0.73 0.74 0.71 0.66 0.62
0.85 0.64 0.52 0.47 0.53 0.47 0.40 0.46 0.64 0.67 0.55 0.22 0.06 0.05 0.02 0.01 0.00 0.01 0.01 0.01 0.02 0.03 0.03 0.03 0.03 0.02 0.02 0.02 0.04 0.09 0.16 0.24 0.30 0.44 0.55 0.62 0.69 0.72 0.69 0.69 0.68 0.66 0.62 0.57
0.78 0.82 0.50 0.43 0.49 0.49 0.37 0.31 0.34 0.31 0.19 0.08 0.05 0.04 0.01 0.00 0.00 0.00 0.00 0.01 0.01 0.02 0.02 0.03 0.03 0.02 0.02 0.02 0.03 0.06 0.10 0.13 0.19 0.27 0.33 0.40 0.47 0.53 0.52 0.53 0.55 0.57 0.57 0.60
0.40 0.48 0.31 0.27 0.27 0.30 0.37 0.28 0.15 0.25 0.20 0.14 0.06 0.03 0.02 0.01 0.00 0.00 0.00 0.00 0.01 0.02 0.01 0.02 0.02 0.01 0.02 0.02 0.02 0.04 0.07 0.09 0.12 0.16 0.21 0.23 0.27 0.32 0.36 0.38 0.39 0.41 0.43 0.46
0.21 0.28 0.25 0.22 0.26 0.27 0.27 0.22 0.24 0.42 0.30 0.14 0.06 0.03 0.03 0.01 0.00 0.00 0.00 0.01 0.01 0.01 0.01 0.01 0.01 0.01 0.01 0.01 0.01 0.03 0.05 0.07 0.09 0.11 0.13 0.15 0.17 0.20 0.25 0.28 0.26 0.25 0.27 0.30
0.18 0.26 0.27 0.24 0.25 0.21 0.18 0.24 0.26 0.29 0.20 0.13 0.09 0.05 0.03 0.02 0.02 0.01 0.01 0.01 0.01 0.01 0.01 0.01 0.01 0.01 0.00 0.01 0.02 0.03 0.06 0.07 0.08 0.08 0.08 0.09 0.11 0.15 0.17 0.19 0.20 0.21 0.22 0.21
0.11 0.20 0.24 0.17 0.10 0.10 0.15 0.14 0.19 0.33 0.21 0.13 0.12 0.07 0.04 0.03 0.02 0.01 0.01 0.02 0.02 0.02 0.01 0.01 0.01 0.01 0.01 0.01 0.03 0.06 0.09 0.08 0.07 0.06 0.06 0.07 0.09 0.11 0.13 0.13 0.14 0.16 0.17 0.18
0.12 0.20 0.28 0.25 0.20 0.21 0.21 0.12 0.14 0.28 0.41 0.27 0.20 0.10 0.05 0.04 0.04 0.03 0.03 0.03 0.03 0.02 0.01 0.01 0.01 0.01 0.01 0.02 0.05 0.09 0.10 0.08 0.06 0.06 0.06 0.07 0.09 0.11 0.11 0.12 0.13 0.13 0.14 0.14
0.30 0.26 0.22 0.23 0.23 0.33 0.32 0.15 0.15 0.47 0.59 0.21 0.08 0.07 0.06 0.07 0.09 0.10 0.09 0.07 0.05 0.03 0.03 0.03 0.03 0.03 0.03 0.04 0.07 0.09 0.09 0.09 0.10 0.10 0.10 0.11 0.13 0.14 0.15 0.15 0.14 0.13 0.12 0.12
0.34 0.32 0.19 0.22 0.28 0.44 0.37 0.21 0.19 0.32 0.24 0.21 0.09 0.08 0.09 0.11 0.16 0.17 0.14 0.10 0.06 0.04 0.04 0.04 0.04 0.04 0.05 0.05 0.07 0.08 0.10 0.14 0.17 0.18 0.17 0.16 0.16 0.17 0.17 0.15 0.13 0.10 0.09 0.07
0.31 0.34 0.26 0.29 0.27 0.38 0.30 0.15 0.13 0.14 0.11 0.10 0.08 0.10 0.11 0.15 0.20 0.23 0.19 0.12 0.06 0.04 0.04 0.03 0.03 0.03 0.03 0.04 0.07 0.10 0.15 0.21 0.26 0.27 0.23 0.19 0.18 0.18 0.16 0.14 0.13 0.11 0.09 0.07
0.34 0.44 0.56 0.47 0.24 0.28 0.24 0.13 0.12 0.11 0.08 0.08 0.11 0.11 0.11 0.19 0.24 0.21 0.16 0.09 0.05 0.04 0.03 0.03 0.02 0.02 0.02 0.05 0.11 0.18 0.23 0.29 0.31 0.34 0.32 0.26 0.24 0.21 0.17 0.15 0.16 0.18 0.19 0.19
0.21 0.40 0.64 0.59 0.38 0.37 0.24 0.17 0.15 0.12 0.08 0.06 0.07 0.06 0.08 0.13 0.15 0.13 0.10 0.08 0.05 0.03 0.02 0.02 0.03 0.03 0.03 0.06 0.14 0.21 0.28 0.38 0.39 0.39 0.38 0.38 0.38 0.38 0.38 0.38 0.39 0.39 0.38 0.39
0.07 0.26 0.47 0.41 0.31 0.17 0.09 0.10 0.12 0.12 0.10 0.05 0.04 0.04 0.03 0.06 0.12 0.16 0.13 0.10 0.07 0.04 0.02 0.02 0.02 0.03 0.04 0.07 0.13 0.21 0.32 0.45 0.54 0.57 0.56 0.57 0.60 0.64 0.68 0.70 0.69 0.68 0.69 0.68
0.04 0.12 0.28 0.26 0.22 0.09 0.04 0.02 0.03 0.05 0.08 0.02 0.02 0.02 0.02 0.04 0.09 0.16 0.17 0.13 0.11 0.09 0.07 0.05 0.05 0.06 0.09 0.12 0.17 0.30 0.46 0.59 0.68 0.69 0.72 0.75 0.78 0.82 0.79 0.79 0.76 0.68 0.63 0.60
0.10 0.15 0.21 0.21 0.19 0.04 0.01 0.00 0.01 0.05 0.07 0.02 0.01 0.01 0.01 0.02 0.05 0.06 0.11 0.15 0.14 0.15 0.17 0.17 0.18 0.20 0.22 0.25 0.34 0.47 0.58 0.66 0.69 0.68 0.68 0.70 0.67 0.64 0.58 0.56 0.54 0.49 0.43 0.38
0.04 0.07 0.08 0.09 0.13 0.06 0.01 0.01 0.02 0.03 0.01 0.01 0.01 0.01 0.02 0.02 0.02 0.03 0.04 0.08 0.12 0.16 0.22 0.29 0.34 0.37 0.37 0.40 0.46 0.52 0.54 0.54 0.51 0.49 0.46 0.43 0.37 0.31 0.27 0.25 0.24 0.21 0.18 0.16
0.03 0.04 0.05 0.05 0.07 0.03 0.01 0.01 0.02 0.01 0.02 0.01 0.01 0.01 0.02 0.02 0.02 0.02 0.02 0.03 0.05 0.07 0.09 0.14 0.20 0.24 0.25 0.25 0.27 0.29 0.26 0.23 0.19 0.16 0.14 0.12 0.10 0.08 0.07 0.05 0.05 0.04 0.04 0.04
0.06 0.03 0.03 0.04 0.04 0.02 0.02 0.02 0.02 0.02 0.02 0.02 0.02 0.03 0.03 0.03 0.03 0.03 0.02 0.02 0.03 0.03 0.03 0.04 0.06 0.07 0.07 0.08 0.08 0.08 0.07 0.05 0.04 0.03 0.02 0.02 0.02 0.02 0.03 0.03 0.03 0.03 0.02 0.03
0.08 0.05 0.04 0.04 0.03 0.02 0.02 0.02 0.01 0.01 0.01 0.02 0.02 0.02 0.03 0.04 0.04 0.04 0.04 0.03 0.03 0.03 0.03 0.04 0.04 0.04 0.04 0.04 0.05 0.05 0.05 0.04 0.04 0.03 0.02 0.02 0.03 0.03 0.03 0.03 0.03 0.04 0.04 0.04
0.04 0.05 0.06 0.06 0.03 0.02 0.01 0.01 0.01 0.01 0.01 0.01 0.02 0.02 0.02 0.02 0.04 0.03 0.03 0.04 0.04 0.05 0.04 0.04 0.04 0.05 0.06 0.06 0.07 0.07 0.07 0.07 0.07 0.06 0.06 0.05 0.05 0.05 0.05 0.05 0.05 0.07 0.07 0.08

GEFSCGP_prec_meanprecacc_090.txt.gz
Total_Precipitation_Accumulation
1.60 1.53 1.15 0.63 0.47 0.34 0.27 0.25 0.25 0.21 0.25 0.28 0.29 0.25 0.26 0.29 0.29 0.29 0.26 0.21 0.22 0.29 0.39 0.50 0.59 0.77 0.92 1.01 1.10 1.12 1.12 1.16 1.29 1.28 1.17 1.04 0.86 0.71 0.60 0.52 0.46 0.38 0.32 0.28
1.40 1.06 0.66 0.49 0.46 0.40 0.34 0.30 0.28 0.24 0.22 0.26 0.25 0.19 0.16 0.17 0.22 0.25 0.23 0.21 0.18 0.21 0.28 0.35 0.42 0.51 0.67 0.81 0.98 1.08 1.10 1.15 1.15 1.15 1.19 1.20 1.23 1.06 0.86 0.76 0.63 0.50 0.46 0.41
1.05 0.65 0.52 0.59 0.54 0.48 0.35 0.27 0.23 0.24 0.26 0.27 0.24 0.20 0.13 0.13 0.17 0.19 0.19 0.19 0.17 0.16 0.18 0.23 0.28 0.38 0.48 0.61 0.80 1.01 1.12 1.19 1.20 1.25 1.40 1.42 1.42 1.22 0.97 0.72 0.62 0.60 0.59 0.60
0.93 0.56 0.54 0.64 0.49 0.40 0.35 0.19 0.18 0.21 0.30 0.33 0.25 0.30 0.14 0.11 0.12 0.13 0.13 0.15 0.14 0.11 0.10 0.13 0.18 0.25 0.32 0.41 0.56 0.75 0.94 1.10 1.20 1.27 1.31 1.26 1.21 1.08 0.90 0.85 0.81 0.83 0.80 0.77
0.87 0.59 0.61 0.65 0.45 0.35 0.31 0.19 0.21 0.22 0.28 0.30 0.19 0.24 0.16 0.07 0.08 0.10 0.09 0.09 0.09 0.09 0.09 0.10 0.11 0.16 0.20 0.28 0.41 0.56 0.72 0.91 1.07 1.19 1.27 1.33 1.23 1.14 1.13 1.07 0.98 0.88 0.82 0.79
0.65 0.53 0.65 0.56 0.43 0.38 0.34 0.32 0.35 0.33 0.41 0.40 0.15 0.17 0.15 0.05 0.06 0.06 0.05 0.06 0.07 0.07 0.08 0.08 0.08 0.09 0.12 0.14 0.24 0.37 0.49 0.65 0.80 1.00 1.16 1.23 1.15 1.12 1.07 1.04 1.01 0.96 0.89 0.82
0.88 0.66 0.55 0.49 0.57 0.49 0.43 0.51 0.71 0.74 0.62 0.27 0.09 0.11 0.10 0.04 0.03 0.03 0.04 0.04 0.06 0.07 0.07 0.06 0.07 0.07 0.08 0.10 0.13 0.20 0.31 0.43 0.53 0.69 0.83 0.94 1.04 1.05 1.00 0.99 0.96 0.91 0.85 0.79
0.83 0.87 0.54 0.45 0.53 0.54 0.41 0.37 0.43 0.40 0.24 0.13 0.10 0.11 0.07 0.03 0.02 0.02 0.03 0.04 0.05 0.06 0.07 0.07 0.07 0.08 0.10 0.09 0.10 0.15 0.21 0.29 0.38 0.46 0.54 0.63 0.75 0.82 0.77 0.76 0.79 0.80 0.79 0.81
0.45 0.52 0.34 0.29 0.30 0.33 0.41 0.32 0.17 0.30 0.25 0.21 0.13 0.08 0.05 0.03 0.02 0.02 0.03 0.05 0.06 0.06 0.06 0.06 0.08 0.07 0.11 0.11 0.10 0.11 0.15 0.21 0.29 0.33 0.38 0.39 0.47 0.54 0.59 0.58 0.57 0.60 0.64 0.68
0.24 0.32 0.27 0.24 0.28 0.29 0.29 0.24 0.27 0.49 0.38 0.23 0.12 0.08 0.08 0.05 0.03 0.03 0.04 0.04 0.05 0.05 0.05 0.06 0.07 0.08 0.09 0.10 0.10 0.09 0.12 0.16 0.20 0.24 0.27 0.29 0.33 0.37 0.43 0.47 0.44 0.42 0.45 0.50
0.19 0.29 0.30 0.27 0.28 0.24 0.20 0.26 0.28 0.32 0.24 0.20 0.14 0.10 0.09 0.06 0.05 0.04 0.04 0.05 0.07 0.07 0.07 0.06 0.05 0.06 0.06 0.08 0.08 0.09 0.11 0.14 0.15 0.16 0.16 0.18 0.23 0.26 0.28 0.31 0.33 0.33 0.34 0.34
0.12 0.22 0.26 0.18 0.11 0.11 0.16 0.16 0.20 0.36 0.24 0.16 0.16 0.13 0.11 0.08 0.07 0.05 0.05 0.05 0.06 0.06 0.06 0.04 0.03 0.03 0.04 0.05 0.07 0.10 0.12 0.13 0.12 0.11 0.10 0.11 0.16 0.19 0.21 0.21 0.22 0.24 0.26 0.27
0.13 0.22 0.31 0.28 0.22 0.22 0.22 0.13 0.15 0.30 0.44 0.29 0.22 0.16 0.11 0.10 0.08 0.07 0.06 0.06 0.06 0.06 0.05 0.04 0.04 0.03 0.03 0.04 0.08 0.12 0.13 0.11 0.09 0.10 0.09 0.10 0.12 0.14 0.15 0.17 0.18 0.18 0.19 0.20
0.31 0.28 0.25 0.27 0.26 0.35 0.33 0.15 0.15 0.48 0.61 0.23 0.10 0.12 0.12 0.11 0.12 0.12 0.10 0.08 0.06 0.06 0.06 0.06 0.06 0.04 0.04 0.06 0.09 0.11 0.11 0.11 0.12 0.12 0.12 0.14 0.16 0.17 0.17 0.17 0.16 0.16 0.16 0.15
0.35 0.33 0.19 0.23 0.29 0.44 0.38 0.21 0.20 0.33 0.25 0.23 0.11 0.11 0.13 0.14 0.18 0.18 0.15 0.11 0.08 0.06 0.05 0.05 0.06 0.05 0.06 0.07 0.08 0.09 0.11 0.15 0.18 0.19 0.18 0.17 0.18 0.18 0.18 0.16 0.14 0.12 0.11 0.09
0.31 0.34 0.27 0.29 0.27 0.38 0.30 0.15 0.13 0.14 0.11 0.11 0.09 0.12 0.12 0.16 0.21 0.24 0.20 0.13 0.07 0.05 0.04 0.04 0.04 0.04 0.04 0.06 0.09 0.12 0.16 0.22 0.27 0.27 0.23 0.20 0.19 0.18 0.17 0.15 0.14 0.12 0.10 0.09
0.34 0.44 0.57 0.48 0.24 0.28 0.24 0.13 0.12 0.11 0.08 0.09 0.12 0.12 0.12 0.20 0.24 0.21 0.16 0.10 0.06 0.05 0.04 0.04 0.03 0.03 0.03 0.06 0.13 0.20 0.25 0.31 0.33 0.36 0.33 0.28 0.25 0.22 0.18 0.16 0.17 0.19 0.20 0.20
0.21 0.40 0.64 0.59 0.38 0.37 0.24 0.17 0.15 0.12 0.08 0.06 0.07 0.06 0.08 0.13 0.15 0.13 0.10 0.08 0.05 0.03 0.03 0.03 0.03 0.03 0.04 0.07 0.15 0.23 0.29 0.40 0.41 0.41 0.40 0.39 0.39 0.39 0.39 0.38 0.39 0.40 0.39 0.40
0.07 0.27 0.47 0.41 0.32 0.17 0.09 0.10 0.12 0.12 0.10 0.05 0.04 0.04 0.03 0.06 0.12 0.16 0.13 0.10 0.07 0.04 0.02 0.02 0.02 0.03 0.04 0.07 0.13 0.21 0.33 0.47 0.56 0.59 0.58 0.58 0.61 0.65 0.69 0.71 0.69 0.69 0.70 0.69
0.04 0.12 0.29 0.27 0.22 0.09 0.04 0.02 0.03 0.05 0.08 0.02 0.02 0.02 0.02 0.04 0.09 0.16 0.17 0.13 0.11 0.09 0.07 0.05 0.05 0.06 0.09 0.12 0.18 0.30 0.46 0.60 0.69 0.71 0.73 0.76 0.80 0.85 0.82 0.80 0.77 0.69 0.63 0.61
0.10 0.15 0.21 0.21 0.19 0.04 0.01 0.00 0.01 0.05 0.08 0.02 0.01 0.01 0.01 0.02 0.05 0.06 0.11 0.15 0.14 0.15 0.17 0.17 0.18 0.20 0.22 0.25 0.34 0.47 0.58 0.66 0.69 0.69 0.69 0.71 0.68 0.67 0.62 0.60 0.57 0.51 0.45 0.39
0.04 0.08 0.09 0.09 0.13 0.06 0.01 0.01 0.02 0.03 0.01 0.01 0.01 0.01 0.02 0.02 0.02 0.03 0.04 0.08 0.12 0.16 0.22 0.29 0.34 0.37 0.37 0.40 0.46 0.52 0.54 0.54 0.52 0.49 0.47 0.43 0.38 0.32 0.29 0.28 0.28 0.25 0.22 0.19
0.03 0.04 0.05 0.05 0.07 0.03 0.01 0.01 0.02 0.01 0.02 0.01 0.01 0.01 0.02 0.02 0.02 0.02 0.02 0.03 0.05 0.07 0.09 0.14 0.20 0.24 0.25 0.25 0.27 0.29 0.26 0.23 0.19 0.16 0.14 0.13 0.10 0.09 0.07 0.06 0.06 0.07 0.07 0.07
0.06 0.03 0.03 0.04 0.04 0.02 0.02 0.02 0.02 0.02 0.02 0.02 0.02 0.03 0.03 0.03 0.03 0.03 0.02 0.02 0.03 0.03 0.03 0.04 0.06 0.07 0.07 0.08 0.08 0.09 0.07 0.05 0.04 0.03 0.03 0.03 0.03 0.03 0.03 0.03 0.03 0.04 0.05 0.05
0.08 0.05 0.04 0.04 0.03 0.02 0.02 0.02 0.01 0.01 0.01 0.02 0.02 0.02 0.03 0.04 0.04 0.04 0.04 0.03 0.03 0.03 0.03 0.04 0.04 0.04 0.04 0.04 0.05 0.05 0.05 0.04 0.04 0.03 0.03 0.03 0.03 0.04 0.03 0.03 0.04 0.05 0.05 0.06
0.04 0.05 0.06 0.06 0.03 0.02 0.01 0.01 0.01 0.01 0.01 0.01 0.02 0.02 0.02 0.02 0.04 0.03 0.03 0.04 0.04 0.05 0.04 0.04 0.04 0.05 0.06 0.06 0.07 0.07 0.07 0.08 0.07 0.07 0.06 0.06 0.06 0.07 0.07 0.07 0.07 0.08 0.08 0.10

GEFSCGP_prec_meanprecacc_096.txt.gz
Total_Precipitation_Accumulation
1.62 1.54 1.15 0.63 0.47 0.35 0.28 0.27 0.27 0.23 0.26 0.30 0.31 0.30 0.34 0.34 0.32 0.32 0.30 0.25 0.25 0.35 0.48 0.58 0.64 0.85 1.01 1.10 1.22 1.33 1.40 1.46 1.58 1.59 1.52 1.41 1.21 0.98 0.82 0.74 0.66 0.55 0.49 0.42
1.43 1.07 0.67 0.49 0.46 0.41 0.35 0.33 0.31 0.26 0.25 0.32 0.33 0.30 0.26 0.23 0.26 0.28 0.27 0.25 0.23 0.26 0.36 0.45 0.51 0.62 0.78 0.92 1.11 1.25 1.33 1.43 1.44 1.44 1.53 1.59 1.61 1.40 1.12 0.99 0.87 0.73 0.65 0.59
1.07 0.66 0.52 0.59 0.54 0.49 0.38 0.31 0.27 0.28 0.30 0.33 0.32 0.28 0.19 0.20 0.24 0.25 0.25 0.25 0.22 0.23 0.27 0.32 0.38 0.51 0.64 0.75 0.96 1.19 1.32 1.42 1.44 1.49 1.67 1.78 1.85 1.63 1.31 0.99 0.86 0.85 0.84 0.82
0.94 0.57 0.55 0.65 0.50 0.42 0.37 0.21 0.21 0.24 0.34 0.38 0.31 0.38 0.23 0.21 0.22 0.23 0.24 0.23 0.20 0.20 0.21 0.23 0.29 0.38 0.48 0.58 0.74 0.93 1.12 1.32 1.45 1.48 1.53 1.54 1.55 1.47 1.24 1.12 1.04 1.07 1.06 1.03
0.88 0.60 0.61 0.66 0.46 0.36 0.33 0.21 0.23 0.24 0.33 0.36 0.26 0.35 0.28 0.15 0.16 0.20 0.21 0.18 0.18 0.18 0.19 0.21 0.26 0.31 0.37 0.45 0.61 0.76 0.90 1.10 1.31 1.41 1.47 1.55 1.47 1.45 1.49 1.41 1.26 1.12 1.07 1.04
0.66 0.54 0.66 0.57 0.44 0.39 0.35 0.33 0.37 0.35 0.46 0.48 0.21 0.27 0.28 0.14 0.13 0.15 0.14 0.14 0.17 0.16 0.19 0.22 0.24 0.26 0.28 0.29 0.39 0.57 0.69 0.85 1.01 1.21 1.37 1.43 1.38 1.41 1.43 1.40 1.32 1.21 1.12 1.05
0.89 0.67 0.56 0.50 0.58 0.50 0.44 0.53 0.74 0.77 0.68 0.35 0.15 0.20 0.22 0.11 0.09 0.10 0.10 0.10 0.12 0.16 0.20 0.23 0.24 0.23 0.24 0.24 0.26 0.36 0.49 0.63 0.73 0.91 1.06 1.19 1.27 1.32 1.35 1.36 1.27 1.16 1.07 0.99
0.85 0.89 0.55 0.46 0.54 0.55 0.42 0.39 0.48 0.47 0.29 0.19 0.16 0.19 0.17 0.11 0.08 0.07 0.09 0.12 0.13 0.16 0.18 0.20 0.23 0.25 0.26 0.24 0.25 0.28 0.34 0.43 0.53 0.63 0.73 0.84 0.97 1.07 1.06 1.10 1.11 1.07 1.01 0.99
0.49 0.53 0.34 0.30 0.31 0.35 0.43 0.34 0.21 0.35 0.29 0.26 0.18 0.14 0.12 0.09 0.07 0.08 0.11 0.16 0.18 0.18 0.21 0.21 0.23 0.24 0.25 0.25 0.27 0.26 0.29 0.34 0.44 0.47 0.52 0.55 0.66 0.77 0.84 0.85 0.86 0.86 0.88 0.90
0.26 0.34 0.28 0.25 0.30 0.31 0.30 0.27 0.32 0.55 0.46 0.31 0.16 0.11 0.15 0.12 0.08 0.08 0.11 0.13 0.15 0.18 0.19 0.19 0.22 0.22 0.24 0.26 0.26 0.24 0.26 0.29 0.35 0.39 0.41 0.43 0.48 0.56 0.68 0.72 0.67 0.65 0.68 0.74
0.20 0.30 0.31 0.28 0.30 0.25 0.21 0.27 0.31 0.36 0.31 0.28 0.17 0.15 0.16 0.12 0.11 0.11 0.11 0.12 0.16 0.18 0.20 0.19 0.19 0.21 0.25 0.28 0.27 0.23 0.26 0.28 0.30 0.31 0.31 0.33 0.38 0.41 0.46 0.55 0.56 0.55 0.56 0.55
0.13 0.22 0.27 0.19 0.12 0.11 0.17 0.17 0.22 0.39 0.27 0.19 0.18 0.18 0.16 0.13 0.12 0.11 0.12 0.14 0.16 0.16 0.17 0.15 0.14 0.15 0.21 0.21 0.19 0.20 0.24 0.24 0.24 0.24 0.24 0.26 0.28 0.31 0.34 0.38 0.42 0.44 0.45 0.45
0.14 0.23 0.32 0.30 0.24 0.22 0.23 0.14 0.15 0.31 0.45 0.31 0.24 0.20 0.16 0.13 0.12 0.11 0.12 0.14 0.15 0.15 0.14 0.13 0.12 0.10 0.12 0.12 0.14 0.19 0.21 0.19 0.18 0.18 0.18 0.20 0.21 0.23 0.25 0.29 0.31 0.33 0.36 0.36
0.32 0.28 0.25 0.29 0.27 0.36 0.33 0.16 0.16 0.49 0.62 0.25 0.12 0.16 0.15 0.15 0.16 0.16 0.15 0.14 0.12 0.12 0.12 0.13 0.12 0.10 0.10 0.13 0.15 0.18 0.17 0.18 0.20 0.20 0.19 0.20 0.22 0.23 0.22 0.22 0.22 0.24 0.26 0.27
0.35 0.33 0.19 0.23 0.29 0.44 0.38 0.21 0.20 0.33 0.25 0.24 0.13 0.13 0.16 0.16 0.20 0.20 0.17 0.13 0.10 0.09 0.09 0.10 0.10 0.09 0.11 0.12 0.14 0.15 0.17 0.20 0.24 0.25 0.23 0.21 0.22 0.22 0.22 0.20 0.18 0.17 0.17 0.16
0.32 0.34 0.27 0.29 0.27 0.38 0.31 0.15 0.13 0.14 0.11 0.11 0.10 0.13 0.13 0.17 0.22 0.25 0.21 0.14 0.08 0.07 0.06 0.05 0.06 0.06 0.06 0.09 0.14 0.18 0.20 0.26 0.30 0.31 0.26 0.22 0.22 0.20 0.19 0.18 0.17 0.15 0.14 0.13
0.34 0.44 0.57 0.48 0.24 0.28 0.24 0.13 0.13 0.11 0.08 0.09 0.13 0.12 0.12 0.20 0.24 0.22 0.16 0.10 0.06 0.05 0.05 0.04 0.04 0.04 0.05 0.08 0.16 0.23 0.28 0.34 0.35 0.38 0.35 0.30 0.27 0.24 0.19 0.17 0.19 0.21 0.22 0.23
0.21 0.40 0.65 0.59 0.38 0.37 0.24 0.17 0.15 0.12 0.08 0.06 0.07 0.07 0.08 0.13 0.15 0.13 0.10 0.08 0.05 0.03 0.03 0.03 0.03 0.03 0.04 0.08 0.16 0.24 0.31 0.42 0.44 0.43 0.42 0.41 0.41 0.40 0.40 0.40 0.41 0.42 0.42 0.43
0.07 0.27 0.47 0.41 0.32 0.17 0.09 0.10 0.12 0.13 0.10 0.05 0.04 0.04 0.03 0.06 0.12 0.16 0.14 0.10 0.07 0.04 0.02 0.02 0.02 0.03 0.04 0.07 0.13 0.21 0.33 0.48 0.58 0.62 0.59 0.60 0.63 0.67 0.70 0.72 0.71 0.71 0.73 0.72
0.04 0.12 0.29 0.27 0.22 0.10 0.04 0.02 0.03 0.05 0.08 0.02 0.02 0.02 0.02 0.04 0.09 0.16 0.17 0.13 0.11 0.09 0.07 0.05 0.05 0.06 0.09 0.12 0.18 0.30 0.46 0.60 0.70 0.72 0.74 0.76 0.81 0.86 0.84 0.82 0.78 0.70 0.65 0.65
0.10 0.15 0.21 0.21 0.19 0.04 0.01 0.00 0.01 0.05 0.08 0.02 0.01 0.01 0.01 0.02 0.05 0.06 0.11 0.15 0.14 0.15 0.17 0.17 0.18 0.20 0.22 0.25 0.34 0.47 0.58 0.66 0.69 0.69 0.69 0.71 0.69 0.68 0.65 0.63 0.59 0.53 0.47 0.42
0.04 0.08 0.09 0.09 0.13 0.06 0.01 0.01 0.02 0.03 0.01 0.01 0.01 0.01 0.02 0.02 0.02 0.03 0.04 0.08 0.12 0.16 0.22 0.29 0.34 0.37 0.37 0.40 0.46 0.52 0.54 0.54 0.52 0.49 0.47 0.43 0.38 0.33 0.31 0.31 0.31 0.28 0.26 0.22
0.03 0.04 0.05 0.05 0.07 0.03 0.01 0.01 0.02 0.01 0.02 0.01 0.01 0.01 0.02 0.02 0.02 0.02 0.02 0.03 0.05 0.07 0.09 0.14 0.20 0.24 0.25 0.25 0.27 0.29 0.26 0.23 0.19 0.16 0.14 0.13 0.10 0.09 0.08 0.08 0.08 0.09 0.11 0.11
0.06 0.03 0.03 0.04 0.04 0.02 0.02 0.02 0.02 0.02 0.02 0.02 0.02 0.03 0.03 0.03 0.03 0.03 0.02 0.02 0.03 0.03 0.03 0.04 0.06 0.07 0.07 0.08 0.08 0.09 0.07 0.05 0.04 0.03 0.03 0.03 0.03 0.03 0.03 0.04 0.04 0.05 0.06 0.08
0.08 0.05 0.04 0.04 0.03 0.02 0.02 0.02 0.01 0.01 0.01 0.02 0.02 0.02 0.03 0.04 0.04 0.04 0.04 0.03 0.03 0.03 0.03 0.04 0.04 0.04 0.04 0.04 0.05 0.05 0.05 0.04 0.04 0.03 0.03 0.03 0.03 0.04 0.04 0.04 0.04 0.05 0.06 0.08
0.04 0.05 0.06 0.06 0.03 0.02 0.01 0.01 0.01 0.01 0.01 0.01 0.02 0.02 0.02 0.02 0.04 0.03 0.03 0.04 0.04 0.05 0.04 0.04 0.04 0.05 0.06 0.06 0.07 0.07 0.07 0.08 0.07 0.07 0.06 0.07 0.07 0.07 0.07 0.07 0.07 0.09 0.09 0.11

GEFSCGP_prec_meanprecacc_102.txt.gz
Total_Precipitation_Accumulation
1.64 1.56 1.16 0.63 0.47 0.35 0.28 0.28 0.28 0.23 0.27 0.31 0.32 0.31 0.35 0.35 0.32 0.33 0.31 0.26 0.28 0.41 0.58 0.66 0.70 0.91 1.08 1.18 1.30 1.38 1.48 1.54 1.66 1.68 1.66 1.61 1.42 1.17 0.98 0.87 0.80 0.70 0.63 0.60
1.45 1.08 0.67 0.49 0.46 0.41 0.36 0.34 0.32 0.27 0.26 0.33 0.35 0.32 0.29 0.27 0.30 0.32 0.32 0.31 0.30 0.37 0.47 0.54 0.58 0.68 0.83 0.97 1.18 1.32 1.41 1.54 1.55 1.55 1.66 1.77 1.81 1.61 1.31 1.16 1.02 0.88 0.79 0.75
1.09 0.66 0.52 0.59 0.55 0.50 0.38 0.31 0.28 0.28 0.31 0.34 0.34 0.31 0.24 0.25 0.30 0.31 0.31 0.31 0.28 0.28 0.34 0.40 0.46 0.58 0.71 0.81 1.01 1.25 1.40 1.54 1.57 1.61 1.82 1.95 2.05 1.85 1.53 1.19 1.03 1.00 0.99 0.96
0.95 0.58 0.56 0.66 0.50 0.42 0.38 0.22 0.21 0.24 0.36 0.40 0.33 0.43 0.28 0.27 0.31 0.31 0.31 0.31 0.26 0.25 0.28 0.31 0.36 0.46 0.57 0.67 0.84 1.01 1.20 1.40 1.57 1.62 1.65 1.66 1.70 1.65 1.44 1.32 1.23 1.23 1.21 1.17
0.89 0.61 0.63 0.67 0.46 0.37 0.34 0.21 0.24 0.25 0.35 0.39 0.29 0.40 0.33 0.19 0.22 0.29 0.33 0.32 0.29 0.27 0.27 0.28 0.34 0.43 0.48 0.58 0.78 0.91 1.02 1.21 1.43 1.54 1.59 1.67 1.60 1.58 1.63 1.59 1.48 1.36 1.28 1.24
0.68 0.55 0.67 0.57 0.44 0.40 0.36 0.35 0.38 0.36 0.49 0.51 0.24 0.32 0.33 0.22 0.22 0.25 0.25 0.29 0.30 0.28 0.32 0.35 0.38 0.41 0.43 0.45 0.61 0.82 0.87 1.00 1.16 1.37 1.53 1.58 1.52 1.54 1.54 1.53 1.48 1.42 1.37 1.33
0.91 0.68 0.56 0.50 0.58 0.51 0.45 0.54 0.76 0.79 0.71 0.37 0.17 0.24 0.29 0.20 0.20 0.23 0.23 0.24 0.26 0.32 0.35 0.37 0.38 0.37 0.38 0.38 0.45 0.59 0.72 0.84 0.91 1.09 1.23 1.36 1.44 1.46 1.48 1.49 1.41 1.32 1.26 1.21
0.87 0.90 0.55 0.46 0.54 0.56 0.43 0.40 0.50 0.49 0.31 0.21 0.18 0.23 0.23 0.20 0.19 0.18 0.18 0.21 0.22 0.27 0.29 0.31 0.35 0.40 0.42 0.39 0.42 0.46 0.52 0.62 0.68 0.77 0.88 0.99 1.14 1.22 1.20 1.24 1.26 1.23 1.17 1.17
0.50 0.54 0.35 0.30 0.31 0.35 0.44 0.35 0.22 0.36 0.31 0.28 0.20 0.17 0.16 0.16 0.16 0.16 0.18 0.21 0.25 0.29 0.33 0.33 0.37 0.39 0.42 0.43 0.45 0.45 0.47 0.52 0.59 0.61 0.66 0.69 0.80 0.92 0.98 0.99 1.01 1.02 1.03 1.07
0.27 0.35 0.29 0.26 0.31 0.32 0.31 0.28 0.33 0.57 0.48 0.33 0.18 0.14 0.20 0.17 0.14 0.16 0.20 0.21 0.25 0.35 0.34 0.34 0.37 0.38 0.40 0.42 0.45 0.42 0.42 0.44 0.53 0.57 0.61 0.61 0.63 0.70 0.82 0.88 0.83 0.85 0.87 0.91
0.22 0.33 0.33 0.31 0.32 0.26 0.22 0.28 0.32 0.38 0.33 0.30 0.18 0.19 0.22 0.19 0.17 0.18 0.20 0.23 0.30 0.36 0.36 0.35 0.36 0.39 0.43 0.46 0.44 0.40 0.42 0.43 0.46 0.49 0.49 0.49 0.54 0.59 0.65 0.71 0.73 0.73 0.77 0.77
0.14 0.23 0.29 0.21 0.13 0.12 0.18 0.18 0.23 0.41 0.28 0.19 0.19 0.22 0.22 0.19 0.17 0.17 0.19 0.22 0.27 0.30 0.33 0.31 0.31 0.35 0.40 0.41 0.37 0.36 0.41 0.41 0.43 0.44 0.42 0.43 0.46 0.51 0.53 0.56 0.60 0.62 0.66 0.68
0.15 0.23 0.32 0.31 0.25 0.23 0.24 0.15 0.16 0.32 0.46 0.31 0.26 0.24 0.20 0.16 0.14 0.14 0.16 0.18 0.21 0.23 0.22 0.22 0.22 0.22 0.24 0.26 0.25 0.29 0.32 0.30 0.32 0.33 0.32 0.33 0.36 0.41 0.46 0.48 0.49 0.52 0.56 0.59
0.33 0.28 0.26 0.30 0.28 0.36 0.34 0.16 0.16 0.49 0.62 0.25 0.14 0.19 0.17 0.16 0.17 0.18 0.17 0.16 0.16 0.16 0.17 0.18 0.18 0.15 0.16 0.19 0.21 0.23 0.22 0.22 0.25 0.26 0.25 0.27 0.31 0.34 0.36 0.38 0.38 0.39 0.42 0.46
0.36 0.33 0.19 0.23 0.29 0.44 0.38 0.21 0.20 0.33 0.26 0.25 0.14 0.14 0.17 0.17 0.20 0.21 0.18 0.15 0.12 0.11 0.11 0.13 0.14 0.13 0.15 0.16 0.17 0.18 0.20 0.24 0.28 0.29 0.28 0.27 0.27 0.28 0.29 0.30 0.30 0.30 0.30 0.31
0.32 0.34 0.27 0.29 0.28 0.38 0.31 0.15 0.13 0.14 0.12 0.12 0.10 0.14 0.14 0.18 0.22 0.25 0.22 0.15 0.09 0.08 0.07 0.07 0.08 0.09 0.10 0.12 0.16 0.20 0.23 0.30 0.34 0.36 0.31 0.28 0.27 0.26 0.23 0.22 0.22 0.22 0.23 0.24
0.34 0.44 0.57 0.48 0.24 0.28 0.25 0.14 0.13 0.11 0.09 0.09 0.13 0.13 0.13 0.20 0.24 0.22 0.17 0.10 0.07 0.05 0.05 0.05 0.05 0.06 0.08 0.12 0.19 0.27 0.32 0.39 0.40 0.43 0.38 0.33 0.29 0.27 0.24 0.22 0.23 0.25 0.27 0.29
0.21 0.40 0.65 0.59 0.38 0.37 0.24 0.17 0.15 0.12 0.08 0.06 0.08 0.07 0.08 0.13 0.15 0.13 0.10 0.08 0.05 0.04 0.03 0.03 0.04 0.04 0.05 0.10 0.19 0.28 0.34 0.45 0.47 0.46 0.45 0.43 0.43 0.43 0.44 0.43 0.44 0.45 0.44 0.45
0.07 0.27 0.47 0.41 0.32 0.17 0.09 0.10 0.12 0.13 0.10 0.05 0.05 0.04 0.04 0.06 0.12 0.17 0.14 0.10 0.07 0.04 0.02 0.02 0.02 0.03 0.04 0.07 0.13 0.22 0.34 0.48 0.59 0.64 0.62 0.62 0.65 0.69 0.73 0.74 0.73 0.73 0.75 0.75
0.04 0.12 0.29 0.27 0.22 0.10 0.04 0.02 0.03 0.05 0.08 0.02 0.02 0.02 0.02 0.04 0.09 0.16 0.17 0.13 0.11 0.09 0.07 0.05 0.05 0.06 0.09 0.12 0.18 0.30 0.46 0.60 0.70 0.72 0.75 0.78 0.83 0.89 0.86 0.84 0.80 0.72 0.68 0.67
0.10 0.15 0.21 0.21 0.19 0.04 0.01 0.00 0.01 0.05 0.08 0.02 0.01 0.01 0.01 0.02 0.05 0.06 0.11 0.15 0.14 0.15 0.17 0.17 0.18 0.20 0.22 0.25 0.34 0.47 0.58 0.66 0.69 0.69 0.70 0.71 0.69 0.69 0.67 0.65 0.60 0.55 0.49 0.44
0.04 0.08 0.09 0.09 0.13 0.06 0.01 0.01 0.02 0.03 0.02 0.01 0.01 0.01 0.02 0.02 0.02 0.03 0.04 0.08 0.12 0.16 0.22 0.29 0.34 0.37 0.37 0.40 0.46 0.52 0.54 0.54 0.52 0.49 0.47 0.43 0.38 0.33 0.31 0.32 0.31 0.29 0.27 0.23
0.03 0.04 0.05 0.05 0.07 0.03 0.01 0.01 0.02 0.01 0.02 0.01 0.01 0.01 0.02 0.02 0.02 0.02 0.02 0.03 0.05 0.07 0.09 0.14 0.20 0.24 0.25 0.25 0.27 0.29 0.26 0.23 0.19 0.16 0.14 0.13 0.10 0.09 0.08 0.08 0.08 0.10 0.11 0.12
0.06 0.03 0.03 0.04 0.04 0.02 0.02 0.02 0.02 0.02 0.02 0.02 0.02 0.03 0.03 0.03 0.03 0.03 0.02 0.02 0.03 0.03 0.03 0.04 0.06 0.07 0.07 0.08 0.08 0.09 0.07 0.05 0.04 0.03 0.03 0.03 0.03 0.03 0.03 0.04 0.04 0.05 0.07 0.08
0.08 0.05 0.04 0.04 0.03 0.02 0.02 0.02 0.01 0.01 0.01 0.02 0.02 0.02 0.03 0.04 0.04 0.04 0.04 0.03 0.03 0.03 0.03 0.04 0.04 0.04 0.04 0.04 0.05 0.05 0.05 0.04 0.04 0.03 0.03 0.03 0.03 0.04 0.04 0.04 0.04 0.06 0.06 0.08
0.04 0.05 0.06 0.06 0.03 0.02 0.01 0.01 0.01 0.01 0.01 0.01 0.02 0.02 0.02 0.02 0.04 0.03 0.03 0.04 0.04 0.05 0.04 0.04 0.04 0.05 0.06 0.06 0.07 0.07 0.08 0.08 0.07 0.07 0.06 0.07 0.07 0.07 0.07 0.07 0.07 0.09 0.10 0.12

GEFSCGP_prec_meanprecacc_108.txt.gz
Total_Precipitation_Accumulation
1.69 1.59 1.18 0.65 0.48 0.35 0.28 0.28 0.28 0.23 0.27 0.31 0.33 0.32 0.36 0.35 0.32 0.33 0.31 0.27 0.29 0.43 0.61 0.69 0.73 0.94 1.12 1.21 1.32 1.41 1.50 1.56 1.69 1.71 1.68 1.65 1.48 1.27 1.10 0.99 0.89 0.79 0.73 0.70
1.49 1.11 0.68 0.50 0.46 0.41 0.36 0.34 0.32 0.27 0.26 0.33 0.35 0.32 0.29 0.27 0.30 0.33 0.33 0.31 0.32 0.39 0.50 0.59 0.63 0.71 0.87 1.02 1.22 1.35 1.44 1.57 1.58 1.58 1.69 1.80 1.86 1.67 1.41 1.26 1.12 0.98 0.92 0.87
1.11 0.68 0.53 0.60 0.55 0.50 0.38 0.31 0.28 0.28 0.31 0.34 0.34 0.32 0.25 0.25 0.31 0.32 0.32 0.33 0.31 0.32 0.37 0.43 0.50 0.63 0.75 0.85 1.06 1.30 1.43 1.57 1.60 1.64 1.85 1.99 2.09 1.91 1.61 1.28 1.11 1.08 1.10 1.09
0.97 0.59 0.56 0.66 0.51 0.42 0.38 0.22 0.22 0.25 0.36 0.40 0.33 0.44 0.28 0.28 0.32 0.34 0.35 0.34 0.30 0.29 0.31 0.34 0.39 0.49 0.61 0.72 0.88 1.05 1.24 1.43 1.60 1.65 1.69 1.72 1.76 1.71 1.51 1.40 1.31 1.31 1.31 1.29
0.91 0.62 0.64 0.68 0.46 0.37 0.34 0.22 0.24 0.26 0.35 0.39 0.29 0.41 0.34 0.20 0.25 0.32 0.38 0.38 0.35 0.34 0.33 0.32 0.37 0.48 0.53 0.63 0.83 0.96 1.07 1.27 1.48 1.59 1.64 1.72 1.67 1.65 1.71 1.67 1.59 1.48 1.41 1.38
0.69 0.56 0.67 0.58 0.44 0.40 0.37 0.35 0.38 0.36 0.49 0.52 0.24 0.33 0.34 0.24 0.26 0.28 0.30 0.34 0.37 0.38 0.42 0.44 0.47 0.50 0.51 0.54 0.71 0.91 0.97 1.08 1.23 1.42 1.60 1.66 1.59 1.60 1.63 1.61 1.57 1.52 1.50 1.48
0.92 0.69 0.57 0.51 0.59 0.52 0.45 0.55 0.77 0.80 0.71 0.37 0.17 0.25 0.30 0.23 0.24 0.27 0.27 0.29 0.33 0.41 0.43 0.48 0.50 0.47 0.47 0.50 0.59 0.76 0.90 1.01 1.05 1.19 1.34 1.48 1.55 1.54 1.56 1.58 1.50 1.41 1.36 1.32
0.88 0.92 0.57 0.47 0.56 0.57 0.43 0.41 0.51 0.49 0.31 0.22 0.18 0.24 0.24 0.23 0.23 0.21 0.22 0.25 0.28 0.33 0.35 0.38 0.45 0.48 0.49 0.49 0.53 0.57 0.64 0.74 0.79 0.87 0.98 1.09 1.24 1.33 1.29 1.33 1.35 1.32 1.27 1.25
0.51 0.56 0.36 0.31 0.32 0.36 0.45 0.37 0.23 0.38 0.32 0.29 0.21 0.18 0.18 0.18 0.18 0.18 0.21 0.24 0.29 0.33 0.36 0.38 0.44 0.47 0.51 0.52 0.54 0.54 0.54 0.58 0.67 0.70 0.75 0.77 0.90 1.02 1.07 1.08 1.10 1.10 1.11 1.15
0.28 0.37 0.30 0.27 0.32 0.33 0.32 0.29 0.34 0.59 0.49 0.34 0.19 0.15 0.24 0.20 0.16 0.18 0.22 0.24 0.28 0.38 0.37 0.37 0.41 0.44 0.47 0.51 0.54 0.52 0.51 0.52 0.61 0.67 0.71 0.70 0.73 0.81 0.93 0.98 0.92 0.93 0.94 0.97
0.22 0.33 0.34 0.32 0.33 0.27 0.23 0.29 0.33 0.39 0.34 0.31 0.19 0.21 0.25 0.23 0.20 0.21 0.23 0.27 0.34 0.39 0.39 0.39 0.41 0.44 0.49 0.53 0.52 0.49 0.52 0.53 0.56 0.60 0.61 0.60 0.63 0.69 0.75 0.81 0.82 0.82 0.86 0.85
0.14 0.24 0.29 0.22 0.14 0.12 0.18 0.18 0.23 0.41 0.28 0.20 0.20 0.24 0.24 0.21 0.19 0.19 0.21 0.25 0.31 0.34 0.38 0.36 0.37 0.42 0.46 0.47 0.43 0.42 0.48 0.50 0.55 0.57 0.54 0.54 0.56 0.59 0.61 0.64 0.68 0.70 0.74 0.77
0.15 0.24 0.33 0.31 0.25 0.24 0.25 0.15 0.16 0.32 0.46 0.32 0.27 0.26 0.22 0.18 0.16 0.16 0.17 0.19 0.23 0.26 0.26 0.27 0.27 0.28 0.29 0.30 0.30 0.35 0.38 0.37 0.39 0.42 0.40 0.42 0.44 0.48 0.52 0.55 0.55 0.57 0.62 0.66
0.34 0.28 0.26 0.30 0.29 0.37 0.34 0.17 0.16 0.49 0.63 0.26 0.15 0.20 0.19 0.17 0.18 0.19 0.18 0.17 0.17 0.18 0.18 0.20 0.20 0.18 0.19 0.22 0.25 0.28 0.26 0.27 0.30 0.31 0.30 0.32 0.36 0.39 0.42 0.44 0.43 0.44 0.47 0.52
0.36 0.33 0.20 0.23 0.29 0.44 0.38 0.22 0.20 0.33 0.26 0.25 0.15 0.15 0.18 0.18 0.21 0.22 0.19 0.16 0.13 0.12 0.12 0.15 0.16 0.15 0.16 0.18 0.19 0.20 0.22 0.28 0.32 0.33 0.32 0.31 0.31 0.33 0.35 0.37 0.37 0.36 0.37 0.39
0.32 0.34 0.27 0.29 0.28 0.38 0.31 0.15 0.13 0.15 0.12 0.12 0.11 0.15 0.15 0.18 0.23 0.26 0.23 0.16 0.10 0.09 0.09 0.09 0.10 0.11 0.12 0.14 0.18 0.22 0.26 0.35 0.39 0.40 0.35 0.32 0.31 0.30 0.28 0.27 0.28 0.28 0.29 0.31
0.34 0.44 0.57 0.48 0.24 0.28 0.25 0.14 0.13 0.12 0.09 0.09 0.13 0.13 0.13 0.21 0.25 0.22 0.17 0.11 0.07 0.06 0.06 0.07 0.07 0.08 0.11 0.15 0.23 0.30 0.35 0.43 0.45 0.47 0.42 0.35 0.32 0.30 0.26 0.24 0.25 0.27 0.29 0.32
0.21 0.40 0.65 0.59 0.38 0.37 0.24 0.17 0.15 0.12 0.09 0.06 0.08 0.07 0.09 0.13 0.15 0.13 0.10 0.08 0.06 0.04 0.03 0.04 0.05 0.05 0.07 0.12 0.21 0.29 0.36 0.48 0.50 0.50 0.47 0.44 0.44 0.44 0.45 0.45 0.45 0.46 0.45 0.47
0.07 0.27 0.47 0.41 0.32 0.17 0.09 0.10 0.12 0.13 0.10 0.05 0.05 0.04 0.04 0.06 0.12 0.17 0.14 0.10 0.07 0.04 0.03 0.02 0.03 0.04 0.04 0.07 0.14 0.22 0.34 0.49 0.61 0.66 0.64 0.64 0.66 0.70 0.73 0.75 0.75 0.75 0.77 0.76
0.04 0.12 0.29 0.27 0.22 0.10 0.04 0.02 0.03 0.05 0.08 0.02 0.02 0.02 0.02 0.04 0.09 0.16 0.17 0.13 0.11 0.09 0.07 0.05 0.05 0.06 0.09 0.12 0.18 0.30 0.46 0.60 0.70 0.73 0.76 0.79 0.84 0.90 0.87 0.85 0.81 0.74 0.69 0.69
0.10 0.15 0.21 0.21 0.19 0.04 0.01 0.00 0.01 0.05 0.08 0.02 0.01 0.01 0.01 0.02 0.05 0.06 0.11 0.15 0.14 0.15 0.17 0.17 0.18 0.20 0.22 0.25 0.34 0.47 0.58 0.66 0.69 0.69 0.70 0.72 0.70 0.70 0.68 0.66 0.62 0.56 0.51 0.46
0.04 0.08 0.09 0.09 0.13 0.06 0.01 0.01 0.02 0.03 0.02 0.01 0.01 0.01 0.02 0.02 0.02 0.03 0.04 0.08 0.12 0.16 0.22 0.29 0.34 0.37 0.37 0.40 0.46 0.52 0.54 0.54 0.52 0.49 0.47 0.44 0.38 0.33 0.32 0.32 0.32 0.30 0.28 0.25
0.03 0.04 0.05 0.05 0.07 0.03 0.01 0.01 0.02 0.01 0.02 0.01 0.01 0.01 0.02 0.02 0.02 0.02 0.02 0.03 0.05 0.07 0.09 0.14 0.20 0.24 0.25 0.25 0.27 0.29 0.26 0.23 0.19 0.16 0.14 0.13 0.10 0.09 0.08 0.08 0.08 0.10 0.12 0.13
0.06 0.03 0.03 0.04 0.04 0.02 0.02 0.02 0.02 0.02 0.02 0.02 0.02 0.03 0.03 0.03 0.03 0.03 0.02 0.02 0.03 0.03 0.03 0.04 0.06 0.07 0.07 0.08 0.08 0.09 0.07 0.05 0.04 0.03 0.03 0.03 0.03 0.03 0.03 0.04 0.04 0.05 0.07 0.09
0.08 0.05 0.04 0.04 0.03 0.02 0.02 0.02 0.01 0.01 0.01 0.02 0.02 0.02 0.03 0.04 0.04 0.04 0.04 0.03 0.03 0.03 0.03 0.04 0.04 0.04 0.04 0.04 0.05 0.05 0.05 0.04 0.04 0.03 0.03 0.03 0.03 0.04 0.04 0.04 0.04 0.06 0.06 0.09
0.04 0.05 0.06 0.06 0.03 0.02 0.01 0.01 0.01 0.01 0.01 0.01 0.02 0.02 0.02 0.02 0.04 0.03 0.03 0.04 0.04 0.05 0.04 0.04 0.04 0.05 0.06 0.06 0.07 0.07 0.08 0.08 0.07 0.07 0.06 0.07 0.07 0.07 0.07 0.07 0.07 0.09 0.10 0.12

GEFSCGP_prec_meanprecacc_114.txt.gz
Total_Precipitation_Accumulation
1.72 1.62 1.20 0.67 0.49 0.36 0.29 0.28 0.28 0.23 0.27 0.31 0.33 0.32 0.36 0.35 0.32 0.33 0.31 0.27 0.29 0.43 0.61 0.69 0.73 0.95 1.13 1.22 1.33 1.42 1.51 1.57 1.71 1.74 1.71 1.69 1.52 1.33 1.17 1.07 0.99 0.93 0.88 0.87
1.51 1.12 0.69 0.51 0.47 0.41 0.36 0.34 0.32 0.27 0.26 0.33 0.35 0.33 0.29 0.27 0.30 0.33 0.33 0.32 0.33 0.40 0.50 0.60 0.64 0.72 0.88 1.03 1.23 1.36 1.46 1.60 1.62 1.63 1.72 1.85 1.91 1.73 1.47 1.32 1.20 1.08 1.04 1.01
1.13 0.69 0.54 0.61 0.56 0.51 0.39 0.32 0.28 0.29 0.31 0.35 0.34 0.32 0.25 0.25 0.31 0.32 0.32 0.34 0.31 0.33 0.38 0.44 0.50 0.64 0.77 0.87 1.08 1.32 1.45 1.60 1.64 1.68 1.89 2.03 2.14 1.97 1.66 1.33 1.17 1.15 1.18 1.19
1.00 0.61 0.57 0.67 0.51 0.43 0.39 0.22 0.22 0.25 0.37 0.40 0.34 0.44 0.28 0.28 0.33 0.34 0.35 0.34 0.30 0.29 0.32 0.35 0.40 0.51 0.62 0.75 0.91 1.08 1.26 1.45 1.63 1.68 1.73 1.77 1.82 1.77 1.56 1.45 1.36 1.37 1.38 1.37
0.94 0.64 0.65 0.69 0.47 0.38 0.35 0.22 0.25 0.26 0.35 0.40 0.29 0.42 0.34 0.20 0.25 0.33 0.39 0.39 0.36 0.34 0.34 0.33 0.38 0.49 0.55 0.65 0.85 0.98 1.09 1.29 1.51 1.62 1.67 1.77 1.72 1.71 1.77 1.73 1.64 1.54 1.48 1.45
0.71 0.57 0.68 0.59 0.45 0.41 0.37 0.36 0.39 0.37 0.50 0.52 0.24 0.34 0.36 0.24 0.27 0.29 0.30 0.35 0.38 0.38 0.43 0.45 0.48 0.51 0.53 0.56 0.73 0.93 0.99 1.11 1.26 1.47 1.65 1.70 1.64 1.66 1.69 1.68 1.63 1.59 1.58 1.55
0.94 0.71 0.58 0.52 0.60 0.53 0.46 0.56 0.78 0.81 0.73 0.38 0.17 0.25 0.32 0.25 0.27 0.28 0.28 0.30 0.34 0.41 0.44 0.49 0.51 0.48 0.49 0.52 0.61 0.78 0.92 1.05 1.12 1.27 1.41 1.55 1.62 1.61 1.63 1.66 1.58 1.48 1.42 1.37
0.90 0.95 0.58 0.48 0.56 0.58 0.44 0.42 0.53 0.52 0.33 0.22 0.19 0.25 0.26 0.24 0.23 0.22 0.22 0.25 0.29 0.33 0.35 0.38 0.45 0.49 0.50 0.50 0.54 0.58 0.65 0.76 0.82 0.91 1.02 1.14 1.32 1.42 1.38 1.41 1.42 1.36 1.31 1.29
0.53 0.58 0.37 0.31 0.32 0.36 0.46 0.38 0.23 0.39 0.32 0.30 0.22 0.19 0.19 0.18 0.19 0.18 0.21 0.25 0.29 0.34 0.37 0.38 0.45 0.48 0.52 0.54 0.56 0.55 0.56 0.60 0.70 0.73 0.78 0.82 0.95 1.09 1.14 1.17 1.17 1.15 1.15 1.19
0.29 0.38 0.31 0.27 0.32 0.33 0.32 0.30 0.35 0.60 0.51 0.36 0.20 0.16 0.25 0.21 0.17 0.19 0.23 0.25 0.28 0.38 0.37 0.37 0.42 0.45 0.48 0.53 0.56 0.55 0.54 0.55 0.65 0.71 0.75 0.76 0.79 0.86 0.98 1.05 0.99 0.99 1.00 1.04
0.23 0.34 0.35 0.32 0.33 0.28 0.23 0.30 0.34 0.40 0.35 0.33 0.20 0.22 0.26 0.23 0.20 0.21 0.24 0.27 0.34 0.39 0.40 0.39 0.42 0.45 0.50 0.55 0.54 0.52 0.55 0.56 0.59 0.63 0.64 0.65 0.67 0.72 0.79 0.86 0.88 0.88 0.91 0.91
0.14 0.24 0.30 0.22 0.14 0.12 0.18 0.18 0.23 0.42 0.29 0.20 0.21 0.25 0.24 0.22 0.20 0.20 0.22 0.25 0.31 0.35 0.38 0.37 0.38 0.42 0.47 0.48 0.44 0.44 0.49 0.52 0.57 0.60 0.57 0.57 0.59 0.62 0.64 0.68 0.73 0.75 0.78 0.81
0.16 0.24 0.33 0.32 0.26 0.24 0.25 0.15 0.16 0.33 0.47 0.32 0.27 0.27 0.22 0.19 0.16 0.16 0.17 0.20 0.24 0.26 0.27 0.27 0.28 0.28 0.29 0.31 0.31 0.35 0.39 0.37 0.40 0.43 0.42 0.43 0.46 0.50 0.55 0.58 0.59 0.62 0.67 0.71
0.34 0.29 0.26 0.31 0.29 0.37 0.35 0.17 0.16 0.49 0.63 0.26 0.15 0.21 0.19 0.17 0.18 0.19 0.18 0.17 0.17 0.18 0.19 0.21 0.21 0.19 0.20 0.23 0.26 0.28 0.27 0.28 0.31 0.32 0.31 0.33 0.36 0.40 0.44 0.46 0.45 0.46 0.50 0.55
0.36 0.33 0.20 0.23 0.29 0.44 0.38 0.22 0.20 0.34 0.26 0.26 0.15 0.16 0.18 0.18 0.22 0.22 0.20 0.16 0.13 0.12 0.13 0.15 0.16 0.15 0.16 0.18 0.19 0.20 0.22 0.28 0.33 0.34 0.33 0.32 0.32 0.34 0.36 0.38 0.39 0.38 0.39 0.40
0.32 0.34 0.27 0.29 0.28 0.38 0.31 0.15 0.13 0.15 0.12 0.12 0.11 0.15 0.15 0.19 0.23 0.26 0.23 0.16 0.11 0.09 0.09 0.10 0.11 0.12 0.12 0.14 0.18 0.22 0.27 0.35 0.39 0.42 0.37 0.33 0.33 0.32 0.30 0.29 0.30 0.30 0.32 0.34
0.34 0.44 0.57 0.48 0.24 0.28 0.25 0.14 0.13 0.12 0.09 0.09 0.13 0.13 0.13 0.21 0.25 0.23 0.17 0.11 0.07 0.06 0.07 0.07 0.07 0.09 0.11 0.16 0.23 0.31 0.36 0.43 0.45 0.47 0.42 0.36 0.33 0.32 0.29 0.27 0.27 0.29 0.32 0.35
0.21 0.40 0.65 0.59 0.38 0.37 0.24 0.17 0.15 0.12 0.09 0.06 0.08 0.07 0.09 0.13 0.15 0.13 0.10 0.09 0.06 0.04 0.04 0.04 0.05 0.06 0.07 0.13 0.22 0.30 0.37 0.48 0.51 0.50 0.47 0.45 0.44 0.45 0.47 0.47 0.48 0.49 0.48 0.50
0.07 0.27 0.48 0.42 0.32 0.17 0.09 0.10 0.12 0.13 0.10 0.05 0.05 0.04 0.04 0.06 0.12 0.17 0.14 0.10 0.07 0.04 0.03 0.02 0.03 0.04 0.05 0.08 0.14 0.23 0.35 0.50 0.61 0.67 0.65 0.65 0.67 0.70 0.74 0.77 0.76 0.76 0.78 0.77
0.04 0.12 0.29 0.27 0.23 0.10 0.04 0.02 0.03 0.05 0.08 0.02 0.02 0.02 0.02 0.04 0.09 0.16 0.17 0.13 0.11 0.09 0.07 0.05 0.05 0.06 0.09 0.12 0.18 0.30 0.46 0.61 0.71 0.74 0.77 0.80 0.85 0.90 0.87 0.86 0.82 0.75 0.71 0.70
0.10 0.15 0.22 0.22 0.19 0.04 0.01 0.00 0.01 0.05 0.08 0.02 0.01 0.01 0.01 0.02 0.05 0.06 0.11 0.15 0.14 0.15 0.17 0.17 0.18 0.20 0.22 0.25 0.34 0.47 0.58 0.66 0.69 0.69 0.70 0.73 0.71 0.71 0.69 0.66 0.62 0.57 0.52 0.47
0.04 0.08 0.09 0.10 0.13 0.06 0.01 0.01 0.02 0.03 0.02 0.01 0.01 0.01 0.02 0.02 0.02 0.03 0.04 0.08 0.12 0.16 0.22 0.29 0.34 0.37 0.37 0.40 0.46 0.52 0.54 0.54 0.52 0.49 0.47 0.44 0.39 0.34 0.33 0.33 0.33 0.32 0.29 0.26
0.03 0.05 0.05 0.05 0.07 0.03 0.01 0.01 0.02 0.01 0.02 0.01 0.01 0.01 0.02 0.02 0.02 0.02 0.02 0.03 0.05 0.07 0.09 0.14 0.20 0.24 0.25 0.25 0.27 0.29 0.26 0.23 0.19 0.16 0.14 0.13 0.10 0.09 0.08 0.08 0.09 0.11 0.13 0.14
0.06 0.03 0.03 0.04 0.04 0.02 0.02 0.02 0.02 0.02 0.02 0.02 0.02 0.03 0.03 0.03 0.03 0.03 0.02 0.02 0.03 0.03 0.03 0.04 0.06 0.07 0.07 0.08 0.08 0.09 0.07 0.05 0.04 0.03 0.03 0.03 0.03 0.03 0.03 0.04 0.04 0.05 0.07 0.09
0.08 0.05 0.04 0.04 0.03 0.02 0.02 0.02 0.01 0.01 0.01 0.02 0.02 0.02 0.03 0.04 0.04 0.04 0.04 0.03 0.03 0.03 0.03 0.04 0.04 0.04 0.04 0.04 0.05 0.05 0.05 0.04 0.04 0.03 0.03 0.03 0.03 0.04 0.04 0.04 0.04 0.06 0.06 0.09
0.04 0.05 0.07 0.06 0.03 0.02 0.01 0.01 0.01 0.01 0.01 0.01 0.02 0.02 0.02 0.02 0.04 0.03 0.03 0.04 0.04 0.05 0.04 0.04 0.04 0.05 0.06 0.06 0.07 0.07 0.08 0.08 0.07 0.07 0.06 0.07 0.07 0.07 0.07 0.07 0.07 0.09 0.10 0.12

GEFSCGP_prec_meanprecacc_120.txt.gz
Total_Precipitation_Accumulation
1.75 1.65 1.23 0.68 0.50 0.37 0.31 0.30 0.29 0.24 0.27 0.32 0.33 0.32 0.36 0.35 0.32 0.33 0.31 0.27 0.30 0.43 0.61 0.69 0.73 0.95 1.13 1.22 1.33 1.42 1.51 1.58 1.72 1.74 1.72 1.70 1.54 1.36 1.20 1.09 1.01 0.95 0.92 0.92
1.53 1.15 0.70 0.51 0.49 0.43 0.38 0.36 0.33 0.28 0.26 0.34 0.36 0.33 0.29 0.27 0.30 0.33 0.33 0.32 0.33 0.40 0.51 0.60 0.64 0.72 0.88 1.03 1.23 1.37 1.46 1.60 1.62 1.63 1.73 1.86 1.93 1.76 1.50 1.34 1.21 1.11 1.07 1.06
1.15 0.70 0.54 0.62 0.57 0.52 0.40 0.32 0.29 0.29 0.32 0.35 0.34 0.32 0.25 0.25 0.31 0.33 0.32 0.34 0.31 0.33 0.38 0.44 0.51 0.64 0.77 0.87 1.08 1.32 1.45 1.60 1.64 1.68 1.90 2.04 2.16 2.00 1.71 1.36 1.20 1.18 1.20 1.22
1.02 0.61 0.58 0.68 0.53 0.43 0.40 0.22 0.22 0.25 0.38 0.42 0.34 0.45 0.29 0.29 0.33 0.34 0.35 0.34 0.30 0.29 0.32 0.35 0.41 0.51 0.62 0.75 0.91 1.08 1.26 1.45 1.63 1.68 1.73 1.78 1.85 1.82 1.61 1.49 1.40 1.41 1.41 1.40
0.95 0.65 0.66 0.70 0.48 0.38 0.36 0.22 0.25 0.26 0.37 0.41 0.30 0.42 0.35 0.20 0.25 0.33 0.39 0.39 0.36 0.34 0.34 0.33 0.38 0.49 0.55 0.65 0.85 0.98 1.09 1.29 1.51 1.62 1.67 1.78 1.75 1.75 1.83 1.79 1.68 1.58 1.51 1.48
0.72 0.58 0.69 0.59 0.45 0.41 0.38 0.37 0.40 0.38 0.51 0.53 0.24 0.34 0.37 0.25 0.27 0.29 0.30 0.35 0.38 0.39 0.43 0.45 0.48 0.51 0.53 0.56 0.73 0.93 0.99 1.11 1.27 1.48 1.66 1.71 1.65 1.68 1.72 1.72 1.68 1.64 1.61 1.59
0.95 0.72 0.58 0.52 0.61 0.53 0.47 0.58 0.80 0.83 0.74 0.39 0.17 0.26 0.33 0.25 0.28 0.29 0.28 0.31 0.34 0.41 0.44 0.49 0.51 0.48 0.49 0.52 0.61 0.78 0.92 1.05 1.12 1.27 1.42 1.55 1.62 1.62 1.64 1.67 1.64 1.57 1.49 1.42
0.91 0.97 0.59 0.48 0.57 0.58 0.45 0.43 0.54 0.53 0.34 0.23 0.19 0.27 0.28 0.24 0.23 0.22 0.22 0.25 0.29 0.34 0.35 0.38 0.45 0.49 0.50 0.50 0.54 0.58 0.65 0.76 0.82 0.91 1.02 1.14 1.33 1.43 1.39 1.45 1.48 1.45 1.38 1.36
0.53 0.59 0.37 0.31 0.32 0.36 0.46 0.38 0.23 0.39 0.33 0.30 0.23 0.21 0.21 0.19 0.19 0.19 0.21 0.25 0.29 0.34 0.37 0.38 0.45 0.48 0.52 0.54 0.56 0.56 0.56 0.60 0.70 0.73 0.78 0.82 0.96 1.10 1.16 1.21 1.22 1.17 1.17 1.23
0.29 0.38 0.31 0.27 0.32 0.33 0.32 0.30 0.36 0.60 0.52 0.37 0.21 0.17 0.25 0.21 0.17 0.19 0.23 0.25 0.29 0.38 0.37 0.37 0.42 0.45 0.48 0.53 0.56 0.55 0.55 0.55 0.65 0.71 0.76 0.76 0.79 0.87 0.99 1.08 1.02 1.01 1.03 1.06
0.23 0.34 0.35 0.32 0.34 0.28 0.23 0.30 0.34 0.40 0.36 0.34 0.21 0.22 0.26 0.24 0.20 0.21 0.24 0.27 0.35 0.40 0.40 0.39 0.42 0.45 0.50 0.55 0.55 0.52 0.55 0.56 0.59 0.64 0.65 0.65 0.68 0.73 0.79 0.87 0.90 0.90 0.94 0.94
0.14 0.24 0.30 0.22 0.14 0.12 0.18 0.18 0.23 0.42 0.29 0.21 0.21 0.25 0.24 0.22 0.20 0.20 0.22 0.26 0.32 0.35 0.38 0.37 0.38 0.43 0.47 0.49 0.45 0.44 0.49 0.52 0.57 0.60 0.57 0.58 0.60 0.62 0.65 0.69 0.74 0.77 0.81 0.83
0.16 0.24 0.33 0.32 0.26 0.24 0.25 0.15 0.16 0.33 0.47 0.33 0.27 0.27 0.23 0.19 0.17 0.17 0.18 0.20 0.24 0.26 0.27 0.27 0.28 0.28 0.30 0.31 0.32 0.36 0.39 0.37 0.40 0.43 0.42 0.44 0.46 0.50 0.55 0.58 0.59 0.62 0.69 0.73
0.35 0.29 0.26 0.31 0.29 0.37 0.35 0.17 0.16 0.50 0.64 0.27 0.15 0.21 0.19 0.17 0.18 0.19 0.19 0.18 0.17 0.18 0.19 0.21 0.21 0.19 0.20 0.23 0.26 0.28 0.27 0.28 0.31 0.32 0.31 0.33 0.36 0.40 0.44 0.46 0.45 0.46 0.50 0.56
0.36 0.33 0.20 0.23 0.29 0.45 0.38 0.22 0.20 0.34 0.26 0.26 0.15 0.16 0.18 0.18 0.22 0.22 0.20 0.16 0.14 0.13 0.13 0.15 0.16 0.15 0.16 0.18 0.20 0.21 0.23 0.29 0.34 0.35 0.33 0.32 0.32 0.34 0.37 0.38 0.39 0.38 0.39 0.41
0.32 0.34 0.27 0.29 0.28 0.38 0.31 0.15 0.13 0.15 0.12 0.12 0.11 0.15 0.15 0.19 0.23 0.26 0.23 0.16 0.11 0.09 0.09 0.10 0.11 0.12 0.12 0.14 0.18 0.22 0.27 0.35 0.40 0.42 0.37 0.34 0.33 0.32 0.30 0.29 0.30 0.30 0.32 0.34
0.34 0.44 0.57 0.48 0.24 0.28 0.25 0.14 0.13 0.12 0.09 0.09 0.13 0.13 0.13 0.21 0.25 0.23 0.17 0.11 0.08 0.07 0.07 0.07 0.07 0.09 0.11 0.16 0.23 0.31 0.36 0.43 0.45 0.47 0.43 0.36 0.33 0.32 0.29 0.27 0.28 0.30 0.32 0.36
0.21 0.40 0.65 0.59 0.38 0.37 0.24 0.17 0.15 0.12 0.09 0.06 0.08 0.07 0.09 0.13 0.15 0.13 0.10 0.09 0.06 0.04 0.04 0.04 0.05 0.06 0.08 0.13 0.22 0.30 0.37 0.48 0.51 0.50 0.48 0.45 0.45 0.45 0.47 0.47 0.48 0.49 0.49 0.50
0.07 0.27 0.48 0.42 0.32 0.17 0.09 0.10 0.12 0.13 0.10 0.05 0.05 0.04 0.04 0.06 0.12 0.17 0.14 0.10 0.07 0.04 0.03 0.02 0.03 0.04 0.05 0.08 0.14 0.23 0.35 0.50 0.61 0.67 0.65 0.65 0.67 0.71 0.75 0.77 0.76 0.77 0.79 0.78
0.04 0.12 0.29 0.27 0.23 0.10 0.04 0.02 0.03 0.05 0.08 0.02 0.02 0.02 0.02 0.04 0.09 0.16 0.17 0.13 0.11 0.09 0.07 0.05 0.05 0.06 0.09 0.12 0.18 0.30 0.47 0.61 0.71 0.74 0.77 0.81 0.85 0.90 0.87 0.86 0.82 0.75 0.71 0.70
0.10 0.16 0.22 0.22 0.19 0.04 0.01 0.00 0.01 0.05 0.08 0.02 0.01 0.01 0.01 0.02 0.05 0.06 0.11 0.15 0.14 0.15 0.17 0.17 0.18 0.20 0.22 0.25 0.34 0.47 0.58 0.66 0.69 0.69 0.71 0.73 0.71 0.72 0.69 0.66 0.62 0.58 0.53 0.47
0.04 0.08 0.09 0.10 0.13 0.06 0.01 0.01 0.02 0.03 0.02 0.01 0.01 0.01 0.02 0.02 0.02 0.03 0.04 0.08 0.12 0.16 0.22 0.29 0.34 0.37 0.37 0.40 0.46 0.52 0.54 0.54 0.52 0.49 0.47 0.44 0.39 0.35 0.34 0.34 0.34 0.32 0.30 0.26
0.03 0.05 0.05 0.05 0.07 0.03 0.01 0.01 0.02 0.01 0.02 0.01 0.01 0.01 0.02 0.02 0.02 0.02 0.02 0.03 0.05 0.07 0.09 0.14 0.20 0.24 0.25 0.25 0.27 0.29 0.26 0.23 0.19 0.16 0.14 0.13 0.10 0.09 0.08 0.08 0.09 0.11 0.14 0.14
0.06 0.03 0.03 0.04 0.04 0.02 0.02 0.02 0.02 0.02 0.02 0.02 0.02 0.03 0.03 0.03 0.03 0.03 0.02 0.02 0.03 0.03 0.03 0.04 0.06 0.07 0.07 0.08 0.08 0.09 0.07 0.05 0.04 0.03 0.03 0.03 0.03 0.03 0.03 0.04 0.04 0.05 0.07 0.09
0.08 0.05 0.04 0.04 0.03 0.02 0.02 0.02 0.01 0.01 0.01 0.02 0.02 0.02 0.03 0.04 0.04 0.04 0.04 0.03 0.03 0.03 0.03 0.04 0.04 0.04 0.04 0.04 0.05 0.05 0.05 0.04 0.04 0.03 0.03 0.03 0.03 0.04 0.04 0.04 0.04 0.06 0.06 0.09
0.04 0.05 0.07 0.07 0.03 0.02 0.01 0.01 0.01 0.01 0.01 0.01 0.02 0.02 0.02 0.02 0.04 0.03 0.03 0.04 0.04 0.05 0.04 0.04 0.04 0.05 0.06 0.06 0.07 0.07 0.08 0.08 0.07 0.07 0.06 0.07 0.07 0.07 0.07 0.07 0.07 0.09 0.10 0.12

GEFSCGP_prec_meanprecacc_126.txt.gz
Total_Precipitation_Accumulation
1.76 1.66 1.24 0.70 0.52 0.37 0.31 0.32 0.30 0.24 0.28 0.33 0.34 0.33 0.36 0.36 0.33 0.33 0.32 0.27 0.30 0.43 0.61 0.69 0.73 0.95 1.13 1.22 1.33 1.42 1.51 1.58 1.72 1.74 1.72 1.70 1.54 1.36 1.21 1.10 1.01 0.96 0.93 0.95
1.54 1.15 0.70 0.52 0.49 0.43 0.39 0.38 0.36 0.29 0.27 0.34 0.36 0.33 0.30 0.27 0.31 0.33 0.33 0.32 0.33 0.40 0.51 0.60 0.64 0.72 0.88 1.03 1.23 1.37 1.46 1.60 1.62 1.63 1.73 1.86 1.93 1.76 1.50 1.35 1.22 1.11 1.08 1.08
1.16 0.71 0.55 0.63 0.58 0.53 0.41 0.34 0.30 0.30 0.32 0.36 0.35 0.33 0.25 0.26 0.31 0.33 0.32 0.34 0.31 0.33 0.38 0.44 0.51 0.64 0.77 0.87 1.08 1.32 1.45 1.60 1.64 1.68 1.90 2.04 2.16 2.00 1.72 1.37 1.21 1.19 1.22 1.24
1.02 0.62 0.60 0.69 0.54 0.44 0.41 0.23 0.22 0.26 0.38 0.42 0.35 0.46 0.29 0.29 0.33 0.34 0.35 0.34 0.30 0.29 0.32 0.35 0.41 0.51 0.62 0.75 0.91 1.08 1.26 1.45 1.63 1.68 1.73 1.78 1.85 1.82 1.61 1.49 1.41 1.42 1.43 1.42
0.97 0.66 0.67 0.71 0.49 0.39 0.36 0.23 0.25 0.27 0.37 0.41 0.30 0.43 0.35 0.20 0.25 0.33 0.39 0.39 0.36 0.34 0.34 0.33 0.38 0.49 0.55 0.65 0.85 0.98 1.09 1.29 1.51 1.62 1.67 1.78 1.75 1.75 1.83 1.79 1.69 1.60 1.55 1.51
0.73 0.59 0.70 0.60 0.45 0.41 0.38 0.37 0.40 0.38 0.51 0.54 0.25 0.35 0.37 0.25 0.27 0.29 0.30 0.35 0.38 0.39 0.43 0.45 0.48 0.51 0.53 0.56 0.73 0.93 0.99 1.11 1.27 1.48 1.66 1.71 1.65 1.68 1.72 1.72 1.68 1.67 1.66 1.62
0.96 0.72 0.59 0.52 0.61 0.54 0.47 0.58 0.81 0.84 0.75 0.39 0.18 0.27 0.33 0.25 0.28 0.29 0.28 0.31 0.34 0.41 0.44 0.49 0.51 0.48 0.49 0.52 0.61 0.78 0.92 1.05 1.12 1.27 1.42 1.56 1.63 1.62 1.65 1.68 1.65 1.59 1.51 1.43
0.92 0.97 0.59 0.48 0.57 0.59 0.45 0.43 0.54 0.54 0.34 0.23 0.20 0.27 0.28 0.24 0.23 0.22 0.22 0.25 0.29 0.34 0.35 0.38 0.45 0.49 0.50 0.50 0.54 0.58 0.65 0.76 0.82 0.91 1.02 1.14 1.33 1.43 1.39 1.45 1.48 1.46 1.38 1.36
0.53 0.60 0.38 0.32 0.33 0.37 0.47 0.39 0.24 0.40 0.33 0.31 0.23 0.21 0.21 0.19 0.19 0.19 0.21 0.25 0.29 0.34 0.37 0.38 0.45 0.48 0.52 0.54 0.56 0.56 0.56 0.60 0.70 0.73 0.79 0.82 0.96 1.10 1.16 1.21 1.22 1.17 1.17 1.23
0.29 0.39 0.32 0.28 0.33 0.34 0.33 0.30 0.36 0.61 0.52 0.38 0.21 0.17 0.26 0.21 0.17 0.19 0.23 0.25 0.29 0.38 0.38 0.37 0.42 0.45 0.48 0.53 0.56 0.55 0.55 0.55 0.65 0.71 0.76 0.76 0.79 0.87 1.00 1.08 1.03 1.02 1.03 1.06
0.23 0.34 0.35 0.32 0.34 0.28 0.23 0.30 0.34 0.40 0.36 0.34 0.21 0.22 0.26 0.24 0.20 0.21 0.24 0.27 0.35 0.40 0.40 0.39 0.42 0.45 0.50 0.55 0.55 0.52 0.55 0.56 0.59 0.64 0.65 0.65 0.68 0.73 0.80 0.87 0.90 0.90 0.95 0.94
0.14 0.24 0.30 0.22 0.14 0.12 0.18 0.18 0.23 0.42 0.29 0.21 0.21 0.25 0.24 0.22 0.20 0.20 0.22 0.26 0.32 0.35 0.39 0.37 0.38 0.43 0.47 0.49 0.46 0.45 0.50 0.52 0.57 0.60 0.58 0.58 0.60 0.62 0.65 0.69 0.75 0.77 0.81 0.85
0.16 0.24 0.33 0.32 0.26 0.24 0.25 0.15 0.16 0.33 0.47 0.33 0.27 0.27 0.23 0.19 0.17 0.17 0.18 0.20 0.24 0.26 0.27 0.27 0.28 0.28 0.30 0.31 0.32 0.37 0.40 0.38 0.40 0.43 0.42 0.44 0.46 0.50 0.55 0.58 0.59 0.63 0.69 0.74
0.35 0.29 0.26 0.31 0.29 0.37 0.35 0.17 0.16 0.50 0.64 0.27 0.15 0.21 0.19 0.17 0.18 0.19 0.19 0.18 0.18 0.18 0.19 0.21 0.21 0.19 0.20 0.23 0.26 0.29 0.27 0.28 0.31 0.32 0.31 0.33 0.37 0.40 0.44 0.46 0.45 0.46 0.51 0.56
0.36 0.34 0.20 0.23 0.29 0.45 0.38 0.22 0.20 0.34 0.26 0.26 0.15 0.16 0.18 0.18 0.22 0.22 0.20 0.16 0.14 0.13 0.13 0.15 0.16 0.15 0.16 0.18 0.20 0.21 0.23 0.29 0.34 0.35 0.34 0.32 0.33 0.34 0.37 0.39 0.39 0.38 0.39 0.41
0.32 0.34 0.27 0.30 0.28 0.38 0.31 0.15 0.13 0.15 0.12 0.12 0.11 0.15 0.15 0.19 0.23 0.26 0.23 0.16 0.11 0.09 0.09 0.10 0.11 0.12 0.13 0.14 0.18 0.22 0.27 0.35 0.41 0.43 0.38 0.34 0.34 0.33 0.31 0.30 0.30 0.30 0.32 0.34
0.34 0.44 0.57 0.48 0.24 0.28 0.25 0.14 0.13 0.12 0.09 0.09 0.13 0.13 0.13 0.21 0.25 0.23 0.17 0.11 0.08 0.07 0.07 0.07 0.07 0.09 0.12 0.16 0.23 0.31 0.36 0.43 0.45 0.48 0.43 0.37 0.34 0.32 0.29 0.27 0.28 0.30 0.32 0.36
0.21 0.40 0.65 0.60 0.38 0.37 0.24 0.17 0.15 0.12 0.09 0.06 0.08 0.07 0.09 0.13 0.15 0.13 0.10 0.09 0.06 0.04 0.04 0.04 0.05 0.06 0.08 0.13 0.22 0.30 0.37 0.48 0.51 0.50 0.48 0.45 0.45 0.45 0.47 0.47 0.48 0.49 0.49 0.50
0.07 0.27 0.48 0.42 0.32 0.17 0.09 0.10 0.12 0.13 0.10 0.05 0.05 0.04 0.04 0.06 0.12 0.17 0.14 0.10 0.07 0.04 0.03 0.02 0.03 0.04 0.05 0.08 0.14 0.23 0.35 0.50 0.61 0.67 0.65 0.65 0.67 0.71 0.75 0.77 0.77 0.77 0.79 0.78
0.04 0.12 0.30 0.27 0.23 0.10 0.04 0.02 0.03 0.05 0.08 0.02 0.02 0.02 0.02 0.04 0.09 0.16 0.17 0.13 0.11 0.09 0.07 0.05 0.05 0.06 0.09 0.12 0.18 0.30 0.47 0.61 0.71 0.74 0.77 0.81 0.85 0.90 0.87 0.86 0.82 0.75 0.71 0.70
0.10 0.16 0.23 0.22 0.20 0.04 0.01 0.00 0.01 0.05 0.08 0.02 0.01 0.01 0.01 0.02 0.05 0.06 0.11 0.15 0.14 0.15 0.17 0.17 0.18 0.20 0.22 0.25 0.34 0.47 0.58 0.67 0.70 0.70 0.71 0.73 0.72 0.72 0.69 0.66 0.63 0.58 0.53 0.47
0.04 0.08 0.09 0.10 0.14 0.06 0.01 0.01 0.02 0.03 0.02 0.01 0.01 0.01 0.02 0.02 0.02 0.03 0.04 0.08 0.12 0.16 0.22 0.29 0.34 0.37 0.37 0.40 0.46 0.52 0.54 0.54 0.52 0.49 0.47 0.44 0.39 0.35 0.34 0.34 0.34 0.33 0.30 0.27
0.03 0.05 0.05 0.06 0.07 0.03 0.01 0.01 0.02 0.01 0.02 0.01 0.01 0.01 0.02 0.02 0.02 0.02 0.02 0.03 0.05 0.07 0.09 0.14 0.20 0.24 0.25 0.25 0.27 0.29 0.26 0.23 0.19 0.16 0.14 0.13 0.10 0.09 0.09 0.08 0.09 0.11 0.14 0.14
0.06 0.03 0.03 0.04 0.04 0.02 0.02 0.02 0.02 0.02 0.02 0.02 0.02 0.03 0.03 0.03 0.03 0.03 0.02 0.02 0.03 0.03 0.03 0.04 0.06 0.07 0.07 0.08 0.08 0.09 0.07 0.05 0.04 0.03 0.03 0.03 0.03 0.03 0.03 0.04 0.04 0.05 0.07 0.09
0.08 0.05 0.04 0.04 0.03 0.02 0.02 0.02 0.01 0.01 0.01 0.02 0.02 0.02 0.03 0.04 0.04 0.04 0.04 0.03 0.03 0.03 0.03 0.04 0.04 0.04 0.04 0.04 0.05 0.05 0.05 0.04 0.04 0.03 0.03 0.03 0.03 0.04 0.04 0.04 0.04 0.06 0.06 0.09
0.04 0.05 0.07 0.07 0.03 0.02 0.02 0.01 0.01 0.01 0.01 0.01 0.02 0.02 0.02 0.02 0.04 0.03 0.03 0.04 0.04 0.05 0.04 0.04 0.04 0.05 0.06 0.06 0.07 0.07 0.08 0.08 0.07 0.07 0.06 0.07 0.07 0.07 0.07 0.07 0.07 0.09 0.10 0.12

GEFSCGP_prec_meanprecacc_132.txt.gz
Total_Precipitation_Accumulation
1.77 1.67 1.25 0.70 0.52 0.38 0.32 0.32 0.31 0.26 0.29 0.33 0.35 0.34 0.36 0.37 0.35 0.34 0.33 0.29 0.31 0.44 0.62 0.70 0.74 0.95 1.13 1.22 1.33 1.42 1.52 1.58 1.72 1.75 1.72 1.71 1.54 1.36 1.21 1.10 1.01 0.96 0.93 0.95
1.55 1.17 0.71 0.52 0.49 0.44 0.40 0.39 0.37 0.30 0.27 0.35 0.37 0.34 0.30 0.28 0.32 0.35 0.34 0.33 0.34 0.41 0.52 0.61 0.65 0.72 0.88 1.03 1.23 1.37 1.46 1.60 1.62 1.63 1.73 1.86 1.93 1.76 1.50 1.35 1.22 1.12 1.08 1.08
1.17 0.72 0.56 0.63 0.58 0.54 0.43 0.35 0.30 0.31 0.33 0.37 0.36 0.34 0.26 0.26 0.32 0.34 0.34 0.35 0.32 0.34 0.39 0.45 0.52 0.65 0.77 0.87 1.09 1.32 1.45 1.60 1.64 1.68 1.90 2.04 2.16 2.00 1.72 1.37 1.21 1.19 1.22 1.24
1.03 0.63 0.61 0.70 0.55 0.46 0.43 0.24 0.23 0.26 0.39 0.43 0.36 0.47 0.30 0.29 0.33 0.35 0.37 0.36 0.31 0.30 0.33 0.35 0.41 0.51 0.63 0.75 0.91 1.08 1.26 1.45 1.63 1.68 1.73 1.78 1.85 1.82 1.61 1.49 1.41 1.42 1.43 1.42
0.97 0.67 0.68 0.72 0.49 0.39 0.38 0.24 0.27 0.27 0.37 0.42 0.31 0.43 0.35 0.21 0.26 0.33 0.40 0.41 0.37 0.35 0.34 0.33 0.39 0.49 0.55 0.65 0.85 0.98 1.09 1.29 1.51 1.62 1.67 1.78 1.75 1.75 1.83 1.79 1.69 1.60 1.55 1.51
0.73 0.60 0.70 0.60 0.46 0.41 0.38 0.37 0.41 0.39 0.52 0.54 0.25 0.35 0.37 0.25 0.28 0.29 0.31 0.36 0.38 0.39 0.44 0.45 0.48 0.51 0.53 0.56 0.73 0.93 0.99 1.11 1.27 1.48 1.66 1.71 1.65 1.68 1.72 1.72 1.68 1.67 1.66 1.62
0.96 0.72 0.59 0.52 0.61 0.54 0.47 0.58 0.81 0.85 0.75 0.40 0.18 0.27 0.33 0.25 0.28 0.29 0.28 0.31 0.35 0.42 0.44 0.49 0.51 0.48 0.49 0.52 0.61 0.78 0.92 1.05 1.12 1.27 1.42 1.56 1.63 1.62 1.65 1.68 1.65 1.59 1.51 1.43
0.92 0.98 0.60 0.49 0.57 0.59 0.45 0.43 0.55 0.54 0.35 0.23 0.20 0.27 0.28 0.24 0.23 0.22 0.22 0.25 0.29 0.34 0.35 0.38 0.46 0.49 0.50 0.50 0.54 0.58 0.65 0.76 0.82 0.91 1.02 1.14 1.33 1.43 1.39 1.45 1.48 1.46 1.38 1.36
0.54 0.60 0.38 0.32 0.33 0.37 0.47 0.39 0.24 0.40 0.34 0.31 0.23 0.22 0.21 0.19 0.19 0.19 0.22 0.25 0.29 0.34 0.37 0.38 0.45 0.48 0.52 0.54 0.56 0.56 0.56 0.60 0.70 0.73 0.79 0.82 0.96 1.10 1.16 1.21 1.22 1.17 1.17 1.23
0.29 0.39 0.32 0.28 0.33 0.34 0.33 0.31 0.37 0.61 0.52 0.38 0.22 0.17 0.26 0.21 0.17 0.19 0.23 0.25 0.29 0.38 0.38 0.37 0.42 0.45 0.48 0.53 0.56 0.55 0.55 0.55 0.65 0.71 0.76 0.76 0.79 0.87 1.00 1.08 1.03 1.02 1.03 1.06
0.23 0.34 0.35 0.32 0.34 0.28 0.23 0.30 0.34 0.40 0.36 0.34 0.21 0.23 0.26 0.24 0.21 0.22 0.24 0.28 0.35 0.40 0.40 0.40 0.42 0.45 0.50 0.55 0.55 0.52 0.55 0.56 0.59 0.64 0.65 0.65 0.68 0.73 0.80 0.87 0.90 0.90 0.95 0.94
0.14 0.24 0.30 0.22 0.14 0.12 0.18 0.18 0.23 0.42 0.29 0.21 0.21 0.25 0.25 0.22 0.20 0.20 0.23 0.26 0.32 0.35 0.39 0.37 0.38 0.43 0.47 0.50 0.46 0.45 0.50 0.53 0.57 0.60 0.58 0.58 0.60 0.62 0.65 0.69 0.75 0.77 0.81 0.85
0.16 0.24 0.34 0.32 0.26 0.24 0.25 0.15 0.16 0.33 0.48 0.33 0.27 0.27 0.23 0.19 0.17 0.17 0.18 0.20 0.24 0.27 0.27 0.27 0.28 0.28 0.30 0.31 0.32 0.37 0.40 0.38 0.40 0.43 0.42 0.44 0.46 0.50 0.55 0.58 0.59 0.63 0.70 0.75
0.35 0.30 0.26 0.31 0.29 0.37 0.35 0.17 0.16 0.50 0.64 0.27 0.15 0.21 0.19 0.17 0.18 0.19 0.19 0.18 0.18 0.18 0.19 0.21 0.21 0.19 0.20 0.23 0.26 0.29 0.27 0.28 0.32 0.32 0.31 0.33 0.37 0.41 0.44 0.46 0.45 0.47 0.51 0.57
0.36 0.34 0.20 0.23 0.29 0.45 0.38 0.22 0.20 0.34 0.27 0.26 0.15 0.16 0.18 0.18 0.22 0.22 0.20 0.16 0.14 0.13 0.13 0.15 0.16 0.15 0.16 0.18 0.20 0.21 0.23 0.29 0.34 0.35 0.34 0.32 0.33 0.35 0.38 0.39 0.39 0.39 0.40 0.41
0.32 0.35 0.27 0.30 0.28 0.38 0.31 0.15 0.13 0.15 0.12 0.12 0.11 0.15 0.15 0.19 0.23 0.26 0.23 0.16 0.11 0.09 0.09 0.10 0.11 0.12 0.13 0.14 0.18 0.22 0.27 0.35 0.41 0.43 0.38 0.34 0.34 0.34 0.31 0.30 0.31 0.31 0.32 0.34
0.34 0.44 0.57 0.48 0.24 0.28 0.25 0.14 0.13 0.12 0.09 0.09 0.13 0.13 0.13 0.21 0.25 0.23 0.17 0.11 0.08 0.07 0.07 0.07 0.07 0.09 0.12 0.16 0.23 0.31 0.36 0.43 0.45 0.48 0.43 0.37 0.34 0.32 0.29 0.27 0.28 0.30 0.33 0.36
0.22 0.41 0.65 0.60 0.38 0.37 0.24 0.17 0.15 0.12 0.09 0.06 0.08 0.07 0.09 0.13 0.15 0.13 0.10 0.09 0.06 0.04 0.04 0.04 0.05 0.06 0.08 0.13 0.22 0.30 0.37 0.48 0.51 0.50 0.48 0.45 0.45 0.45 0.47 0.47 0.48 0.49 0.49 0.50
0.08 0.27 0.48 0.42 0.32 0.17 0.09 0.10 0.12 0.13 0.10 0.05 0.05 0.04 0.04 0.06 0.12 0.17 0.14 0.10 0.07 0.04 0.03 0.02 0.03 0.04 0.05 0.08 0.14 0.23 0.35 0.50 0.61 0.67 0.65 0.65 0.67 0.71 0.75 0.77 0.77 0.77 0.79 0.78
0.04 0.13 0.30 0.28 0.23 0.10 0.04 0.02 0.03 0.05 0.08 0.02 0.02 0.02 0.02 0.04 0.10 0.16 0.17 0.13 0.11 0.09 0.07 0.05 0.05 0.06 0.09 0.12 0.18 0.30 0.47 0.61 0.71 0.74 0.77 0.81 0.85 0.90 0.87 0.86 0.82 0.75 0.71 0.70
0.10 0.16 0.23 0.23 0.20 0.04 0.01 0.00 0.01 0.05 0.08 0.02 0.01 0.01 0.01 0.02 0.05 0.06 0.11 0.15 0.14 0.15 0.17 0.17 0.18 0.20 0.22 0.25 0.34 0.47 0.58 0.67 0.70 0.70 0.71 0.73 0.72 0.72 0.69 0.66 0.63 0.58 0.53 0.47
0.04 0.08 0.09 0.10 0.15 0.06 0.01 0.01 0.02 0.03 0.02 0.01 0.01 0.01 0.02 0.02 0.02 0.03 0.04 0.08 0.12 0.16 0.22 0.29 0.34 0.37 0.37 0.40 0.46 0.52 0.54 0.54 0.52 0.49 0.47 0.44 0.39 0.35 0.34 0.34 0.34 0.33 0.30 0.27
0.03 0.05 0.05 0.06 0.07 0.03 0.01 0.01 0.02 0.01 0.02 0.02 0.01 0.01 0.02 0.02 0.02 0.02 0.02 0.03 0.05 0.07 0.09 0.14 0.20 0.24 0.25 0.25 0.27 0.29 0.26 0.23 0.19 0.16 0.14 0.13 0.10 0.09 0.09 0.08 0.09 0.11 0.14 0.14
0.06 0.03 0.03 0.04 0.04 0.02 0.02 0.02 0.02 0.02 0.02 0.02 0.02 0.03 0.03 0.03 0.03 0.03 0.02 0.02 0.03 0.03 0.03 0.04 0.06 0.07 0.07 0.08 0.08 0.09 0.07 0.05 0.04 0.03 0.03 0.03 0.03 0.03 0.03 0.04 0.04 0.06 0.07 0.09
0.08 0.05 0.05 0.04 0.03 0.02 0.02 0.02 0.01 0.01 0.01 0.02 0.02 0.02 0.03 0.04 0.04 0.04 0.04 0.03 0.03 0.03 0.03 0.04 0.04 0.04 0.04 0.04 0.05 0.05 0.05 0.04 0.04 0.03 0.03 0.03 0.03 0.04 0.04 0.04 0.04 0.06 0.06 0.09
0.04 0.05 0.07 0.07 0.03 0.02 0.02 0.01 0.01 0.01 0.01 0.01 0.02 0.02 0.02 0.02 0.04 0.03 0.03 0.04 0.04 0.05 0.04 0.04 0.04 0.05 0.06 0.06 0.07 0.07 0.08 0.08 0.07 0.07 0.06 0.07 0.07 0.07 0.07 0.07 0.07 0.09 0.10 0.12

GEFSCGP_prec_meanprecacc_138.txt.gz
Total_Precipitation_Accumulation
1.78 1.68 1.26 0.71 0.53 0.38 0.32 0.33 0.32 0.27 0.29 0.34 0.36 0.34 0.37 0.37 0.35 0.35 0.33 0.29 0.32 0.45 0.64 0.73 0.77 0.99 1.16 1.25 1.35 1.44 1.52 1.59 1.73 1.75 1.73 1.71 1.54 1.37 1.22 1.11 1.01 0.96 0.93 0.95
1.55 1.17 0.71 0.53 0.50 0.44 0.40 0.40 0.38 0.31 0.28 0.36 0.38 0.35 0.30 0.28 0.33 0.35 0.34 0.34 0.35 0.42 0.53 0.64 0.68 0.76 0.91 1.06 1.25 1.38 1.47 1.61 1.63 1.64 1.74 1.87 1.94 1.77 1.51 1.35 1.22 1.12 1.09 1.09
1.17 0.73 0.56 0.63 0.59 0.55 0.44 0.35 0.32 0.32 0.34 0.38 0.37 0.35 0.26 0.26 0.32 0.35 0.35 0.35 0.33 0.34 0.41 0.48 0.56 0.69 0.79 0.89 1.10 1.33 1.46 1.60 1.64 1.68 1.90 2.05 2.17 2.01 1.73 1.38 1.22 1.20 1.23 1.24
1.04 0.64 0.61 0.71 0.56 0.47 0.44 0.25 0.24 0.26 0.39 0.45 0.37 0.49 0.31 0.29 0.33 0.35 0.38 0.37 0.33 0.31 0.34 0.39 0.46 0.55 0.64 0.76 0.92 1.08 1.26 1.46 1.63 1.69 1.73 1.78 1.85 1.82 1.61 1.50 1.41 1.43 1.44 1.43
0.97 0.67 0.68 0.73 0.50 0.40 0.38 0.25 0.28 0.28 0.38 0.42 0.31 0.44 0.37 0.22 0.26 0.33 0.41 0.42 0.39 0.37 0.36 0.37 0.43 0.53 0.57 0.65 0.86 0.99 1.10 1.29 1.51 1.62 1.67 1.78 1.75 1.75 1.83 1.79 1.69 1.60 1.55 1.52
0.73 0.60 0.71 0.61 0.46 0.42 0.39 0.38 0.42 0.40 0.52 0.55 0.26 0.35 0.38 0.26 0.28 0.29 0.31 0.37 0.41 0.41 0.45 0.47 0.51 0.54 0.54 0.56 0.74 0.94 1.00 1.11 1.27 1.48 1.66 1.71 1.65 1.68 1.72 1.72 1.68 1.67 1.66 1.62
0.96 0.73 0.59 0.52 0.61 0.54 0.47 0.58 0.82 0.86 0.76 0.40 0.18 0.27 0.34 0.25 0.28 0.29 0.28 0.32 0.37 0.43 0.46 0.51 0.53 0.50 0.49 0.52 0.62 0.78 0.93 1.05 1.12 1.27 1.42 1.56 1.63 1.62 1.65 1.68 1.65 1.59 1.51 1.43
0.92 0.98 0.60 0.49 0.57 0.59 0.45 0.44 0.56 0.55 0.35 0.24 0.20 0.27 0.28 0.24 0.24 0.22 0.22 0.26 0.30 0.34 0.36 0.40 0.47 0.50 0.51 0.50 0.54 0.58 0.65 0.76 0.82 0.91 1.02 1.14 1.33 1.43 1.39 1.45 1.48 1.46 1.38 1.36
0.54 0.60 0.38 0.32 0.33 0.38 0.48 0.40 0.25 0.41 0.34 0.31 0.24 0.22 0.21 0.19 0.19 0.19 0.22 0.25 0.30 0.34 0.37 0.39 0.46 0.48 0.52 0.54 0.56 0.56 0.56 0.60 0.70 0.73 0.79 0.82 0.96 1.10 1.16 1.21 1.22 1.17 1.17 1.23
0.29 0.39 0.32 0.28 0.33 0.34 0.33 0.31 0.37 0.62 0.53 0.39 0.22 0.18 0.27 0.21 0.17 0.19 0.24 0.25 0.29 0.38 0.38 0.38 0.43 0.45 0.48 0.53 0.56 0.55 0.55 0.55 0.65 0.71 0.76 0.76 0.79 0.87 1.00 1.08 1.03 1.02 1.03 1.06
0.23 0.34 0.35 0.32 0.34 0.28 0.23 0.30 0.35 0.41 0.36 0.35 0.22 0.23 0.26 0.24 0.21 0.22 0.25 0.28 0.35 0.40 0.40 0.40 0.42 0.46 0.50 0.56 0.55 0.52 0.55 0.56 0.59 0.64 0.65 0.65 0.68 0.73 0.80 0.87 0.90 0.90 0.95 0.94
0.14 0.25 0.30 0.22 0.14 0.12 0.18 0.18 0.24 0.43 0.29 0.21 0.22 0.26 0.25 0.22 0.20 0.21 0.23 0.26 0.32 0.35 0.39 0.37 0.39 0.43 0.47 0.50 0.46 0.45 0.50 0.53 0.57 0.60 0.58 0.58 0.60 0.62 0.65 0.69 0.75 0.77 0.81 0.85
0.16 0.24 0.34 0.32 0.26 0.24 0.25 0.15 0.16 0.33 0.48 0.33 0.28 0.27 0.23 0.19 0.17 0.17 0.19 0.21 0.24 0.27 0.27 0.28 0.28 0.29 0.30 0.31 0.32 0.37 0.40 0.38 0.40 0.43 0.42 0.44 0.46 0.50 0.55 0.58 0.59 0.63 0.70 0.75
0.36 0.30 0.27 0.31 0.30 0.37 0.35 0.17 0.16 0.50 0.64 0.27 0.15 0.21 0.20 0.18 0.19 0.20 0.19 0.18 0.18 0.19 0.19 0.21 0.21 0.19 0.20 0.23 0.26 0.29 0.27 0.29 0.32 0.32 0.31 0.33 0.37 0.41 0.44 0.46 0.45 0.47 0.51 0.57
0.36 0.34 0.20 0.23 0.29 0.45 0.38 0.22 0.20 0.34 0.27 0.26 0.15 0.16 0.18 0.18 0.22 0.23 0.20 0.17 0.14 0.13 0.13 0.16 0.17 0.16 0.17 0.18 0.20 0.21 0.23 0.29 0.34 0.35 0.34 0.32 0.33 0.35 0.38 0.39 0.40 0.39 0.41 0.42
0.32 0.35 0.27 0.30 0.28 0.38 0.31 0.15 0.13 0.15 0.12 0.13 0.11 0.15 0.15 0.19 0.23 0.26 0.23 0.16 0.11 0.09 0.09 0.10 0.11 0.12 0.13 0.14 0.18 0.22 0.27 0.35 0.41 0.43 0.38 0.34 0.34 0.34 0.31 0.30 0.31 0.31 0.32 0.34
0.35 0.44 0.58 0.48 0.24 0.28 0.25 0.14 0.13 0.12 0.09 0.09 0.14 0.13 0.13 0.21 0.25 0.23 0.17 0.11 0.08 0.07 0.07 0.07 0.07 0.09 0.12 0.16 0.23 0.31 0.36 0.43 0.45 0.48 0.43 0.37 0.34 0.32 0.29 0.27 0.28 0.30 0.33 0.36
0.22 0.41 0.66 0.60 0.38 0.37 0.24 0.17 0.15 0.12 0.09 0.06 0.08 0.07 0.09 0.13 0.15 0.13 0.10 0.09 0.06 0.04 0.04 0.04 0.05 0.06 0.08 0.13 0.22 0.30 0.37 0.48 0.51 0.50 0.48 0.45 0.45 0.45 0.47 0.47 0.48 0.49 0.49 0.50
0.08 0.28 0.49 0.42 0.32 0.17 0.09 0.10 0.12 0.13 0.10 0.05 0.05 0.04 0.04 0.06 0.12 0.17 0.14 0.10 0.07 0.04 0.03 0.02 0.03 0.04 0.05 0.08 0.14 0.23 0.35 0.50 0.61 0.67 0.65 0.65 0.67 0.71 0.75 0.77 0.77 0.77 0.79 0.78
0.04 0.13 0.30 0.28 0.23 0.10 0.04 0.02 0.03 0.05 0.08 0.03 0.02 0.02 0.02 0.04 0.10 0.16 0.17 0.13 0.11 0.09 0.07 0.05 0.05 0.06 0.09 0.12 0.18 0.30 0.47 0.61 0.71 0.74 0.77 0.81 0.85 0.90 0.87 0.86 0.82 0.75 0.71 0.70
0.10 0.16 0.23 0.23 0.20 0.04 0.01 0.00 0.01 0.05 0.08 0.02 0.01 0.01 0.01 0.02 0.05 0.06 0.11 0.15 0.14 0.15 0.17 0.17 0.18 0.20 0.22 0.25 0.34 0.47 0.58 0.67 0.70 0.70 0.71 0.73 0.72 0.72 0.69 0.66 0.63 0.58 0.53 0.47
0.04 0.08 0.09 0.10 0.15 0.06 0.01 0.01 0.02 0.03 0.02 0.01 0.01 0.01 0.02 0.02 0.02 0.03 0.04 0.08 0.12 0.16 0.22 0.29 0.34 0.37 0.37 0.40 0.46 0.52 0.54 0.54 0.52 0.49 0.47 0.44 0.39 0.35 0.34 0.34 0.34 0.33 0.30 0.27
0.03 0.05 0.05 0.06 0.07 0.03 0.01 0.01 0.02 0.01 0.02 0.02 0.01 0.01 0.02 0.02 0.02 0.02 0.02 0.03 0.05 0.07 0.09 0.14 0.20 0.24 0.25 0.25 0.27 0.29 0.26 0.23 0.19 0.16 0.14 0.13 0.10 0.09 0.09 0.08 0.09 0.11 0.14 0.15
0.06 0.03 0.03 0.04 0.04 0.02 0.02 0.02 0.02 0.02 0.02 0.02 0.02 0.03 0.03 0.03 0.03 0.03 0.02 0.02 0.03 0.03 0.03 0.04 0.06 0.07 0.07 0.08 0.08 0.09 0.07 0.05 0.04 0.03 0.03 0.03 0.03 0.03 0.03 0.04 0.04 0.06 0.07 0.09
0.08 0.05 0.05 0.04 0.03 0.02 0.02 0.02 0.01 0.01 0.01 0.02 0.02 0.02 0.03 0.04 0.04 0.04 0.04 0.03 0.03 0.03 0.03 0.04 0.04 0.04 0.04 0.04 0.05 0.05 0.05 0.04 0.04 0.03 0.03 0.03 0.03 0.04 0.04 0.04 0.04 0.06 0.07 0.09
0.05 0.05 0.07 0.07 0.03 0.03 0.02 0.01 0.01 0.01 0.01 0.01 0.02 0.02 0.02 0.02 0.04 0.03 0.03 0.04 0.04 0.05 0.04 0.04 0.04 0.05 0.06 0.06 0.07 0.07 0.08 0.08 0.07 0.07 0.07 0.07 0.07 0.07 0.07 0.07 0.07 0.09 0.10 0.12

GEFSCGP_prec_meanprecacc_144.txt.gz
Total_Precipitation_Accumulation
1.79 1.69 1.27 0.72 0.54 0.39 0.32 0.34 0.33 0.28 0.31 0.35 0.36 0.34 0.37 0.38 0.37 0.36 0.34 0.30 0.33 0.46 0.65 0.74 0.79 1.02 1.21 1.29 1.39 1.48 1.57 1.63 1.77 1.78 1.77 1.76 1.59 1.40 1.24 1.12 1.03 0.97 0.95 0.97
1.56 1.18 0.72 0.53 0.50 0.45 0.40 0.40 0.38 0.32 0.29 0.36 0.38 0.35 0.31 0.28 0.33 0.36 0.35 0.34 0.36 0.43 0.54 0.64 0.70 0.80 0.98 1.11 1.28 1.41 1.51 1.65 1.66 1.66 1.77 1.90 1.98 1.80 1.52 1.37 1.24 1.14 1.10 1.10
1.18 0.73 0.57 0.64 0.60 0.55 0.44 0.36 0.32 0.32 0.35 0.38 0.37 0.36 0.27 0.26 0.33 0.36 0.36 0.36 0.34 0.36 0.42 0.49 0.57 0.72 0.86 0.97 1.14 1.36 1.50 1.65 1.67 1.71 1.92 2.07 2.19 2.03 1.73 1.39 1.23 1.22 1.25 1.26
1.04 0.64 0.61 0.71 0.57 0.48 0.45 0.25 0.24 0.27 0.40 0.45 0.37 0.50 0.32 0.30 0.34 0.36 0.39 0.37 0.33 0.32 0.36 0.40 0.48 0.59 0.71 0.86 1.00 1.12 1.30 1.50 1.67 1.71 1.75 1.80 1.87 1.83 1.62 1.50 1.42 1.44 1.45 1.44
0.98 0.67 0.68 0.73 0.50 0.41 0.39 0.25 0.28 0.29 0.39 0.43 0.32 0.45 0.37 0.22 0.26 0.34 0.42 0.43 0.40 0.38 0.38 0.39 0.47 0.57 0.63 0.75 0.96 1.05 1.14 1.33 1.54 1.65 1.69 1.80 1.76 1.76 1.84 1.80 1.69 1.61 1.56 1.53
0.73 0.60 0.71 0.61 0.46 0.42 0.40 0.39 0.43 0.41 0.53 0.56 0.26 0.36 0.39 0.27 0.28 0.30 0.31 0.37 0.42 0.43 0.49 0.52 0.56 0.57 0.58 0.63 0.82 1.02 1.05 1.15 1.29 1.50 1.68 1.73 1.66 1.68 1.72 1.73 1.69 1.68 1.67 1.63
0.97 0.73 0.59 0.52 0.62 0.55 0.48 0.59 0.84 0.87 0.77 0.42 0.19 0.28 0.34 0.26 0.28 0.29 0.28 0.32 0.38 0.46 0.50 0.55 0.58 0.53 0.52 0.57 0.68 0.85 0.97 1.08 1.14 1.29 1.43 1.57 1.63 1.62 1.65 1.68 1.66 1.59 1.51 1.44
0.93 0.99 0.61 0.49 0.58 0.60 0.46 0.44 0.56 0.56 0.36 0.24 0.20 0.28 0.29 0.25 0.25 0.22 0.23 0.26 0.32 0.38 0.41 0.44 0.51 0.52 0.53 0.54 0.58 0.63 0.68 0.77 0.84 0.92 1.03 1.15 1.33 1.43 1.39 1.45 1.49 1.46 1.39 1.37
0.54 0.61 0.39 0.33 0.34 0.38 0.48 0.40 0.25 0.42 0.35 0.32 0.24 0.22 0.22 0.19 0.20 0.20 0.22 0.26 0.32 0.38 0.41 0.42 0.49 0.50 0.54 0.57 0.59 0.58 0.57 0.61 0.71 0.74 0.79 0.82 0.96 1.10 1.16 1.22 1.22 1.18 1.17 1.23
0.29 0.39 0.32 0.28 0.34 0.35 0.34 0.32 0.38 0.63 0.54 0.41 0.23 0.19 0.27 0.22 0.18 0.20 0.24 0.26 0.30 0.41 0.41 0.40 0.45 0.47 0.50 0.55 0.58 0.56 0.55 0.55 0.65 0.71 0.76 0.76 0.79 0.87 1.00 1.08 1.03 1.02 1.03 1.06
0.23 0.35 0.35 0.33 0.34 0.28 0.23 0.31 0.35 0.41 0.37 0.37 0.23 0.24 0.27 0.24 0.21 0.22 0.25 0.28 0.36 0.41 0.42 0.42 0.44 0.47 0.51 0.56 0.56 0.53 0.56 0.57 0.60 0.64 0.65 0.65 0.68 0.73 0.80 0.87 0.90 0.91 0.95 0.94
0.14 0.25 0.31 0.22 0.14 0.13 0.18 0.19 0.24 0.43 0.30 0.22 0.23 0.27 0.25 0.22 0.21 0.21 0.23 0.27 0.33 0.36 0.40 0.39 0.40 0.44 0.48 0.50 0.46 0.45 0.50 0.53 0.58 0.60 0.58 0.58 0.60 0.62 0.65 0.69 0.75 0.77 0.81 0.85
0.16 0.25 0.34 0.32 0.26 0.24 0.25 0.15 0.17 0.33 0.48 0.33 0.28 0.28 0.24 0.19 0.17 0.17 0.19 0.21 0.25 0.27 0.28 0.28 0.29 0.29 0.30 0.32 0.32 0.37 0.41 0.38 0.41 0.43 0.42 0.44 0.46 0.50 0.55 0.58 0.59 0.63 0.70 0.75
0.36 0.30 0.27 0.31 0.30 0.37 0.35 0.17 0.17 0.50 0.65 0.27 0.16 0.21 0.20 0.18 0.19 0.20 0.19 0.18 0.18 0.19 0.20 0.21 0.22 0.19 0.20 0.23 0.26 0.29 0.27 0.29 0.32 0.32 0.31 0.33 0.37 0.41 0.44 0.46 0.45 0.47 0.51 0.57
0.36 0.34 0.20 0.23 0.29 0.45 0.38 0.22 0.20 0.34 0.27 0.26 0.15 0.16 0.18 0.19 0.22 0.23 0.21 0.17 0.14 0.13 0.13 0.16 0.17 0.16 0.17 0.18 0.20 0.21 0.23 0.29 0.34 0.35 0.34 0.32 0.33 0.35 0.38 0.39 0.40 0.39 0.41 0.42
0.32 0.35 0.27 0.30 0.28 0.38 0.31 0.15 0.13 0.15 0.12 0.13 0.11 0.15 0.15 0.19 0.23 0.26 0.23 0.16 0.11 0.10 0.09 0.10 0.11 0.12 0.13 0.14 0.18 0.22 0.27 0.35 0.41 0.43 0.38 0.34 0.34 0.34 0.31 0.30 0.31 0.31 0.33 0.34
0.35 0.44 0.58 0.48 0.24 0.28 0.25 0.14 0.13 0.12 0.09 0.09 0.14 0.13 0.13 0.21 0.25 0.23 0.17 0.11 0.08 0.07 0.07 0.07 0.08 0.09 0.12 0.16 0.23 0.31 0.36 0.43 0.45 0.48 0.43 0.37 0.34 0.32 0.29 0.27 0.28 0.30 0.33 0.36
0.22 0.41 0.66 0.60 0.38 0.37 0.24 0.17 0.15 0.12 0.09 0.06 0.08 0.07 0.09 0.13 0.15 0.13 0.10 0.09 0.06 0.04 0.04 0.04 0.05 0.06 0.08 0.13 0.22 0.30 0.37 0.48 0.51 0.50 0.48 0.45 0.45 0.45 0.47 0.47 0.48 0.49 0.49 0.50
0.08 0.28 0.49 0.43 0.32 0.17 0.09 0.10 0.12 0.13 0.10 0.05 0.05 0.04 0.04 0.06 0.12 0.17 0.14 0.10 0.07 0.04 0.03 0.02 0.03 0.04 0.05 0.08 0.14 0.23 0.35 0.50 0.61 0.67 0.65 0.65 0.67 0.71 0.75 0.77 0.77 0.77 0.79 0.78
0.04 0.13 0.31 0.28 0.24 0.10 0.04 0.02 0.03 0.05 0.08 0.03 0.02 0.02 0.02 0.04 0.10 0.16 0.17 0.13 0.11 0.09 0.07 0.05 0.05 0.06 0.09 0.12 0.18 0.30 0.47 0.61 0.71 0.74 0.77 0.81 0.85 0.90 0.87 0.86 0.82 0.75 0.71 0.70
0.10 0.16 0.24 0.23 0.21 0.04 0.01 0.00 0.01 0.05 0.08 0.02 0.01 0.01 0.01 0.02 0.05 0.06 0.11 0.15 0.14 0.15 0.17 0.17 0.18 0.20 0.22 0.25 0.34 0.47 0.58 0.67 0.70 0.70 0.71 0.73 0.72 0.72 0.69 0.66 0.63 0.58 0.53 0.47
0.04 0.08 0.09 0.10 0.15 0.06 0.01 0.01 0.02 0.03 0.02 0.01 0.01 0.01 0.02 0.02 0.02 0.03 0.04 0.08 0.12 0.16 0.22 0.29 0.34 0.37 0.37 0.40 0.46 0.52 0.54 0.54 0.52 0.49 0.47 0.44 0.39 0.35 0.34 0.34 0.34 0.33 0.31 0.27
0.03 0.05 0.05 0.06 0.07 0.03 0.01 0.01 0.02 0.02 0.02 0.02 0.01 0.01 0.02 0.02 0.02 0.02 0.02 0.03 0.05 0.07 0.09 0.14 0.20 0.24 0.25 0.25 0.27 0.29 0.26 0.23 0.19 0.16 0.14 0.13 0.10 0.09 0.09 0.08 0.09 0.11 0.14 0.15
0.06 0.03 0.03 0.04 0.04 0.02 0.02 0.02 0.02 0.02 0.02 0.02 0.02 0.03 0.03 0.03 0.03 0.03 0.02 0.02 0.03 0.03 0.03 0.04 0.06 0.07 0.07 0.08 0.08 0.09 0.07 0.05 0.04 0.03 0.03 0.03 0.03 0.03 0.03 0.04 0.04 0.06 0.07 0.09
0.08 0.05 0.05 0.04 0.03 0.02 0.02 0.02 0.02 0.02 0.01 0.02 0.02 0.02 0.03 0.04 0.04 0.04 0.04 0.03 0.03 0.03 0.03 0.04 0.04 0.04 0.04 0.04 0.05 0.05 0.05 0.04 0.04 0.03 0.03 0.03 0.03 0.04 0.04 0.04 0.04 0.06 0.07 0.09
0.05 0.05 0.07 0.07 0.03 0.03 0.02 0.01 0.01 0.01 0.01 0.02 0.02 0.02 0.02 0.03 0.04 0.04 0.03 0.04 0.04 0.05 0.04 0.04 0.04 0.05 0.06 0.06 0.07 0.07 0.08 0.08 0.07 0.07 0.07 0.07 0.07 0.07 0.07 0.08 0.08 0.09 0.11 0.13

GEFSCGP_prec_meanprecacc_150.txt.gz
Total_Precipitation_Accumulation
1.80 1.69 1.27 0.72 0.54 0.39 0.33 0.35 0.34 0.29 0.32 0.37 0.40 0.38 0.40 0.39 0.38 0.38 0.35 0.32 0.33 0.47 0.66 0.75 0.80 1.04 1.22 1.31 1.41 1.50 1.60 1.69 1.82 1.83 1.81 1.78 1.61 1.43 1.28 1.17 1.08 1.02 1.00 1.01
1.57 1.19 0.72 0.53 0.51 0.45 0.41 0.41 0.39 0.32 0.29 0.38 0.40 0.36 0.32 0.29 0.35 0.38 0.36 0.35 0.37 0.44 0.55 0.65 0.71 0.81 0.99 1.12 1.29 1.42 1.52 1.68 1.71 1.71 1.81 1.93 1.99 1.82 1.56 1.41 1.29 1.18 1.15 1.14
1.18 0.74 0.57 0.64 0.60 0.56 0.44 0.36 0.32 0.33 0.35 0.39 0.38 0.37 0.28 0.27 0.34 0.37 0.37 0.37 0.35 0.37 0.43 0.50 0.58 0.73 0.87 0.98 1.15 1.37 1.50 1.66 1.71 1.75 1.97 2.11 2.22 2.06 1.77 1.43 1.27 1.26 1.29 1.29
1.04 0.64 0.61 0.72 0.57 0.48 0.45 0.25 0.24 0.27 0.41 0.46 0.37 0.50 0.33 0.31 0.35 0.38 0.40 0.38 0.34 0.33 0.37 0.41 0.49 0.60 0.72 0.87 1.01 1.13 1.30 1.50 1.68 1.75 1.80 1.85 1.91 1.87 1.65 1.54 1.45 1.47 1.48 1.47
0.98 0.68 0.68 0.73 0.50 0.41 0.39 0.25 0.28 0.30 0.39 0.44 0.32 0.46 0.38 0.23 0.27 0.35 0.42 0.43 0.40 0.38 0.39 0.41 0.49 0.58 0.64 0.76 0.98 1.07 1.15 1.34 1.55 1.68 1.74 1.85 1.81 1.80 1.88 1.83 1.72 1.63 1.59 1.56
0.73 0.60 0.71 0.61 0.46 0.42 0.40 0.39 0.44 0.42 0.54 0.57 0.26 0.37 0.39 0.27 0.28 0.30 0.32 0.38 0.42 0.43 0.50 0.53 0.58 0.59 0.59 0.64 0.84 1.05 1.08 1.17 1.31 1.53 1.72 1.78 1.70 1.73 1.77 1.76 1.72 1.70 1.70 1.66
0.97 0.73 0.59 0.52 0.62 0.55 0.49 0.60 0.85 0.88 0.78 0.43 0.19 0.29 0.36 0.27 0.29 0.29 0.29 0.32 0.39 0.47 0.51 0.57 0.60 0.55 0.54 0.58 0.70 0.88 1.00 1.11 1.17 1.32 1.48 1.62 1.69 1.68 1.70 1.71 1.68 1.61 1.54 1.47
0.93 0.99 0.61 0.49 0.58 0.60 0.46 0.45 0.58 0.57 0.36 0.24 0.21 0.30 0.32 0.27 0.25 0.22 0.23 0.27 0.33 0.39 0.42 0.46 0.53 0.55 0.55 0.55 0.60 0.66 0.72 0.81 0.88 0.96 1.08 1.21 1.40 1.49 1.45 1.49 1.51 1.48 1.41 1.40
0.54 0.61 0.40 0.34 0.34 0.38 0.49 0.41 0.26 0.43 0.35 0.32 0.25 0.23 0.24 0.21 0.21 0.21 0.23 0.28 0.34 0.40 0.43 0.44 0.51 0.53 0.56 0.58 0.61 0.61 0.61 0.66 0.76 0.79 0.84 0.88 1.03 1.16 1.20 1.26 1.25 1.19 1.19 1.26
0.30 0.40 0.33 0.29 0.34 0.35 0.34 0.32 0.39 0.64 0.55 0.41 0.23 0.20 0.30 0.25 0.20 0.22 0.27 0.29 0.33 0.43 0.42 0.42 0.47 0.50 0.53 0.57 0.60 0.59 0.58 0.60 0.70 0.77 0.81 0.81 0.84 0.90 1.02 1.11 1.05 1.03 1.05 1.08
0.23 0.35 0.37 0.34 0.35 0.29 0.24 0.31 0.35 0.42 0.37 0.37 0.23 0.26 0.29 0.27 0.23 0.24 0.27 0.30 0.38 0.43 0.43 0.43 0.46 0.50 0.54 0.59 0.59 0.56 0.59 0.60 0.63 0.67 0.68 0.69 0.71 0.76 0.82 0.90 0.93 0.92 0.96 0.95
0.14 0.25 0.31 0.24 0.14 0.13 0.20 0.19 0.24 0.43 0.30 0.22 0.23 0.28 0.26 0.24 0.22 0.23 0.25 0.28 0.34 0.37 0.41 0.40 0.42 0.47 0.52 0.53 0.49 0.48 0.53 0.55 0.60 0.62 0.60 0.60 0.62 0.65 0.68 0.72 0.77 0.79 0.83 0.85
0.17 0.25 0.34 0.33 0.26 0.25 0.27 0.16 0.17 0.34 0.48 0.34 0.28 0.29 0.24 0.20 0.18 0.19 0.20 0.22 0.26 0.29 0.29 0.29 0.31 0.33 0.34 0.35 0.35 0.39 0.43 0.41 0.43 0.45 0.44 0.46 0.48 0.52 0.58 0.61 0.62 0.64 0.70 0.75
0.36 0.30 0.27 0.31 0.30 0.38 0.35 0.17 0.17 0.50 0.65 0.27 0.16 0.22 0.20 0.18 0.19 0.20 0.20 0.19 0.19 0.20 0.21 0.22 0.23 0.22 0.24 0.26 0.29 0.31 0.30 0.31 0.34 0.34 0.33 0.35 0.38 0.42 0.46 0.49 0.47 0.48 0.52 0.58
0.36 0.34 0.20 0.23 0.29 0.45 0.38 0.22 0.20 0.34 0.27 0.26 0.15 0.16 0.18 0.19 0.22 0.23 0.21 0.17 0.15 0.14 0.14 0.17 0.18 0.18 0.19 0.21 0.22 0.22 0.24 0.31 0.35 0.37 0.35 0.34 0.35 0.37 0.39 0.41 0.41 0.40 0.41 0.42
0.32 0.35 0.27 0.30 0.28 0.38 0.31 0.15 0.13 0.15 0.12 0.13 0.11 0.15 0.15 0.19 0.23 0.26 0.23 0.17 0.11 0.10 0.10 0.11 0.12 0.13 0.14 0.16 0.19 0.23 0.27 0.36 0.42 0.44 0.39 0.35 0.34 0.34 0.32 0.31 0.31 0.32 0.33 0.34
0.35 0.44 0.58 0.48 0.24 0.28 0.25 0.14 0.13 0.12 0.09 0.09 0.14 0.14 0.13 0.21 0.25 0.23 0.17 0.11 0.08 0.07 0.07 0.07 0.08 0.10 0.12 0.17 0.24 0.31 0.36 0.44 0.46 0.49 0.44 0.37 0.34 0.33 0.30 0.27 0.28 0.30 0.33 0.36
0.22 0.41 0.66 0.60 0.38 0.37 0.24 0.17 0.15 0.12 0.09 0.06 0.08 0.07 0.09 0.13 0.15 0.13 0.10 0.09 0.06 0.04 0.04 0.04 0.05 0.06 0.08 0.13 0.22 0.30 0.37 0.48 0.51 0.50 0.48 0.46 0.45 0.45 0.47 0.47 0.48 0.49 0.49 0.50
0.08 0.28 0.49 0.43 0.32 0.17 0.09 0.10 0.12 0.13 0.10 0.05 0.05 0.05 0.04 0.06 0.12 0.17 0.14 0.10 0.07 0.04 0.03 0.03 0.03 0.04 0.05 0.08 0.14 0.23 0.35 0.50 0.61 0.67 0.65 0.65 0.67 0.71 0.75 0.77 0.77 0.77 0.79 0.78
0.04 0.13 0.31 0.29 0.24 0.10 0.04 0.02 0.03 0.05 0.09 0.03 0.02 0.02 0.02 0.04 0.10 0.16 0.17 0.13 0.11 0.09 0.07 0.05 0.05 0.06 0.09 0.12 0.18 0.30 0.47 0.61 0.71 0.74 0.77 0.81 0.85 0.90 0.87 0.86 0.82 0.75 0.71 0.70
0.10 0.17 0.24 0.23 0.21 0.04 0.01 0.00 0.01 0.06 0.08 0.02 0.01 0.01 0.01 0.02 0.05 0.06 0.11 0.15 0.14 0.15 0.17 0.17 0.18 0.20 0.22 0.25 0.34 0.47 0.58 0.67 0.70 0.70 0.71 0.73 0.72 0.72 0.69 0.66 0.63 0.58 0.53 0.47
0.04 0.08 0.09 0.11 0.16 0.06 0.01 0.01 0.02 0.04 0.02 0.01 0.01 0.01 0.02 0.02 0.02 0.03 0.04 0.08 0.12 0.16 0.22 0.29 0.34 0.37 0.37 0.40 0.46 0.52 0.54 0.54 0.52 0.49 0.47 0.44 0.39 0.35 0.34 0.34 0.34 0.33 0.31 0.27
0.04 0.05 0.05 0.06 0.07 0.03 0.01 0.01 0.02 0.02 0.02 0.02 0.01 0.01 0.02 0.02 0.02 0.02 0.02 0.03 0.05 0.07 0.09 0.14 0.20 0.24 0.25 0.25 0.27 0.29 0.26 0.23 0.19 0.16 0.14 0.13 0.10 0.09 0.09 0.08 0.09 0.11 0.14 0.15
0.06 0.03 0.03 0.04 0.04 0.02 0.02 0.02 0.02 0.02 0.02 0.02 0.03 0.03 0.03 0.03 0.03 0.03 0.02 0.02 0.03 0.03 0.03 0.04 0.06 0.07 0.07 0.08 0.08 0.09 0.07 0.05 0.04 0.03 0.03 0.03 0.03 0.03 0.04 0.04 0.05 0.06 0.07 0.09
0.08 0.06 0.05 0.05 0.03 0.02 0.02 0.02 0.02 0.02 0.02 0.02 0.02 0.02 0.03 0.04 0.04 0.04 0.04 0.03 0.03 0.03 0.03 0.04 0.04 0.04 0.04 0.04 0.05 0.05 0.05 0.04 0.04 0.03 0.03 0.03 0.04 0.04 0.04 0.04 0.05 0.06 0.07 0.09
0.05 0.05 0.08 0.07 0.03 0.03 0.02 0.01 0.01 0.01 0.01 0.02 0.02 0.02 0.03 0.03 0.04 0.04 0.04 0.04 0.04 0.05 0.04 0.04 0.04 0.05 0.06 0.06 0.07 0.07 0.08 0.08 0.07 0.07 0.07 0.07 0.07 0.07 0.08 0.08 0.08 0.10 0.11 0.13

GEFSCGP_prec_meanprecacc_156.txt.gz
Total_Precipitation_Accumulation
1.84 1.72 1.28 0.72 0.55 0.40 0.34 0.35 0.35 0.30 0.35 0.41 0.43 0.41 0.45 0.44 0.42 0.43 0.42 0.40 0.42 0.54 0.76 0.83 0.89 1.12 1.31 1.39 1.48 1.57 1.67 1.73 1.85 1.89 1.88 1.87 1.74 1.54 1.36 1.23 1.12 1.06 1.05 1.10
1.60 1.20 0.73 0.53 0.51 0.46 0.42 0.41 0.40 0.33 0.31 0.40 0.42 0.40 0.37 0.34 0.39 0.43 0.42 0.43 0.45 0.50 0.62 0.71 0.76 0.86 1.03 1.16 1.33 1.50 1.61 1.73 1.73 1.73 1.87 1.99 2.09 1.93 1.62 1.45 1.33 1.20 1.17 1.18
1.20 0.75 0.57 0.64 0.61 0.56 0.45 0.37 0.33 0.33 0.36 0.40 0.40 0.40 0.32 0.31 0.37 0.41 0.41 0.42 0.42 0.42 0.48 0.55 0.62 0.77 0.90 1.01 1.18 1.42 1.56 1.69 1.72 1.76 1.99 2.16 2.28 2.15 1.85 1.47 1.29 1.27 1.29 1.31
1.06 0.65 0.62 0.72 0.57 0.48 0.45 0.26 0.25 0.28 0.41 0.46 0.39 0.53 0.36 0.34 0.37 0.40 0.43 0.42 0.38 0.37 0.40 0.45 0.54 0.63 0.74 0.89 1.02 1.15 1.33 1.52 1.69 1.75 1.80 1.88 1.96 1.93 1.72 1.58 1.47 1.48 1.49 1.48
0.99 0.68 0.69 0.73 0.51 0.41 0.39 0.26 0.29 0.30 0.40 0.44 0.32 0.47 0.40 0.25 0.29 0.37 0.45 0.46 0.42 0.41 0.42 0.44 0.52 0.62 0.66 0.77 0.98 1.08 1.15 1.35 1.56 1.68 1.74 1.85 1.83 1.85 1.94 1.87 1.75 1.64 1.60 1.57
0.74 0.61 0.71 0.61 0.47 0.43 0.40 0.40 0.44 0.42 0.55 0.57 0.27 0.37 0.40 0.28 0.29 0.32 0.34 0.40 0.44 0.45 0.52 0.55 0.59 0.61 0.61 0.65 0.85 1.06 1.08 1.17 1.32 1.53 1.72 1.78 1.71 1.75 1.82 1.82 1.76 1.72 1.71 1.68
0.98 0.74 0.60 0.52 0.62 0.55 0.49 0.60 0.85 0.89 0.79 0.43 0.19 0.29 0.37 0.28 0.30 0.30 0.30 0.33 0.39 0.48 0.52 0.57 0.60 0.55 0.55 0.59 0.70 0.88 1.01 1.12 1.18 1.33 1.48 1.63 1.69 1.69 1.73 1.76 1.72 1.64 1.56 1.48
0.94 1.00 0.61 0.49 0.58 0.60 0.47 0.45 0.58 0.58 0.37 0.24 0.21 0.30 0.33 0.28 0.26 0.23 0.23 0.27 0.34 0.40 0.42 0.46 0.53 0.55 0.55 0.56 0.61 0.66 0.73 0.82 0.88 0.97 1.08 1.21 1.40 1.50 1.48 1.54 1.55 1.51 1.43 1.41
0.55 0.62 0.40 0.34 0.34 0.38 0.49 0.41 0.26 0.43 0.36 0.32 0.25 0.23 0.25 0.22 0.22 0.22 0.24 0.28 0.34 0.40 0.43 0.44 0.51 0.54 0.57 0.59 0.62 0.62 0.62 0.66 0.76 0.79 0.85 0.89 1.04 1.18 1.24 1.31 1.30 1.24 1.22 1.29
0.30 0.40 0.33 0.29 0.35 0.36 0.34 0.32 0.39 0.64 0.55 0.41 0.23 0.20 0.31 0.26 0.21 0.23 0.28 0.30 0.35 0.45 0.43 0.42 0.48 0.51 0.53 0.58 0.61 0.60 0.59 0.60 0.70 0.77 0.82 0.83 0.87 0.94 1.07 1.16 1.10 1.07 1.08 1.12
0.23 0.35 0.37 0.34 0.35 0.29 0.25 0.31 0.36 0.42 0.38 0.38 0.24 0.26 0.30 0.29 0.25 0.26 0.29 0.33 0.41 0.44 0.44 0.45 0.48 0.52 0.55 0.59 0.59 0.56 0.59 0.60 0.64 0.69 0.70 0.71 0.74 0.79 0.85 0.93 0.96 0.95 0.98 0.97
0.15 0.25 0.32 0.24 0.15 0.13 0.20 0.20 0.25 0.44 0.30 0.23 0.23 0.28 0.27 0.25 0.24 0.24 0.26 0.30 0.37 0.40 0.44 0.43 0.44 0.48 0.53 0.54 0.50 0.48 0.54 0.57 0.61 0.64 0.62 0.62 0.64 0.67 0.70 0.73 0.79 0.80 0.83 0.86
0.17 0.25 0.34 0.33 0.27 0.26 0.29 0.17 0.18 0.34 0.49 0.34 0.29 0.29 0.24 0.20 0.19 0.20 0.21 0.24 0.28 0.31 0.32 0.32 0.33 0.35 0.36 0.36 0.36 0.40 0.44 0.42 0.44 0.47 0.46 0.47 0.50 0.53 0.59 0.62 0.63 0.66 0.71 0.76
0.36 0.30 0.27 0.31 0.30 0.38 0.36 0.18 0.17 0.51 0.65 0.27 0.16 0.22 0.20 0.18 0.20 0.22 0.22 0.21 0.22 0.23 0.24 0.25 0.26 0.25 0.26 0.27 0.29 0.32 0.31 0.32 0.35 0.35 0.34 0.37 0.40 0.43 0.47 0.50 0.49 0.50 0.53 0.59
0.36 0.34 0.20 0.23 0.29 0.45 0.38 0.22 0.20 0.34 0.27 0.26 0.15 0.16 0.18 0.19 0.23 0.25 0.22 0.19 0.16 0.16 0.17 0.20 0.21 0.21 0.22 0.23 0.23 0.23 0.26 0.32 0.37 0.38 0.36 0.35 0.36 0.38 0.41 0.43 0.43 0.42 0.43 0.43
0.32 0.35 0.27 0.30 0.28 0.38 0.31 0.15 0.13 0.15 0.12 0.13 0.11 0.15 0.15 0.19 0.24 0.27 0.24 0.18 0.13 0.12 0.12 0.13 0.15 0.16 0.17 0.18 0.20 0.24 0.29 0.37 0.43 0.46 0.40 0.36 0.36 0.36 0.34 0.33 0.33 0.33 0.34 0.35
0.35 0.44 0.58 0.48 0.24 0.28 0.25 0.14 0.13 0.12 0.09 0.09 0.14 0.14 0.13 0.21 0.25 0.23 0.18 0.12 0.09 0.08 0.09 0.09 0.10 0.12 0.14 0.18 0.25 0.32 0.37 0.44 0.47 0.50 0.45 0.39 0.35 0.34 0.31 0.29 0.29 0.31 0.34 0.37
0.22 0.41 0.66 0.60 0.38 0.38 0.24 0.17 0.15 0.12 0.09 0.07 0.08 0.07 0.09 0.13 0.15 0.13 0.10 0.09 0.06 0.05 0.05 0.05 0.06 0.07 0.09 0.14 0.23 0.31 0.37 0.49 0.51 0.51 0.49 0.47 0.46 0.46 0.48 0.48 0.49 0.50 0.50 0.51
0.08 0.28 0.49 0.43 0.33 0.17 0.09 0.10 0.12 0.13 0.10 0.05 0.05 0.05 0.04 0.06 0.12 0.17 0.14 0.10 0.07 0.04 0.03 0.03 0.04 0.05 0.05 0.08 0.14 0.23 0.35 0.50 0.62 0.67 0.66 0.66 0.68 0.72 0.76 0.78 0.77 0.78 0.79 0.79
0.04 0.13 0.31 0.29 0.24 0.10 0.04 0.02 0.03 0.05 0.09 0.03 0.02 0.02 0.02 0.04 0.10 0.16 0.17 0.13 0.11 0.09 0.07 0.05 0.05 0.07 0.09 0.12 0.18 0.30 0.47 0.61 0.71 0.75 0.78 0.81 0.86 0.91 0.88 0.87 0.83 0.76 0.71 0.70
0.10 0.17 0.24 0.24 0.22 0.04 0.01 0.00 0.01 0.06 0.08 0.02 0.01 0.01 0.01 0.02 0.05 0.06 0.11 0.15 0.14 0.15 0.17 0.17 0.18 0.21 0.22 0.25 0.34 0.47 0.58 0.67 0.70 0.70 0.71 0.74 0.72 0.72 0.70 0.67 0.63 0.58 0.53 0.47
0.04 0.09 0.10 0.11 0.16 0.07 0.01 0.01 0.02 0.04 0.02 0.01 0.01 0.01 0.02 0.02 0.02 0.03 0.04 0.08 0.12 0.16 0.22 0.29 0.34 0.37 0.37 0.40 0.46 0.52 0.54 0.54 0.52 0.49 0.47 0.44 0.39 0.35 0.34 0.35 0.35 0.33 0.31 0.27
0.04 0.05 0.06 0.06 0.08 0.04 0.02 0.02 0.02 0.02 0.02 0.02 0.02 0.02 0.02 0.02 0.02 0.02 0.02 0.03 0.05 0.07 0.09 0.14 0.20 0.24 0.25 0.25 0.27 0.29 0.26 0.23 0.19 0.16 0.14 0.13 0.11 0.09 0.09 0.09 0.09 0.12 0.15 0.15
0.06 0.04 0.03 0.04 0.04 0.02 0.02 0.02 0.02 0.02 0.03 0.03 0.03 0.03 0.03 0.04 0.03 0.03 0.02 0.02 0.03 0.03 0.03 0.04 0.06 0.07 0.07 0.08 0.08 0.09 0.07 0.05 0.04 0.03 0.03 0.03 0.03 0.03 0.04 0.04 0.05 0.06 0.08 0.10
0.08 0.06 0.05 0.05 0.03 0.02 0.02 0.02 0.02 0.02 0.02 0.02 0.02 0.02 0.03 0.04 0.04 0.04 0.04 0.04 0.03 0.03 0.03 0.04 0.04 0.04 0.04 0.04 0.05 0.05 0.05 0.04 0.04 0.03 0.03 0.03 0.04 0.04 0.04 0.04 0.05 0.06 0.07 0.09
0.05 0.05 0.08 0.07 0.03 0.03 0.02 0.01 0.01 0.01 0.01 0.02 0.02 0.02 0.03 0.03 0.04 0.04 0.04 0.04 0.04 0.05 0.04 0.04 0.04 0.05 0.06 0.06 0.07 0.07 0.08 0.08 0.07 0.07 0.07 0.07 0.07 0.07 0.08 0.08 0.08 0.10 0.11 0.13

GEFSCGP_prec_meanprecacc_162.txt.gz
Total_Precipitation_Accumulation
1.85 1.73 1.29 0.74 0.57 0.41 0.35 0.37 0.37 0.32 0.37 0.45 0.46 0.44 0.48 0.48 0.47 0.48 0.49 0.47 0.48 0.60 0.82 0.89 0.98 1.23 1.40 1.49 1.58 1.66 1.74 1.80 1.92 1.96 1.96 1.94 1.81 1.63 1.51 1.40 1.26 1.16 1.10 1.13
1.60 1.21 0.73 0.54 0.53 0.48 0.43 0.43 0.42 0.35 0.33 0.44 0.45 0.43 0.40 0.39 0.44 0.50 0.49 0.49 0.50 0.55 0.69 0.78 0.85 0.99 1.13 1.27 1.43 1.58 1.69 1.79 1.78 1.79 1.94 2.06 2.16 2.01 1.75 1.60 1.48 1.32 1.23 1.22
1.21 0.75 0.58 0.66 0.62 0.58 0.46 0.38 0.34 0.34 0.36 0.41 0.42 0.42 0.35 0.36 0.42 0.46 0.47 0.47 0.47 0.47 0.54 0.62 0.71 0.91 1.02 1.10 1.27 1.50 1.63 1.76 1.77 1.80 2.03 2.21 2.32 2.20 1.92 1.59 1.43 1.42 1.41 1.38
1.07 0.66 0.63 0.73 0.59 0.50 0.47 0.27 0.26 0.29 0.42 0.48 0.41 0.56 0.38 0.38 0.41 0.43 0.47 0.46 0.43 0.42 0.47 0.52 0.62 0.75 0.85 0.97 1.10 1.21 1.38 1.57 1.72 1.78 1.83 1.89 1.98 1.95 1.76 1.65 1.56 1.58 1.59 1.54
1.00 0.69 0.69 0.74 0.51 0.41 0.40 0.27 0.30 0.31 0.41 0.45 0.34 0.49 0.42 0.29 0.32 0.41 0.50 0.50 0.46 0.46 0.48 0.49 0.59 0.71 0.76 0.85 1.06 1.14 1.21 1.39 1.59 1.70 1.75 1.86 1.84 1.86 1.95 1.91 1.82 1.72 1.67 1.62
0.75 0.61 0.71 0.61 0.47 0.43 0.41 0.41 0.45 0.43 0.56 0.59 0.28 0.38 0.41 0.29 0.32 0.37 0.39 0.45 0.48 0.51 0.57 0.61 0.65 0.68 0.68 0.72 0.92 1.11 1.13 1.22 1.34 1.54 1.73 1.78 1.71 1.75 1.82 1.82 1.78 1.77 1.77 1.72
0.99 0.74 0.60 0.53 0.63 0.56 0.50 0.61 0.86 0.91 0.81 0.44 0.20 0.30 0.37 0.28 0.30 0.32 0.34 0.37 0.43 0.52 0.56 0.61 0.64 0.59 0.59 0.63 0.74 0.91 1.03 1.14 1.19 1.34 1.48 1.63 1.69 1.69 1.73 1.77 1.74 1.67 1.60 1.53
0.94 1.00 0.61 0.50 0.59 0.61 0.47 0.46 0.59 0.59 0.37 0.25 0.21 0.30 0.33 0.28 0.26 0.23 0.24 0.29 0.36 0.43 0.45 0.48 0.55 0.57 0.57 0.57 0.62 0.68 0.74 0.83 0.89 0.97 1.09 1.21 1.41 1.50 1.48 1.54 1.56 1.53 1.47 1.45
0.55 0.62 0.40 0.34 0.34 0.39 0.49 0.42 0.27 0.44 0.36 0.33 0.25 0.23 0.25 0.22 0.22 0.22 0.24 0.29 0.35 0.41 0.45 0.46 0.52 0.55 0.57 0.59 0.62 0.62 0.62 0.67 0.76 0.79 0.85 0.89 1.04 1.18 1.24 1.31 1.30 1.25 1.26 1.32
0.30 0.40 0.33 0.29 0.35 0.36 0.35 0.32 0.39 0.65 0.56 0.41 0.23 0.20 0.31 0.26 0.22 0.24 0.29 0.30 0.35 0.45 0.44 0.43 0.49 0.52 0.54 0.58 0.61 0.60 0.59 0.60 0.70 0.77 0.82 0.83 0.87 0.94 1.07 1.16 1.10 1.08 1.10 1.15
0.23 0.35 0.37 0.34 0.36 0.30 0.25 0.31 0.36 0.43 0.38 0.38 0.24 0.26 0.30 0.30 0.26 0.26 0.29 0.34 0.41 0.45 0.45 0.45 0.49 0.52 0.55 0.60 0.60 0.57 0.60 0.60 0.64 0.69 0.70 0.71 0.75 0.79 0.85 0.93 0.96 0.95 0.99 0.99
0.15 0.25 0.32 0.24 0.15 0.14 0.21 0.20 0.25 0.44 0.31 0.23 0.24 0.28 0.27 0.26 0.25 0.24 0.26 0.31 0.37 0.41 0.44 0.43 0.44 0.49 0.53 0.54 0.50 0.49 0.54 0.57 0.62 0.64 0.62 0.62 0.64 0.67 0.70 0.73 0.79 0.80 0.84 0.87
0.17 0.25 0.34 0.33 0.27 0.26 0.29 0.18 0.19 0.35 0.49 0.34 0.29 0.29 0.24 0.20 0.20 0.20 0.22 0.25 0.29 0.31 0.32 0.33 0.34 0.36 0.37 0.37 0.36 0.40 0.45 0.43 0.44 0.47 0.46 0.48 0.50 0.53 0.59 0.62 0.63 0.66 0.72 0.76
0.37 0.31 0.27 0.31 0.30 0.38 0.36 0.18 0.18 0.51 0.66 0.28 0.16 0.22 0.20 0.18 0.21 0.22 0.22 0.22 0.22 0.24 0.25 0.26 0.27 0.26 0.28 0.29 0.30 0.32 0.31 0.33 0.35 0.35 0.35 0.38 0.41 0.44 0.47 0.50 0.49 0.50 0.54 0.59
0.37 0.34 0.20 0.23 0.29 0.45 0.38 0.22 0.20 0.34 0.27 0.26 0.15 0.16 0.19 0.19 0.24 0.25 0.23 0.20 0.18 0.17 0.19 0.21 0.22 0.22 0.23 0.24 0.24 0.24 0.26 0.33 0.37 0.38 0.37 0.36 0.37 0.39 0.41 0.43 0.43 0.42 0.43 0.43
0.32 0.35 0.27 0.30 0.28 0.38 0.31 0.15 0.13 0.15 0.12 0.13 0.11 0.15 0.15 0.19 0.24 0.27 0.25 0.19 0.14 0.13 0.14 0.15 0.16 0.18 0.18 0.19 0.22 0.25 0.30 0.38 0.43 0.46 0.42 0.38 0.37 0.36 0.34 0.33 0.34 0.34 0.35 0.36
0.35 0.45 0.58 0.49 0.24 0.28 0.25 0.14 0.13 0.12 0.09 0.09 0.14 0.14 0.13 0.21 0.25 0.23 0.18 0.12 0.10 0.10 0.11 0.12 0.12 0.14 0.17 0.20 0.27 0.34 0.38 0.45 0.47 0.50 0.46 0.40 0.37 0.35 0.32 0.30 0.30 0.32 0.34 0.37
0.22 0.41 0.67 0.61 0.38 0.38 0.24 0.17 0.15 0.12 0.09 0.07 0.08 0.07 0.09 0.13 0.15 0.13 0.10 0.09 0.07 0.06 0.06 0.07 0.09 0.10 0.12 0.17 0.26 0.33 0.39 0.50 0.52 0.52 0.50 0.48 0.47 0.48 0.50 0.49 0.51 0.51 0.50 0.52
0.08 0.28 0.50 0.44 0.33 0.18 0.09 0.10 0.12 0.13 0.10 0.05 0.05 0.05 0.04 0.06 0.12 0.17 0.14 0.10 0.07 0.05 0.04 0.04 0.05 0.06 0.07 0.10 0.16 0.24 0.37 0.52 0.63 0.69 0.67 0.67 0.70 0.74 0.78 0.80 0.80 0.79 0.80 0.80
0.05 0.13 0.32 0.30 0.25 0.10 0.04 0.02 0.03 0.05 0.09 0.03 0.02 0.02 0.02 0.04 0.10 0.16 0.17 0.13 0.11 0.09 0.07 0.06 0.06 0.07 0.10 0.13 0.18 0.31 0.47 0.62 0.72 0.75 0.79 0.82 0.87 0.93 0.91 0.89 0.85 0.78 0.72 0.72
0.11 0.17 0.25 0.24 0.22 0.04 0.01 0.00 0.01 0.06 0.08 0.02 0.01 0.01 0.01 0.02 0.05 0.06 0.11 0.15 0.15 0.15 0.17 0.17 0.18 0.21 0.23 0.25 0.34 0.48 0.58 0.67 0.70 0.70 0.72 0.74 0.73 0.74 0.72 0.70 0.65 0.60 0.54 0.49
0.04 0.09 0.10 0.11 0.17 0.07 0.01 0.01 0.03 0.04 0.02 0.01 0.01 0.01 0.02 0.02 0.02 0.03 0.04 0.08 0.12 0.16 0.22 0.29 0.34 0.37 0.37 0.40 0.46 0.53 0.54 0.54 0.52 0.50 0.48 0.45 0.40 0.37 0.36 0.37 0.38 0.35 0.33 0.29
0.04 0.05 0.06 0.06 0.08 0.04 0.02 0.02 0.02 0.02 0.02 0.02 0.02 0.02 0.02 0.02 0.02 0.02 0.02 0.03 0.05 0.07 0.09 0.14 0.20 0.24 0.25 0.25 0.27 0.29 0.26 0.23 0.20 0.16 0.15 0.13 0.11 0.10 0.10 0.11 0.12 0.14 0.17 0.16
0.06 0.04 0.04 0.05 0.04 0.02 0.02 0.02 0.02 0.02 0.03 0.03 0.03 0.03 0.03 0.04 0.03 0.03 0.02 0.02 0.03 0.03 0.03 0.04 0.06 0.07 0.07 0.08 0.08 0.09 0.07 0.05 0.04 0.03 0.03 0.03 0.03 0.04 0.05 0.06 0.07 0.08 0.09 0.11
0.08 0.06 0.05 0.05 0.03 0.02 0.02 0.02 0.02 0.02 0.02 0.02 0.02 0.02 0.03 0.04 0.05 0.04 0.04 0.04 0.03 0.03 0.03 0.04 0.04 0.04 0.04 0.04 0.05 0.05 0.05 0.04 0.04 0.03 0.03 0.03 0.04 0.05 0.05 0.05 0.06 0.08 0.09 0.11
0.05 0.06 0.08 0.08 0.03 0.04 0.03 0.01 0.01 0.01 0.01 0.02 0.02 0.03 0.03 0.03 0.04 0.04 0.04 0.04 0.04 0.05 0.04 0.04 0.04 0.05 0.06 0.06 0.07 0.07 0.08 0.08 0.07 0.07 0.07 0.07 0.07 0.08 0.08 0.09 0.09 0.11 0.12 0.14

GEFSCGP_prec_meanprecacc_168.txt.gz
Total_Precipitation_Accumulation
1.87 1.74 1.30 0.75 0.59 0.43 0.36 0.37 0.38 0.33 0.38 0.46 0.48 0.47 0.51 0.51 0.52 0.56 0.55 0.52 0.53 0.64 0.87 0.94 1.03 1.28 1.45 1.56 1.65 1.74 1.83 1.92 2.11 2.22 2.20 2.13 1.96 1.73 1.60 1.52 1.38 1.27 1.22 1.26
1.62 1.22 0.74 0.55 0.54 0.49 0.44 0.44 0.43 0.37 0.33 0.45 0.46 0.45 0.43 0.41 0.49 0.59 0.56 0.53 0.55 0.60 0.73 0.83 0.90 1.03 1.18 1.33 1.52 1.66 1.76 1.88 1.91 1.96 2.11 2.23 2.29 2.11 1.83 1.64 1.52 1.39 1.31 1.31
1.22 0.76 0.59 0.66 0.62 0.59 0.48 0.39 0.35 0.36 0.38 0.44 0.43 0.44 0.38 0.38 0.45 0.51 0.55 0.56 0.53 0.52 0.59 0.66 0.75 0.94 1.05 1.15 1.35 1.59 1.73 1.86 1.90 1.94 2.15 2.32 2.45 2.29 2.00 1.65 1.47 1.46 1.47 1.45
1.08 0.66 0.63 0.73 0.59 0.50 0.48 0.28 0.27 0.30 0.44 0.50 0.43 0.59 0.41 0.40 0.43 0.47 0.52 0.51 0.48 0.47 0.50 0.55 0.65 0.78 0.89 1.03 1.18 1.32 1.49 1.67 1.86 1.94 1.97 1.99 2.07 2.03 1.81 1.71 1.62 1.62 1.64 1.61
1.01 0.69 0.70 0.74 0.51 0.41 0.40 0.27 0.31 0.32 0.42 0.46 0.35 0.52 0.45 0.31 0.34 0.44 0.53 0.54 0.50 0.49 0.50 0.52 0.61 0.74 0.80 0.90 1.13 1.24 1.32 1.50 1.70 1.84 1.90 1.97 1.92 1.92 1.99 1.94 1.85 1.75 1.71 1.68
0.76 0.61 0.71 0.62 0.47 0.43 0.41 0.41 0.46 0.44 0.57 0.60 0.29 0.40 0.43 0.30 0.34 0.39 0.42 0.47 0.50 0.53 0.59 0.63 0.68 0.71 0.72 0.77 0.98 1.20 1.23 1.32 1.44 1.64 1.84 1.89 1.79 1.80 1.85 1.84 1.79 1.78 1.78 1.75
0.99 0.75 0.60 0.53 0.63 0.56 0.50 0.61 0.87 0.91 0.82 0.45 0.21 0.30 0.38 0.29 0.31 0.33 0.35 0.39 0.44 0.53 0.57 0.63 0.67 0.62 0.61 0.66 0.79 0.98 1.10 1.22 1.28 1.41 1.56 1.70 1.76 1.74 1.77 1.79 1.75 1.67 1.60 1.54
0.95 1.00 0.61 0.50 0.59 0.61 0.47 0.46 0.59 0.59 0.38 0.25 0.21 0.30 0.33 0.29 0.26 0.24 0.25 0.30 0.37 0.44 0.46 0.49 0.56 0.58 0.58 0.59 0.65 0.72 0.79 0.88 0.95 1.04 1.16 1.28 1.47 1.56 1.52 1.57 1.58 1.55 1.47 1.45
0.55 0.62 0.40 0.34 0.34 0.39 0.49 0.42 0.27 0.44 0.36 0.33 0.25 0.24 0.25 0.22 0.22 0.22 0.24 0.29 0.35 0.42 0.46 0.47 0.54 0.55 0.58 0.60 0.64 0.64 0.65 0.71 0.80 0.83 0.89 0.93 1.08 1.21 1.26 1.32 1.32 1.26 1.26 1.33
0.30 0.40 0.33 0.29 0.35 0.36 0.35 0.33 0.40 0.65 0.56 0.41 0.23 0.20 0.31 0.26 0.22 0.24 0.29 0.31 0.35 0.45 0.44 0.43 0.50 0.53 0.55 0.59 0.62 0.61 0.60 0.62 0.72 0.78 0.83 0.84 0.88 0.95 1.07 1.16 1.11 1.08 1.10 1.15
0.23 0.35 0.37 0.34 0.36 0.30 0.25 0.32 0.36 0.43 0.39 0.39 0.24 0.26 0.30 0.30 0.26 0.26 0.30 0.34 0.42 0.45 0.45 0.45 0.49 0.52 0.55 0.60 0.60 0.57 0.60 0.61 0.65 0.70 0.71 0.72 0.75 0.79 0.85 0.93 0.96 0.95 0.99 0.99
0.15 0.25 0.32 0.24 0.15 0.14 0.21 0.20 0.25 0.45 0.31 0.23 0.24 0.28 0.27 0.26 0.25 0.24 0.26 0.31 0.38 0.41 0.44 0.43 0.44 0.49 0.53 0.54 0.50 0.49 0.54 0.57 0.62 0.65 0.62 0.62 0.64 0.67 0.70 0.74 0.79 0.80 0.84 0.87
0.17 0.26 0.35 0.33 0.27 0.26 0.29 0.18 0.19 0.35 0.50 0.35 0.29 0.29 0.24 0.20 0.20 0.20 0.22 0.25 0.29 0.32 0.33 0.33 0.34 0.36 0.37 0.37 0.36 0.41 0.45 0.43 0.44 0.47 0.46 0.48 0.50 0.54 0.59 0.63 0.63 0.66 0.72 0.77
0.37 0.31 0.28 0.32 0.30 0.38 0.36 0.18 0.18 0.51 0.66 0.28 0.16 0.22 0.20 0.18 0.21 0.23 0.22 0.22 0.23 0.24 0.25 0.26 0.27 0.26 0.28 0.29 0.30 0.33 0.31 0.33 0.35 0.35 0.35 0.38 0.41 0.44 0.47 0.50 0.49 0.50 0.54 0.59
0.37 0.35 0.20 0.23 0.29 0.45 0.38 0.22 0.20 0.34 0.27 0.27 0.15 0.16 0.19 0.19 0.24 0.25 0.23 0.20 0.18 0.18 0.19 0.22 0.22 0.22 0.23 0.24 0.24 0.24 0.27 0.33 0.37 0.38 0.37 0.37 0.37 0.39 0.41 0.43 0.43 0.42 0.43 0.43
0.33 0.36 0.27 0.30 0.28 0.38 0.31 0.15 0.14 0.15 0.12 0.13 0.11 0.15 0.15 0.19 0.24 0.27 0.25 0.19 0.14 0.14 0.15 0.15 0.16 0.18 0.18 0.19 0.22 0.26 0.30 0.38 0.44 0.47 0.42 0.39 0.38 0.37 0.35 0.33 0.34 0.34 0.35 0.36
0.35 0.45 0.59 0.49 0.24 0.28 0.25 0.14 0.13 0.12 0.09 0.10 0.14 0.14 0.13 0.21 0.25 0.23 0.18 0.13 0.10 0.10 0.11 0.12 0.13 0.15 0.17 0.20 0.27 0.34 0.39 0.46 0.48 0.51 0.47 0.42 0.38 0.36 0.33 0.30 0.31 0.32 0.35 0.38
0.22 0.42 0.67 0.61 0.39 0.38 0.24 0.17 0.15 0.12 0.09 0.07 0.08 0.07 0.09 0.13 0.15 0.13 0.10 0.09 0.08 0.07 0.07 0.08 0.09 0.10 0.12 0.17 0.26 0.33 0.39 0.51 0.53 0.52 0.50 0.49 0.49 0.49 0.51 0.50 0.51 0.52 0.51 0.52
0.08 0.28 0.50 0.44 0.33 0.18 0.09 0.10 0.12 0.13 0.10 0.05 0.05 0.05 0.04 0.06 0.12 0.17 0.14 0.10 0.08 0.05 0.05 0.05 0.06 0.07 0.08 0.10 0.17 0.25 0.37 0.52 0.64 0.69 0.67 0.68 0.71 0.75 0.79 0.81 0.80 0.80 0.81 0.80
0.05 0.14 0.33 0.31 0.26 0.10 0.05 0.03 0.03 0.05 0.09 0.03 0.02 0.02 0.02 0.04 0.10 0.16 0.17 0.13 0.11 0.09 0.07 0.06 0.06 0.08 0.10 0.13 0.19 0.32 0.48 0.63 0.73 0.76 0.79 0.83 0.88 0.94 0.91 0.89 0.86 0.78 0.73 0.72
0.11 0.18 0.26 0.26 0.23 0.05 0.01 0.01 0.01 0.06 0.09 0.02 0.01 0.02 0.02 0.03 0.05 0.06 0.11 0.15 0.15 0.15 0.17 0.18 0.18 0.21 0.23 0.26 0.34 0.48 0.59 0.68 0.71 0.71 0.72 0.75 0.74 0.75 0.73 0.70 0.66 0.62 0.55 0.49
0.04 0.09 0.10 0.12 0.19 0.08 0.02 0.01 0.03 0.05 0.02 0.02 0.02 0.03 0.03 0.03 0.03 0.03 0.04 0.08 0.12 0.16 0.22 0.29 0.34 0.37 0.38 0.40 0.46 0.53 0.55 0.54 0.52 0.50 0.48 0.45 0.41 0.37 0.37 0.38 0.38 0.37 0.34 0.29
0.04 0.06 0.07 0.07 0.09 0.05 0.03 0.02 0.03 0.02 0.03 0.02 0.02 0.02 0.02 0.03 0.02 0.02 0.02 0.03 0.05 0.07 0.09 0.14 0.20 0.24 0.25 0.25 0.27 0.29 0.26 0.23 0.20 0.17 0.15 0.14 0.12 0.11 0.11 0.12 0.13 0.16 0.18 0.17
0.06 0.04 0.04 0.06 0.05 0.03 0.02 0.03 0.03 0.02 0.03 0.03 0.03 0.03 0.03 0.04 0.03 0.03 0.02 0.02 0.03 0.03 0.04 0.04 0.06 0.07 0.07 0.08 0.08 0.09 0.07 0.05 0.04 0.03 0.03 0.03 0.04 0.04 0.05 0.07 0.08 0.10 0.11 0.12
0.08 0.06 0.05 0.05 0.03 0.02 0.02 0.02 0.02 0.02 0.02 0.02 0.02 0.02 0.03 0.04 0.05 0.04 0.04 0.04 0.03 0.03 0.03 0.04 0.04 0.04 0.05 0.04 0.05 0.05 0.05 0.05 0.04 0.03 0.03 0.04 0.05 0.05 0.06 0.06 0.07 0.09 0.10 0.12
0.05 0.06 0.08 0.08 0.04 0.04 0.03 0.01 0.01 0.01 0.01 0.02 0.02 0.03 0.03 0.03 0.05 0.04 0.04 0.04 0.05 0.05 0.05 0.04 0.05 0.05 0.06 0.06 0.07 0.08 0.08 0.08 0.08 0.08 0.07 0.08 0.08 0.09 0.09 0.09 0.10 0.12 0.13 0.15

GEFSCGP_prec_meanprecacc_174.txt.gz
Total_Precipitation_Accumulation
1.88 1.75 1.31 0.76 0.60 0.44 0.37 0.38 0.38 0.34 0.39 0.47 0.49 0.47 0.52 0.53 0.54 0.57 0.58 0.55 0.55 0.66 0.90 0.99 1.08 1.34 1.54 1.65 1.74 1.80 1.88 1.97 2.21 2.39 2.37 2.30 2.17 1.94 1.81 1.76 1.60 1.42 1.32 1.35
1.63 1.22 0.74 0.55 0.54 0.50 0.45 0.44 0.44 0.38 0.35 0.46 0.47 0.45 0.43 0.42 0.51 0.60 0.58 0.57 0.59 0.63 0.78 0.87 0.94 1.08 1.23 1.40 1.58 1.72 1.80 1.91 1.95 2.04 2.27 2.40 2.46 2.31 2.04 1.86 1.73 1.57 1.45 1.41
1.22 0.76 0.59 0.67 0.63 0.60 0.48 0.40 0.36 0.37 0.39 0.45 0.44 0.45 0.38 0.39 0.46 0.53 0.57 0.59 0.57 0.57 0.64 0.71 0.79 0.98 1.09 1.20 1.40 1.64 1.77 1.89 1.92 1.97 2.22 2.44 2.60 2.45 2.18 1.85 1.66 1.63 1.61 1.57
1.08 0.67 0.64 0.74 0.59 0.51 0.48 0.28 0.27 0.30 0.45 0.52 0.44 0.60 0.41 0.41 0.44 0.48 0.53 0.53 0.52 0.52 0.56 0.59 0.68 0.81 0.92 1.07 1.22 1.36 1.52 1.70 1.88 1.97 2.02 2.08 2.19 2.18 1.97 1.88 1.79 1.78 1.75 1.71
1.02 0.70 0.70 0.74 0.51 0.42 0.41 0.27 0.31 0.33 0.42 0.47 0.37 0.54 0.46 0.32 0.35 0.45 0.55 0.56 0.54 0.55 0.56 0.56 0.66 0.78 0.84 0.94 1.17 1.28 1.35 1.53 1.73 1.87 1.95 2.05 2.02 2.05 2.12 2.08 2.00 1.89 1.82 1.76
0.76 0.61 0.72 0.62 0.47 0.43 0.41 0.41 0.46 0.44 0.58 0.61 0.30 0.42 0.44 0.31 0.34 0.39 0.43 0.50 0.54 0.58 0.65 0.68 0.74 0.76 0.77 0.82 1.03 1.23 1.25 1.34 1.47 1.67 1.88 1.96 1.88 1.90 1.95 1.94 1.90 1.89 1.88 1.83
0.99 0.75 0.60 0.53 0.63 0.56 0.50 0.61 0.87 0.92 0.82 0.45 0.21 0.31 0.40 0.30 0.31 0.33 0.36 0.40 0.46 0.56 0.62 0.68 0.71 0.66 0.66 0.71 0.84 1.02 1.13 1.24 1.30 1.44 1.59 1.75 1.83 1.82 1.85 1.87 1.84 1.76 1.68 1.60
0.95 1.01 0.62 0.50 0.59 0.61 0.47 0.46 0.59 0.60 0.38 0.25 0.21 0.31 0.34 0.30 0.27 0.24 0.25 0.30 0.37 0.45 0.48 0.52 0.59 0.62 0.62 0.63 0.70 0.77 0.82 0.91 0.99 1.07 1.19 1.31 1.51 1.61 1.59 1.64 1.64 1.62 1.54 1.52
0.56 0.62 0.40 0.34 0.36 0.39 0.49 0.42 0.27 0.44 0.36 0.33 0.25 0.24 0.26 0.24 0.23 0.22 0.24 0.29 0.35 0.42 0.47 0.49 0.55 0.57 0.61 0.63 0.67 0.68 0.69 0.73 0.83 0.86 0.93 0.97 1.12 1.27 1.32 1.38 1.37 1.31 1.32 1.38
0.30 0.40 0.33 0.29 0.35 0.36 0.35 0.33 0.40 0.66 0.56 0.42 0.24 0.20 0.32 0.27 0.22 0.24 0.29 0.31 0.36 0.46 0.45 0.44 0.50 0.53 0.56 0.61 0.64 0.63 0.64 0.65 0.75 0.81 0.85 0.86 0.90 0.98 1.11 1.20 1.14 1.12 1.14 1.18
0.23 0.35 0.37 0.34 0.36 0.30 0.25 0.32 0.36 0.44 0.40 0.40 0.25 0.26 0.31 0.30 0.26 0.26 0.30 0.34 0.42 0.45 0.45 0.46 0.49 0.52 0.56 0.61 0.61 0.58 0.62 0.63 0.68 0.73 0.73 0.73 0.76 0.81 0.87 0.94 0.97 0.96 1.00 1.01
0.15 0.26 0.32 0.24 0.15 0.14 0.21 0.20 0.25 0.45 0.32 0.24 0.25 0.29 0.27 0.26 0.25 0.25 0.27 0.32 0.38 0.41 0.45 0.44 0.44 0.49 0.53 0.54 0.50 0.49 0.55 0.58 0.63 0.66 0.64 0.63 0.65 0.68 0.71 0.75 0.80 0.81 0.85 0.88
0.17 0.26 0.35 0.33 0.27 0.26 0.29 0.18 0.19 0.35 0.50 0.35 0.30 0.29 0.24 0.20 0.20 0.21 0.22 0.25 0.30 0.32 0.33 0.33 0.34 0.36 0.37 0.37 0.37 0.41 0.45 0.43 0.45 0.48 0.47 0.49 0.50 0.54 0.60 0.63 0.64 0.66 0.72 0.77
0.38 0.32 0.28 0.32 0.30 0.38 0.36 0.18 0.18 0.52 0.67 0.28 0.17 0.22 0.20 0.18 0.21 0.23 0.23 0.22 0.23 0.25 0.25 0.27 0.28 0.26 0.28 0.29 0.31 0.34 0.32 0.34 0.36 0.36 0.36 0.38 0.41 0.44 0.48 0.50 0.49 0.50 0.54 0.60
0.38 0.35 0.20 0.23 0.29 0.45 0.38 0.22 0.20 0.35 0.27 0.27 0.16 0.16 0.19 0.19 0.24 0.26 0.23 0.20 0.19 0.19 0.19 0.22 0.23 0.22 0.24 0.24 0.25 0.26 0.27 0.33 0.38 0.38 0.37 0.37 0.37 0.39 0.42 0.43 0.44 0.43 0.43 0.44
0.33 0.36 0.28 0.30 0.28 0.38 0.31 0.15 0.14 0.15 0.13 0.13 0.12 0.15 0.15 0.19 0.24 0.27 0.25 0.19 0.15 0.14 0.15 0.16 0.17 0.18 0.19 0.20 0.23 0.27 0.31 0.39 0.44 0.47 0.42 0.39 0.38 0.38 0.35 0.34 0.34 0.35 0.36 0.37
0.35 0.45 0.59 0.49 0.24 0.28 0.25 0.14 0.13 0.12 0.09 0.10 0.14 0.14 0.13 0.21 0.25 0.23 0.18 0.13 0.11 0.11 0.12 0.13 0.13 0.15 0.18 0.22 0.28 0.34 0.39 0.46 0.48 0.51 0.47 0.42 0.38 0.36 0.33 0.30 0.31 0.33 0.35 0.38
0.22 0.42 0.68 0.61 0.39 0.38 0.24 0.17 0.15 0.12 0.09 0.07 0.08 0.08 0.09 0.13 0.15 0.13 0.10 0.09 0.08 0.07 0.08 0.08 0.10 0.11 0.13 0.18 0.26 0.33 0.39 0.51 0.54 0.53 0.51 0.49 0.49 0.49 0.51 0.51 0.52 0.52 0.51 0.53
0.08 0.29 0.51 0.45 0.34 0.18 0.09 0.10 0.12 0.13 0.11 0.06 0.06 0.05 0.04 0.06 0.12 0.17 0.14 0.11 0.08 0.06 0.05 0.06 0.06 0.07 0.08 0.10 0.17 0.25 0.37 0.52 0.64 0.69 0.68 0.68 0.71 0.75 0.79 0.81 0.81 0.80 0.81 0.81
0.05 0.14 0.34 0.33 0.27 0.11 0.05 0.03 0.03 0.05 0.10 0.03 0.02 0.02 0.02 0.04 0.10 0.16 0.17 0.14 0.12 0.10 0.08 0.07 0.07 0.08 0.10 0.13 0.19 0.32 0.48 0.63 0.73 0.76 0.79 0.83 0.89 0.95 0.92 0.90 0.87 0.79 0.74 0.73
0.11 0.18 0.27 0.26 0.24 0.06 0.02 0.01 0.01 0.06 0.09 0.02 0.01 0.02 0.02 0.03 0.06 0.07 0.11 0.15 0.15 0.16 0.18 0.18 0.18 0.21 0.23 0.26 0.35 0.48 0.59 0.68 0.71 0.71 0.72 0.75 0.74 0.75 0.73 0.70 0.67 0.62 0.56 0.50
0.05 0.10 0.11 0.13 0.20 0.09 0.02 0.01 0.03 0.05 0.03 0.02 0.02 0.03 0.03 0.03 0.03 0.03 0.04 0.08 0.12 0.16 0.22 0.29 0.35 0.37 0.38 0.40 0.46 0.53 0.55 0.55 0.53 0.50 0.48 0.45 0.41 0.37 0.37 0.38 0.38 0.37 0.34 0.30
0.04 0.06 0.07 0.08 0.10 0.05 0.03 0.03 0.03 0.03 0.03 0.02 0.02 0.02 0.02 0.03 0.02 0.02 0.02 0.03 0.05 0.07 0.09 0.14 0.20 0.24 0.25 0.25 0.27 0.29 0.27 0.23 0.20 0.17 0.15 0.14 0.12 0.11 0.11 0.12 0.13 0.16 0.19 0.18
0.07 0.04 0.05 0.06 0.06 0.03 0.03 0.03 0.03 0.03 0.03 0.03 0.03 0.03 0.03 0.04 0.03 0.03 0.02 0.02 0.03 0.03 0.04 0.04 0.06 0.07 0.07 0.08 0.09 0.09 0.07 0.05 0.04 0.04 0.03 0.04 0.04 0.04 0.06 0.07 0.09 0.11 0.12 0.13
0.09 0.06 0.06 0.06 0.03 0.02 0.02 0.02 0.02 0.02 0.02 0.02 0.02 0.02 0.03 0.04 0.05 0.04 0.04 0.04 0.03 0.03 0.03 0.04 0.04 0.04 0.05 0.05 0.05 0.05 0.05 0.05 0.05 0.04 0.04 0.04 0.05 0.06 0.06 0.07 0.08 0.10 0.11 0.13
0.05 0.06 0.09 0.08 0.04 0.04 0.03 0.01 0.01 0.01 0.01 0.02 0.02 0.03 0.03 0.03 0.05 0.04 0.04 0.04 0.05 0.05 0.05 0.05 0.05 0.06 0.07 0.07 0.08 0.09 0.09 0.09 0.08 0.08 0.07 0.08 0.08 0.09 0.09 0.10 0.11 0.13 0.14 0.16

GEFSCGP_prec_meanprecacc_180.txt.gz
Total_Precipitation_Accumulation
1.89 1.77 1.32 0.77 0.61 0.45 0.37 0.38 0.39 0.34 0.39 0.48 0.49 0.48 0.53 0.54 0.55 0.58 0.58 0.56 0.55 0.67 0.92 1.01 1.10 1.38 1.60 1.75 1.89 1.97 2.05 2.11 2.32 2.47 2.45 2.37 2.23 2.00 1.88 1.84 1.74 1.60 1.50 1.52
1.63 1.23 0.75 0.56 0.55 0.51 0.45 0.45 0.44 0.38 0.35 0.46 0.48 0.46 0.44 0.43 0.52 0.62 0.60 0.59 0.60 0.64 0.79 0.90 0.96 1.11 1.29 1.49 1.71 1.89 1.96 2.05 2.06 2.11 2.32 2.46 2.52 2.36 2.08 1.91 1.80 1.70 1.63 1.60
1.23 0.76 0.59 0.67 0.63 0.60 0.49 0.40 0.36 0.38 0.39 0.45 0.44 0.46 0.39 0.39 0.46 0.53 0.58 0.60 0.58 0.58 0.65 0.74 0.82 1.02 1.14 1.28 1.51 1.79 1.92 2.01 2.01 2.03 2.26 2.47 2.64 2.50 2.23 1.90 1.73 1.73 1.74 1.74
1.08 0.67 0.64 0.74 0.60 0.51 0.48 0.29 0.27 0.31 0.46 0.52 0.45 0.62 0.42 0.41 0.44 0.48 0.54 0.54 0.52 0.53 0.57 0.61 0.72 0.86 0.97 1.13 1.30 1.48 1.66 1.81 1.97 2.03 2.07 2.11 2.23 2.23 2.04 1.94 1.86 1.86 1.86 1.84
1.02 0.70 0.70 0.75 0.52 0.42 0.41 0.28 0.31 0.33 0.43 0.48 0.37 0.55 0.47 0.32 0.36 0.46 0.55 0.57 0.55 0.56 0.58 0.58 0.69 0.83 0.88 0.99 1.24 1.37 1.45 1.61 1.79 1.94 2.00 2.09 2.04 2.08 2.16 2.13 2.07 1.97 1.91 1.86
0.76 0.62 0.72 0.62 0.47 0.44 0.43 0.42 0.46 0.45 0.58 0.61 0.30 0.43 0.45 0.32 0.35 0.41 0.44 0.50 0.55 0.59 0.67 0.71 0.77 0.81 0.82 0.87 1.08 1.29 1.32 1.40 1.52 1.72 1.93 1.99 1.90 1.92 1.97 1.96 1.93 1.94 1.94 1.90
0.99 0.75 0.60 0.53 0.63 0.56 0.51 0.62 0.88 0.93 0.83 0.46 0.21 0.32 0.40 0.31 0.32 0.34 0.36 0.41 0.47 0.57 0.63 0.71 0.75 0.71 0.71 0.75 0.88 1.07 1.18 1.29 1.35 1.47 1.62 1.80 1.87 1.85 1.88 1.90 1.86 1.79 1.71 1.64
0.95 1.01 0.62 0.50 0.59 0.61 0.48 0.47 0.60 0.60 0.38 0.25 0.21 0.31 0.35 0.31 0.27 0.24 0.25 0.30 0.38 0.46 0.49 0.54 0.62 0.66 0.68 0.68 0.74 0.81 0.88 0.96 1.04 1.11 1.22 1.36 1.56 1.65 1.62 1.67 1.68 1.65 1.58 1.56
0.56 0.62 0.40 0.34 0.36 0.40 0.50 0.42 0.27 0.45 0.37 0.33 0.25 0.24 0.26 0.24 0.23 0.22 0.25 0.29 0.36 0.42 0.47 0.49 0.57 0.59 0.64 0.67 0.71 0.71 0.73 0.78 0.88 0.90 0.97 1.01 1.18 1.32 1.36 1.42 1.41 1.35 1.36 1.42
0.31 0.40 0.33 0.30 0.36 0.37 0.35 0.33 0.40 0.67 0.57 0.42 0.24 0.21 0.32 0.28 0.22 0.24 0.29 0.31 0.36 0.46 0.46 0.45 0.51 0.54 0.58 0.63 0.67 0.65 0.65 0.67 0.78 0.84 0.88 0.90 0.95 1.03 1.16 1.24 1.18 1.15 1.17 1.21
0.23 0.35 0.37 0.34 0.36 0.30 0.25 0.32 0.37 0.44 0.40 0.40 0.25 0.27 0.31 0.31 0.27 0.27 0.30 0.34 0.42 0.45 0.46 0.46 0.50 0.53 0.56 0.61 0.62 0.59 0.64 0.65 0.70 0.76 0.76 0.77 0.80 0.84 0.89 0.96 0.99 0.98 1.02 1.02
0.15 0.26 0.32 0.24 0.15 0.14 0.21 0.20 0.26 0.46 0.32 0.24 0.25 0.29 0.27 0.26 0.25 0.25 0.27 0.32 0.38 0.41 0.45 0.44 0.45 0.49 0.53 0.54 0.51 0.50 0.56 0.59 0.65 0.69 0.67 0.67 0.70 0.72 0.74 0.76 0.81 0.82 0.85 0.89
0.18 0.26 0.35 0.33 0.27 0.26 0.29 0.18 0.19 0.35 0.51 0.35 0.30 0.30 0.24 0.20 0.20 0.21 0.23 0.25 0.30 0.32 0.33 0.33 0.34 0.36 0.37 0.37 0.37 0.41 0.45 0.44 0.47 0.50 0.49 0.51 0.52 0.55 0.61 0.64 0.64 0.67 0.72 0.77
0.38 0.32 0.28 0.32 0.30 0.38 0.36 0.18 0.18 0.52 0.67 0.28 0.17 0.22 0.20 0.19 0.21 0.23 0.23 0.22 0.23 0.25 0.25 0.27 0.28 0.27 0.28 0.29 0.31 0.34 0.32 0.34 0.37 0.37 0.37 0.39 0.42 0.45 0.48 0.51 0.50 0.50 0.54 0.60
0.38 0.35 0.20 0.23 0.29 0.45 0.38 0.22 0.21 0.35 0.28 0.27 0.16 0.16 0.19 0.19 0.24 0.26 0.23 0.20 0.19 0.19 0.20 0.22 0.23 0.23 0.24 0.25 0.26 0.27 0.28 0.34 0.39 0.40 0.39 0.38 0.38 0.40 0.42 0.43 0.44 0.43 0.44 0.44
0.33 0.36 0.28 0.30 0.28 0.38 0.31 0.15 0.14 0.15 0.13 0.13 0.12 0.16 0.15 0.19 0.24 0.27 0.25 0.19 0.15 0.14 0.15 0.16 0.18 0.19 0.20 0.22 0.24 0.28 0.32 0.40 0.45 0.47 0.43 0.40 0.38 0.38 0.36 0.34 0.34 0.35 0.36 0.37
0.36 0.46 0.59 0.49 0.24 0.29 0.25 0.14 0.13 0.12 0.09 0.10 0.15 0.14 0.14 0.21 0.25 0.23 0.18 0.13 0.11 0.11 0.12 0.13 0.14 0.16 0.19 0.25 0.30 0.36 0.40 0.47 0.48 0.51 0.47 0.42 0.38 0.37 0.34 0.31 0.31 0.33 0.35 0.38
0.23 0.42 0.69 0.62 0.39 0.39 0.24 0.17 0.15 0.12 0.09 0.07 0.08 0.08 0.09 0.13 0.15 0.13 0.10 0.09 0.08 0.07 0.08 0.08 0.10 0.12 0.13 0.18 0.26 0.33 0.40 0.51 0.54 0.53 0.51 0.50 0.49 0.50 0.52 0.51 0.52 0.52 0.51 0.53
0.08 0.30 0.53 0.47 0.35 0.18 0.09 0.10 0.12 0.13 0.11 0.06 0.06 0.05 0.04 0.06 0.12 0.17 0.14 0.11 0.08 0.06 0.05 0.06 0.06 0.08 0.08 0.11 0.17 0.25 0.38 0.53 0.64 0.69 0.68 0.68 0.72 0.77 0.80 0.82 0.81 0.80 0.81 0.81
0.06 0.15 0.37 0.36 0.30 0.12 0.06 0.03 0.03 0.05 0.10 0.04 0.02 0.03 0.02 0.04 0.10 0.16 0.17 0.14 0.12 0.10 0.08 0.07 0.07 0.09 0.11 0.13 0.20 0.33 0.49 0.63 0.73 0.76 0.80 0.83 0.89 0.96 0.93 0.91 0.88 0.81 0.75 0.74
0.12 0.20 0.30 0.29 0.26 0.06 0.02 0.01 0.01 0.07 0.10 0.03 0.02 0.02 0.02 0.04 0.06 0.07 0.11 0.15 0.15 0.16 0.18 0.18 0.18 0.21 0.23 0.26 0.35 0.49 0.60 0.68 0.71 0.71 0.72 0.75 0.74 0.76 0.74 0.72 0.69 0.64 0.57 0.51
0.06 0.12 0.13 0.15 0.23 0.10 0.03 0.02 0.04 0.06 0.04 0.02 0.02 0.03 0.04 0.04 0.03 0.04 0.05 0.08 0.12 0.16 0.22 0.29 0.35 0.37 0.38 0.40 0.47 0.54 0.55 0.55 0.53 0.50 0.48 0.45 0.41 0.38 0.38 0.39 0.40 0.39 0.35 0.30
0.06 0.08 0.09 0.10 0.13 0.07 0.04 0.04 0.04 0.04 0.03 0.03 0.03 0.03 0.03 0.03 0.03 0.02 0.02 0.03 0.05 0.07 0.10 0.14 0.20 0.24 0.25 0.25 0.28 0.30 0.27 0.23 0.20 0.17 0.15 0.14 0.12 0.12 0.13 0.13 0.14 0.17 0.19 0.18
0.08 0.05 0.06 0.08 0.07 0.04 0.04 0.04 0.04 0.03 0.03 0.04 0.03 0.03 0.03 0.04 0.03 0.03 0.03 0.02 0.03 0.03 0.04 0.04 0.06 0.07 0.07 0.08 0.09 0.09 0.08 0.06 0.05 0.04 0.04 0.05 0.05 0.06 0.07 0.08 0.09 0.11 0.13 0.13
0.10 0.07 0.07 0.07 0.04 0.03 0.03 0.03 0.02 0.02 0.02 0.02 0.02 0.02 0.03 0.04 0.05 0.05 0.05 0.04 0.03 0.03 0.03 0.04 0.04 0.04 0.05 0.05 0.05 0.06 0.06 0.06 0.06 0.05 0.05 0.06 0.06 0.07 0.07 0.08 0.09 0.11 0.12 0.14
0.06 0.07 0.10 0.10 0.05 0.05 0.03 0.02 0.02 0.02 0.01 0.02 0.02 0.03 0.03 0.03 0.05 0.04 0.04 0.04 0.05 0.05 0.05 0.05 0.05 0.06 0.07 0.08 0.08 0.09 0.10 0.10 0.10 0.09 0.09 0.09 0.09 0.10 0.10 0.11 0.11 0.13 0.15 0.17

GEFSCGP_prec_meanprecacc_186.txt.gz
Total_Precipitation_Accumulation
1.90 1.78 1.33 0.78 0.63 0.46 0.38 0.40 0.40 0.35 0.39 0.48 0.49 0.48 0.53 0.55 0.57 0.61 0.62 0.58 0.56 0.67 0.92 1.03 1.11 1.39 1.62 1.77 1.92 2.04 2.13 2.20 2.43 2.57 2.56 2.46 2.28 2.04 1.92 1.87 1.77 1.64 1.56 1.58
1.64 1.24 0.75 0.57 0.56 0.53 0.47 0.46 0.45 0.39 0.36 0.47 0.48 0.46 0.44 0.43 0.52 0.63 0.63 0.64 0.64 0.67 0.81 0.91 0.98 1.12 1.30 1.50 1.73 1.94 2.04 2.14 2.16 2.21 2.42 2.55 2.60 2.41 2.12 1.93 1.83 1.72 1.66 1.64
1.23 0.77 0.60 0.67 0.64 0.62 0.50 0.42 0.37 0.38 0.40 0.46 0.45 0.47 0.39 0.40 0.47 0.53 0.58 0.61 0.60 0.60 0.67 0.75 0.84 1.04 1.16 1.29 1.52 1.81 1.97 2.08 2.08 2.12 2.36 2.55 2.70 2.54 2.25 1.92 1.75 1.75 1.77 1.77
1.09 0.67 0.65 0.75 0.60 0.51 0.49 0.29 0.28 0.31 0.46 0.53 0.46 0.63 0.43 0.42 0.45 0.48 0.54 0.54 0.53 0.53 0.57 0.63 0.74 0.88 0.99 1.14 1.31 1.50 1.69 1.86 2.03 2.09 2.14 2.19 2.28 2.27 2.06 1.96 1.88 1.89 1.88 1.87
1.02 0.70 0.71 0.75 0.52 0.43 0.42 0.28 0.32 0.33 0.44 0.49 0.38 0.56 0.48 0.33 0.37 0.46 0.55 0.57 0.55 0.57 0.58 0.59 0.71 0.86 0.90 1.01 1.25 1.39 1.47 1.64 1.84 1.99 2.06 2.16 2.12 2.14 2.21 2.17 2.09 2.00 1.94 1.90
0.77 0.62 0.72 0.62 0.47 0.44 0.43 0.42 0.47 0.45 0.60 0.63 0.31 0.44 0.45 0.32 0.37 0.42 0.44 0.50 0.56 0.60 0.68 0.71 0.79 0.84 0.87 0.91 1.11 1.32 1.34 1.42 1.55 1.76 1.97 2.05 1.96 1.97 2.03 2.01 1.97 1.97 1.96 1.93
1.00 0.75 0.60 0.53 0.63 0.57 0.52 0.64 0.91 0.95 0.85 0.47 0.21 0.33 0.41 0.31 0.33 0.36 0.37 0.42 0.49 0.59 0.65 0.72 0.77 0.74 0.76 0.81 0.94 1.12 1.22 1.32 1.38 1.51 1.66 1.84 1.92 1.90 1.93 1.95 1.90 1.82 1.74 1.67
0.96 1.01 0.62 0.50 0.59 0.62 0.48 0.48 0.63 0.63 0.39 0.26 0.21 0.31 0.35 0.31 0.27 0.24 0.26 0.32 0.41 0.49 0.51 0.55 0.64 0.68 0.72 0.74 0.79 0.87 0.93 1.02 1.09 1.15 1.26 1.40 1.61 1.71 1.67 1.72 1.72 1.69 1.61 1.58
0.57 0.63 0.40 0.34 0.36 0.40 0.51 0.43 0.28 0.47 0.38 0.34 0.25 0.24 0.26 0.24 0.23 0.23 0.25 0.30 0.39 0.46 0.50 0.51 0.57 0.61 0.66 0.70 0.74 0.76 0.78 0.84 0.93 0.95 1.02 1.06 1.23 1.37 1.42 1.47 1.46 1.39 1.39 1.45
0.31 0.41 0.34 0.30 0.36 0.37 0.35 0.33 0.41 0.68 0.58 0.43 0.24 0.21 0.32 0.28 0.22 0.24 0.29 0.31 0.38 0.48 0.48 0.46 0.52 0.55 0.59 0.64 0.70 0.69 0.69 0.71 0.82 0.88 0.92 0.94 1.00 1.08 1.20 1.28 1.21 1.18 1.20 1.24
0.24 0.36 0.37 0.34 0.36 0.30 0.25 0.32 0.37 0.45 0.41 0.41 0.26 0.27 0.31 0.31 0.27 0.27 0.30 0.34 0.42 0.47 0.48 0.48 0.51 0.54 0.57 0.63 0.64 0.63 0.67 0.69 0.73 0.79 0.79 0.81 0.85 0.88 0.94 1.01 1.03 1.01 1.05 1.04
0.15 0.26 0.32 0.24 0.15 0.14 0.21 0.20 0.26 0.47 0.33 0.25 0.26 0.30 0.27 0.26 0.25 0.25 0.27 0.32 0.38 0.41 0.45 0.45 0.46 0.50 0.54 0.55 0.52 0.51 0.59 0.63 0.68 0.72 0.70 0.72 0.75 0.77 0.79 0.82 0.87 0.87 0.89 0.91
0.18 0.27 0.36 0.34 0.27 0.26 0.29 0.18 0.19 0.36 0.52 0.36 0.31 0.30 0.24 0.20 0.20 0.21 0.23 0.25 0.30 0.32 0.33 0.33 0.34 0.36 0.37 0.37 0.37 0.42 0.47 0.47 0.49 0.52 0.51 0.53 0.56 0.59 0.64 0.67 0.67 0.69 0.74 0.79
0.39 0.33 0.28 0.33 0.31 0.38 0.36 0.18 0.18 0.53 0.68 0.29 0.17 0.22 0.20 0.19 0.21 0.23 0.23 0.22 0.23 0.25 0.25 0.27 0.28 0.27 0.28 0.29 0.32 0.34 0.33 0.35 0.39 0.39 0.39 0.41 0.44 0.47 0.49 0.52 0.51 0.52 0.56 0.61
0.40 0.37 0.20 0.24 0.29 0.45 0.38 0.22 0.21 0.35 0.28 0.28 0.16 0.16 0.19 0.20 0.24 0.26 0.23 0.20 0.19 0.19 0.20 0.22 0.23 0.23 0.24 0.25 0.26 0.27 0.28 0.35 0.39 0.41 0.40 0.38 0.38 0.40 0.43 0.45 0.45 0.44 0.44 0.45
0.36 0.39 0.29 0.31 0.28 0.38 0.31 0.15 0.14 0.15 0.13 0.13 0.12 0.16 0.16 0.19 0.24 0.27 0.25 0.19 0.15 0.14 0.15 0.16 0.18 0.19 0.20 0.22 0.25 0.28 0.33 0.41 0.45 0.48 0.43 0.40 0.39 0.38 0.36 0.35 0.35 0.35 0.36 0.37
0.38 0.49 0.62 0.51 0.25 0.29 0.25 0.14 0.13 0.12 0.09 0.10 0.15 0.15 0.14 0.21 0.25 0.23 0.18 0.13 0.11 0.11 0.12 0.13 0.14 0.17 0.19 0.25 0.30 0.36 0.41 0.47 0.49 0.52 0.48 0.42 0.39 0.37 0.34 0.31 0.31 0.33 0.36 0.39
0.25 0.45 0.73 0.65 0.41 0.40 0.24 0.17 0.15 0.13 0.09 0.07 0.09 0.08 0.09 0.14 0.15 0.14 0.11 0.09 0.08 0.07 0.08 0.08 0.10 0.12 0.14 0.19 0.26 0.33 0.40 0.51 0.54 0.53 0.51 0.50 0.50 0.50 0.52 0.52 0.52 0.53 0.52 0.53
0.09 0.32 0.58 0.51 0.38 0.19 0.09 0.10 0.12 0.13 0.11 0.07 0.06 0.05 0.04 0.06 0.12 0.17 0.14 0.11 0.08 0.06 0.06 0.06 0.07 0.08 0.08 0.11 0.17 0.26 0.38 0.53 0.64 0.69 0.68 0.68 0.72 0.77 0.81 0.83 0.82 0.81 0.82 0.82
0.06 0.18 0.42 0.41 0.33 0.13 0.06 0.03 0.03 0.05 0.11 0.04 0.03 0.03 0.02 0.04 0.10 0.16 0.17 0.14 0.12 0.10 0.08 0.07 0.07 0.09 0.11 0.13 0.20 0.33 0.49 0.63 0.73 0.76 0.80 0.83 0.90 0.96 0.94 0.92 0.89 0.82 0.76 0.75
0.13 0.24 0.35 0.34 0.30 0.09 0.03 0.01 0.01 0.08 0.11 0.03 0.02 0.02 0.02 0.04 0.06 0.07 0.11 0.15 0.15 0.16 0.18 0.18 0.19 0.22 0.24 0.26 0.35 0.50 0.60 0.68 0.71 0.71 0.73 0.75 0.75 0.76 0.75 0.73 0.70 0.65 0.59 0.53
0.08 0.15 0.17 0.19 0.28 0.15 0.04 0.03 0.06 0.08 0.04 0.02 0.02 0.03 0.04 0.04 0.03 0.04 0.05 0.08 0.12 0.16 0.22 0.29 0.35 0.38 0.38 0.40 0.47 0.55 0.56 0.55 0.53 0.50 0.48 0.46 0.41 0.38 0.39 0.40 0.41 0.40 0.37 0.32
0.09 0.12 0.13 0.15 0.18 0.11 0.07 0.06 0.06 0.05 0.05 0.03 0.03 0.03 0.03 0.03 0.03 0.02 0.02 0.03 0.05 0.07 0.10 0.14 0.20 0.24 0.25 0.25 0.28 0.30 0.27 0.23 0.20 0.17 0.16 0.14 0.12 0.12 0.13 0.14 0.15 0.18 0.21 0.21
0.11 0.07 0.08 0.10 0.09 0.07 0.07 0.07 0.06 0.05 0.05 0.05 0.04 0.04 0.04 0.04 0.03 0.04 0.03 0.02 0.03 0.03 0.04 0.05 0.06 0.07 0.08 0.08 0.09 0.09 0.08 0.06 0.05 0.04 0.05 0.05 0.05 0.07 0.08 0.09 0.11 0.13 0.14 0.15
0.12 0.09 0.09 0.09 0.07 0.06 0.05 0.04 0.03 0.03 0.02 0.03 0.03 0.03 0.03 0.04 0.05 0.05 0.05 0.04 0.03 0.03 0.04 0.04 0.04 0.05 0.05 0.05 0.05 0.06 0.06 0.06 0.06 0.05 0.05 0.06 0.07 0.08 0.08 0.09 0.11 0.12 0.13 0.15
0.07 0.09 0.14 0.14 0.08 0.07 0.06 0.03 0.02 0.02 0.02 0.02 0.03 0.03 0.03 0.04 0.05 0.05 0.04 0.05 0.05 0.05 0.05 0.05 0.05 0.06 0.07 0.08 0.09 0.09 0.10 0.10 0.10 0.10 0.09 0.09 0.10 0.11 0.11 0.11 0.12 0.14 0.16 0.18

GEFSCGP_prec_meanprecacc_192.txt.gz
Total_Precipitation_Accumulation
1.90 1.78 1.33 0.78 0.63 0.46 0.39 0.40 0.40 0.35 0.39 0.48 0.49 0.48 0.53 0.55 0.57 0.61 0.63 0.59 0.57 0.68 0.93 1.03 1.12 1.40 1.62 1.78 1.94 2.06 2.15 2.22 2.45 2.61 2.61 2.54 2.38 2.13 2.01 1.97 1.81 1.66 1.57 1.59
1.65 1.24 0.76 0.57 0.56 0.53 0.47 0.46 0.45 0.39 0.36 0.47 0.48 0.46 0.44 0.43 0.52 0.63 0.63 0.64 0.65 0.68 0.82 0.93 0.99 1.13 1.31 1.51 1.75 1.96 2.05 2.15 2.17 2.25 2.46 2.62 2.69 2.49 2.18 2.00 1.90 1.76 1.67 1.65
1.24 0.77 0.60 0.68 0.65 0.62 0.50 0.42 0.38 0.39 0.40 0.46 0.45 0.47 0.39 0.40 0.47 0.53 0.58 0.61 0.60 0.60 0.68 0.76 0.85 1.05 1.18 1.31 1.54 1.83 1.99 2.10 2.10 2.14 2.40 2.62 2.77 2.62 2.31 1.96 1.79 1.79 1.79 1.78
1.09 0.67 0.65 0.75 0.60 0.52 0.49 0.29 0.28 0.31 0.47 0.53 0.46 0.63 0.43 0.42 0.45 0.48 0.54 0.54 0.53 0.53 0.58 0.63 0.75 0.89 1.01 1.17 1.34 1.52 1.71 1.87 2.04 2.11 2.16 2.23 2.33 2.32 2.11 2.00 1.91 1.92 1.90 1.88
1.02 0.70 0.71 0.75 0.52 0.43 0.42 0.28 0.32 0.33 0.44 0.49 0.38 0.57 0.48 0.33 0.37 0.46 0.55 0.57 0.55 0.57 0.58 0.59 0.71 0.86 0.92 1.04 1.28 1.41 1.49 1.65 1.85 2.00 2.07 2.18 2.15 2.18 2.24 2.20 2.12 2.03 1.97 1.91
0.77 0.62 0.72 0.62 0.47 0.44 0.43 0.43 0.47 0.45 0.60 0.64 0.31 0.44 0.46 0.32 0.37 0.42 0.44 0.50 0.56 0.60 0.68 0.72 0.79 0.85 0.88 0.93 1.13 1.34 1.36 1.44 1.57 1.78 1.99 2.07 1.99 2.00 2.05 2.03 2.00 1.99 1.99 1.95
1.00 0.75 0.61 0.53 0.63 0.57 0.52 0.65 0.92 0.96 0.86 0.47 0.21 0.33 0.41 0.31 0.33 0.36 0.37 0.43 0.49 0.59 0.65 0.72 0.78 0.74 0.77 0.83 0.97 1.16 1.26 1.35 1.41 1.54 1.69 1.87 1.96 1.94 1.96 1.97 1.93 1.85 1.77 1.69
0.96 1.01 0.62 0.50 0.59 0.62 0.49 0.49 0.64 0.64 0.40 0.26 0.22 0.32 0.35 0.31 0.27 0.24 0.26 0.33 0.42 0.49 0.51 0.56 0.65 0.69 0.74 0.77 0.82 0.91 0.97 1.04 1.11 1.19 1.30 1.44 1.65 1.75 1.71 1.75 1.75 1.72 1.64 1.61
0.58 0.63 0.40 0.34 0.36 0.40 0.51 0.43 0.28 0.48 0.39 0.34 0.25 0.24 0.26 0.24 0.23 0.23 0.25 0.31 0.39 0.46 0.50 0.51 0.58 0.61 0.67 0.73 0.78 0.79 0.81 0.86 0.95 0.97 1.04 1.10 1.28 1.44 1.48 1.53 1.51 1.43 1.43 1.49
0.32 0.41 0.34 0.30 0.36 0.37 0.35 0.33 0.41 0.69 0.59 0.43 0.24 0.21 0.33 0.28 0.22 0.24 0.29 0.31 0.38 0.49 0.49 0.47 0.52 0.55 0.59 0.66 0.72 0.72 0.72 0.74 0.86 0.90 0.94 0.97 1.03 1.13 1.26 1.35 1.28 1.24 1.25 1.28
0.24 0.36 0.37 0.34 0.36 0.30 0.25 0.32 0.37 0.45 0.41 0.42 0.27 0.27 0.32 0.31 0.27 0.27 0.30 0.34 0.42 0.47 0.49 0.50 0.53 0.55 0.59 0.65 0.66 0.64 0.70 0.72 0.78 0.83 0.82 0.83 0.88 0.92 0.98 1.06 1.09 1.07 1.10 1.09
0.16 0.27 0.33 0.25 0.15 0.14 0.21 0.20 0.26 0.47 0.34 0.26 0.27 0.30 0.28 0.26 0.25 0.25 0.27 0.32 0.38 0.41 0.46 0.45 0.47 0.51 0.56 0.58 0.56 0.54 0.61 0.66 0.72 0.75 0.72 0.74 0.78 0.81 0.84 0.87 0.92 0.92 0.94 0.96
0.19 0.29 0.38 0.34 0.28 0.26 0.29 0.18 0.19 0.37 0.53 0.37 0.32 0.31 0.25 0.20 0.20 0.21 0.23 0.26 0.30 0.32 0.33 0.33 0.34 0.36 0.38 0.38 0.40 0.46 0.51 0.50 0.52 0.55 0.54 0.56 0.59 0.63 0.69 0.72 0.72 0.75 0.80 0.83
0.41 0.36 0.31 0.34 0.31 0.39 0.37 0.18 0.18 0.54 0.70 0.30 0.18 0.23 0.20 0.19 0.21 0.23 0.23 0.22 0.23 0.25 0.25 0.27 0.28 0.27 0.28 0.30 0.32 0.36 0.35 0.38 0.41 0.41 0.41 0.43 0.46 0.49 0.53 0.56 0.56 0.57 0.61 0.66
0.42 0.40 0.22 0.25 0.30 0.45 0.39 0.22 0.21 0.36 0.29 0.29 0.17 0.17 0.20 0.20 0.24 0.26 0.23 0.20 0.19 0.19 0.20 0.23 0.24 0.23 0.24 0.25 0.27 0.28 0.29 0.36 0.42 0.43 0.42 0.40 0.40 0.42 0.46 0.49 0.50 0.49 0.49 0.50
0.38 0.41 0.31 0.31 0.28 0.38 0.31 0.15 0.14 0.16 0.13 0.13 0.12 0.16 0.16 0.19 0.24 0.27 0.25 0.19 0.15 0.14 0.15 0.16 0.18 0.19 0.20 0.22 0.25 0.28 0.33 0.42 0.46 0.49 0.46 0.42 0.40 0.39 0.37 0.37 0.37 0.37 0.39 0.40
0.39 0.50 0.64 0.52 0.25 0.30 0.26 0.14 0.13 0.12 0.09 0.10 0.15 0.15 0.14 0.21 0.25 0.23 0.18 0.13 0.11 0.11 0.12 0.13 0.14 0.17 0.19 0.25 0.30 0.36 0.41 0.48 0.50 0.53 0.49 0.44 0.40 0.38 0.35 0.32 0.32 0.34 0.37 0.39
0.26 0.47 0.76 0.67 0.42 0.42 0.25 0.17 0.15 0.13 0.10 0.07 0.09 0.08 0.09 0.14 0.15 0.14 0.11 0.09 0.08 0.07 0.08 0.09 0.10 0.12 0.14 0.19 0.27 0.34 0.40 0.52 0.54 0.53 0.52 0.51 0.51 0.51 0.53 0.52 0.53 0.53 0.52 0.54
0.10 0.34 0.61 0.54 0.41 0.21 0.10 0.10 0.13 0.14 0.12 0.07 0.06 0.05 0.04 0.06 0.12 0.17 0.14 0.11 0.08 0.06 0.06 0.06 0.07 0.08 0.08 0.11 0.17 0.26 0.38 0.53 0.64 0.70 0.68 0.69 0.73 0.77 0.82 0.84 0.83 0.82 0.83 0.82
0.07 0.19 0.46 0.45 0.37 0.15 0.07 0.04 0.04 0.06 0.12 0.05 0.03 0.03 0.03 0.05 0.12 0.18 0.18 0.14 0.12 0.10 0.08 0.07 0.07 0.09 0.11 0.13 0.20 0.33 0.49 0.63 0.73 0.77 0.80 0.84 0.90 0.97 0.94 0.93 0.90 0.83 0.78 0.76
0.15 0.27 0.40 0.38 0.34 0.12 0.05 0.02 0.02 0.10 0.14 0.04 0.02 0.03 0.03 0.05 0.07 0.08 0.11 0.15 0.15 0.16 0.18 0.18 0.19 0.22 0.24 0.26 0.35 0.50 0.60 0.68 0.71 0.72 0.73 0.76 0.75 0.77 0.75 0.73 0.70 0.66 0.60 0.53
0.12 0.19 0.22 0.24 0.35 0.21 0.08 0.05 0.09 0.13 0.07 0.04 0.03 0.04 0.05 0.05 0.04 0.04 0.05 0.08 0.12 0.16 0.22 0.29 0.35 0.38 0.38 0.40 0.47 0.55 0.56 0.55 0.53 0.50 0.48 0.46 0.42 0.39 0.39 0.41 0.42 0.41 0.38 0.34
0.15 0.19 0.19 0.21 0.24 0.16 0.10 0.10 0.11 0.08 0.07 0.06 0.05 0.05 0.04 0.04 0.04 0.03 0.03 0.03 0.05 0.07 0.10 0.14 0.20 0.24 0.25 0.25 0.28 0.30 0.27 0.23 0.21 0.17 0.16 0.14 0.13 0.13 0.14 0.15 0.16 0.20 0.22 0.22
0.16 0.12 0.13 0.16 0.16 0.12 0.11 0.11 0.11 0.08 0.08 0.07 0.07 0.06 0.06 0.06 0.05 0.05 0.04 0.04 0.04 0.04 0.04 0.05 0.06 0.08 0.08 0.08 0.09 0.10 0.08 0.06 0.05 0.05 0.05 0.05 0.06 0.07 0.08 0.10 0.11 0.13 0.15 0.16
0.14 0.12 0.14 0.15 0.12 0.11 0.10 0.08 0.07 0.06 0.05 0.05 0.05 0.05 0.05 0.06 0.07 0.06 0.06 0.05 0.05 0.05 0.05 0.05 0.05 0.05 0.05 0.05 0.05 0.06 0.06 0.07 0.06 0.06 0.06 0.06 0.07 0.08 0.08 0.09 0.11 0.13 0.14 0.16
0.09 0.12 0.18 0.20 0.12 0.11 0.09 0.05 0.04 0.03 0.03 0.04 0.05 0.06 0.06 0.06 0.07 0.06 0.06 0.05 0.06 0.06 0.06 0.06 0.06 0.06 0.08 0.08 0.09 0.10 0.10 0.10 0.10 0.10 0.10 0.10 0.11 0.11 0.12 0.12 0.13 0.15 0.16 0.19

GEFSCGP_prec_meanprecacc_198.txt.gz
Total_Precipitation_Accumulation
1.90 1.79 1.33 0.78 0.63 0.46 0.39 0.41 0.41 0.36 0.40 0.48 0.50 0.49 0.53 0.55 0.57 0.61 0.63 0.60 0.58 0.69 0.94 1.04 1.13 1.42 1.65 1.80 1.96 2.08 2.18 2.25 2.48 2.64 2.62 2.55 2.39 2.16 2.04 2.01 1.88 1.75 1.65 1.66
1.65 1.25 0.76 0.57 0.56 0.53 0.47 0.46 0.46 0.39 0.36 0.47 0.48 0.46 0.44 0.43 0.52 0.63 0.64 0.64 0.66 0.68 0.83 0.93 1.00 1.15 1.33 1.53 1.77 1.98 2.07 2.18 2.20 2.28 2.48 2.63 2.70 2.50 2.20 2.04 1.96 1.84 1.75 1.72
1.24 0.77 0.60 0.68 0.65 0.62 0.51 0.42 0.38 0.39 0.40 0.46 0.46 0.47 0.39 0.40 0.47 0.53 0.58 0.61 0.60 0.60 0.68 0.77 0.85 1.06 1.19 1.32 1.56 1.86 2.01 2.12 2.13 2.17 2.42 2.64 2.79 2.63 2.33 1.99 1.83 1.84 1.86 1.84
1.09 0.67 0.65 0.75 0.60 0.52 0.49 0.29 0.28 0.31 0.47 0.54 0.47 0.64 0.43 0.42 0.45 0.48 0.54 0.54 0.53 0.53 0.58 0.64 0.75 0.90 1.02 1.18 1.36 1.53 1.72 1.89 2.07 2.13 2.18 2.24 2.35 2.34 2.13 2.02 1.93 1.94 1.93 1.92
1.03 0.70 0.71 0.75 0.52 0.43 0.42 0.28 0.32 0.34 0.44 0.50 0.39 0.57 0.48 0.33 0.37 0.46 0.55 0.57 0.55 0.57 0.58 0.59 0.71 0.87 0.92 1.05 1.29 1.42 1.50 1.68 1.88 2.03 2.10 2.21 2.17 2.19 2.26 2.21 2.14 2.05 1.99 1.93
0.77 0.62 0.72 0.62 0.48 0.44 0.44 0.43 0.47 0.46 0.61 0.65 0.31 0.44 0.46 0.32 0.37 0.42 0.44 0.50 0.56 0.60 0.68 0.72 0.79 0.85 0.88 0.93 1.14 1.35 1.38 1.47 1.59 1.80 2.03 2.11 2.02 2.03 2.07 2.05 2.01 2.01 2.00 1.97
1.00 0.75 0.61 0.53 0.63 0.57 0.52 0.66 0.93 0.97 0.87 0.48 0.22 0.33 0.42 0.31 0.33 0.36 0.37 0.43 0.49 0.59 0.65 0.72 0.78 0.75 0.77 0.83 0.97 1.16 1.26 1.36 1.42 1.56 1.72 1.92 2.00 1.97 1.98 1.99 1.95 1.87 1.78 1.71
0.96 1.01 0.62 0.51 0.60 0.62 0.49 0.50 0.65 0.65 0.40 0.26 0.22 0.32 0.35 0.31 0.27 0.24 0.26 0.33 0.42 0.49 0.51 0.56 0.65 0.69 0.74 0.77 0.82 0.91 0.98 1.06 1.13 1.20 1.32 1.48 1.70 1.80 1.75 1.78 1.77 1.74 1.66 1.63
0.58 0.63 0.40 0.34 0.36 0.40 0.51 0.44 0.29 0.49 0.40 0.34 0.25 0.24 0.26 0.24 0.23 0.23 0.25 0.31 0.39 0.46 0.50 0.51 0.58 0.61 0.67 0.73 0.78 0.80 0.83 0.89 0.97 0.99 1.06 1.13 1.31 1.47 1.53 1.57 1.54 1.46 1.45 1.51
0.32 0.42 0.34 0.30 0.36 0.37 0.35 0.34 0.42 0.71 0.61 0.44 0.24 0.21 0.33 0.28 0.22 0.24 0.29 0.31 0.38 0.49 0.49 0.47 0.52 0.55 0.59 0.66 0.73 0.73 0.75 0.78 0.90 0.93 0.96 0.99 1.05 1.15 1.30 1.40 1.32 1.27 1.28 1.31
0.25 0.38 0.38 0.34 0.36 0.30 0.25 0.33 0.38 0.46 0.42 0.43 0.27 0.28 0.32 0.31 0.27 0.27 0.30 0.34 0.42 0.47 0.49 0.50 0.53 0.55 0.59 0.66 0.67 0.65 0.72 0.76 0.85 0.89 0.85 0.85 0.89 0.93 1.00 1.09 1.12 1.09 1.12 1.11
0.17 0.29 0.34 0.25 0.15 0.14 0.21 0.21 0.27 0.49 0.35 0.26 0.28 0.30 0.28 0.26 0.25 0.25 0.27 0.32 0.38 0.42 0.46 0.46 0.47 0.51 0.56 0.59 0.57 0.56 0.63 0.69 0.79 0.82 0.77 0.76 0.80 0.83 0.86 0.89 0.94 0.94 0.96 0.99
0.20 0.32 0.40 0.35 0.28 0.27 0.30 0.19 0.20 0.38 0.54 0.38 0.33 0.32 0.25 0.20 0.20 0.21 0.23 0.26 0.30 0.32 0.33 0.33 0.35 0.37 0.39 0.40 0.42 0.49 0.53 0.52 0.57 0.60 0.57 0.58 0.60 0.65 0.71 0.74 0.75 0.77 0.82 0.86
0.44 0.39 0.33 0.36 0.32 0.40 0.38 0.19 0.20 0.57 0.73 0.32 0.18 0.23 0.21 0.19 0.21 0.23 0.23 0.22 0.23 0.25 0.25 0.27 0.29 0.28 0.29 0.31 0.34 0.39 0.38 0.40 0.45 0.46 0.45 0.45 0.48 0.50 0.55 0.58 0.58 0.60 0.64 0.69
0.45 0.43 0.23 0.25 0.31 0.46 0.40 0.23 0.22 0.37 0.30 0.31 0.17 0.17 0.20 0.20 0.25 0.26 0.23 0.20 0.19 0.19 0.20 0.23 0.24 0.24 0.26 0.27 0.28 0.30 0.33 0.39 0.44 0.46 0.46 0.43 0.42 0.44 0.48 0.51 0.52 0.51 0.53 0.53
0.41 0.45 0.32 0.32 0.28 0.39 0.32 0.16 0.14 0.16 0.14 0.14 0.13 0.17 0.17 0.20 0.24 0.27 0.25 0.19 0.15 0.14 0.15 0.17 0.18 0.20 0.22 0.24 0.27 0.30 0.36 0.44 0.48 0.51 0.47 0.44 0.42 0.41 0.39 0.39 0.41 0.41 0.42 0.43
0.43 0.55 0.68 0.53 0.25 0.31 0.27 0.14 0.13 0.13 0.10 0.11 0.16 0.16 0.14 0.21 0.25 0.23 0.18 0.13 0.11 0.11 0.12 0.13 0.14 0.18 0.20 0.27 0.33 0.38 0.43 0.50 0.52 0.55 0.50 0.46 0.42 0.40 0.37 0.35 0.35 0.37 0.40 0.42
0.28 0.51 0.81 0.70 0.43 0.43 0.26 0.18 0.16 0.13 0.10 0.08 0.10 0.09 0.09 0.14 0.15 0.14 0.11 0.10 0.08 0.07 0.08 0.09 0.10 0.12 0.14 0.19 0.28 0.35 0.42 0.54 0.56 0.55 0.53 0.52 0.52 0.53 0.55 0.54 0.54 0.55 0.54 0.56
0.12 0.38 0.65 0.58 0.43 0.22 0.11 0.11 0.14 0.15 0.13 0.08 0.07 0.05 0.04 0.07 0.13 0.18 0.14 0.11 0.09 0.06 0.06 0.06 0.07 0.08 0.08 0.11 0.18 0.27 0.39 0.54 0.66 0.71 0.69 0.70 0.74 0.79 0.84 0.86 0.85 0.84 0.85 0.85
0.08 0.23 0.51 0.49 0.39 0.17 0.09 0.04 0.05 0.08 0.14 0.05 0.03 0.03 0.03 0.05 0.13 0.19 0.18 0.15 0.12 0.10 0.08 0.07 0.07 0.09 0.11 0.13 0.20 0.33 0.49 0.64 0.74 0.77 0.81 0.84 0.90 0.98 0.96 0.95 0.93 0.86 0.80 0.79
0.17 0.31 0.45 0.42 0.37 0.14 0.07 0.03 0.03 0.13 0.17 0.06 0.04 0.04 0.04 0.06 0.09 0.09 0.12 0.16 0.15 0.16 0.18 0.18 0.19 0.22 0.24 0.26 0.35 0.50 0.60 0.68 0.72 0.72 0.73 0.76 0.75 0.77 0.76 0.75 0.73 0.69 0.63 0.57
0.15 0.23 0.26 0.28 0.38 0.24 0.10 0.07 0.12 0.17 0.10 0.07 0.05 0.06 0.06 0.06 0.05 0.05 0.05 0.08 0.13 0.16 0.22 0.29 0.35 0.38 0.38 0.40 0.47 0.55 0.56 0.55 0.53 0.51 0.49 0.46 0.42 0.39 0.40 0.41 0.43 0.43 0.40 0.36
0.19 0.25 0.25 0.25 0.29 0.20 0.13 0.14 0.15 0.11 0.09 0.08 0.07 0.07 0.06 0.05 0.05 0.04 0.04 0.04 0.06 0.08 0.10 0.14 0.21 0.25 0.25 0.25 0.28 0.30 0.27 0.24 0.21 0.18 0.16 0.15 0.13 0.13 0.15 0.16 0.18 0.21 0.24 0.24
0.19 0.15 0.18 0.22 0.21 0.15 0.13 0.14 0.13 0.10 0.10 0.10 0.09 0.09 0.08 0.08 0.07 0.07 0.05 0.05 0.05 0.05 0.05 0.06 0.07 0.08 0.08 0.08 0.09 0.10 0.08 0.06 0.06 0.05 0.06 0.06 0.07 0.09 0.10 0.12 0.13 0.15 0.16 0.18
0.16 0.15 0.18 0.20 0.17 0.15 0.13 0.11 0.09 0.08 0.07 0.07 0.07 0.07 0.08 0.08 0.09 0.08 0.08 0.07 0.06 0.06 0.06 0.06 0.06 0.06 0.06 0.06 0.06 0.07 0.07 0.07 0.07 0.07 0.07 0.07 0.08 0.09 0.10 0.11 0.12 0.14 0.15 0.17
0.11 0.15 0.22 0.23 0.15 0.15 0.12 0.07 0.05 0.05 0.05 0.06 0.07 0.08 0.09 0.09 0.10 0.09 0.08 0.08 0.08 0.08 0.07 0.07 0.07 0.08 0.09 0.10 0.11 0.11 0.12 0.12 0.12 0.12 0.12 0.11 0.12 0.12 0.13 0.13 0.14 0.15 0.17 0.19

GEFSCGP_prec_meanprecacc_204.txt.gz
Total_Precipitation_Accumulation
1.91 1.79 1.34 0.78 0.63 0.46 0.39 0.41 0.41 0.36 0.40 0.48 0.50 0.49 0.53 0.55 0.57 0.61 0.63 0.60 0.58 0.70 0.97 1.08 1.16 1.45 1.70 1.87 2.05 2.16 2.24 2.31 2.53 2.67 2.64 2.57 2.41 2.17 2.06 2.02 1.89 1.75 1.67 1.69
1.65 1.25 0.76 0.57 0.57 0.53 0.47 0.46 0.46 0.39 0.36 0.47 0.48 0.46 0.44 0.43 0.52 0.63 0.64 0.64 0.66 0.69 0.84 0.97 1.03 1.17 1.37 1.59 1.83 2.06 2.15 2.24 2.25 2.31 2.51 2.65 2.72 2.52 2.22 2.05 1.96 1.84 1.76 1.74
1.24 0.77 0.60 0.68 0.65 0.62 0.51 0.43 0.38 0.39 0.40 0.47 0.46 0.47 0.39 0.40 0.47 0.53 0.58 0.61 0.60 0.61 0.69 0.79 0.88 1.09 1.24 1.38 1.62 1.91 2.06 2.18 2.19 2.22 2.46 2.67 2.81 2.66 2.34 2.00 1.84 1.85 1.86 1.86
1.09 0.68 0.65 0.75 0.60 0.52 0.49 0.29 0.28 0.31 0.47 0.55 0.48 0.64 0.43 0.42 0.45 0.48 0.54 0.54 0.53 0.54 0.58 0.64 0.77 0.93 1.05 1.22 1.40 1.57 1.75 1.91 2.10 2.17 2.21 2.27 2.37 2.36 2.14 2.03 1.94 1.95 1.95 1.94
1.03 0.71 0.71 0.75 0.52 0.43 0.42 0.28 0.32 0.34 0.45 0.51 0.39 0.58 0.48 0.33 0.37 0.46 0.55 0.57 0.55 0.58 0.61 0.61 0.73 0.89 0.95 1.07 1.33 1.45 1.52 1.69 1.90 2.05 2.12 2.22 2.18 2.21 2.27 2.23 2.15 2.06 2.01 1.96
0.77 0.62 0.72 0.62 0.48 0.44 0.44 0.43 0.47 0.46 0.62 0.66 0.32 0.45 0.46 0.32 0.37 0.42 0.44 0.50 0.56 0.60 0.68 0.72 0.80 0.86 0.91 0.98 1.17 1.38 1.39 1.47 1.60 1.82 2.04 2.12 2.03 2.03 2.08 2.07 2.03 2.02 2.02 1.99
1.01 0.75 0.61 0.53 0.64 0.57 0.53 0.66 0.94 0.98 0.88 0.49 0.22 0.33 0.42 0.31 0.33 0.36 0.37 0.43 0.50 0.59 0.65 0.72 0.78 0.75 0.80 0.88 1.00 1.19 1.28 1.37 1.43 1.56 1.73 1.93 2.01 1.99 2.00 2.00 1.96 1.89 1.80 1.73
0.98 1.02 0.62 0.51 0.60 0.62 0.49 0.50 0.66 0.66 0.41 0.27 0.22 0.32 0.35 0.31 0.27 0.24 0.26 0.33 0.42 0.49 0.51 0.56 0.65 0.69 0.76 0.81 0.86 0.93 1.00 1.07 1.13 1.21 1.33 1.50 1.72 1.82 1.77 1.79 1.78 1.75 1.67 1.65
0.59 0.64 0.40 0.35 0.36 0.41 0.51 0.44 0.30 0.51 0.40 0.35 0.25 0.24 0.26 0.24 0.23 0.23 0.25 0.31 0.39 0.46 0.51 0.51 0.58 0.61 0.68 0.75 0.81 0.82 0.84 0.89 0.97 0.99 1.07 1.15 1.33 1.49 1.54 1.59 1.55 1.47 1.46 1.52
0.34 0.43 0.34 0.30 0.36 0.37 0.36 0.34 0.43 0.73 0.62 0.44 0.24 0.21 0.33 0.28 0.22 0.24 0.29 0.31 0.38 0.49 0.49 0.47 0.52 0.55 0.59 0.67 0.74 0.75 0.76 0.79 0.91 0.95 0.97 1.01 1.08 1.17 1.32 1.41 1.34 1.29 1.29 1.32
0.26 0.39 0.39 0.35 0.37 0.31 0.26 0.34 0.39 0.48 0.44 0.44 0.28 0.28 0.32 0.31 0.27 0.27 0.30 0.34 0.42 0.47 0.49 0.50 0.53 0.55 0.59 0.66 0.67 0.66 0.73 0.78 0.87 0.91 0.88 0.87 0.92 0.97 1.02 1.11 1.14 1.11 1.14 1.12
0.18 0.31 0.35 0.25 0.15 0.14 0.22 0.22 0.29 0.53 0.38 0.28 0.29 0.31 0.28 0.26 0.25 0.25 0.27 0.32 0.38 0.42 0.46 0.46 0.47 0.51 0.56 0.59 0.57 0.56 0.63 0.70 0.81 0.84 0.79 0.78 0.83 0.88 0.89 0.90 0.95 0.96 0.98 1.00
0.24 0.36 0.43 0.37 0.29 0.28 0.32 0.22 0.23 0.41 0.57 0.40 0.35 0.33 0.25 0.20 0.20 0.21 0.23 0.26 0.30 0.32 0.33 0.33 0.35 0.37 0.39 0.40 0.42 0.49 0.53 0.53 0.58 0.62 0.60 0.59 0.62 0.68 0.74 0.76 0.76 0.78 0.83 0.87
0.47 0.43 0.37 0.38 0.34 0.42 0.40 0.21 0.21 0.59 0.77 0.34 0.19 0.24 0.21 0.19 0.22 0.23 0.23 0.22 0.24 0.25 0.25 0.27 0.29 0.28 0.30 0.32 0.35 0.40 0.40 0.41 0.47 0.48 0.47 0.47 0.49 0.52 0.57 0.60 0.60 0.61 0.65 0.70
0.47 0.45 0.25 0.27 0.32 0.48 0.41 0.24 0.23 0.39 0.33 0.33 0.18 0.18 0.21 0.21 0.26 0.27 0.24 0.20 0.19 0.19 0.20 0.23 0.24 0.24 0.27 0.28 0.30 0.32 0.35 0.41 0.47 0.49 0.49 0.47 0.45 0.46 0.49 0.53 0.54 0.53 0.54 0.54
0.42 0.47 0.33 0.32 0.29 0.39 0.33 0.16 0.15 0.17 0.15 0.16 0.14 0.19 0.18 0.21 0.26 0.29 0.26 0.20 0.15 0.15 0.15 0.17 0.18 0.20 0.22 0.26 0.30 0.33 0.39 0.48 0.52 0.55 0.51 0.50 0.47 0.44 0.42 0.41 0.43 0.43 0.44 0.45
0.44 0.56 0.70 0.54 0.26 0.32 0.28 0.15 0.14 0.14 0.11 0.12 0.17 0.17 0.15 0.22 0.26 0.24 0.19 0.14 0.12 0.12 0.13 0.14 0.15 0.18 0.20 0.28 0.35 0.42 0.47 0.55 0.57 0.59 0.54 0.50 0.46 0.43 0.40 0.37 0.37 0.39 0.41 0.44
0.30 0.53 0.84 0.72 0.45 0.45 0.27 0.19 0.17 0.15 0.12 0.10 0.11 0.10 0.10 0.14 0.16 0.15 0.11 0.10 0.09 0.08 0.09 0.09 0.11 0.13 0.14 0.20 0.30 0.39 0.46 0.57 0.60 0.59 0.58 0.57 0.57 0.57 0.59 0.58 0.58 0.58 0.56 0.58
0.14 0.41 0.69 0.61 0.45 0.24 0.12 0.12 0.16 0.18 0.16 0.10 0.09 0.07 0.05 0.07 0.14 0.19 0.15 0.12 0.10 0.07 0.06 0.06 0.08 0.09 0.09 0.12 0.19 0.29 0.42 0.58 0.70 0.76 0.74 0.74 0.78 0.84 0.89 0.91 0.90 0.88 0.88 0.87
0.09 0.26 0.57 0.54 0.43 0.19 0.10 0.05 0.06 0.11 0.17 0.08 0.05 0.05 0.05 0.06 0.14 0.20 0.19 0.16 0.13 0.11 0.09 0.08 0.08 0.10 0.12 0.14 0.21 0.35 0.52 0.68 0.78 0.82 0.85 0.88 0.94 1.01 0.99 0.98 0.95 0.88 0.83 0.82
0.19 0.34 0.50 0.46 0.41 0.17 0.09 0.04 0.04 0.16 0.22 0.08 0.06 0.06 0.06 0.08 0.11 0.11 0.13 0.17 0.16 0.16 0.18 0.19 0.20 0.23 0.25 0.27 0.36 0.51 0.62 0.71 0.75 0.76 0.77 0.80 0.79 0.81 0.79 0.77 0.74 0.70 0.64 0.59
0.18 0.27 0.30 0.31 0.44 0.29 0.13 0.08 0.15 0.20 0.12 0.09 0.07 0.07 0.08 0.08 0.06 0.06 0.06 0.09 0.13 0.17 0.23 0.30 0.36 0.39 0.39 0.41 0.48 0.55 0.57 0.57 0.56 0.54 0.52 0.50 0.46 0.43 0.43 0.44 0.45 0.44 0.42 0.38
0.23 0.29 0.30 0.31 0.35 0.25 0.16 0.17 0.19 0.15 0.13 0.10 0.09 0.08 0.07 0.07 0.06 0.05 0.05 0.05 0.07 0.08 0.11 0.15 0.22 0.25 0.26 0.26 0.29 0.31 0.28 0.25 0.22 0.20 0.20 0.19 0.17 0.17 0.19 0.20 0.21 0.23 0.25 0.25
0.21 0.17 0.21 0.26 0.25 0.18 0.17 0.17 0.16 0.15 0.13 0.12 0.11 0.10 0.09 0.10 0.09 0.08 0.06 0.06 0.06 0.05 0.06 0.07 0.08 0.09 0.09 0.09 0.10 0.10 0.09 0.07 0.07 0.07 0.08 0.09 0.11 0.13 0.14 0.15 0.16 0.17 0.18 0.19
0.19 0.17 0.20 0.23 0.19 0.17 0.15 0.13 0.13 0.12 0.10 0.09 0.09 0.08 0.09 0.10 0.11 0.10 0.09 0.08 0.07 0.07 0.07 0.07 0.07 0.07 0.07 0.07 0.07 0.07 0.07 0.07 0.08 0.08 0.09 0.09 0.11 0.13 0.14 0.15 0.16 0.18 0.17 0.20
0.14 0.19 0.26 0.27 0.18 0.18 0.15 0.10 0.09 0.09 0.08 0.08 0.09 0.10 0.10 0.10 0.12 0.11 0.10 0.09 0.09 0.10 0.09 0.09 0.09 0.09 0.11 0.11 0.12 0.13 0.13 0.12 0.13 0.13 0.13 0.15 0.15 0.15 0.15 0.16 0.16 0.18 0.20 0.22

GEFSCGP_prec_meanprecacc_210.txt.gz
Total_Precipitation_Accumulation
1.91 1.80 1.34 0.78 0.63 0.46 0.39 0.41 0.41 0.36 0.40 0.48 0.50 0.49 0.53 0.55 0.57 0.61 0.63 0.60 0.59 0.70 0.99 1.11 1.19 1.48 1.73 1.90 2.09 2.23 2.30 2.35 2.56 2.70 2.68 2.60 2.45 2.22 2.09 2.04 1.91 1.78 1.71 1.74
1.66 1.25 0.76 0.57 0.57 0.53 0.47 0.46 0.46 0.39 0.36 0.47 0.48 0.46 0.44 0.43 0.53 0.64 0.64 0.64 0.66 0.69 0.86 0.99 1.06 1.20 1.41 1.63 1.88 2.13 2.24 2.31 2.30 2.35 2.54 2.68 2.75 2.56 2.25 2.07 1.98 1.86 1.78 1.76
1.24 0.77 0.60 0.68 0.65 0.62 0.51 0.43 0.38 0.39 0.40 0.47 0.46 0.47 0.39 0.40 0.47 0.54 0.58 0.61 0.60 0.61 0.70 0.81 0.92 1.12 1.26 1.40 1.65 1.97 2.14 2.27 2.27 2.27 2.52 2.73 2.86 2.68 2.36 2.01 1.85 1.85 1.87 1.87
1.10 0.68 0.65 0.76 0.61 0.53 0.50 0.29 0.28 0.31 0.47 0.55 0.48 0.64 0.43 0.42 0.45 0.48 0.54 0.54 0.53 0.54 0.59 0.65 0.78 0.95 1.08 1.25 1.43 1.61 1.82 1.99 2.18 2.25 2.30 2.33 2.41 2.38 2.15 2.03 1.95 1.95 1.95 1.94
1.03 0.71 0.71 0.76 0.53 0.44 0.42 0.28 0.32 0.34 0.45 0.51 0.39 0.58 0.48 0.33 0.37 0.47 0.55 0.57 0.55 0.58 0.61 0.61 0.73 0.90 0.97 1.10 1.35 1.49 1.56 1.75 1.95 2.10 2.16 2.27 2.21 2.23 2.28 2.23 2.15 2.07 2.02 1.96
0.77 0.62 0.73 0.63 0.48 0.45 0.44 0.43 0.48 0.47 0.62 0.66 0.32 0.45 0.46 0.32 0.37 0.42 0.44 0.51 0.56 0.60 0.69 0.73 0.80 0.87 0.93 1.00 1.21 1.43 1.43 1.51 1.64 1.86 2.08 2.15 2.05 2.05 2.09 2.07 2.04 2.03 2.03 2.00
1.01 0.76 0.61 0.54 0.64 0.58 0.54 0.68 0.95 0.99 0.89 0.49 0.22 0.34 0.42 0.31 0.33 0.36 0.37 0.43 0.50 0.59 0.65 0.73 0.79 0.77 0.82 0.91 1.05 1.24 1.34 1.41 1.46 1.60 1.78 1.95 2.03 2.01 2.01 2.01 1.97 1.90 1.82 1.74
0.98 1.02 0.63 0.51 0.60 0.63 0.50 0.51 0.67 0.66 0.42 0.27 0.22 0.32 0.35 0.31 0.27 0.24 0.26 0.33 0.42 0.49 0.52 0.57 0.66 0.71 0.78 0.83 0.89 0.97 1.05 1.12 1.17 1.24 1.36 1.52 1.74 1.83 1.78 1.81 1.80 1.76 1.68 1.66
0.60 0.64 0.41 0.35 0.36 0.41 0.53 0.45 0.30 0.52 0.41 0.35 0.26 0.24 0.26 0.24 0.23 0.23 0.25 0.31 0.39 0.46 0.51 0.53 0.60 0.63 0.69 0.76 0.82 0.84 0.87 0.93 1.01 1.03 1.10 1.17 1.36 1.51 1.56 1.60 1.57 1.49 1.48 1.53
0.35 0.45 0.35 0.30 0.37 0.38 0.37 0.36 0.45 0.75 0.64 0.45 0.25 0.22 0.34 0.28 0.23 0.24 0.29 0.32 0.39 0.50 0.50 0.48 0.54 0.57 0.61 0.68 0.75 0.76 0.78 0.82 0.94 0.98 1.00 1.03 1.10 1.19 1.34 1.44 1.36 1.30 1.30 1.33
0.27 0.41 0.40 0.36 0.37 0.31 0.26 0.35 0.41 0.51 0.46 0.46 0.29 0.29 0.33 0.32 0.27 0.27 0.30 0.36 0.44 0.48 0.50 0.51 0.54 0.57 0.61 0.68 0.68 0.67 0.74 0.80 0.89 0.93 0.89 0.89 0.94 0.99 1.05 1.13 1.15 1.12 1.15 1.13
0.19 0.32 0.37 0.27 0.16 0.15 0.22 0.23 0.31 0.56 0.40 0.30 0.31 0.33 0.29 0.26 0.26 0.26 0.28 0.33 0.39 0.42 0.46 0.46 0.48 0.53 0.58 0.61 0.59 0.57 0.64 0.71 0.82 0.86 0.80 0.79 0.84 0.90 0.92 0.93 0.97 0.97 0.99 1.01
0.25 0.39 0.46 0.39 0.32 0.30 0.34 0.23 0.25 0.43 0.59 0.42 0.37 0.36 0.26 0.21 0.21 0.22 0.24 0.27 0.31 0.33 0.33 0.34 0.36 0.39 0.41 0.41 0.43 0.50 0.54 0.54 0.60 0.64 0.61 0.61 0.63 0.69 0.77 0.79 0.78 0.80 0.84 0.88
0.50 0.46 0.39 0.41 0.38 0.46 0.43 0.22 0.23 0.62 0.80 0.36 0.21 0.26 0.22 0.20 0.24 0.25 0.25 0.24 0.24 0.25 0.25 0.28 0.29 0.29 0.32 0.34 0.36 0.40 0.40 0.42 0.49 0.51 0.49 0.49 0.51 0.53 0.58 0.63 0.62 0.62 0.66 0.71
0.48 0.47 0.26 0.27 0.32 0.48 0.43 0.25 0.24 0.41 0.35 0.35 0.20 0.20 0.23 0.23 0.28 0.29 0.26 0.21 0.19 0.19 0.20 0.23 0.25 0.25 0.28 0.30 0.31 0.33 0.36 0.42 0.48 0.51 0.52 0.48 0.47 0.48 0.51 0.55 0.56 0.54 0.55 0.55
0.43 0.48 0.34 0.33 0.29 0.40 0.33 0.17 0.15 0.17 0.16 0.17 0.16 0.21 0.20 0.23 0.28 0.31 0.28 0.21 0.16 0.15 0.16 0.17 0.19 0.20 0.23 0.27 0.31 0.34 0.40 0.49 0.54 0.56 0.53 0.52 0.49 0.46 0.44 0.44 0.45 0.45 0.46 0.47
0.45 0.58 0.72 0.56 0.26 0.33 0.30 0.17 0.15 0.15 0.13 0.14 0.20 0.20 0.17 0.24 0.29 0.27 0.21 0.15 0.13 0.12 0.13 0.14 0.15 0.18 0.20 0.28 0.36 0.43 0.48 0.56 0.58 0.60 0.56 0.51 0.48 0.45 0.42 0.40 0.40 0.42 0.43 0.46
0.31 0.55 0.87 0.74 0.46 0.47 0.30 0.20 0.18 0.16 0.14 0.12 0.14 0.12 0.12 0.16 0.19 0.17 0.13 0.11 0.10 0.09 0.09 0.10 0.11 0.13 0.15 0.21 0.30 0.39 0.47 0.58 0.61 0.61 0.60 0.59 0.59 0.59 0.61 0.61 0.61 0.61 0.59 0.60
0.14 0.43 0.73 0.64 0.48 0.26 0.13 0.12 0.16 0.20 0.18 0.13 0.11 0.09 0.07 0.09 0.15 0.20 0.16 0.13 0.11 0.08 0.07 0.07 0.09 0.10 0.10 0.12 0.20 0.29 0.43 0.59 0.71 0.77 0.76 0.76 0.81 0.86 0.91 0.94 0.93 0.92 0.91 0.90
0.11 0.28 0.62 0.58 0.47 0.22 0.12 0.05 0.07 0.12 0.21 0.09 0.07 0.07 0.06 0.08 0.16 0.22 0.20 0.17 0.14 0.12 0.10 0.09 0.09 0.11 0.13 0.15 0.22 0.36 0.53 0.69 0.79 0.84 0.87 0.90 0.96 1.03 1.01 1.00 0.98 0.91 0.86 0.85
0.21 0.37 0.55 0.51 0.46 0.21 0.11 0.04 0.04 0.19 0.26 0.10 0.08 0.08 0.08 0.10 0.14 0.13 0.14 0.17 0.17 0.17 0.19 0.20 0.21 0.23 0.26 0.28 0.37 0.52 0.63 0.72 0.76 0.77 0.79 0.82 0.81 0.83 0.81 0.79 0.76 0.72 0.67 0.62
0.21 0.30 0.34 0.36 0.49 0.35 0.15 0.10 0.18 0.25 0.15 0.11 0.09 0.09 0.10 0.10 0.09 0.07 0.07 0.10 0.14 0.18 0.24 0.31 0.37 0.39 0.40 0.42 0.49 0.57 0.58 0.58 0.57 0.55 0.53 0.52 0.48 0.45 0.46 0.47 0.47 0.47 0.44 0.41
0.24 0.32 0.34 0.36 0.41 0.30 0.19 0.21 0.23 0.18 0.15 0.12 0.11 0.10 0.09 0.09 0.08 0.07 0.06 0.06 0.07 0.09 0.11 0.16 0.22 0.26 0.27 0.27 0.30 0.33 0.29 0.26 0.24 0.21 0.21 0.21 0.19 0.19 0.21 0.23 0.24 0.26 0.28 0.28
0.23 0.19 0.24 0.30 0.29 0.21 0.19 0.20 0.20 0.17 0.16 0.14 0.13 0.12 0.11 0.11 0.10 0.09 0.07 0.06 0.06 0.06 0.07 0.07 0.08 0.09 0.10 0.10 0.11 0.12 0.10 0.08 0.08 0.09 0.09 0.11 0.13 0.15 0.17 0.19 0.20 0.21 0.22 0.23
0.20 0.19 0.22 0.26 0.22 0.18 0.16 0.16 0.16 0.15 0.12 0.11 0.11 0.10 0.11 0.12 0.13 0.11 0.10 0.09 0.08 0.08 0.08 0.08 0.08 0.08 0.08 0.08 0.08 0.08 0.08 0.08 0.09 0.09 0.10 0.11 0.13 0.15 0.16 0.18 0.20 0.23 0.22 0.24
0.16 0.21 0.29 0.30 0.20 0.20 0.17 0.12 0.11 0.10 0.10 0.10 0.11 0.12 0.12 0.13 0.14 0.12 0.11 0.10 0.10 0.10 0.10 0.09 0.10 0.10 0.12 0.12 0.14 0.14 0.14 0.13 0.13 0.14 0.14 0.16 0.17 0.18 0.18 0.19 0.20 0.22 0.24 0.26

GEFSCGP_prec_meanprecacc_216.txt.gz
Total_Precipitation_Accumulation
1.92 1.81 1.34 0.78 0.63 0.46 0.39 0.41 0.41 0.36 0.40 0.48 0.50 0.49 0.53 0.56 0.57 0.62 0.64 0.60 0.59 0.72 1.00 1.13 1.20 1.48 1.74 1.91 2.10 2.24 2.32 2.37 2.58 2.72 2.70 2.62 2.47 2.24 2.13 2.09 1.95 1.81 1.73 1.77
1.66 1.26 0.76 0.57 0.57 0.53 0.47 0.46 0.46 0.39 0.36 0.47 0.48 0.46 0.44 0.43 0.53 0.64 0.64 0.65 0.66 0.70 0.87 1.00 1.06 1.20 1.42 1.65 1.89 2.15 2.26 2.34 2.32 2.36 2.56 2.69 2.77 2.58 2.30 2.12 2.02 1.91 1.82 1.81
1.24 0.78 0.60 0.69 0.65 0.63 0.51 0.43 0.38 0.39 0.40 0.47 0.46 0.47 0.39 0.40 0.47 0.54 0.59 0.62 0.61 0.61 0.71 0.82 0.92 1.13 1.26 1.41 1.66 1.98 2.16 2.30 2.30 2.30 2.54 2.75 2.88 2.71 2.39 2.04 1.88 1.89 1.90 1.91
1.10 0.68 0.65 0.76 0.62 0.53 0.50 0.30 0.28 0.32 0.47 0.55 0.48 0.64 0.43 0.42 0.45 0.48 0.54 0.55 0.54 0.55 0.60 0.66 0.79 0.95 1.08 1.25 1.44 1.62 1.84 2.03 2.22 2.29 2.33 2.36 2.43 2.41 2.17 2.05 1.96 1.97 1.97 1.97
1.03 0.71 0.72 0.76 0.53 0.44 0.42 0.28 0.32 0.34 0.45 0.52 0.39 0.58 0.48 0.33 0.37 0.47 0.55 0.57 0.56 0.58 0.62 0.62 0.75 0.91 0.98 1.11 1.36 1.50 1.58 1.78 2.02 2.16 2.21 2.31 2.25 2.25 2.29 2.24 2.16 2.07 2.02 1.98
0.77 0.62 0.73 0.63 0.48 0.46 0.45 0.44 0.48 0.47 0.63 0.67 0.32 0.45 0.47 0.33 0.37 0.42 0.44 0.51 0.56 0.61 0.69 0.74 0.83 0.91 0.95 1.03 1.22 1.44 1.45 1.54 1.70 1.94 2.15 2.20 2.10 2.09 2.12 2.09 2.04 2.03 2.03 2.00
1.01 0.76 0.61 0.54 0.64 0.58 0.55 0.69 0.98 1.01 0.92 0.51 0.23 0.34 0.44 0.32 0.33 0.36 0.38 0.43 0.50 0.59 0.65 0.74 0.82 0.83 0.87 0.95 1.08 1.26 1.35 1.43 1.51 1.67 1.86 2.03 2.08 2.05 2.04 2.03 1.98 1.90 1.82 1.74
0.99 1.03 0.63 0.52 0.61 0.64 0.51 0.53 0.69 0.68 0.42 0.27 0.22 0.32 0.36 0.31 0.27 0.25 0.26 0.33 0.42 0.49 0.52 0.57 0.68 0.76 0.84 0.90 0.94 1.00 1.06 1.13 1.21 1.28 1.42 1.59 1.80 1.88 1.82 1.83 1.81 1.77 1.69 1.66
0.62 0.65 0.41 0.35 0.37 0.42 0.54 0.47 0.33 0.54 0.42 0.36 0.26 0.25 0.27 0.25 0.24 0.23 0.25 0.31 0.39 0.47 0.52 0.53 0.61 0.66 0.73 0.81 0.88 0.87 0.89 0.94 1.03 1.05 1.13 1.22 1.41 1.56 1.59 1.63 1.59 1.50 1.48 1.54
0.35 0.45 0.35 0.30 0.37 0.39 0.38 0.37 0.47 0.79 0.66 0.47 0.26 0.23 0.36 0.29 0.23 0.24 0.29 0.32 0.40 0.50 0.50 0.49 0.55 0.59 0.63 0.70 0.77 0.78 0.80 0.83 0.95 0.99 1.02 1.05 1.13 1.23 1.37 1.47 1.38 1.32 1.32 1.34
0.28 0.42 0.41 0.36 0.38 0.32 0.28 0.38 0.45 0.55 0.50 0.49 0.30 0.31 0.37 0.33 0.27 0.27 0.30 0.36 0.45 0.49 0.50 0.52 0.56 0.59 0.63 0.69 0.70 0.68 0.76 0.81 0.90 0.94 0.91 0.90 0.95 1.01 1.07 1.15 1.18 1.14 1.17 1.16
0.20 0.33 0.37 0.27 0.17 0.15 0.24 0.26 0.35 0.61 0.45 0.34 0.33 0.36 0.31 0.27 0.26 0.26 0.29 0.35 0.42 0.43 0.47 0.50 0.51 0.55 0.61 0.65 0.62 0.59 0.66 0.73 0.84 0.87 0.81 0.80 0.85 0.90 0.93 0.95 0.99 0.99 1.01 1.03
0.28 0.42 0.48 0.40 0.34 0.32 0.35 0.25 0.27 0.47 0.64 0.46 0.42 0.41 0.29 0.23 0.22 0.24 0.27 0.32 0.33 0.33 0.34 0.36 0.38 0.41 0.44 0.46 0.48 0.54 0.57 0.56 0.61 0.65 0.62 0.62 0.64 0.70 0.78 0.81 0.80 0.82 0.87 0.90
0.53 0.49 0.41 0.43 0.40 0.48 0.45 0.24 0.24 0.64 0.84 0.40 0.26 0.31 0.27 0.25 0.28 0.29 0.30 0.30 0.26 0.26 0.26 0.28 0.30 0.30 0.33 0.35 0.39 0.45 0.44 0.44 0.51 0.53 0.51 0.51 0.52 0.54 0.60 0.65 0.64 0.64 0.68 0.73
0.50 0.49 0.27 0.28 0.33 0.49 0.44 0.26 0.25 0.43 0.38 0.38 0.23 0.23 0.26 0.28 0.34 0.34 0.33 0.28 0.21 0.20 0.21 0.24 0.25 0.26 0.29 0.31 0.33 0.35 0.39 0.46 0.52 0.55 0.54 0.51 0.48 0.49 0.52 0.57 0.58 0.56 0.57 0.57
0.45 0.50 0.35 0.33 0.29 0.40 0.34 0.18 0.16 0.19 0.17 0.19 0.17 0.23 0.23 0.26 0.32 0.35 0.35 0.26 0.18 0.17 0.17 0.17 0.19 0.21 0.23 0.28 0.32 0.36 0.43 0.53 0.58 0.60 0.57 0.55 0.51 0.48 0.45 0.45 0.46 0.46 0.48 0.49
0.46 0.60 0.74 0.56 0.27 0.34 0.32 0.19 0.17 0.16 0.15 0.16 0.22 0.22 0.19 0.27 0.33 0.31 0.27 0.19 0.15 0.14 0.14 0.15 0.15 0.18 0.21 0.29 0.38 0.45 0.50 0.59 0.62 0.64 0.60 0.54 0.50 0.47 0.44 0.41 0.41 0.43 0.45 0.48
0.33 0.57 0.90 0.77 0.48 0.50 0.32 0.22 0.20 0.18 0.16 0.15 0.16 0.14 0.14 0.19 0.23 0.21 0.16 0.13 0.12 0.11 0.11 0.11 0.12 0.14 0.15 0.21 0.31 0.40 0.49 0.61 0.64 0.65 0.64 0.62 0.61 0.61 0.63 0.62 0.62 0.62 0.60 0.62
0.16 0.46 0.78 0.69 0.51 0.28 0.15 0.13 0.18 0.22 0.21 0.15 0.12 0.10 0.08 0.11 0.17 0.22 0.17 0.14 0.12 0.10 0.08 0.08 0.09 0.10 0.10 0.13 0.21 0.31 0.44 0.60 0.74 0.80 0.80 0.81 0.84 0.89 0.93 0.95 0.94 0.93 0.92 0.91
0.12 0.31 0.67 0.64 0.53 0.27 0.15 0.06 0.07 0.14 0.26 0.11 0.08 0.08 0.07 0.09 0.19 0.25 0.22 0.18 0.16 0.13 0.11 0.10 0.10 0.12 0.14 0.16 0.23 0.37 0.54 0.70 0.81 0.86 0.90 0.94 1.00 1.06 1.04 1.02 0.99 0.92 0.87 0.86
0.24 0.41 0.60 0.56 0.52 0.27 0.14 0.06 0.05 0.22 0.31 0.12 0.10 0.10 0.10 0.13 0.19 0.17 0.17 0.19 0.18 0.19 0.21 0.22 0.23 0.25 0.26 0.29 0.38 0.53 0.64 0.74 0.78 0.79 0.81 0.85 0.85 0.87 0.84 0.81 0.77 0.73 0.67 0.62
0.23 0.33 0.37 0.39 0.54 0.41 0.19 0.12 0.21 0.30 0.18 0.13 0.11 0.11 0.12 0.12 0.11 0.10 0.09 0.11 0.15 0.19 0.25 0.33 0.38 0.40 0.40 0.42 0.49 0.57 0.59 0.59 0.58 0.56 0.55 0.54 0.51 0.49 0.49 0.50 0.49 0.47 0.45 0.41
0.27 0.36 0.38 0.40 0.47 0.36 0.24 0.26 0.28 0.22 0.18 0.14 0.12 0.11 0.11 0.11 0.11 0.09 0.07 0.07 0.09 0.10 0.12 0.16 0.22 0.26 0.27 0.27 0.31 0.34 0.30 0.26 0.24 0.22 0.22 0.23 0.21 0.22 0.24 0.26 0.27 0.28 0.29 0.29
0.25 0.21 0.27 0.33 0.33 0.25 0.22 0.22 0.22 0.19 0.18 0.16 0.15 0.14 0.12 0.13 0.12 0.11 0.08 0.07 0.07 0.06 0.07 0.08 0.08 0.09 0.10 0.10 0.12 0.13 0.11 0.09 0.09 0.09 0.10 0.12 0.15 0.17 0.19 0.22 0.23 0.24 0.24 0.24
0.22 0.20 0.25 0.29 0.25 0.21 0.18 0.17 0.17 0.16 0.14 0.13 0.12 0.12 0.12 0.14 0.14 0.12 0.11 0.10 0.09 0.08 0.08 0.09 0.08 0.08 0.09 0.09 0.09 0.09 0.09 0.09 0.09 0.09 0.11 0.12 0.14 0.17 0.18 0.20 0.22 0.25 0.25 0.26
0.19 0.24 0.32 0.33 0.23 0.23 0.20 0.14 0.13 0.12 0.11 0.12 0.12 0.13 0.14 0.14 0.16 0.14 0.13 0.12 0.11 0.12 0.11 0.11 0.11 0.12 0.13 0.14 0.15 0.15 0.15 0.14 0.14 0.15 0.15 0.17 0.19 0.19 0.20 0.21 0.22 0.24 0.27 0.29

GEFSCGP_prec_meanprecacc_222.txt.gz
Total_Precipitation_Accumulation
1.93 1.82 1.35 0.78 0.63 0.46 0.39 0.41 0.41 0.36 0.40 0.48 0.50 0.49 0.54 0.56 0.58 0.63 0.65 0.61 0.60 0.72 1.01 1.13 1.20 1.48 1.74 1.91 2.10 2.25 2.33 2.38 2.59 2.73 2.71 2.63 2.48 2.25 2.15 2.11 1.99 1.85 1.75 1.79
1.67 1.26 0.77 0.57 0.57 0.53 0.48 0.47 0.46 0.39 0.36 0.47 0.48 0.46 0.44 0.44 0.53 0.65 0.65 0.66 0.67 0.70 0.87 1.00 1.06 1.20 1.42 1.65 1.90 2.15 2.27 2.34 2.34 2.38 2.57 2.71 2.78 2.61 2.32 2.15 2.06 1.95 1.85 1.82
1.25 0.78 0.61 0.69 0.66 0.63 0.51 0.43 0.38 0.39 0.40 0.47 0.46 0.47 0.39 0.40 0.47 0.54 0.59 0.62 0.61 0.62 0.71 0.82 0.92 1.13 1.26 1.41 1.67 1.99 2.16 2.30 2.31 2.32 2.56 2.76 2.90 2.75 2.42 2.07 1.90 1.91 1.92 1.92
1.10 0.68 0.66 0.76 0.62 0.53 0.50 0.30 0.28 0.32 0.48 0.55 0.48 0.65 0.43 0.42 0.45 0.48 0.55 0.55 0.54 0.55 0.60 0.66 0.79 0.96 1.08 1.26 1.44 1.63 1.84 2.03 2.23 2.31 2.36 2.38 2.47 2.46 2.20 2.09 1.99 1.99 1.98 1.98
1.04 0.71 0.72 0.76 0.53 0.45 0.43 0.28 0.33 0.35 0.46 0.52 0.40 0.59 0.49 0.33 0.37 0.47 0.55 0.57 0.56 0.59 0.62 0.63 0.75 0.91 0.98 1.11 1.36 1.51 1.58 1.79 2.02 2.17 2.22 2.33 2.29 2.29 2.34 2.29 2.19 2.10 2.04 1.99
0.78 0.63 0.74 0.63 0.48 0.46 0.46 0.44 0.49 0.48 0.64 0.69 0.33 0.46 0.48 0.33 0.38 0.43 0.44 0.51 0.56 0.61 0.69 0.74 0.83 0.91 0.96 1.03 1.22 1.44 1.45 1.54 1.71 1.95 2.17 2.21 2.13 2.15 2.18 2.16 2.09 2.07 2.05 2.02
1.02 0.76 0.62 0.55 0.66 0.60 0.56 0.71 1.00 1.03 0.94 0.52 0.23 0.35 0.45 0.32 0.34 0.37 0.38 0.44 0.50 0.59 0.65 0.74 0.83 0.83 0.88 0.96 1.08 1.26 1.36 1.44 1.52 1.68 1.88 2.05 2.11 2.10 2.11 2.11 2.05 1.95 1.85 1.77
1.00 1.03 0.64 0.53 0.63 0.66 0.52 0.55 0.71 0.70 0.43 0.28 0.23 0.34 0.38 0.32 0.28 0.25 0.27 0.34 0.43 0.50 0.52 0.57 0.68 0.77 0.86 0.92 0.97 1.02 1.08 1.15 1.23 1.30 1.44 1.62 1.83 1.90 1.85 1.86 1.84 1.79 1.70 1.68
0.63 0.65 0.41 0.35 0.38 0.43 0.56 0.49 0.35 0.57 0.44 0.37 0.27 0.26 0.28 0.25 0.25 0.24 0.26 0.32 0.41 0.48 0.53 0.54 0.61 0.66 0.75 0.85 0.93 0.91 0.90 0.96 1.05 1.07 1.15 1.24 1.44 1.58 1.62 1.66 1.62 1.52 1.50 1.55
0.37 0.46 0.35 0.30 0.38 0.40 0.40 0.39 0.49 0.83 0.70 0.49 0.28 0.26 0.38 0.30 0.24 0.26 0.32 0.35 0.42 0.53 0.52 0.50 0.56 0.59 0.64 0.73 0.83 0.84 0.83 0.85 0.98 1.02 1.04 1.07 1.16 1.26 1.40 1.50 1.41 1.35 1.35 1.37
0.30 0.43 0.41 0.37 0.38 0.33 0.29 0.40 0.48 0.58 0.54 0.53 0.34 0.35 0.40 0.35 0.29 0.29 0.32 0.38 0.47 0.51 0.52 0.54 0.58 0.60 0.64 0.72 0.73 0.73 0.79 0.84 0.93 0.97 0.93 0.92 0.97 1.03 1.10 1.18 1.21 1.17 1.19 1.18
0.22 0.36 0.39 0.28 0.17 0.16 0.24 0.27 0.37 0.64 0.49 0.38 0.39 0.41 0.35 0.30 0.29 0.29 0.32 0.37 0.44 0.45 0.50 0.52 0.54 0.57 0.63 0.67 0.65 0.62 0.68 0.75 0.85 0.88 0.83 0.81 0.86 0.91 0.95 0.97 1.01 1.02 1.04 1.05
0.31 0.47 0.52 0.42 0.35 0.33 0.37 0.27 0.28 0.49 0.66 0.50 0.47 0.47 0.34 0.27 0.26 0.27 0.31 0.36 0.37 0.37 0.37 0.39 0.41 0.44 0.47 0.48 0.50 0.56 0.58 0.57 0.63 0.66 0.64 0.63 0.65 0.71 0.79 0.82 0.81 0.84 0.89 0.92
0.57 0.55 0.46 0.46 0.42 0.50 0.48 0.26 0.25 0.65 0.86 0.42 0.30 0.35 0.31 0.29 0.33 0.34 0.34 0.34 0.30 0.29 0.29 0.31 0.32 0.32 0.36 0.39 0.42 0.47 0.46 0.46 0.53 0.54 0.52 0.52 0.53 0.55 0.60 0.66 0.65 0.66 0.69 0.75
0.53 0.53 0.30 0.30 0.34 0.50 0.46 0.28 0.27 0.45 0.40 0.41 0.26 0.26 0.30 0.32 0.40 0.40 0.37 0.32 0.24 0.23 0.23 0.26 0.27 0.27 0.31 0.33 0.36 0.38 0.41 0.48 0.55 0.57 0.56 0.52 0.50 0.50 0.53 0.58 0.59 0.58 0.58 0.58
0.46 0.52 0.37 0.35 0.31 0.42 0.36 0.20 0.19 0.21 0.20 0.21 0.19 0.26 0.27 0.30 0.36 0.39 0.39 0.29 0.21 0.19 0.19 0.20 0.22 0.23 0.25 0.30 0.34 0.38 0.44 0.54 0.59 0.62 0.59 0.57 0.52 0.49 0.47 0.47 0.48 0.48 0.49 0.50
0.48 0.62 0.77 0.58 0.28 0.36 0.35 0.21 0.20 0.20 0.19 0.20 0.26 0.26 0.22 0.29 0.35 0.34 0.29 0.21 0.17 0.16 0.17 0.18 0.18 0.21 0.23 0.31 0.39 0.46 0.51 0.60 0.63 0.65 0.61 0.56 0.52 0.49 0.45 0.42 0.43 0.44 0.46 0.49
0.35 0.59 0.93 0.79 0.50 0.53 0.35 0.24 0.22 0.22 0.20 0.18 0.19 0.17 0.17 0.22 0.26 0.23 0.18 0.15 0.13 0.12 0.12 0.13 0.14 0.16 0.17 0.23 0.33 0.42 0.49 0.61 0.65 0.66 0.66 0.64 0.63 0.63 0.64 0.64 0.64 0.64 0.61 0.63
0.17 0.47 0.80 0.72 0.54 0.30 0.17 0.14 0.20 0.26 0.25 0.18 0.15 0.12 0.10 0.13 0.20 0.24 0.19 0.15 0.14 0.11 0.10 0.10 0.11 0.12 0.12 0.15 0.23 0.32 0.45 0.61 0.74 0.81 0.82 0.83 0.86 0.91 0.94 0.96 0.96 0.95 0.94 0.92
0.13 0.32 0.70 0.68 0.57 0.29 0.17 0.08 0.09 0.17 0.29 0.14 0.10 0.10 0.09 0.11 0.21 0.28 0.24 0.20 0.17 0.15 0.13 0.12 0.12 0.14 0.16 0.19 0.25 0.39 0.56 0.71 0.82 0.87 0.92 0.96 1.03 1.09 1.06 1.03 1.00 0.94 0.89 0.87
0.25 0.43 0.62 0.58 0.55 0.29 0.17 0.08 0.06 0.25 0.35 0.15 0.11 0.12 0.12 0.16 0.22 0.20 0.19 0.21 0.21 0.21 0.23 0.24 0.25 0.27 0.29 0.31 0.39 0.54 0.65 0.75 0.79 0.80 0.82 0.87 0.87 0.89 0.87 0.83 0.79 0.75 0.70 0.64
0.25 0.35 0.38 0.41 0.57 0.43 0.22 0.14 0.24 0.34 0.21 0.16 0.13 0.13 0.14 0.15 0.14 0.12 0.11 0.14 0.17 0.20 0.27 0.34 0.39 0.41 0.42 0.44 0.50 0.58 0.60 0.60 0.58 0.57 0.57 0.56 0.53 0.50 0.51 0.52 0.51 0.49 0.48 0.44
0.29 0.39 0.41 0.42 0.49 0.39 0.28 0.29 0.31 0.24 0.20 0.15 0.14 0.13 0.12 0.12 0.13 0.11 0.09 0.09 0.10 0.11 0.13 0.17 0.24 0.28 0.28 0.28 0.31 0.35 0.31 0.27 0.25 0.23 0.24 0.24 0.23 0.24 0.26 0.28 0.29 0.30 0.31 0.32
0.27 0.23 0.29 0.35 0.35 0.27 0.24 0.24 0.23 0.21 0.19 0.18 0.16 0.15 0.14 0.15 0.14 0.12 0.10 0.09 0.08 0.08 0.09 0.09 0.09 0.10 0.10 0.11 0.12 0.14 0.12 0.09 0.09 0.10 0.11 0.14 0.16 0.19 0.21 0.24 0.25 0.27 0.27 0.27
0.24 0.22 0.27 0.31 0.27 0.22 0.19 0.18 0.19 0.17 0.15 0.14 0.14 0.13 0.14 0.15 0.16 0.14 0.13 0.11 0.10 0.10 0.10 0.10 0.10 0.09 0.09 0.09 0.10 0.10 0.10 0.09 0.10 0.10 0.11 0.13 0.15 0.18 0.20 0.22 0.25 0.28 0.28 0.29
0.21 0.26 0.34 0.35 0.25 0.25 0.22 0.16 0.14 0.14 0.13 0.13 0.14 0.15 0.15 0.16 0.18 0.16 0.15 0.14 0.13 0.13 0.12 0.12 0.12 0.13 0.14 0.15 0.16 0.16 0.16 0.15 0.15 0.15 0.16 0.18 0.20 0.21 0.21 0.23 0.23 0.26 0.29 0.32

GEFSCGP_prec_meanprecacc_228.txt.gz
Total_Precipitation_Accumulation
1.94 1.83 1.36 0.79 0.63 0.47 0.39 0.41 0.41 0.36 0.40 0.48 0.50 0.49 0.54 0.56 0.58 0.63 0.65 0.61 0.60 0.73 1.01 1.14 1.21 1.48 1.74 1.92 2.10 2.25 2.33 2.38 2.60 2.75 2.73 2.65 2.49 2.26 2.16 2.12 2.00 1.87 1.79 1.85
1.69 1.28 0.77 0.58 0.58 0.54 0.49 0.48 0.46 0.40 0.36 0.47 0.49 0.46 0.44 0.44 0.54 0.65 0.65 0.66 0.68 0.71 0.87 1.00 1.07 1.20 1.42 1.65 1.90 2.15 2.27 2.35 2.34 2.38 2.58 2.72 2.79 2.62 2.33 2.16 2.07 1.96 1.88 1.87
1.26 0.79 0.61 0.69 0.66 0.65 0.53 0.45 0.40 0.41 0.41 0.47 0.46 0.48 0.40 0.41 0.48 0.54 0.59 0.62 0.62 0.63 0.72 0.82 0.93 1.13 1.26 1.41 1.67 1.99 2.16 2.30 2.31 2.32 2.57 2.77 2.92 2.76 2.44 2.08 1.91 1.92 1.94 1.94
1.10 0.69 0.66 0.77 0.63 0.55 0.52 0.31 0.29 0.33 0.50 0.58 0.49 0.66 0.44 0.43 0.46 0.49 0.55 0.56 0.55 0.56 0.61 0.67 0.80 0.96 1.09 1.26 1.44 1.63 1.84 2.03 2.23 2.31 2.37 2.40 2.49 2.48 2.23 2.11 2.01 2.00 1.99 1.99
1.04 0.72 0.73 0.77 0.54 0.45 0.44 0.29 0.33 0.35 0.48 0.55 0.42 0.61 0.51 0.34 0.38 0.48 0.56 0.58 0.57 0.61 0.64 0.64 0.76 0.93 0.99 1.11 1.36 1.51 1.58 1.79 2.03 2.18 2.23 2.34 2.30 2.32 2.36 2.32 2.22 2.11 2.05 2.00
0.78 0.63 0.75 0.64 0.49 0.46 0.46 0.44 0.49 0.48 0.66 0.71 0.34 0.48 0.50 0.35 0.40 0.44 0.45 0.52 0.57 0.63 0.71 0.75 0.85 0.93 0.97 1.04 1.23 1.45 1.46 1.55 1.71 1.95 2.17 2.22 2.15 2.16 2.21 2.19 2.12 2.09 2.07 2.04
1.02 0.77 0.63 0.56 0.67 0.61 0.57 0.72 1.02 1.05 0.95 0.53 0.24 0.37 0.48 0.35 0.37 0.39 0.40 0.45 0.51 0.60 0.67 0.76 0.84 0.85 0.89 0.97 1.09 1.27 1.37 1.44 1.53 1.69 1.88 2.06 2.12 2.11 2.13 2.14 2.08 1.97 1.88 1.79
1.01 1.04 0.65 0.54 0.64 0.68 0.53 0.56 0.73 0.71 0.44 0.28 0.24 0.36 0.42 0.35 0.31 0.28 0.28 0.35 0.44 0.51 0.54 0.59 0.70 0.78 0.87 0.93 0.98 1.03 1.09 1.16 1.23 1.31 1.44 1.62 1.84 1.92 1.86 1.88 1.86 1.81 1.73 1.69
0.64 0.67 0.42 0.36 0.39 0.44 0.57 0.51 0.37 0.59 0.45 0.38 0.28 0.29 0.31 0.27 0.27 0.26 0.28 0.35 0.44 0.51 0.56 0.56 0.62 0.67 0.76 0.86 0.94 0.92 0.91 0.97 1.06 1.09 1.16 1.25 1.45 1.59 1.64 1.68 1.64 1.55 1.52 1.56
0.40 0.48 0.36 0.31 0.40 0.41 0.41 0.40 0.51 0.85 0.73 0.51 0.30 0.28 0.40 0.33 0.27 0.29 0.35 0.39 0.47 0.57 0.55 0.53 0.58 0.61 0.65 0.74 0.85 0.86 0.85 0.86 0.99 1.04 1.05 1.09 1.17 1.27 1.42 1.51 1.42 1.37 1.37 1.39
0.32 0.45 0.42 0.38 0.41 0.35 0.31 0.42 0.49 0.59 0.56 0.55 0.37 0.38 0.44 0.39 0.34 0.34 0.37 0.42 0.52 0.56 0.57 0.58 0.61 0.63 0.67 0.74 0.77 0.77 0.83 0.86 0.96 0.99 0.95 0.93 0.98 1.04 1.10 1.19 1.21 1.18 1.21 1.20
0.24 0.38 0.40 0.28 0.19 0.18 0.27 0.29 0.40 0.67 0.51 0.40 0.42 0.45 0.38 0.34 0.33 0.33 0.35 0.41 0.47 0.48 0.53 0.56 0.57 0.60 0.66 0.71 0.70 0.66 0.72 0.78 0.88 0.91 0.85 0.83 0.86 0.92 0.95 0.97 1.02 1.02 1.04 1.06
0.34 0.50 0.54 0.43 0.36 0.35 0.40 0.29 0.31 0.51 0.69 0.52 0.50 0.49 0.37 0.30 0.29 0.31 0.35 0.39 0.39 0.38 0.39 0.41 0.43 0.46 0.50 0.52 0.55 0.60 0.61 0.59 0.65 0.69 0.66 0.64 0.66 0.72 0.79 0.82 0.82 0.84 0.90 0.93
0.60 0.58 0.48 0.47 0.43 0.52 0.50 0.28 0.27 0.68 0.89 0.45 0.32 0.38 0.34 0.32 0.36 0.37 0.38 0.37 0.32 0.31 0.30 0.33 0.34 0.34 0.38 0.41 0.45 0.50 0.48 0.48 0.55 0.56 0.54 0.54 0.54 0.56 0.61 0.66 0.66 0.66 0.71 0.76
0.54 0.54 0.31 0.31 0.35 0.51 0.47 0.31 0.28 0.46 0.42 0.44 0.29 0.28 0.33 0.36 0.43 0.43 0.40 0.34 0.26 0.24 0.25 0.28 0.29 0.30 0.34 0.36 0.39 0.42 0.45 0.51 0.57 0.59 0.58 0.54 0.51 0.51 0.54 0.59 0.60 0.58 0.59 0.59
0.48 0.53 0.37 0.35 0.31 0.42 0.37 0.22 0.20 0.22 0.21 0.24 0.21 0.28 0.29 0.33 0.39 0.42 0.41 0.31 0.23 0.21 0.21 0.22 0.23 0.25 0.29 0.34 0.39 0.43 0.49 0.58 0.62 0.64 0.61 0.58 0.53 0.50 0.47 0.48 0.49 0.49 0.50 0.51
0.50 0.64 0.78 0.59 0.29 0.38 0.37 0.24 0.22 0.22 0.21 0.22 0.28 0.29 0.25 0.31 0.37 0.37 0.32 0.23 0.19 0.18 0.18 0.19 0.20 0.23 0.26 0.36 0.44 0.51 0.56 0.64 0.66 0.68 0.63 0.57 0.53 0.50 0.46 0.43 0.44 0.46 0.48 0.50
0.37 0.61 0.95 0.80 0.51 0.55 0.38 0.26 0.24 0.24 0.23 0.21 0.22 0.20 0.20 0.25 0.28 0.26 0.20 0.17 0.15 0.13 0.13 0.14 0.16 0.18 0.20 0.27 0.38 0.46 0.53 0.66 0.69 0.69 0.68 0.66 0.64 0.64 0.65 0.65 0.66 0.65 0.63 0.65
0.18 0.49 0.83 0.74 0.56 0.32 0.18 0.16 0.22 0.29 0.28 0.20 0.17 0.15 0.13 0.15 0.21 0.25 0.20 0.18 0.16 0.14 0.12 0.12 0.12 0.14 0.14 0.18 0.27 0.36 0.48 0.64 0.77 0.84 0.84 0.85 0.88 0.93 0.96 0.97 0.97 0.96 0.96 0.95
0.14 0.34 0.73 0.70 0.58 0.31 0.19 0.09 0.10 0.18 0.32 0.16 0.12 0.12 0.11 0.12 0.22 0.29 0.26 0.22 0.20 0.18 0.16 0.15 0.14 0.16 0.18 0.21 0.28 0.42 0.59 0.74 0.84 0.89 0.94 0.98 1.05 1.11 1.07 1.05 1.02 0.96 0.91 0.90
0.27 0.45 0.64 0.60 0.56 0.31 0.19 0.09 0.07 0.27 0.38 0.16 0.13 0.14 0.14 0.18 0.24 0.22 0.21 0.23 0.23 0.23 0.26 0.27 0.28 0.30 0.31 0.33 0.41 0.56 0.67 0.77 0.81 0.83 0.85 0.88 0.89 0.91 0.88 0.85 0.81 0.77 0.72 0.67
0.26 0.37 0.40 0.43 0.58 0.45 0.23 0.15 0.27 0.38 0.23 0.17 0.14 0.14 0.15 0.16 0.15 0.14 0.13 0.16 0.19 0.22 0.29 0.36 0.42 0.44 0.45 0.47 0.53 0.61 0.63 0.63 0.61 0.59 0.59 0.58 0.54 0.51 0.52 0.53 0.53 0.51 0.50 0.47
0.31 0.40 0.42 0.44 0.51 0.42 0.30 0.32 0.34 0.27 0.22 0.16 0.15 0.14 0.13 0.13 0.14 0.12 0.10 0.10 0.12 0.12 0.15 0.19 0.26 0.30 0.31 0.31 0.34 0.38 0.34 0.30 0.27 0.24 0.25 0.26 0.25 0.25 0.27 0.29 0.30 0.31 0.33 0.34
0.29 0.25 0.30 0.37 0.37 0.29 0.26 0.25 0.25 0.22 0.21 0.19 0.17 0.16 0.15 0.16 0.15 0.14 0.11 0.10 0.10 0.09 0.10 0.11 0.11 0.12 0.12 0.13 0.14 0.16 0.14 0.11 0.10 0.11 0.12 0.14 0.17 0.20 0.22 0.25 0.27 0.28 0.28 0.28
0.25 0.24 0.28 0.33 0.28 0.24 0.20 0.19 0.19 0.18 0.16 0.15 0.14 0.14 0.15 0.16 0.17 0.15 0.14 0.13 0.12 0.12 0.12 0.12 0.11 0.11 0.11 0.11 0.11 0.11 0.11 0.10 0.10 0.11 0.12 0.13 0.16 0.19 0.20 0.22 0.26 0.30 0.30 0.31
0.23 0.29 0.37 0.37 0.26 0.27 0.23 0.17 0.15 0.15 0.14 0.14 0.15 0.16 0.17 0.17 0.19 0.17 0.16 0.16 0.15 0.15 0.14 0.13 0.14 0.14 0.16 0.16 0.17 0.17 0.17 0.16 0.15 0.16 0.16 0.19 0.20 0.21 0.22 0.23 0.24 0.27 0.31 0.34

GEFSCGP_prec_meanprecacc_234.txt.gz
Total_Precipitation_Accumulation
1.95 1.83 1.36 0.80 0.64 0.47 0.40 0.41 0.41 0.36 0.40 0.49 0.50 0.49 0.54 0.56 0.58 0.63 0.65 0.61 0.60 0.73 1.02 1.14 1.21 1.49 1.74 1.92 2.10 2.25 2.35 2.42 2.64 2.80 2.78 2.69 2.52 2.29 2.18 2.15 2.03 1.89 1.81 1.88
1.69 1.28 0.77 0.58 0.58 0.55 0.50 0.49 0.47 0.40 0.37 0.48 0.50 0.48 0.45 0.44 0.54 0.66 0.66 0.67 0.69 0.72 0.88 1.01 1.07 1.20 1.42 1.65 1.90 2.15 2.27 2.36 2.36 2.41 2.63 2.78 2.84 2.66 2.36 2.19 2.09 1.99 1.90 1.90
1.26 0.79 0.61 0.69 0.67 0.65 0.54 0.46 0.41 0.42 0.43 0.49 0.48 0.50 0.42 0.42 0.49 0.56 0.60 0.63 0.63 0.64 0.73 0.83 0.93 1.13 1.27 1.41 1.67 1.99 2.17 2.31 2.32 2.34 2.59 2.81 2.98 2.82 2.48 2.11 1.94 1.94 1.96 1.97
1.11 0.69 0.66 0.77 0.63 0.55 0.52 0.31 0.30 0.34 0.52 0.60 0.52 0.69 0.47 0.45 0.48 0.52 0.58 0.57 0.56 0.57 0.62 0.68 0.81 0.98 1.10 1.26 1.45 1.63 1.85 2.04 2.24 2.33 2.39 2.42 2.52 2.52 2.26 2.13 2.03 2.01 2.01 2.01
1.04 0.73 0.74 0.77 0.54 0.45 0.45 0.29 0.33 0.36 0.49 0.58 0.45 0.64 0.53 0.36 0.41 0.52 0.60 0.59 0.58 0.62 0.65 0.65 0.78 0.96 1.02 1.12 1.37 1.51 1.59 1.80 2.03 2.19 2.24 2.37 2.34 2.35 2.39 2.34 2.24 2.14 2.07 2.02
0.78 0.64 0.75 0.64 0.49 0.47 0.47 0.45 0.49 0.49 0.68 0.75 0.37 0.50 0.52 0.38 0.44 0.49 0.49 0.54 0.59 0.65 0.72 0.76 0.86 0.97 1.00 1.06 1.24 1.45 1.46 1.55 1.72 1.97 2.19 2.24 2.18 2.19 2.23 2.20 2.14 2.11 2.09 2.06
1.02 0.77 0.64 0.57 0.67 0.61 0.59 0.75 1.04 1.08 0.99 0.55 0.26 0.39 0.52 0.38 0.40 0.44 0.45 0.48 0.54 0.63 0.68 0.76 0.86 0.87 0.92 1.01 1.12 1.29 1.38 1.46 1.54 1.71 1.90 2.08 2.15 2.14 2.14 2.15 2.10 1.99 1.90 1.81
1.01 1.05 0.66 0.56 0.65 0.68 0.55 0.59 0.76 0.74 0.46 0.30 0.24 0.38 0.45 0.38 0.34 0.31 0.32 0.38 0.46 0.53 0.56 0.60 0.71 0.80 0.89 0.97 1.01 1.05 1.11 1.18 1.25 1.33 1.46 1.65 1.87 1.94 1.88 1.90 1.88 1.83 1.74 1.71
0.65 0.67 0.42 0.37 0.39 0.45 0.59 0.54 0.39 0.62 0.46 0.39 0.30 0.30 0.33 0.28 0.29 0.28 0.31 0.37 0.46 0.53 0.57 0.58 0.64 0.68 0.77 0.88 0.98 0.96 0.95 0.99 1.08 1.11 1.18 1.28 1.48 1.62 1.66 1.70 1.66 1.57 1.54 1.58
0.41 0.49 0.36 0.32 0.41 0.42 0.43 0.42 0.53 0.88 0.76 0.53 0.31 0.29 0.43 0.35 0.28 0.31 0.37 0.41 0.49 0.60 0.58 0.55 0.60 0.62 0.67 0.76 0.87 0.89 0.89 0.90 1.03 1.07 1.08 1.12 1.20 1.30 1.45 1.54 1.44 1.38 1.38 1.40
0.33 0.46 0.43 0.39 0.42 0.37 0.33 0.45 0.52 0.62 0.58 0.58 0.39 0.40 0.46 0.41 0.35 0.35 0.38 0.44 0.54 0.59 0.59 0.61 0.64 0.64 0.68 0.76 0.78 0.80 0.86 0.89 0.99 1.03 0.99 0.97 1.01 1.06 1.13 1.21 1.24 1.20 1.22 1.22
0.25 0.40 0.41 0.29 0.20 0.19 0.28 0.32 0.42 0.70 0.53 0.43 0.44 0.48 0.41 0.36 0.35 0.35 0.36 0.42 0.49 0.50 0.54 0.57 0.58 0.61 0.67 0.73 0.72 0.69 0.75 0.81 0.92 0.95 0.88 0.86 0.89 0.94 0.97 0.99 1.04 1.05 1.07 1.08
0.37 0.53 0.56 0.44 0.39 0.37 0.41 0.30 0.32 0.53 0.71 0.54 0.53 0.53 0.38 0.31 0.31 0.33 0.36 0.40 0.40 0.39 0.40 0.42 0.44 0.47 0.51 0.53 0.56 0.62 0.64 0.63 0.69 0.72 0.68 0.67 0.68 0.73 0.81 0.84 0.83 0.86 0.92 0.95
0.62 0.60 0.50 0.50 0.46 0.54 0.51 0.29 0.27 0.69 0.91 0.47 0.34 0.40 0.35 0.33 0.37 0.39 0.39 0.39 0.34 0.32 0.31 0.33 0.35 0.35 0.40 0.43 0.46 0.52 0.52 0.52 0.58 0.59 0.56 0.56 0.57 0.58 0.63 0.68 0.67 0.67 0.71 0.77
0.56 0.56 0.32 0.32 0.35 0.52 0.48 0.31 0.29 0.47 0.44 0.46 0.30 0.30 0.35 0.38 0.45 0.45 0.42 0.35 0.28 0.26 0.26 0.29 0.31 0.32 0.35 0.38 0.41 0.45 0.48 0.54 0.60 0.62 0.61 0.56 0.53 0.53 0.56 0.61 0.62 0.60 0.60 0.60
0.50 0.55 0.38 0.36 0.32 0.43 0.37 0.22 0.21 0.23 0.22 0.25 0.22 0.30 0.31 0.35 0.40 0.43 0.42 0.33 0.24 0.22 0.22 0.23 0.25 0.27 0.30 0.36 0.42 0.47 0.52 0.62 0.66 0.68 0.64 0.60 0.55 0.52 0.49 0.49 0.50 0.50 0.51 0.52
0.52 0.66 0.80 0.60 0.30 0.39 0.39 0.26 0.24 0.23 0.22 0.23 0.30 0.30 0.26 0.32 0.39 0.39 0.34 0.25 0.21 0.20 0.20 0.21 0.22 0.25 0.28 0.38 0.47 0.55 0.60 0.68 0.70 0.72 0.66 0.60 0.55 0.51 0.47 0.44 0.45 0.47 0.49 0.51
0.39 0.63 0.98 0.83 0.53 0.58 0.41 0.28 0.26 0.26 0.24 0.22 0.23 0.21 0.21 0.27 0.30 0.28 0.22 0.19 0.17 0.16 0.16 0.17 0.18 0.20 0.22 0.28 0.40 0.49 0.57 0.69 0.73 0.73 0.72 0.69 0.67 0.66 0.67 0.66 0.66 0.66 0.64 0.66
0.19 0.51 0.86 0.77 0.59 0.34 0.20 0.17 0.24 0.31 0.29 0.21 0.18 0.16 0.14 0.16 0.23 0.27 0.22 0.20 0.19 0.16 0.15 0.15 0.15 0.16 0.16 0.20 0.29 0.38 0.51 0.67 0.81 0.88 0.88 0.89 0.92 0.96 0.99 1.00 0.99 0.98 0.97 0.96
0.15 0.35 0.76 0.73 0.61 0.33 0.20 0.10 0.11 0.20 0.35 0.17 0.12 0.13 0.12 0.13 0.24 0.31 0.28 0.23 0.21 0.20 0.19 0.17 0.17 0.18 0.20 0.24 0.30 0.44 0.62 0.78 0.89 0.94 0.98 1.02 1.09 1.15 1.11 1.08 1.04 0.98 0.93 0.92
0.27 0.46 0.66 0.63 0.59 0.33 0.21 0.10 0.08 0.29 0.42 0.18 0.14 0.15 0.15 0.19 0.26 0.23 0.22 0.24 0.24 0.25 0.27 0.29 0.29 0.31 0.33 0.36 0.44 0.59 0.70 0.81 0.86 0.87 0.89 0.92 0.93 0.95 0.92 0.88 0.83 0.79 0.74 0.68
0.27 0.38 0.42 0.45 0.61 0.47 0.24 0.16 0.29 0.40 0.25 0.18 0.14 0.15 0.16 0.17 0.16 0.14 0.13 0.16 0.20 0.23 0.30 0.37 0.43 0.46 0.47 0.49 0.57 0.65 0.66 0.66 0.64 0.62 0.62 0.61 0.57 0.54 0.55 0.56 0.56 0.53 0.52 0.49
0.32 0.42 0.44 0.46 0.53 0.43 0.31 0.33 0.36 0.29 0.23 0.17 0.15 0.14 0.14 0.14 0.14 0.12 0.11 0.11 0.12 0.13 0.16 0.20 0.27 0.32 0.32 0.33 0.37 0.41 0.38 0.33 0.29 0.26 0.27 0.28 0.27 0.27 0.29 0.31 0.33 0.34 0.35 0.36
0.29 0.25 0.31 0.38 0.38 0.29 0.27 0.26 0.26 0.23 0.23 0.20 0.18 0.17 0.15 0.16 0.15 0.14 0.11 0.10 0.10 0.10 0.11 0.11 0.12 0.14 0.14 0.15 0.17 0.19 0.16 0.13 0.12 0.13 0.14 0.16 0.19 0.21 0.23 0.27 0.29 0.31 0.31 0.31
0.26 0.24 0.29 0.34 0.29 0.24 0.20 0.20 0.20 0.19 0.18 0.17 0.16 0.15 0.16 0.17 0.17 0.16 0.14 0.13 0.12 0.12 0.12 0.12 0.12 0.12 0.13 0.13 0.13 0.13 0.13 0.12 0.12 0.12 0.13 0.15 0.17 0.20 0.21 0.23 0.27 0.32 0.32 0.34
0.23 0.29 0.38 0.38 0.27 0.28 0.24 0.17 0.16 0.16 0.15 0.16 0.17 0.17 0.18 0.18 0.20 0.18 0.17 0.16 0.16 0.16 0.15 0.14 0.15 0.15 0.17 0.18 0.19 0.19 0.19 0.17 0.17 0.17 0.18 0.20 0.22 0.22 0.23 0.24 0.25 0.29 0.33 0.36

GEFSCGP_prec_meanprecacc_240.txt.gz
Total_Precipitation_Accumulation
1.97 1.85 1.38 0.81 0.65 0.48 0.40 0.42 0.42 0.36 0.40 0.49 0.52 0.52 0.57 0.58 0.61 0.65 0.67 0.63 0.62 0.75 1.04 1.16 1.23 1.50 1.76 1.93 2.11 2.26 2.36 2.45 2.68 2.85 2.83 2.71 2.54 2.30 2.21 2.19 2.09 1.97 1.88 1.93
1.72 1.29 0.78 0.59 0.58 0.55 0.50 0.49 0.47 0.40 0.37 0.49 0.51 0.50 0.48 0.47 0.58 0.69 0.68 0.70 0.72 0.74 0.91 1.03 1.10 1.22 1.44 1.66 1.91 2.16 2.28 2.37 2.38 2.44 2.66 2.81 2.86 2.67 2.38 2.22 2.14 2.04 1.96 1.96
1.28 0.79 0.61 0.70 0.67 0.66 0.54 0.46 0.41 0.42 0.43 0.50 0.50 0.52 0.44 0.44 0.51 0.59 0.64 0.67 0.66 0.70 0.78 0.86 0.96 1.15 1.28 1.42 1.67 1.99 2.17 2.31 2.33 2.35 2.61 2.83 2.99 2.83 2.49 2.14 1.97 1.98 2.00 2.01
1.12 0.70 0.67 0.78 0.64 0.55 0.53 0.32 0.30 0.35 0.53 0.61 0.53 0.71 0.48 0.46 0.49 0.56 0.63 0.61 0.59 0.63 0.66 0.70 0.82 1.00 1.12 1.28 1.45 1.63 1.85 2.04 2.24 2.33 2.40 2.44 2.55 2.55 2.29 2.16 2.06 2.05 2.05 2.05
1.05 0.73 0.74 0.78 0.54 0.46 0.45 0.29 0.34 0.37 0.50 0.59 0.46 0.65 0.54 0.36 0.42 0.55 0.65 0.64 0.61 0.65 0.67 0.67 0.80 0.98 1.03 1.14 1.38 1.51 1.59 1.80 2.04 2.20 2.25 2.38 2.36 2.39 2.44 2.39 2.28 2.17 2.11 2.05
0.79 0.64 0.75 0.65 0.49 0.47 0.47 0.45 0.50 0.49 0.69 0.76 0.37 0.51 0.54 0.40 0.46 0.51 0.52 0.56 0.61 0.67 0.74 0.78 0.89 0.98 1.01 1.06 1.24 1.46 1.47 1.56 1.72 1.97 2.19 2.25 2.20 2.24 2.28 2.27 2.19 2.15 2.13 2.09
1.02 0.77 0.64 0.57 0.67 0.61 0.59 0.75 1.06 1.10 1.00 0.57 0.26 0.40 0.55 0.41 0.43 0.46 0.47 0.50 0.56 0.64 0.69 0.78 0.87 0.88 0.93 1.02 1.13 1.30 1.39 1.47 1.55 1.72 1.92 2.09 2.18 2.19 2.20 2.21 2.15 2.03 1.93 1.84
1.01 1.05 0.66 0.56 0.66 0.69 0.55 0.60 0.78 0.76 0.47 0.31 0.25 0.40 0.48 0.40 0.36 0.32 0.33 0.39 0.47 0.55 0.57 0.61 0.72 0.80 0.89 0.98 1.03 1.08 1.13 1.19 1.27 1.36 1.49 1.67 1.92 2.03 1.95 1.96 1.93 1.88 1.78 1.74
0.66 0.67 0.42 0.37 0.40 0.45 0.59 0.55 0.41 0.65 0.48 0.40 0.31 0.32 0.34 0.29 0.29 0.29 0.31 0.38 0.47 0.55 0.58 0.58 0.65 0.69 0.77 0.89 1.00 0.99 0.98 1.02 1.11 1.14 1.22 1.34 1.55 1.71 1.74 1.77 1.71 1.62 1.58 1.61
0.42 0.49 0.36 0.32 0.41 0.43 0.43 0.43 0.54 0.92 0.78 0.55 0.32 0.30 0.45 0.36 0.29 0.31 0.37 0.42 0.50 0.60 0.59 0.56 0.60 0.63 0.67 0.76 0.88 0.92 0.93 0.94 1.06 1.10 1.12 1.19 1.29 1.39 1.54 1.62 1.50 1.44 1.43 1.44
0.34 0.48 0.44 0.40 0.44 0.38 0.34 0.46 0.54 0.64 0.62 0.61 0.40 0.42 0.48 0.42 0.37 0.36 0.39 0.45 0.55 0.59 0.60 0.61 0.64 0.65 0.68 0.76 0.79 0.81 0.88 0.92 1.02 1.06 1.01 1.01 1.08 1.14 1.22 1.29 1.32 1.26 1.26 1.25
0.27 0.42 0.42 0.30 0.21 0.20 0.30 0.33 0.44 0.73 0.56 0.44 0.45 0.50 0.42 0.37 0.36 0.36 0.37 0.43 0.50 0.50 0.55 0.58 0.59 0.61 0.67 0.73 0.73 0.70 0.76 0.83 0.94 0.97 0.91 0.89 0.93 0.99 1.04 1.06 1.12 1.12 1.10 1.10
0.39 0.55 0.58 0.46 0.40 0.38 0.42 0.31 0.33 0.55 0.73 0.55 0.54 0.55 0.39 0.31 0.31 0.33 0.36 0.41 0.40 0.40 0.41 0.42 0.45 0.48 0.51 0.54 0.57 0.63 0.65 0.65 0.71 0.74 0.71 0.70 0.71 0.77 0.85 0.88 0.89 0.93 0.97 0.98
0.64 0.62 0.53 0.52 0.48 0.56 0.52 0.29 0.28 0.70 0.93 0.48 0.35 0.41 0.36 0.33 0.38 0.39 0.39 0.39 0.34 0.33 0.32 0.35 0.37 0.37 0.41 0.44 0.47 0.53 0.52 0.53 0.60 0.61 0.59 0.60 0.60 0.61 0.66 0.71 0.71 0.72 0.78 0.82
0.57 0.57 0.33 0.34 0.37 0.53 0.49 0.32 0.30 0.48 0.45 0.47 0.31 0.31 0.36 0.38 0.46 0.46 0.42 0.36 0.28 0.26 0.27 0.30 0.32 0.34 0.38 0.40 0.43 0.45 0.49 0.55 0.62 0.65 0.64 0.60 0.59 0.58 0.59 0.64 0.65 0.63 0.64 0.64
0.50 0.56 0.39 0.37 0.33 0.44 0.38 0.23 0.21 0.24 0.24 0.27 0.23 0.31 0.32 0.36 0.41 0.44 0.43 0.33 0.25 0.23 0.24 0.25 0.27 0.29 0.33 0.39 0.44 0.48 0.54 0.63 0.67 0.71 0.67 0.65 0.60 0.57 0.53 0.53 0.53 0.54 0.55 0.56
0.52 0.67 0.81 0.61 0.31 0.41 0.40 0.27 0.25 0.25 0.24 0.25 0.31 0.32 0.27 0.33 0.40 0.40 0.35 0.26 0.22 0.21 0.21 0.22 0.24 0.27 0.30 0.40 0.49 0.56 0.62 0.70 0.72 0.74 0.69 0.64 0.60 0.56 0.52 0.49 0.48 0.51 0.53 0.56
0.40 0.64 0.99 0.84 0.53 0.59 0.42 0.29 0.27 0.27 0.26 0.23 0.25 0.22 0.22 0.28 0.32 0.29 0.24 0.21 0.18 0.17 0.17 0.19 0.20 0.22 0.24 0.31 0.42 0.51 0.59 0.72 0.75 0.76 0.76 0.73 0.71 0.71 0.72 0.70 0.71 0.71 0.68 0.70
0.19 0.52 0.88 0.79 0.60 0.35 0.20 0.18 0.25 0.32 0.31 0.23 0.19 0.17 0.14 0.17 0.24 0.28 0.23 0.21 0.20 0.18 0.17 0.16 0.17 0.18 0.19 0.22 0.31 0.40 0.53 0.70 0.83 0.91 0.93 0.94 0.97 1.01 1.04 1.04 1.03 1.02 1.02 1.01
0.15 0.36 0.78 0.75 0.63 0.34 0.21 0.10 0.12 0.21 0.36 0.18 0.13 0.14 0.13 0.14 0.24 0.32 0.28 0.24 0.22 0.21 0.20 0.19 0.18 0.20 0.22 0.26 0.32 0.46 0.64 0.80 0.92 0.98 1.02 1.07 1.14 1.20 1.17 1.14 1.10 1.02 0.98 0.97
0.28 0.47 0.68 0.64 0.61 0.34 0.22 0.10 0.08 0.30 0.44 0.19 0.15 0.16 0.16 0.20 0.27 0.24 0.23 0.25 0.25 0.26 0.28 0.29 0.30 0.33 0.35 0.37 0.45 0.62 0.73 0.85 0.90 0.91 0.93 0.97 0.97 0.99 0.97 0.94 0.89 0.83 0.79 0.74
0.27 0.39 0.43 0.45 0.62 0.48 0.25 0.17 0.30 0.42 0.26 0.19 0.15 0.15 0.17 0.18 0.16 0.15 0.14 0.17 0.21 0.23 0.30 0.38 0.44 0.47 0.48 0.51 0.58 0.67 0.69 0.70 0.68 0.67 0.67 0.66 0.61 0.58 0.59 0.61 0.60 0.57 0.57 0.54
0.32 0.43 0.45 0.47 0.54 0.44 0.32 0.35 0.37 0.30 0.24 0.18 0.16 0.15 0.14 0.14 0.14 0.13 0.11 0.11 0.12 0.13 0.16 0.20 0.28 0.32 0.33 0.34 0.39 0.43 0.40 0.35 0.32 0.29 0.31 0.32 0.31 0.31 0.32 0.35 0.37 0.38 0.40 0.41
0.30 0.26 0.32 0.39 0.39 0.30 0.28 0.27 0.27 0.24 0.24 0.21 0.18 0.17 0.15 0.17 0.16 0.14 0.12 0.11 0.10 0.10 0.11 0.12 0.13 0.14 0.15 0.16 0.18 0.20 0.18 0.15 0.14 0.15 0.16 0.19 0.21 0.24 0.26 0.30 0.32 0.34 0.34 0.35
0.26 0.25 0.30 0.35 0.30 0.25 0.21 0.21 0.21 0.21 0.19 0.18 0.17 0.16 0.17 0.17 0.18 0.16 0.15 0.14 0.13 0.13 0.13 0.13 0.13 0.13 0.14 0.13 0.14 0.14 0.15 0.13 0.13 0.14 0.15 0.16 0.19 0.22 0.24 0.26 0.30 0.36 0.36 0.38
0.24 0.30 0.39 0.39 0.28 0.30 0.25 0.18 0.17 0.17 0.17 0.18 0.19 0.20 0.20 0.19 0.21 0.18 0.18 0.17 0.17 0.17 0.15 0.15 0.15 0.16 0.18 0.19 0.20 0.20 0.20 0.19 0.18 0.19 0.19 0.21 0.23 0.24 0.24 0.26 0.27 0.31 0.36 0.39